﻿<?xml version="1.0" encoding="utf-8"?><gpx creator="Garmin Desktop App" version="1.1" xsi:schemaLocation="http://www.topografix.com/GPX/1/1 http://www.topografix.com/GPX/1/1/gpx.xsd http://www.garmin.com/xmlschemas/WaypointExtension/v1 http://www8.garmin.com/xmlschemas/WaypointExtensionv1.xsd http://www.garmin.com/xmlschemas/TrackPointExtension/v1 http://www.garmin.com/xmlschemas/TrackPointExtensionv1.xsd http://www.garmin.com/xmlschemas/GpxExtensions/v3 http://www8.garmin.com/xmlschemas/GpxExtensionsv3.xsd http://www.garmin.com/xmlschemas/ActivityExtension/v1 http://www8.garmin.com/xmlschemas/ActivityExtensionv1.xsd http://www.garmin.com/xmlschemas/AdventuresExtensions/v1 http://www8.garmin.com/xmlschemas/AdventuresExtensionv1.xsd http://www.garmin.com/xmlschemas/PressureExtension/v1 http://www.garmin.com/xmlschemas/PressureExtensionv1.xsd http://www.garmin.com/xmlschemas/TripExtensions/v1 http://www.garmin.com/xmlschemas/TripExtensionsv1.xsd http://www.garmin.com/xmlschemas/TripMetaDataExtensions/v1 http://www.garmin.com/xmlschemas/TripMetaDataExtensionsv1.xsd http://www.garmin.com/xmlschemas/ViaPointTransportationModeExtensions/v1 http://www.garmin.com/xmlschemas/ViaPointTransportationModeExtensionsv1.xsd http://www.garmin.com/xmlschemas/CreationTimeExtension/v1 http://www.garmin.com/xmlschemas/CreationTimeExtensionsv1.xsd http://www.garmin.com/xmlschemas/AccelerationExtension/v1 http://www.garmin.com/xmlschemas/AccelerationExtensionv1.xsd http://www.garmin.com/xmlschemas/PowerExtension/v1 http://www.garmin.com/xmlschemas/PowerExtensionv1.xsd http://www.garmin.com/xmlschemas/VideoExtension/v1 http://www.garmin.com/xmlschemas/VideoExtensionv1.xsd" xmlns="http://www.topografix.com/GPX/1/1" xmlns:xsi="http://www.w3.org/2001/XMLSchema-instance" xmlns:wptx1="http://www.garmin.com/xmlschemas/WaypointExtension/v1" xmlns:gpxtrx="http://www.garmin.com/xmlschemas/GpxExtensions/v3" xmlns:gpxtpx="http://www.garmin.com/xmlschemas/TrackPointExtension/v1" xmlns:gpxx="http://www.garmin.com/xmlschemas/GpxExtensions/v3" xmlns:trp="http://www.garmin.com/xmlschemas/TripExtensions/v1" xmlns:adv="http://www.garmin.com/xmlschemas/AdventuresExtensions/v1" xmlns:prs="http://www.garmin.com/xmlschemas/PressureExtension/v1" xmlns:tmd="http://www.garmin.com/xmlschemas/TripMetaDataExtensions/v1" xmlns:vptm="http://www.garmin.com/xmlschemas/ViaPointTransportationModeExtensions/v1" xmlns:ctx="http://www.garmin.com/xmlschemas/CreationTimeExtension/v1" xmlns:gpxacc="http://www.garmin.com/xmlschemas/AccelerationExtension/v1" xmlns:gpxpx="http://www.garmin.com/xmlschemas/PowerExtension/v1" xmlns:vidx1="http://www.garmin.com/xmlschemas/VideoExtension/v1">

  <metadata>
    <link href="http://www.garmin.com">
      <text>Garmin International</text>
    </link>
    <time>2017-10-29T23:51:57Z</time>
    <bounds maxlat="52.056420017033815" maxlon="9.120367029681802" minlat="50.065450966358185" minlon="8.469257019460201" />
  </metadata>

  <trk>
    <name>Track vom: 2017-10-29 16:08</name>
    <extensions>
      <gpxx:TrackExtension>
        <gpxx:DisplayColor>DarkGray</gpxx:DisplayColor>
      </gpxx:TrackExtension>
    </extensions>
    <trkseg>
      <trkpt lat="50.068410029634833" lon="8.478212999179959">
        <ele>103.48</ele>
        <time>2017-10-29T15:08:21Z</time>
      </trkpt>
      <trkpt lat="50.068415980786085" lon="8.478211993351579">
        <ele>103</ele>
        <time>2017-10-29T15:09:04Z</time>
      </trkpt>
      <trkpt lat="50.06842402741313" lon="8.478207970038056">
        <ele>103</ele>
        <time>2017-10-29T15:09:55Z</time>
      </trkpt>
      <trkpt lat="50.068445987999439" lon="8.478245018050075">
        <ele>101.56</ele>
        <time>2017-10-29T15:10:35Z</time>
      </trkpt>
      <trkpt lat="50.068502984941006" lon="8.478211993351579">
        <ele>101.08</ele>
        <time>2017-10-29T15:10:37Z</time>
      </trkpt>
      <trkpt lat="50.068393014371395" lon="8.478292040526867">
        <ele>101.08</ele>
        <time>2017-10-29T15:10:38Z</time>
      </trkpt>
      <trkpt lat="50.068282959982753" lon="8.478467976674438">
        <ele>100.59999999999999</ele>
        <time>2017-10-29T15:10:41Z</time>
      </trkpt>
      <trkpt lat="50.06825203076005" lon="8.478518016636372">
        <ele>100.11</ele>
        <time>2017-10-29T15:10:42Z</time>
      </trkpt>
      <trkpt lat="50.068230992183089" lon="8.478551041334868">
        <ele>99.629999999999995</ele>
        <time>2017-10-29T15:10:43Z</time>
      </trkpt>
      <trkpt lat="50.068215988576412" lon="8.478576019406319">
        <ele>99.150000000000006</ele>
        <time>2017-10-29T15:10:44Z</time>
      </trkpt>
      <trkpt lat="50.068127978593111" lon="8.478616001084447">
        <ele>98.670000000000002</ele>
        <time>2017-10-29T15:10:45Z</time>
      </trkpt>
      <trkpt lat="50.068109035491943" lon="8.478568978607655">
        <ele>98.189999999999998</ele>
        <time>2017-10-29T15:10:46Z</time>
      </trkpt>
      <trkpt lat="50.068078022450209" lon="8.478493960574269">
        <ele>97.709999999999994</ele>
        <time>2017-10-29T15:10:47Z</time>
      </trkpt>
      <trkpt lat="50.0680370349437" lon="8.478392036631703">
        <ele>97.230000000000004</ele>
        <time>2017-10-29T15:10:48Z</time>
      </trkpt>
      <trkpt lat="50.067993029952049" lon="8.478282988071442">
        <ele>97.230000000000004</ele>
        <time>2017-10-29T15:10:49Z</time>
      </trkpt>
      <trkpt lat="50.067580975592136" lon="8.4772680234164">
        <ele>95.790000000000006</ele>
        <time>2017-10-29T15:10:57Z</time>
      </trkpt>
      <trkpt lat="50.067118965089321" lon="8.476189021021128">
        <ele>96.75</ele>
        <time>2017-10-29T15:11:07Z</time>
      </trkpt>
      <trkpt lat="50.067086024209857" lon="8.476119032129645">
        <ele>96.269999999999996</ele>
        <time>2017-10-29T15:11:08Z</time>
      </trkpt>
      <trkpt lat="50.067044030874968" lon="8.476034039631486">
        <ele>96.269999999999996</ele>
        <time>2017-10-29T15:11:09Z</time>
      </trkpt>
      <trkpt lat="50.066987033933401" lon="8.475933959707618">
        <ele>96.269999999999996</ele>
        <time>2017-10-29T15:11:10Z</time>
      </trkpt>
      <trkpt lat="50.06692199036479" lon="8.475818959996104">
        <ele>96.75</ele>
        <time>2017-10-29T15:11:11Z</time>
      </trkpt>
      <trkpt lat="50.066716969013214" lon="8.475459041073918">
        <ele>96.75</ele>
        <time>2017-10-29T15:11:14Z</time>
      </trkpt>
      <trkpt lat="50.066662989556789" lon="8.475363990291953">
        <ele>97.230000000000004</ele>
        <time>2017-10-29T15:11:15Z</time>
      </trkpt>
      <trkpt lat="50.066616972908378" lon="8.475283021107316">
        <ele>96.75</ele>
        <time>2017-10-29T15:11:16Z</time>
      </trkpt>
      <trkpt lat="50.066536003723741" lon="8.47514103166759">
        <ele>96.75</ele>
        <time>2017-10-29T15:11:18Z</time>
      </trkpt>
      <trkpt lat="50.06655503064394" lon="8.47492796368897">
        <ele>96.75</ele>
        <time>2017-10-29T15:11:20Z</time>
      </trkpt>
      <trkpt lat="50.066542960703373" lon="8.474879013374448">
        <ele>97.709999999999994</ele>
        <time>2017-10-29T15:11:21Z</time>
      </trkpt>
      <trkpt lat="50.066388985142112" lon="8.474843977019191">
        <ele>98.189999999999998</ele>
        <time>2017-10-29T15:11:22Z</time>
      </trkpt>
      <trkpt lat="50.066358977928758" lon="8.474744986742735">
        <ele>98.670000000000002</ele>
        <time>2017-10-29T15:11:23Z</time>
      </trkpt>
      <trkpt lat="50.06625697016716" lon="8.474405016750097">
        <ele>99.150000000000006</ele>
        <time>2017-10-29T15:11:26Z</time>
      </trkpt>
      <trkpt lat="50.066005010157824" lon="8.473562970757484">
        <ele>101.56</ele>
        <time>2017-10-29T15:11:34Z</time>
      </trkpt>
      <trkpt lat="50.065972991287708" lon="8.473458029329777">
        <ele>102.04000000000001</ele>
        <time>2017-10-29T15:11:36Z</time>
      </trkpt>
      <trkpt lat="50.065971985459328" lon="8.473456017673016">
        <ele>103</ele>
        <time>2017-10-29T15:11:46Z</time>
      </trkpt>
      <trkpt lat="50.065839970484376" lon="8.47301596775651">
        <ele>104.92</ele>
        <time>2017-10-29T15:11:58Z</time>
      </trkpt>
      <trkpt lat="50.065450966358185" lon="8.471580985933542">
        <ele>104.92</ele>
        <time>2017-10-29T15:12:07Z</time>
      </trkpt>
      <trkpt lat="50.065458007156849" lon="8.471421981230378">
        <ele>104.92</ele>
        <time>2017-10-29T15:12:08Z</time>
      </trkpt>
      <trkpt lat="50.065465969964862" lon="8.471300024539232">
        <ele>104.92</ele>
        <time>2017-10-29T15:12:09Z</time>
      </trkpt>
      <trkpt lat="50.065483991056681" lon="8.471185024827719">
        <ele>104.92</ele>
        <time>2017-10-29T15:12:10Z</time>
      </trkpt>
      <trkpt lat="50.065517015755177" lon="8.471073964610696">
        <ele>104.92</ele>
        <time>2017-10-29T15:12:11Z</time>
      </trkpt>
      <trkpt lat="50.065578036010265" lon="8.470867015421391">
        <ele>104.92</ele>
        <time>2017-10-29T15:12:12Z</time>
      </trkpt>
      <trkpt lat="50.065640984103084" lon="8.470814041793346">
        <ele>105.40000000000001</ele>
        <time>2017-10-29T15:12:13Z</time>
      </trkpt>
      <trkpt lat="50.065739974379539" lon="8.470731982961297">
        <ele>105.88</ele>
        <time>2017-10-29T15:12:14Z</time>
      </trkpt>
      <trkpt lat="50.066824005916715" lon="8.469874011352658">
        <ele>108.77</ele>
        <time>2017-10-29T15:12:23Z</time>
      </trkpt>
      <trkpt lat="50.067616011947393" lon="8.469257019460201">
        <ele>112.13</ele>
        <time>2017-10-29T15:12:30Z</time>
      </trkpt>
      <trkpt lat="50.067750960588455" lon="8.469316028058529">
        <ele>112.61</ele>
        <time>2017-10-29T15:12:31Z</time>
      </trkpt>
      <trkpt lat="50.067822961136699" lon="8.469347963109613">
        <ele>113.09</ele>
        <time>2017-10-29T15:12:32Z</time>
      </trkpt>
      <trkpt lat="50.067897979170084" lon="8.469380987808108">
        <ele>113.09</ele>
        <time>2017-10-29T15:12:33Z</time>
      </trkpt>
      <trkpt lat="50.067981965839863" lon="8.469471009448171">
        <ele>113.56999999999999</ele>
        <time>2017-10-29T15:12:34Z</time>
      </trkpt>
      <trkpt lat="50.068029994145036" lon="8.469606041908264">
        <ele>113.56999999999999</ele>
        <time>2017-10-29T15:12:35Z</time>
      </trkpt>
      <trkpt lat="50.06808296777308" lon="8.469756999984384">
        <ele>113.56999999999999</ele>
        <time>2017-10-29T15:12:36Z</time>
      </trkpt>
      <trkpt lat="50.068140970543027" lon="8.46992296166718">
        <ele>113.56999999999999</ele>
        <time>2017-10-29T15:12:37Z</time>
      </trkpt>
      <trkpt lat="50.068202996626496" lon="8.470096969977021">
        <ele>113.56999999999999</ele>
        <time>2017-10-29T15:12:38Z</time>
      </trkpt>
      <trkpt lat="50.068300981074572" lon="8.470230996608734">
        <ele>113.56999999999999</ele>
        <time>2017-10-29T15:12:39Z</time>
      </trkpt>
      <trkpt lat="50.068396031856537" lon="8.470337027683854">
        <ele>113.09</ele>
        <time>2017-10-29T15:12:40Z</time>
      </trkpt>
      <trkpt lat="50.068515976890922" lon="8.470368962734938">
        <ele>112.61</ele>
        <time>2017-10-29T15:12:41Z</time>
      </trkpt>
      <trkpt lat="50.068637011572719" lon="8.470388995483518">
        <ele>112.13</ele>
        <time>2017-10-29T15:12:42Z</time>
      </trkpt>
      <trkpt lat="50.068755028769374" lon="8.470358988270164">
        <ele>111.65000000000001</ele>
        <time>2017-10-29T15:12:43Z</time>
      </trkpt>
      <trkpt lat="50.068872040137649" lon="8.470311965793371">
        <ele>111.17</ele>
        <time>2017-10-29T15:12:44Z</time>
      </trkpt>
      <trkpt lat="50.068987961858511" lon="8.47026402130723">
        <ele>110.69</ele>
        <time>2017-10-29T15:12:45Z</time>
      </trkpt>
      <trkpt lat="50.069104973226786" lon="8.470216998830438">
        <ele>110.20999999999999</ele>
        <time>2017-10-29T15:12:46Z</time>
      </trkpt>
      <trkpt lat="50.069226007908583" lon="8.470166958868504">
        <ele>109.25</ele>
        <time>2017-10-29T15:12:47Z</time>
      </trkpt>
      <trkpt lat="50.069360034540296" lon="8.470192020758987">
        <ele>108.77</ele>
        <time>2017-10-29T15:12:48Z</time>
      </trkpt>
      <trkpt lat="50.069491965696216" lon="8.470229990780354">
        <ele>107.81</ele>
        <time>2017-10-29T15:12:49Z</time>
      </trkpt>
      <trkpt lat="50.069625992327929" lon="8.470268966630101">
        <ele>106.84</ele>
        <time>2017-10-29T15:12:50Z</time>
      </trkpt>
      <trkpt lat="50.069789020344615" lon="8.47035001963377">
        <ele>105.88</ele>
        <time>2017-10-29T15:12:51Z</time>
      </trkpt>
      <trkpt lat="50.069895973429084" lon="8.470513969659805">
        <ele>104.92</ele>
        <time>2017-10-29T15:12:52Z</time>
      </trkpt>
      <trkpt lat="50.070008961483836" lon="8.470688983798027">
        <ele>104.44</ele>
        <time>2017-10-29T15:12:53Z</time>
      </trkpt>
      <trkpt lat="50.070127984508872" lon="8.470871960744262">
        <ele>103.95999999999999</ele>
        <time>2017-10-29T15:12:54Z</time>
      </trkpt>
      <trkpt lat="50.071416031569242" lon="8.472839025780559">
        <ele>103</ele>
        <time>2017-10-29T15:13:03Z</time>
      </trkpt>
      <trkpt lat="50.073634972795844" lon="8.476029010489583">
        <ele>101.56</ele>
        <time>2017-10-29T15:13:16Z</time>
      </trkpt>
      <trkpt lat="50.075468011200428" lon="8.478453978896141">
        <ele>101.56</ele>
        <time>2017-10-29T15:13:27Z</time>
      </trkpt>
      <trkpt lat="50.077207004651427" lon="8.480763025581837">
        <ele>103</ele>
        <time>2017-10-29T15:13:39Z</time>
      </trkpt>
      <trkpt lat="50.079454025253654" lon="8.483827030286193">
        <ele>104.92</ele>
        <time>2017-10-29T15:13:54Z</time>
      </trkpt>
      <trkpt lat="50.081072989851236" lon="8.485632995143533">
        <ele>104.92</ele>
        <time>2017-10-29T15:14:04Z</time>
      </trkpt>
      <trkpt lat="50.082557005807757" lon="8.486468000337482">
        <ele>107.81</ele>
        <time>2017-10-29T15:14:12Z</time>
      </trkpt>
      <trkpt lat="50.084157027304173" lon="8.48657201975584">
        <ele>108.77</ele>
        <time>2017-10-29T15:14:20Z</time>
      </trkpt>
      <trkpt lat="50.084983985871077" lon="8.486368004232645">
        <ele>109.73</ele>
        <time>2017-10-29T15:14:26Z</time>
      </trkpt>
      <trkpt lat="50.086029041558504" lon="8.48601303063333">
        <ele>110.20999999999999</ele>
        <time>2017-10-29T15:14:34Z</time>
      </trkpt>
      <trkpt lat="50.087831988930702" lon="8.485376005992293">
        <ele>110.20999999999999</ele>
        <time>2017-10-29T15:14:44Z</time>
      </trkpt>
      <trkpt lat="50.090067023411393" lon="8.484576037153602">
        <ele>108.77</ele>
        <time>2017-10-29T15:14:54Z</time>
      </trkpt>
      <trkpt lat="50.092989960685372" lon="8.483609016984701">
        <ele>107.81</ele>
        <time>2017-10-29T15:15:05Z</time>
      </trkpt>
      <trkpt lat="50.094744963571429" lon="8.483572974801064">
        <ele>107.31999999999999</ele>
        <time>2017-10-29T15:15:11Z</time>
      </trkpt>
      <trkpt lat="50.096426038071513" lon="8.484462965279818">
        <ele>105.40000000000001</ele>
        <time>2017-10-29T15:15:17Z</time>
      </trkpt>
      <trkpt lat="50.096673974767327" lon="8.484710985794663">
        <ele>104.92</ele>
        <time>2017-10-29T15:15:18Z</time>
      </trkpt>
      <trkpt lat="50.096930041909218" lon="8.484966969117522">
        <ele>104.44</ele>
        <time>2017-10-29T15:15:19Z</time>
      </trkpt>
      <trkpt lat="50.09717202745378" lon="8.485253965482116">
        <ele>104.44</ele>
        <time>2017-10-29T15:15:20Z</time>
      </trkpt>
      <trkpt lat="50.09740998968482" lon="8.485558982938528">
        <ele>104.44</ele>
        <time>2017-10-29T15:15:21Z</time>
      </trkpt>
      <trkpt lat="50.097649041563272" lon="8.485865006223321">
        <ele>104.44</ele>
        <time>2017-10-29T15:15:22Z</time>
      </trkpt>
      <trkpt lat="50.098647996783257" lon="8.487869035452604">
        <ele>105.40000000000001</ele>
        <time>2017-10-29T15:15:27Z</time>
      </trkpt>
      <trkpt lat="50.100454967468977" lon="8.4927390050143">
        <ele>108.77</ele>
        <time>2017-10-29T15:15:38Z</time>
      </trkpt>
      <trkpt lat="50.102695031091571" lon="8.498830972239375">
        <ele>111.17</ele>
        <time>2017-10-29T15:15:52Z</time>
      </trkpt>
      <trkpt lat="50.104251969605684" lon="8.503079004585743">
        <ele>110.20999999999999</ele>
        <time>2017-10-29T15:16:02Z</time>
      </trkpt>
      <trkpt lat="50.105855008587241" lon="8.50754102692008">
        <ele>108.77</ele>
        <time>2017-10-29T15:16:13Z</time>
      </trkpt>
      <trkpt lat="50.107873035594821" lon="8.513082973659039">
        <ele>110.20999999999999</ele>
        <time>2017-10-29T15:16:27Z</time>
      </trkpt>
      <trkpt lat="50.109453024342656" lon="8.517381967976689">
        <ele>112.61</ele>
        <time>2017-10-29T15:16:38Z</time>
      </trkpt>
      <trkpt lat="50.111019015312195" lon="8.521611979231238">
        <ele>119.34</ele>
        <time>2017-10-29T15:16:49Z</time>
      </trkpt>
      <trkpt lat="50.112965041771531" lon="8.527015037834644">
        <ele>114.53</ele>
        <time>2017-10-29T15:17:03Z</time>
      </trkpt>
      <trkpt lat="50.114642009139061" lon="8.531603962182999">
        <ele>112.13</ele>
        <time>2017-10-29T15:17:15Z</time>
      </trkpt>
      <trkpt lat="50.116507988423109" lon="8.536760006099939">
        <ele>113.09</ele>
        <time>2017-10-29T15:17:29Z</time>
      </trkpt>
      <trkpt lat="50.117659997195005" lon="8.539885031059384">
        <ele>113.56999999999999</ele>
        <time>2017-10-29T15:17:38Z</time>
      </trkpt>
      <trkpt lat="50.119693027809262" lon="8.545524962246418">
        <ele>118.86</ele>
        <time>2017-10-29T15:17:55Z</time>
      </trkpt>
      <trkpt lat="50.121487006545067" lon="8.550603976473212">
        <ele>109.25</ele>
        <time>2017-10-29T15:18:10Z</time>
      </trkpt>
      <trkpt lat="50.123487012460828" lon="8.555414015427232">
        <ele>110.20999999999999</ele>
        <time>2017-10-29T15:18:25Z</time>
      </trkpt>
      <trkpt lat="50.125707965344191" lon="8.560499986633658">
        <ele>117.42</ele>
        <time>2017-10-29T15:18:41Z</time>
      </trkpt>
      <trkpt lat="50.128070991486311" lon="8.565903967246413">
        <ele>117.90000000000001</ele>
        <time>2017-10-29T15:18:58Z</time>
      </trkpt>
      <trkpt lat="50.128739029169083" lon="8.568390961736441">
        <ele>117.42</ele>
        <time>2017-10-29T15:19:05Z</time>
      </trkpt>
      <trkpt lat="50.129075981676579" lon="8.5714409686625">
        <ele>114.53</ele>
        <time>2017-10-29T15:19:13Z</time>
      </trkpt>
      <trkpt lat="50.129452999681234" lon="8.574419980868697">
        <ele>112.13</ele>
        <time>2017-10-29T15:19:21Z</time>
      </trkpt>
      <trkpt lat="50.130397975444794" lon="8.577505024150014">
        <ele>112.61</ele>
        <time>2017-10-29T15:19:30Z</time>
      </trkpt>
      <trkpt lat="50.132137974724174" lon="8.581554992124438">
        <ele>115.01000000000001</ele>
        <time>2017-10-29T15:19:43Z</time>
      </trkpt>
      <trkpt lat="50.133097032085061" lon="8.583581987768412">
        <ele>115.5</ele>
        <time>2017-10-29T15:19:52Z</time>
      </trkpt>
      <trkpt lat="50.133856013417244" lon="8.585644019767642">
        <ele>115.01000000000001</ele>
        <time>2017-10-29T15:20:01Z</time>
      </trkpt>
      <trkpt lat="50.13442799448967" lon="8.588164960965514">
        <ele>115.98</ele>
        <time>2017-10-29T15:20:11Z</time>
      </trkpt>
      <trkpt lat="50.13462002389133" lon="8.590272003784776">
        <ele>116.94</ele>
        <time>2017-10-29T15:20:19Z</time>
      </trkpt>
      <trkpt lat="50.134595967829227" lon="8.591653006151319">
        <ele>117.42</ele>
        <time>2017-10-29T15:20:27Z</time>
      </trkpt>
      <trkpt lat="50.13449496589601" lon="8.592092972248793">
        <ele>116.94</ele>
        <time>2017-10-29T15:20:30Z</time>
      </trkpt>
      <trkpt lat="50.13444903306663" lon="8.592240996658802">
        <ele>116.45999999999999</ele>
        <time>2017-10-29T15:20:31Z</time>
      </trkpt>
      <trkpt lat="50.13440603390336" lon="8.592380974441767">
        <ele>116.45999999999999</ele>
        <time>2017-10-29T15:20:32Z</time>
      </trkpt>
      <trkpt lat="50.134351970627904" lon="8.592479964718223">
        <ele>115.98</ele>
        <time>2017-10-29T15:20:33Z</time>
      </trkpt>
      <trkpt lat="50.134280975908041" lon="8.592577027156949">
        <ele>115.98</ele>
        <time>2017-10-29T15:20:34Z</time>
      </trkpt>
      <trkpt lat="50.134220961481333" lon="8.592661013826728">
        <ele>115.5</ele>
        <time>2017-10-29T15:20:35Z</time>
      </trkpt>
      <trkpt lat="50.134120965376496" lon="8.592679034918547">
        <ele>114.53</ele>
        <time>2017-10-29T15:20:36Z</time>
      </trkpt>
      <trkpt lat="50.13401904143393" lon="8.592697978019714">
        <ele>114.53</ele>
        <time>2017-10-29T15:20:37Z</time>
      </trkpt>
      <trkpt lat="50.133914016187191" lon="8.592718010768294">
        <ele>114.05</ele>
        <time>2017-10-29T15:20:38Z</time>
      </trkpt>
      <trkpt lat="50.133814020082355" lon="8.592656990513206">
        <ele>113.56999999999999</ele>
        <time>2017-10-29T15:20:39Z</time>
      </trkpt>
      <trkpt lat="50.13372098095715" lon="8.59255800023675">
        <ele>113.09</ele>
        <time>2017-10-29T15:20:40Z</time>
      </trkpt>
      <trkpt lat="50.133630959317088" lon="8.592461021617055">
        <ele>112.61</ele>
        <time>2017-10-29T15:20:41Z</time>
      </trkpt>
      <trkpt lat="50.133553007617593" lon="8.592307968065143">
        <ele>112.13</ele>
        <time>2017-10-29T15:20:42Z</time>
      </trkpt>
      <trkpt lat="50.133511014282703" lon="8.592138988897204">
        <ele>111.17</ele>
        <time>2017-10-29T15:20:43Z</time>
      </trkpt>
      <trkpt lat="50.133514031767845" lon="8.591943020001054">
        <ele>110.20999999999999</ele>
        <time>2017-10-29T15:20:44Z</time>
      </trkpt>
      <trkpt lat="50.133546972647309" lon="8.591771023347974">
        <ele>109.73</ele>
        <time>2017-10-29T15:20:45Z</time>
      </trkpt>
      <trkpt lat="50.133579997345805" lon="8.591597015038133">
        <ele>108.77</ele>
        <time>2017-10-29T15:20:46Z</time>
      </trkpt>
      <trkpt lat="50.133646968752146" lon="8.591443039476872">
        <ele>108.29000000000001</ele>
        <time>2017-10-29T15:20:47Z</time>
      </trkpt>
      <trkpt lat="50.133744031190872" lon="8.591325022280216">
        <ele>107.31999999999999</ele>
        <time>2017-10-29T15:20:48Z</time>
      </trkpt>
      <trkpt lat="50.133844027295709" lon="8.591202981770039">
        <ele>106.84</ele>
        <time>2017-10-29T15:20:49Z</time>
      </trkpt>
      <trkpt lat="50.133962966501713" lon="8.591124024242163">
        <ele>106.36</ele>
        <time>2017-10-29T15:20:50Z</time>
      </trkpt>
      <trkpt lat="50.134095987305045" lon="8.591098040342331">
        <ele>106.36</ele>
        <time>2017-10-29T15:20:51Z</time>
      </trkpt>
      <trkpt lat="50.134239988401532" lon="8.591079013422132">
        <ele>106.36</ele>
        <time>2017-10-29T15:20:52Z</time>
      </trkpt>
      <trkpt lat="50.13438600115478" lon="8.591125030070543">
        <ele>106.36</ele>
        <time>2017-10-29T15:20:53Z</time>
      </trkpt>
      <trkpt lat="50.13453503139317" lon="8.591171968728304">
        <ele>106.36</ele>
        <time>2017-10-29T15:20:54Z</time>
      </trkpt>
      <trkpt lat="50.134907020255923" lon="8.591309012845159">
        <ele>106.36</ele>
        <time>2017-10-29T15:20:56Z</time>
      </trkpt>
      <trkpt lat="50.136517016217113" lon="8.5918939858675">
        <ele>108.29000000000001</ele>
        <time>2017-10-29T15:21:05Z</time>
      </trkpt>
      <trkpt lat="50.138519033789635" lon="8.593025039881468">
        <ele>109.25</ele>
        <time>2017-10-29T15:21:15Z</time>
      </trkpt>
      <trkpt lat="50.140276970341802" lon="8.594006979838014">
        <ele>111.65000000000001</ele>
        <time>2017-10-29T15:21:23Z</time>
      </trkpt>
      <trkpt lat="50.143222035840154" lon="8.595612030476332">
        <ele>112.61</ele>
        <time>2017-10-29T15:21:36Z</time>
      </trkpt>
      <trkpt lat="50.145295970141888" lon="8.596756998449564">
        <ele>112.61</ele>
        <time>2017-10-29T15:21:45Z</time>
      </trkpt>
      <trkpt lat="50.147687997668982" lon="8.598076980561018">
        <ele>115.5</ele>
        <time>2017-10-29T15:21:54Z</time>
      </trkpt>
      <trkpt lat="50.151191968470812" lon="8.60001303255558">
        <ele>123.19</ele>
        <time>2017-10-29T15:22:07Z</time>
      </trkpt>
      <trkpt lat="50.154358986765146" lon="8.601734004914761">
        <ele>127.03</ele>
        <time>2017-10-29T15:22:20Z</time>
      </trkpt>
      <trkpt lat="50.158237963914871" lon="8.603879017755389">
        <ele>125.11</ele>
        <time>2017-10-29T15:22:35Z</time>
      </trkpt>
      <trkpt lat="50.160911036655307" lon="8.605358004570007">
        <ele>127.98999999999999</ele>
        <time>2017-10-29T15:22:45Z</time>
      </trkpt>
      <trkpt lat="50.164532018825412" lon="8.607350969687104">
        <ele>131.84</ele>
        <time>2017-10-29T15:22:58Z</time>
      </trkpt>
      <trkpt lat="50.167578002437949" lon="8.609035983681679">
        <ele>139.53</ele>
        <time>2017-10-29T15:23:09Z</time>
      </trkpt>
      <trkpt lat="50.171498972922564" lon="8.611201029270887">
        <ele>144.81999999999999</ele>
        <time>2017-10-29T15:23:23Z</time>
      </trkpt>
      <trkpt lat="50.175672993063927" lon="8.613501023501158">
        <ele>147.22</ele>
        <time>2017-10-29T15:23:38Z</time>
      </trkpt>
      <trkpt lat="50.178738003596663" lon="8.615191988646984">
        <ele>147.69999999999999</ele>
        <time>2017-10-29T15:23:49Z</time>
      </trkpt>
      <trkpt lat="50.181700000539422" lon="8.616843977943063">
        <ele>148.66</ele>
        <time>2017-10-29T15:23:59Z</time>
      </trkpt>
      <trkpt lat="50.183795979246497" lon="8.618307039141655">
        <ele>149.62</ele>
        <time>2017-10-29T15:24:06Z</time>
      </trkpt>
      <trkpt lat="50.185489039868116" lon="8.619893984869123">
        <ele>152.03</ele>
        <time>2017-10-29T15:24:12Z</time>
      </trkpt>
      <trkpt lat="50.187633968889713" lon="8.622532021254301">
        <ele>148.66</ele>
        <time>2017-10-29T15:24:21Z</time>
      </trkpt>
      <trkpt lat="50.189485028386116" lon="8.625541040673852">
        <ele>140.49000000000001</ele>
        <time>2017-10-29T15:24:30Z</time>
      </trkpt>
      <trkpt lat="50.192624973133206" lon="8.630992965772748">
        <ele>142.41</ele>
        <time>2017-10-29T15:24:46Z</time>
      </trkpt>
      <trkpt lat="50.195398963987827" lon="8.635771991685033">
        <ele>152.03</ele>
        <time>2017-10-29T15:25:00Z</time>
      </trkpt>
      <trkpt lat="50.198399014770985" lon="8.640927029773593">
        <ele>152.50999999999999</ele>
        <time>2017-10-29T15:25:15Z</time>
      </trkpt>
      <trkpt lat="50.201580030843616" lon="8.646391024813056">
        <ele>152.99000000000001</ele>
        <time>2017-10-29T15:25:31Z</time>
      </trkpt>
      <trkpt lat="50.204156963154674" lon="8.650853969156742">
        <ele>147.22</ele>
        <time>2017-10-29T15:25:44Z</time>
      </trkpt>
      <trkpt lat="50.207189032807946" lon="8.655920997262001">
        <ele>136.16</ele>
        <time>2017-10-29T15:25:59Z</time>
      </trkpt>
      <trkpt lat="50.209258021786809" lon="8.658491978421807">
        <ele>136.63999999999999</ele>
        <time>2017-10-29T15:26:08Z</time>
      </trkpt>
      <trkpt lat="50.211858004331589" lon="8.660756014287472">
        <ele>137.13</ele>
        <time>2017-10-29T15:26:18Z</time>
      </trkpt>
      <trkpt lat="50.214344998821616" lon="8.662225026637316">
        <ele>133.28</ele>
        <time>2017-10-29T15:26:27Z</time>
      </trkpt>
      <trkpt lat="50.217202976346016" lon="8.663146030157805">
        <ele>140.97</ele>
        <time>2017-10-29T15:26:37Z</time>
      </trkpt>
      <trkpt lat="50.21985400468111" lon="8.663384998217225">
        <ele>150.58000000000001</ele>
        <time>2017-10-29T15:26:46Z</time>
      </trkpt>
      <trkpt lat="50.224032970145345" lon="8.663334036245942">
        <ele>152.03</ele>
        <time>2017-10-29T15:27:00Z</time>
      </trkpt>
      <trkpt lat="50.227281963452697" lon="8.663281984627247">
        <ele>149.62</ele>
        <time>2017-10-29T15:27:11Z</time>
      </trkpt>
      <trkpt lat="50.231722025200725" lon="8.663213001564145">
        <ele>155.38999999999999</ele>
        <time>2017-10-29T15:27:26Z</time>
      </trkpt>
      <trkpt lat="50.236164014786482" lon="8.663157010450959">
        <ele>154.91</ele>
        <time>2017-10-29T15:27:41Z</time>
      </trkpt>
      <trkpt lat="50.24118703790009" lon="8.663085009902716">
        <ele>161.16</ele>
        <time>2017-10-29T15:27:58Z</time>
      </trkpt>
      <trkpt lat="50.244739959016442" lon="8.663041004911065">
        <ele>168.84999999999999</ele>
        <time>2017-10-29T15:28:10Z</time>
      </trkpt>
      <trkpt lat="50.248868968337774" lon="8.662985013797879">
        <ele>177.97999999999999</ele>
        <time>2017-10-29T15:28:24Z</time>
      </trkpt>
      <trkpt lat="50.253301989287138" lon="8.662902032956481">
        <ele>180.38</ele>
        <time>2017-10-29T15:28:39Z</time>
      </trkpt>
      <trkpt lat="50.258065005764365" lon="8.662854004651308">
        <ele>181.34999999999999</ele>
        <time>2017-10-29T15:28:55Z</time>
      </trkpt>
      <trkpt lat="50.261625973507762" lon="8.662792984396219">
        <ele>183.27000000000001</ele>
        <time>2017-10-29T15:29:07Z</time>
      </trkpt>
      <trkpt lat="50.264409016817808" lon="8.66292399354279">
        <ele>188.56</ele>
        <time>2017-10-29T15:29:17Z</time>
      </trkpt>
      <trkpt lat="50.266431989148259" lon="8.663380974903703">
        <ele>190.47999999999999</ele>
        <time>2017-10-29T15:29:26Z</time>
      </trkpt>
      <trkpt lat="50.268785962834954" lon="8.664177004247904">
        <ele>197.21000000000001</ele>
        <time>2017-10-29T15:29:36Z</time>
      </trkpt>
      <trkpt lat="50.270660994574428" lon="8.664814028888941">
        <ele>208.25999999999999</ele>
        <time>2017-10-29T15:29:43Z</time>
      </trkpt>
      <trkpt lat="50.274839960038662" lon="8.666239958256483">
        <ele>228.44999999999999</ele>
        <time>2017-10-29T15:29:58Z</time>
      </trkpt>
      <trkpt lat="50.277727022767067" lon="8.667215025052428">
        <ele>235.18000000000001</ele>
        <time>2017-10-29T15:30:08Z</time>
      </trkpt>
      <trkpt lat="50.282115032896399" lon="8.668713038787246">
        <ele>225.09</ele>
        <time>2017-10-29T15:30:23Z</time>
      </trkpt>
      <trkpt lat="50.286412015557289" lon="8.670186996459961">
        <ele>217.40000000000001</ele>
        <time>2017-10-29T15:30:38Z</time>
      </trkpt>
      <trkpt lat="50.290153026580811" lon="8.671460039913654">
        <ele>222.68000000000001</ele>
        <time>2017-10-29T15:30:51Z</time>
      </trkpt>
      <trkpt lat="50.294194025918841" lon="8.672823021188378">
        <ele>232.30000000000001</ele>
        <time>2017-10-29T15:31:05Z</time>
      </trkpt>
      <trkpt lat="50.298799965530634" lon="8.674463024362922">
        <ele>250.56</ele>
        <time>2017-10-29T15:31:21Z</time>
      </trkpt>
      <trkpt lat="50.301315961405635" lon="8.675876967608929">
        <ele>254.41</ele>
        <time>2017-10-29T15:31:30Z</time>
      </trkpt>
      <trkpt lat="50.303907981142402" lon="8.678125999867916">
        <ele>257.76999999999998</ele>
        <time>2017-10-29T15:31:40Z</time>
      </trkpt>
      <trkpt lat="50.306553980335593" lon="8.681177012622356">
        <ele>258.25</ele>
        <time>2017-10-29T15:31:51Z</time>
      </trkpt>
      <trkpt lat="50.310141015797853" lon="8.685313984751701">
        <ele>241.91</ele>
        <time>2017-10-29T15:32:06Z</time>
      </trkpt>
      <trkpt lat="50.313268974423409" lon="8.688775040209293">
        <ele>235.66</ele>
        <time>2017-10-29T15:32:19Z</time>
      </trkpt>
      <trkpt lat="50.315920002758503" lon="8.690846040844917">
        <ele>229.88999999999999</ele>
        <time>2017-10-29T15:32:29Z</time>
      </trkpt>
      <trkpt lat="50.318462988361716" lon="8.692112965509296">
        <ele>222.19999999999999</ele>
        <time>2017-10-29T15:32:38Z</time>
      </trkpt>
      <trkpt lat="50.321364970877767" lon="8.692911006510258">
        <ele>218.84</ele>
        <time>2017-10-29T15:32:48Z</time>
      </trkpt>
      <trkpt lat="50.324566019698977" lon="8.693669987842441">
        <ele>223.16</ele>
        <time>2017-10-29T15:32:59Z</time>
      </trkpt>
      <trkpt lat="50.328097986057401" lon="8.694507004693151">
        <ele>227.00999999999999</ele>
        <time>2017-10-29T15:33:11Z</time>
      </trkpt>
      <trkpt lat="50.332183996215463" lon="8.695476036518812">
        <ele>223.63999999999999</ele>
        <time>2017-10-29T15:33:25Z</time>
      </trkpt>
      <trkpt lat="50.335096959024668" lon="8.696133010089397">
        <ele>226.53</ele>
        <time>2017-10-29T15:33:35Z</time>
      </trkpt>
      <trkpt lat="50.33774203620851" lon="8.696367032825947">
        <ele>237.58000000000001</ele>
        <time>2017-10-29T15:33:44Z</time>
      </trkpt>
      <trkpt lat="50.340086035430431" lon="8.696080958470702">
        <ele>246.72</ele>
        <time>2017-10-29T15:33:52Z</time>
      </trkpt>
      <trkpt lat="50.342963039875031" lon="8.695115027949214">
        <ele>259.69</ele>
        <time>2017-10-29T15:34:02Z</time>
      </trkpt>
      <trkpt lat="50.346714025363326" lon="8.693692032247782">
        <ele>265.45999999999998</ele>
        <time>2017-10-29T15:34:15Z</time>
      </trkpt>
      <trkpt lat="50.349675016477704" lon="8.693041009828448">
        <ele>259.20999999999998</ele>
        <time>2017-10-29T15:34:25Z</time>
      </trkpt>
      <trkpt lat="50.352339958772063" lon="8.693097000941634">
        <ele>251.03999999999999</ele>
        <time>2017-10-29T15:34:34Z</time>
      </trkpt>
      <trkpt lat="50.355219980701804" lon="8.693860005587339">
        <ele>249.59999999999999</ele>
        <time>2017-10-29T15:34:44Z</time>
      </trkpt>
      <trkpt lat="50.358022972941399" lon="8.695376962423325">
        <ele>247.68000000000001</ele>
        <time>2017-10-29T15:34:54Z</time>
      </trkpt>
      <trkpt lat="50.360695039853454" lon="8.697482999414206">
        <ele>232.78</ele>
        <time>2017-10-29T15:35:04Z</time>
      </trkpt>
      <trkpt lat="50.364868976175785" lon="8.700909018516541">
        <ele>214.03</ele>
        <time>2017-10-29T15:35:20Z</time>
      </trkpt>
      <trkpt lat="50.368808973580599" lon="8.703995989635587">
        <ele>203.46000000000001</ele>
        <time>2017-10-29T15:35:35Z</time>
      </trkpt>
      <trkpt lat="50.371664017438889" lon="8.705317983403802">
        <ele>195.28</ele>
        <time>2017-10-29T15:35:45Z</time>
      </trkpt>
      <trkpt lat="50.374630037695169" lon="8.705923995003104">
        <ele>179.41999999999999</ele>
        <time>2017-10-29T15:35:55Z</time>
      </trkpt>
      <trkpt lat="50.377581976354122" lon="8.705777982249856">
        <ele>163.56</ele>
        <time>2017-10-29T15:36:05Z</time>
      </trkpt>
      <trkpt lat="50.381663963198662" lon="8.705083038657904">
        <ele>163.56</ele>
        <time>2017-10-29T15:36:19Z</time>
      </trkpt>
      <trkpt lat="50.385460965335369" lon="8.704403014853597">
        <ele>173.66</ele>
        <time>2017-10-29T15:36:32Z</time>
      </trkpt>
      <trkpt lat="50.389874037355185" lon="8.703631041571498">
        <ele>183.75</ele>
        <time>2017-10-29T15:36:47Z</time>
      </trkpt>
      <trkpt lat="50.395459989085793" lon="8.702658992260695">
        <ele>191.44</ele>
        <time>2017-10-29T15:37:06Z</time>
      </trkpt>
      <trkpt lat="50.399582963436842" lon="8.701952984556556">
        <ele>187.59</ele>
        <time>2017-10-29T15:37:20Z</time>
      </trkpt>
      <trkpt lat="50.404882002621889" lon="8.701014965772629">
        <ele>169.81</ele>
        <time>2017-10-29T15:37:38Z</time>
      </trkpt>
      <trkpt lat="50.408711023628712" lon="8.700352041050792">
        <ele>168.84999999999999</ele>
        <time>2017-10-29T15:37:51Z</time>
      </trkpt>
      <trkpt lat="50.413978965952992" lon="8.699431959539652">
        <ele>162.59999999999999</ele>
        <time>2017-10-29T15:38:09Z</time>
      </trkpt>
      <trkpt lat="50.418971981853247" lon="8.698564013466239">
        <ele>169.81</ele>
        <time>2017-10-29T15:38:26Z</time>
      </trkpt>
      <trkpt lat="50.424272026866674" lon="8.69764200411737">
        <ele>172.69</ele>
        <time>2017-10-29T15:38:44Z</time>
      </trkpt>
      <trkpt lat="50.428692977875471" lon="8.696872964501381">
        <ele>167.41</ele>
        <time>2017-10-29T15:38:59Z</time>
      </trkpt>
      <trkpt lat="50.433943988755345" lon="8.695950033143163">
        <ele>167.88999999999999</ele>
        <time>2017-10-29T15:39:17Z</time>
      </trkpt>
      <trkpt lat="50.437805028632283" lon="8.695266991853714">
        <ele>171.72999999999999</ele>
        <time>2017-10-29T15:39:30Z</time>
      </trkpt>
      <trkpt lat="50.442207958549261" lon="8.694685958325863">
        <ele>170.28999999999999</ele>
        <time>2017-10-29T15:39:45Z</time>
      </trkpt>
      <trkpt lat="50.444243000820279" lon="8.695164984092116">
        <ele>174.13999999999999</ele>
        <time>2017-10-29T15:39:52Z</time>
      </trkpt>
      <trkpt lat="50.446417015045881" lon="8.696626033633947">
        <ele>177.5</ele>
        <time>2017-10-29T15:40:00Z</time>
      </trkpt>
      <trkpt lat="50.448007984086871" lon="8.698488995432854">
        <ele>175.58000000000001</ele>
        <time>2017-10-29T15:40:07Z</time>
      </trkpt>
      <trkpt lat="50.449113976210356" lon="8.70054398663342">
        <ele>174.13999999999999</ele>
        <time>2017-10-29T15:40:14Z</time>
      </trkpt>
      <trkpt lat="50.450606038793921" lon="8.703892976045609">
        <ele>175.58000000000001</ele>
        <time>2017-10-29T15:40:26Z</time>
      </trkpt>
      <trkpt lat="50.452547958120704" lon="8.708337983116508">
        <ele>181.83000000000001</ele>
        <time>2017-10-29T15:40:42Z</time>
      </trkpt>
      <trkpt lat="50.454647038131952" lon="8.712679976597428">
        <ele>177.5</ele>
        <time>2017-10-29T15:40:57Z</time>
      </trkpt>
      <trkpt lat="50.456548975780606" lon="8.715563016012311">
        <ele>169.81</ele>
        <time>2017-10-29T15:41:08Z</time>
      </trkpt>
      <trkpt lat="50.458456026390195" lon="8.717720014974475">
        <ele>174.13999999999999</ele>
        <time>2017-10-29T15:41:18Z</time>
      </trkpt>
      <trkpt lat="50.460369028151035" lon="8.719367980957031">
        <ele>181.83000000000001</ele>
        <time>2017-10-29T15:41:28Z</time>
      </trkpt>
      <trkpt lat="50.46287203207612" lon="8.720893990248442">
        <ele>185.66999999999999</ele>
        <time>2017-10-29T15:41:41Z</time>
      </trkpt>
      <trkpt lat="50.464866003021598" lon="8.722400972619653">
        <ele>186.15000000000001</ele>
        <time>2017-10-29T15:41:51Z</time>
      </trkpt>
      <trkpt lat="50.466585969552398" lon="8.724181959405541">
        <ele>188.56</ele>
        <time>2017-10-29T15:41:59Z</time>
      </trkpt>
      <trkpt lat="50.468004019930959" lon="8.724858965724707">
        <ele>191.44</ele>
        <time>2017-10-29T15:42:05Z</time>
      </trkpt>
      <trkpt lat="50.469466997310519" lon="8.724796017631888">
        <ele>196.25</ele>
        <time>2017-10-29T15:42:11Z</time>
      </trkpt>
      <trkpt lat="50.47019999474287" lon="8.72449703514576">
        <ele>198.65000000000001</ele>
        <time>2017-10-29T15:42:14Z</time>
      </trkpt>
      <trkpt lat="50.472226990386844" lon="8.723481986671686">
        <ele>207.30000000000001</ele>
        <time>2017-10-29T15:42:22Z</time>
      </trkpt>
      <trkpt lat="50.474648019298911" lon="8.723049983382225">
        <ele>214.50999999999999</ele>
        <time>2017-10-29T15:42:31Z</time>
      </trkpt>
      <trkpt lat="50.476124994456768" lon="8.722073994576931">
        <ele>216.43000000000001</ele>
        <time>2017-10-29T15:42:37Z</time>
      </trkpt>
      <trkpt lat="50.477278009057045" lon="8.720401972532272">
        <ele>215.94999999999999</ele>
        <time>2017-10-29T15:42:43Z</time>
      </trkpt>
      <trkpt lat="50.477960966527462" lon="8.718200968578458">
        <ele>214.03</ele>
        <time>2017-10-29T15:42:49Z</time>
      </trkpt>
      <trkpt lat="50.478508975356817" lon="8.714457023888826">
        <ele>212.11000000000001</ele>
        <time>2017-10-29T15:42:58Z</time>
      </trkpt>
      <trkpt lat="50.479325037449598" lon="8.710049986839294">
        <ele>215.47</ele>
        <time>2017-10-29T15:43:09Z</time>
      </trkpt>
      <trkpt lat="50.480266995728016" lon="8.705541025847197">
        <ele>222.68000000000001</ele>
        <time>2017-10-29T15:43:21Z</time>
      </trkpt>
      <trkpt lat="50.481509026139975" lon="8.700533006340265">
        <ele>233.74000000000001</ele>
        <time>2017-10-29T15:43:34Z</time>
      </trkpt>
      <trkpt lat="50.482881981879473" lon="8.696473985910416">
        <ele>244.78999999999999</ele>
        <time>2017-10-29T15:43:45Z</time>
      </trkpt>
      <trkpt lat="50.48461502417922" lon="8.692847974598408">
        <ele>256.32999999999998</ele>
        <time>2017-10-29T15:43:56Z</time>
      </trkpt>
      <trkpt lat="50.486749978736043" lon="8.689651032909751">
        <ele>260.64999999999998</ele>
        <time>2017-10-29T15:44:07Z</time>
      </trkpt>
      <trkpt lat="50.489231022074819" lon="8.687028000131249">
        <ele>262.10000000000002</ele>
        <time>2017-10-29T15:44:18Z</time>
      </trkpt>
      <trkpt lat="50.491475025191903" lon="8.685334017500281">
        <ele>257.29000000000002</ele>
        <time>2017-10-29T15:44:27Z</time>
      </trkpt>
      <trkpt lat="50.493834028020501" lon="8.684158958494663">
        <ele>250.56</ele>
        <time>2017-10-29T15:44:36Z</time>
      </trkpt>
      <trkpt lat="50.496439039707184" lon="8.683430990204215">
        <ele>247.19999999999999</ele>
        <time>2017-10-29T15:44:45Z</time>
      </trkpt>
      <trkpt lat="50.499177994206548" lon="8.682950036600232">
        <ele>244.78999999999999</ele>
        <time>2017-10-29T15:44:54Z</time>
      </trkpt>
      <trkpt lat="50.502336965873837" lon="8.682268001139164">
        <ele>241.91</ele>
        <time>2017-10-29T15:45:05Z</time>
      </trkpt>
      <trkpt lat="50.504621034488082" lon="8.68133501149714">
        <ele>238.53999999999999</ele>
        <time>2017-10-29T15:45:13Z</time>
      </trkpt>
      <trkpt lat="50.507387984544039" lon="8.679649997502565">
        <ele>233.74000000000001</ele>
        <time>2017-10-29T15:45:23Z</time>
      </trkpt>
      <trkpt lat="50.510215032845736" lon="8.677115980535746">
        <ele>227.00999999999999</ele>
        <time>2017-10-29T15:45:34Z</time>
      </trkpt>
      <trkpt lat="50.51254796795547" lon="8.674253979697824">
        <ele>219.80000000000001</ele>
        <time>2017-10-29T15:45:44Z</time>
      </trkpt>
      <trkpt lat="50.514820972457528" lon="8.670580023899674">
        <ele>211.63</ele>
        <time>2017-10-29T15:45:55Z</time>
      </trkpt>
      <trkpt lat="50.516103990375996" lon="8.667854983359575">
        <ele>205.86000000000001</ele>
        <time>2017-10-29T15:46:03Z</time>
      </trkpt>
      <trkpt lat="50.517666041851044" lon="8.663626983761787">
        <ele>197.69</ele>
        <time>2017-10-29T15:46:14Z</time>
      </trkpt>
      <trkpt lat="50.519064981490374" lon="8.659061025828123">
        <ele>191.91999999999999</ele>
        <time>2017-10-29T15:46:25Z</time>
      </trkpt>
      <trkpt lat="50.520513039082289" lon="8.653718987479806">
        <ele>183.75</ele>
        <time>2017-10-29T15:46:37Z</time>
      </trkpt>
      <trkpt lat="50.521940980106592" lon="8.648108979687095">
        <ele>179.41999999999999</ele>
        <time>2017-10-29T15:46:51Z</time>
      </trkpt>
      <trkpt lat="50.523317037150264" lon="8.643846027553082">
        <ele>178.94</ele>
        <time>2017-10-29T15:47:03Z</time>
      </trkpt>
      <trkpt lat="50.524271987378597" lon="8.642116002738476">
        <ele>177.5</ele>
        <time>2017-10-29T15:47:09Z</time>
      </trkpt>
      <trkpt lat="50.525638991966844" lon="8.640614971518517">
        <ele>171.25</ele>
        <time>2017-10-29T15:47:16Z</time>
      </trkpt>
      <trkpt lat="50.525857005268335" lon="8.640477005392313">
        <ele>170.77000000000001</ele>
        <time>2017-10-29T15:47:17Z</time>
      </trkpt>
      <trkpt lat="50.526084993034601" lon="8.640376003459096">
        <ele>170.28999999999999</ele>
        <time>2017-10-29T15:47:18Z</time>
      </trkpt>
      <trkpt lat="50.526311974972486" lon="8.640275001525879">
        <ele>170.28999999999999</ele>
        <time>2017-10-29T15:47:19Z</time>
      </trkpt>
      <trkpt lat="50.526543986052275" lon="8.640238959342241">
        <ele>170.28999999999999</ele>
        <time>2017-10-29T15:47:20Z</time>
      </trkpt>
      <trkpt lat="50.526769962161779" lon="8.640220016241074">
        <ele>169.81</ele>
        <time>2017-10-29T15:47:21Z</time>
      </trkpt>
      <trkpt lat="50.526994010433555" lon="8.640201995149255">
        <ele>169.81</ele>
        <time>2017-10-29T15:47:22Z</time>
      </trkpt>
      <trkpt lat="50.527215041220188" lon="8.640183974057436">
        <ele>169.81</ele>
        <time>2017-10-29T15:47:23Z</time>
      </trkpt>
      <trkpt lat="50.529010025784373" lon="8.640497960150242">
        <ele>169.33000000000001</ele>
        <time>2017-10-29T15:47:32Z</time>
      </trkpt>
      <trkpt lat="50.530402008444071" lon="8.640909008681774">
        <ele>170.28999999999999</ele>
        <time>2017-10-29T15:47:41Z</time>
      </trkpt>
      <trkpt lat="50.53235599771142" lon="8.64178198389709">
        <ele>171.72999999999999</ele>
        <time>2017-10-29T15:47:53Z</time>
      </trkpt>
      <trkpt lat="50.534631013870239" lon="8.643394997343421">
        <ele>173.16999999999999</ele>
        <time>2017-10-29T15:48:06Z</time>
      </trkpt>
      <trkpt lat="50.536146964877844" lon="8.644828973338008">
        <ele>173.16999999999999</ele>
        <time>2017-10-29T15:48:16Z</time>
      </trkpt>
      <trkpt lat="50.537959970533848" lon="8.646822022274137">
        <ele>172.21000000000001</ele>
        <time>2017-10-29T15:48:28Z</time>
      </trkpt>
      <trkpt lat="50.539872972294688" lon="8.648890005424619">
        <ele>170.28999999999999</ele>
        <time>2017-10-29T15:48:40Z</time>
      </trkpt>
      <trkpt lat="50.54264604113996" lon="8.651326959952712">
        <ele>171.25</ele>
        <time>2017-10-29T15:48:55Z</time>
      </trkpt>
      <trkpt lat="50.545267984271049" lon="8.653067965060473">
        <ele>179.90000000000001</ele>
        <time>2017-10-29T15:49:08Z</time>
      </trkpt>
      <trkpt lat="50.547723965719342" lon="8.654648037627339">
        <ele>187.11000000000001</ele>
        <time>2017-10-29T15:49:20Z</time>
      </trkpt>
      <trkpt lat="50.54971500299871" lon="8.656320981681347">
        <ele>191.44</ele>
        <time>2017-10-29T15:49:29Z</time>
      </trkpt>
      <trkpt lat="50.551560027524829" lon="8.658573031425476">
        <ele>191.44</ele>
        <time>2017-10-29T15:49:37Z</time>
      </trkpt>
      <trkpt lat="50.553105985745788" lon="8.661401001736522">
        <ele>189.52000000000001</ele>
        <time>2017-10-29T15:49:45Z</time>
      </trkpt>
      <trkpt lat="50.554452035576105" lon="8.664980996400118">
        <ele>187.59</ele>
        <time>2017-10-29T15:49:54Z</time>
      </trkpt>
      <trkpt lat="50.555520979687572" lon="8.668790990486741">
        <ele>190.96000000000001</ele>
        <time>2017-10-29T15:50:03Z</time>
      </trkpt>
      <trkpt lat="50.557220997288823" lon="8.675226029008627">
        <ele>192.40000000000001</ele>
        <time>2017-10-29T15:50:18Z</time>
      </trkpt>
      <trkpt lat="50.558819007128477" lon="8.681276002898812">
        <ele>187.59</ele>
        <time>2017-10-29T15:50:32Z</time>
      </trkpt>
      <trkpt lat="50.560645004734397" lon="8.688143966719508">
        <ele>181.34999999999999</ele>
        <time>2017-10-29T15:50:48Z</time>
      </trkpt>
      <trkpt lat="50.562193980440497" lon="8.693662025034428">
        <ele>177.97999999999999</ele>
        <time>2017-10-29T15:51:01Z</time>
      </trkpt>
      <trkpt lat="50.563547993078828" lon="8.696733992546797">
        <ele>175.58000000000001</ele>
        <time>2017-10-29T15:51:09Z</time>
      </trkpt>
      <trkpt lat="50.565278017893434" lon="8.699256023392081">
        <ele>173.16999999999999</ele>
        <time>2017-10-29T15:51:17Z</time>
      </trkpt>
      <trkpt lat="50.567023968324065" lon="8.701015971601009">
        <ele>170.77000000000001</ele>
        <time>2017-10-29T15:51:24Z</time>
      </trkpt>
      <trkpt lat="50.569496965035796" lon="8.702562013641">
        <ele>168.84999999999999</ele>
        <time>2017-10-29T15:51:33Z</time>
      </trkpt>
      <trkpt lat="50.573100009933114" lon="8.704660004004836">
        <ele>171.25</ele>
        <time>2017-10-29T15:51:46Z</time>
      </trkpt>
      <trkpt lat="50.575403021648526" lon="8.706696974113584">
        <ele>177.97999999999999</ele>
        <time>2017-10-29T15:51:55Z</time>
      </trkpt>
      <trkpt lat="50.578326964750886" lon="8.709833985194564">
        <ele>184.22999999999999</ele>
        <time>2017-10-29T15:52:07Z</time>
      </trkpt>
      <trkpt lat="50.580474995076656" lon="8.711362006142736">
        <ele>186.15000000000001</ele>
        <time>2017-10-29T15:52:15Z</time>
      </trkpt>
      <trkpt lat="50.582511965185404" lon="8.711768025532365">
        <ele>188.08000000000001</ele>
        <time>2017-10-29T15:52:22Z</time>
      </trkpt>
      <trkpt lat="50.584255987778306" lon="8.711412968114018">
        <ele>189.03999999999999</ele>
        <time>2017-10-29T15:52:29Z</time>
      </trkpt>
      <trkpt lat="50.587397022172809" lon="8.709930963814259">
        <ele>184.71000000000001</ele>
        <time>2017-10-29T15:52:39Z</time>
      </trkpt>
      <trkpt lat="50.589156970381737" lon="8.709626030176878">
        <ele>182.78999999999999</ele>
        <time>2017-10-29T15:52:45Z</time>
      </trkpt>
      <trkpt lat="50.591533994302154" lon="8.710012016817927">
        <ele>174.62</ele>
        <time>2017-10-29T15:52:53Z</time>
      </trkpt>
      <trkpt lat="50.594712998718023" lon="8.711179029196501">
        <ele>166.44999999999999</ele>
        <time>2017-10-29T15:53:04Z</time>
      </trkpt>
      <trkpt lat="50.597737021744251" lon="8.712889021262527">
        <ele>163.08000000000001</ele>
        <time>2017-10-29T15:53:15Z</time>
      </trkpt>
      <trkpt lat="50.601531006395817" lon="8.715419014915824">
        <ele>165.96000000000001</ele>
        <time>2017-10-29T15:53:29Z</time>
      </trkpt>
      <trkpt lat="50.604639016091824" lon="8.716930020600557">
        <ele>169.33000000000001</ele>
        <time>2017-10-29T15:53:40Z</time>
      </trkpt>
      <trkpt lat="50.607559019699693" lon="8.717679027467966">
        <ele>171.72999999999999</ele>
        <time>2017-10-29T15:53:50Z</time>
      </trkpt>
      <trkpt lat="50.610804995521903" lon="8.717764019966126">
        <ele>175.09999999999999</ele>
        <time>2017-10-29T15:54:01Z</time>
      </trkpt>
      <trkpt lat="50.614018030464649" lon="8.717119032517076">
        <ele>178.46000000000001</ele>
        <time>2017-10-29T15:54:12Z</time>
      </trkpt>
      <trkpt lat="50.617150012403727" lon="8.715856969356537">
        <ele>185.66999999999999</ele>
        <time>2017-10-29T15:54:23Z</time>
      </trkpt>
      <trkpt lat="50.620592962950468" lon="8.714571017771959">
        <ele>199.13</ele>
        <time>2017-10-29T15:54:35Z</time>
      </trkpt>
      <trkpt lat="50.623115999624133" lon="8.714051004499197">
        <ele>204.41999999999999</ele>
        <time>2017-10-29T15:54:44Z</time>
      </trkpt>
      <trkpt lat="50.626390976831317" lon="8.714028960093856">
        <ele>203.46000000000001</ele>
        <time>2017-10-29T15:54:57Z</time>
      </trkpt>
      <trkpt lat="50.629384992644191" lon="8.714733961969614">
        <ele>196.72999999999999</ele>
        <time>2017-10-29T15:55:09Z</time>
      </trkpt>
      <trkpt lat="50.630999011918902" lon="8.715564021840692">
        <ele>192.40000000000001</ele>
        <time>2017-10-29T15:55:15Z</time>
      </trkpt>
      <trkpt lat="50.632826015353203" lon="8.717042002826929">
        <ele>190.96000000000001</ele>
        <time>2017-10-29T15:55:22Z</time>
      </trkpt>
      <trkpt lat="50.63537897542119" lon="8.72000802308321">
        <ele>195.77000000000001</ele>
        <time>2017-10-29T15:55:33Z</time>
      </trkpt>
      <trkpt lat="50.6386439781636" lon="8.723864033818245">
        <ele>199.61000000000001</ele>
        <time>2017-10-29T15:55:47Z</time>
      </trkpt>
      <trkpt lat="50.641046985983849" lon="8.725685002282262">
        <ele>199.61000000000001</ele>
        <time>2017-10-29T15:55:56Z</time>
      </trkpt>
      <trkpt lat="50.643616961315274" lon="8.726800968870521">
        <ele>196.72999999999999</ele>
        <time>2017-10-29T15:56:05Z</time>
      </trkpt>
      <trkpt lat="50.645930031314492" lon="8.727092994377017">
        <ele>190.47999999999999</ele>
        <time>2017-10-29T15:56:13Z</time>
      </trkpt>
      <trkpt lat="50.648261038586497" lon="8.726761993020773">
        <ele>184.71000000000001</ele>
        <time>2017-10-29T15:56:22Z</time>
      </trkpt>
      <trkpt lat="50.650579975917935" lon="8.725729007273912">
        <ele>183.27000000000001</ele>
        <time>2017-10-29T15:56:31Z</time>
      </trkpt>
      <trkpt lat="50.653710030019283" lon="8.723805025219917">
        <ele>190.96000000000001</ele>
        <time>2017-10-29T15:56:43Z</time>
      </trkpt>
      <trkpt lat="50.657017026096582" lon="8.722047004848719">
        <ele>197.69</ele>
        <time>2017-10-29T15:56:55Z</time>
      </trkpt>
      <trkpt lat="50.659838961437345" lon="8.721200013533235">
        <ele>197.21000000000001</ele>
        <time>2017-10-29T15:57:05Z</time>
      </trkpt>
      <trkpt lat="50.662441961467266" lon="8.720902036875486">
        <ele>190</ele>
        <time>2017-10-29T15:57:14Z</time>
      </trkpt>
      <trkpt lat="50.665539996698499" lon="8.721223985776305">
        <ele>188.08000000000001</ele>
        <time>2017-10-29T15:57:25Z</time>
      </trkpt>
      <trkpt lat="50.668403003364801" lon="8.721879031509161">
        <ele>190</ele>
        <time>2017-10-29T15:57:35Z</time>
      </trkpt>
      <trkpt lat="50.670149959623814" lon="8.7215989921242">
        <ele>191.44</ele>
        <time>2017-10-29T15:57:41Z</time>
      </trkpt>
      <trkpt lat="50.672086011618376" lon="8.720454024150968">
        <ele>195.28</ele>
        <time>2017-10-29T15:57:48Z</time>
      </trkpt>
      <trkpt lat="50.674040000885725" lon="8.719388013705611">
        <ele>197.69</ele>
        <time>2017-10-29T15:57:55Z</time>
      </trkpt>
      <trkpt lat="50.675815036520362" lon="8.719327999278903">
        <ele>198.65000000000001</ele>
        <time>2017-10-29T15:58:01Z</time>
      </trkpt>
      <trkpt lat="50.678142020478845" lon="8.720052028074861">
        <ele>196.72999999999999</ele>
        <time>2017-10-29T15:58:09Z</time>
      </trkpt>
      <trkpt lat="50.680729011073709" lon="8.720716964453459">
        <ele>202.97999999999999</ele>
        <time>2017-10-29T15:58:18Z</time>
      </trkpt>
      <trkpt lat="50.683679021894932" lon="8.720725011080504">
        <ele>212.11000000000001</ele>
        <time>2017-10-29T15:58:28Z</time>
      </trkpt>
      <trkpt lat="50.68541700951755" lon="8.721336973831058">
        <ele>214.03</ele>
        <time>2017-10-29T15:58:34Z</time>
      </trkpt>
      <trkpt lat="50.686924997717142" lon="8.722838005051017">
        <ele>210.66999999999999</ele>
        <time>2017-10-29T15:58:40Z</time>
      </trkpt>
      <trkpt lat="50.688336007297039" lon="8.725240007042885">
        <ele>203.94</ele>
        <time>2017-10-29T15:58:47Z</time>
      </trkpt>
      <trkpt lat="50.689817005768418" lon="8.727471018210053">
        <ele>201.53</ele>
        <time>2017-10-29T15:58:54Z</time>
      </trkpt>
      <trkpt lat="50.691608972847462" lon="8.729060981422663">
        <ele>202.97999999999999</ele>
        <time>2017-10-29T15:59:01Z</time>
      </trkpt>
      <trkpt lat="50.694153970107436" lon="8.7302799616009">
        <ele>198.16999999999999</ele>
        <time>2017-10-29T15:59:10Z</time>
      </trkpt>
      <trkpt lat="50.696813967078924" lon="8.730696039274335">
        <ele>187.59</ele>
        <time>2017-10-29T15:59:19Z</time>
      </trkpt>
      <trkpt lat="50.699459966272116" lon="8.730268981307745">
        <ele>177.97999999999999</ele>
        <time>2017-10-29T15:59:28Z</time>
      </trkpt>
      <trkpt lat="50.703469030559063" lon="8.728865012526512">
        <ele>178.94</ele>
        <time>2017-10-29T15:59:42Z</time>
      </trkpt>
      <trkpt lat="50.707752015441656" lon="8.727244958281517">
        <ele>192.88</ele>
        <time>2017-10-29T15:59:57Z</time>
      </trkpt>
      <trkpt lat="50.710108000785112" lon="8.726916974410415">
        <ele>201.53</ele>
        <time>2017-10-29T16:00:05Z</time>
      </trkpt>
      <trkpt lat="50.712740002200007" lon="8.727546036243439">
        <ele>208.74000000000001</ele>
        <time>2017-10-29T16:00:14Z</time>
      </trkpt>
      <trkpt lat="50.716188987717032" lon="8.728894013911486">
        <ele>214.03</ele>
        <time>2017-10-29T16:00:26Z</time>
      </trkpt>
      <trkpt lat="50.717710973694921" lon="8.73034299351275">
        <ele>213.06999999999999</ele>
        <time>2017-10-29T16:00:32Z</time>
      </trkpt>
      <trkpt lat="50.718957027420402" lon="8.73234199360013">
        <ele>210.66999999999999</ele>
        <time>2017-10-29T16:00:38Z</time>
      </trkpt>
      <trkpt lat="50.720670036971569" lon="8.734897971153259">
        <ele>204.90000000000001</ele>
        <time>2017-10-29T16:00:46Z</time>
      </trkpt>
      <trkpt lat="50.72226301766932" lon="8.736109994351864">
        <ele>197.69</ele>
        <time>2017-10-29T16:00:52Z</time>
      </trkpt>
      <trkpt lat="50.724011985585093" lon="8.73659698292613">
        <ele>188.08000000000001</ele>
        <time>2017-10-29T16:00:58Z</time>
      </trkpt>
      <trkpt lat="50.725785009562969" lon="8.736308980733156">
        <ele>177.97999999999999</ele>
        <time>2017-10-29T16:01:04Z</time>
      </trkpt>
      <trkpt lat="50.728913974016905" lon="8.735090000554919">
        <ele>168.84999999999999</ele>
        <time>2017-10-29T16:01:15Z</time>
      </trkpt>
      <trkpt lat="50.730952033773065" lon="8.734858995303512">
        <ele>168.84999999999999</ele>
        <time>2017-10-29T16:01:22Z</time>
      </trkpt>
      <trkpt lat="50.732978023588657" lon="8.73547799885273">
        <ele>171.25</ele>
        <time>2017-10-29T16:01:29Z</time>
      </trkpt>
      <trkpt lat="50.73575695976615" lon="8.737034015357494">
        <ele>175.58000000000001</ele>
        <time>2017-10-29T16:01:39Z</time>
      </trkpt>
      <trkpt lat="50.737780015915632" lon="8.737532990053296">
        <ele>180.38</ele>
        <time>2017-10-29T16:01:46Z</time>
      </trkpt>
      <trkpt lat="50.740710999816656" lon="8.738198010250926">
        <ele>188.56</ele>
        <time>2017-10-29T16:01:56Z</time>
      </trkpt>
      <trkpt lat="50.743244010955095" lon="8.739589992910624">
        <ele>189.03999999999999</ele>
        <time>2017-10-29T16:02:05Z</time>
      </trkpt>
      <trkpt lat="50.745260026305914" lon="8.740352997556329">
        <ele>185.19</ele>
        <time>2017-10-29T16:02:12Z</time>
      </trkpt>
      <trkpt lat="50.747924968600273" lon="8.740365989506245">
        <ele>181.34999999999999</ele>
        <time>2017-10-29T16:02:21Z</time>
      </trkpt>
      <trkpt lat="50.751454001292586" lon="8.740611998364329">
        <ele>177.02000000000001</ele>
        <time>2017-10-29T16:02:33Z</time>
      </trkpt>
      <trkpt lat="50.754038980230689" lon="8.741552028805018">
        <ele>176.06</ele>
        <time>2017-10-29T16:02:42Z</time>
      </trkpt>
      <trkpt lat="50.756773995235562" lon="8.743274006992579">
        <ele>177.5</ele>
        <time>2017-10-29T16:02:52Z</time>
      </trkpt>
      <trkpt lat="50.760306967422366" lon="8.745624041184783">
        <ele>179.90000000000001</ele>
        <time>2017-10-29T16:03:05Z</time>
      </trkpt>
      <trkpt lat="50.762932011857629" lon="8.746415041387081">
        <ele>177.97999999999999</ele>
        <time>2017-10-29T16:03:14Z</time>
      </trkpt>
      <trkpt lat="50.76523301191628" lon="8.747292961925268">
        <ele>177.02000000000001</ele>
        <time>2017-10-29T16:03:22Z</time>
      </trkpt>
      <trkpt lat="50.767040988430381" lon="8.748879991471767">
        <ele>177.02000000000001</ele>
        <time>2017-10-29T16:03:29Z</time>
      </trkpt>
      <trkpt lat="50.769535023719072" lon="8.752166032791138">
        <ele>178.94</ele>
        <time>2017-10-29T16:03:40Z</time>
      </trkpt>
      <trkpt lat="50.77337502501905" lon="8.75728796236217">
        <ele>182.31</ele>
        <time>2017-10-29T16:03:57Z</time>
      </trkpt>
      <trkpt lat="50.775345023721457" lon="8.759302971884608">
        <ele>186.63</ele>
        <time>2017-10-29T16:04:05Z</time>
      </trkpt>
      <trkpt lat="50.777035988867283" lon="8.760112999007106">
        <ele>188.56</ele>
        <time>2017-10-29T16:04:11Z</time>
      </trkpt>
      <trkpt lat="50.778813036158681" lon="8.760177958756685">
        <ele>190</ele>
        <time>2017-10-29T16:04:17Z</time>
      </trkpt>
      <trkpt lat="50.78113398514688" lon="8.759357035160065">
        <ele>187.11000000000001</ele>
        <time>2017-10-29T16:04:25Z</time>
      </trkpt>
      <trkpt lat="50.783740002661943" lon="8.758572991937399">
        <ele>182.31</ele>
        <time>2017-10-29T16:04:34Z</time>
      </trkpt>
      <trkpt lat="50.785648981109262" lon="8.75861800275743">
        <ele>180.38</ele>
        <time>2017-10-29T16:04:41Z</time>
      </trkpt>
      <trkpt lat="50.788905015215278" lon="8.759180009365082">
        <ele>177.5</ele>
        <time>2017-10-29T16:04:54Z</time>
      </trkpt>
      <trkpt lat="50.791805991902947" lon="8.76016597263515">
        <ele>178.46000000000001</ele>
        <time>2017-10-29T16:05:06Z</time>
      </trkpt>
      <trkpt lat="50.794013030827045" lon="8.761552004143596">
        <ele>179.90000000000001</ele>
        <time>2017-10-29T16:05:16Z</time>
      </trkpt>
      <trkpt lat="50.796355018392205" lon="8.763764994218946">
        <ele>182.31</ele>
        <time>2017-10-29T16:05:27Z</time>
      </trkpt>
      <trkpt lat="50.797887984663248" lon="8.765870025381446">
        <ele>183.27000000000001</ele>
        <time>2017-10-29T16:05:35Z</time>
      </trkpt>
      <trkpt lat="50.799269992858171" lon="8.768764967098832">
        <ele>183.75</ele>
        <time>2017-10-29T16:05:44Z</time>
      </trkpt>
      <trkpt lat="50.800911001861095" lon="8.773256996646524">
        <ele>182.78999999999999</ele>
        <time>2017-10-29T16:05:57Z</time>
      </trkpt>
      <trkpt lat="50.801854971796274" lon="8.775072013959289">
        <ele>183.27000000000001</ele>
        <time>2017-10-29T16:06:10Z</time>
      </trkpt>
      <trkpt lat="50.80521896481514" lon="8.777880035340786">
        <ele>183.27000000000001</ele>
        <time>2017-10-29T16:06:21Z</time>
      </trkpt>
      <trkpt lat="50.807326007634401" lon="8.778659971430898">
        <ele>183.75</ele>
        <time>2017-10-29T16:06:31Z</time>
      </trkpt>
      <trkpt lat="50.810119025409222" lon="8.779120976105332">
        <ele>184.22999999999999</ele>
        <time>2017-10-29T16:06:43Z</time>
      </trkpt>
      <trkpt lat="50.812534019351006" lon="8.779000025242567">
        <ele>184.22999999999999</ele>
        <time>2017-10-29T16:06:53Z</time>
      </trkpt>
      <trkpt lat="50.814140997827053" lon="8.778214976191521">
        <ele>184.22999999999999</ele>
        <time>2017-10-29T16:07:00Z</time>
      </trkpt>
      <trkpt lat="50.815525017678738" lon="8.776722997426987">
        <ele>185.19</ele>
        <time>2017-10-29T16:07:07Z</time>
      </trkpt>
      <trkpt lat="50.817706994712353" lon="8.773767035454512">
        <ele>190.47999999999999</ele>
        <time>2017-10-29T16:07:19Z</time>
      </trkpt>
      <trkpt lat="50.819402989000082" lon="8.77213197760284">
        <ele>190.96000000000001</ele>
        <time>2017-10-29T16:07:27Z</time>
      </trkpt>
      <trkpt lat="50.821786969900131" lon="8.770211013033986">
        <ele>185.19</ele>
        <time>2017-10-29T16:07:43Z</time>
      </trkpt>
      <trkpt lat="50.825670976191759" lon="8.76781202852726">
        <ele>185.66999999999999</ele>
        <time>2017-10-29T16:07:53Z</time>
      </trkpt>
      <trkpt lat="50.828404985368252" lon="8.767055980861187">
        <ele>185.19</ele>
        <time>2017-10-29T16:08:03Z</time>
      </trkpt>
      <trkpt lat="50.83140998147428" lon="8.767027985304594">
        <ele>184.71000000000001</ele>
        <time>2017-10-29T16:08:14Z</time>
      </trkpt>
      <trkpt lat="50.834204005077481" lon="8.7677270360291">
        <ele>187.11000000000001</ele>
        <time>2017-10-29T16:08:24Z</time>
      </trkpt>
      <trkpt lat="50.836876993998885" lon="8.769075013697147">
        <ele>193.84</ele>
        <time>2017-10-29T16:08:34Z</time>
      </trkpt>
      <trkpt lat="50.838807011023164" lon="8.770718034356833">
        <ele>200.56999999999999</ele>
        <time>2017-10-29T16:08:42Z</time>
      </trkpt>
      <trkpt lat="50.840181978419423" lon="8.772625001147389">
        <ele>204.41999999999999</ele>
        <time>2017-10-29T16:08:49Z</time>
      </trkpt>
      <trkpt lat="50.841275984421372" lon="8.77537501975894">
        <ele>207.78</ele>
        <time>2017-10-29T16:08:57Z</time>
      </trkpt>
      <trkpt lat="50.841844025999308" lon="8.778423015028238">
        <ele>208.25999999999999</ele>
        <time>2017-10-29T16:09:05Z</time>
      </trkpt>
      <trkpt lat="50.842124987393618" lon="8.78251195885241">
        <ele>204.90000000000001</ele>
        <time>2017-10-29T16:09:15Z</time>
      </trkpt>
      <trkpt lat="50.842777015641332" lon="8.785698004066944">
        <ele>202.00999999999999</ele>
        <time>2017-10-29T16:09:23Z</time>
      </trkpt>
      <trkpt lat="50.843832967802882" lon="8.788081984966993">
        <ele>200.09</ele>
        <time>2017-10-29T16:09:30Z</time>
      </trkpt>
      <trkpt lat="50.845389990136027" lon="8.790263962000608">
        <ele>201.05000000000001</ele>
        <time>2017-10-29T16:09:38Z</time>
      </trkpt>
      <trkpt lat="50.847568027675152" lon="8.792342003434897">
        <ele>204.41999999999999</ele>
        <time>2017-10-29T16:09:48Z</time>
      </trkpt>
      <trkpt lat="50.850160969421268" lon="8.794333040714264">
        <ele>209.22</ele>
        <time>2017-10-29T16:10:00Z</time>
      </trkpt>
      <trkpt lat="50.853062029927969" lon="8.79596097394824">
        <ele>211.15000000000001</ele>
        <time>2017-10-29T16:10:13Z</time>
      </trkpt>
      <trkpt lat="50.85506203584373" lon="8.797380030155182">
        <ele>210.19</ele>
        <time>2017-10-29T16:10:22Z</time>
      </trkpt>
      <trkpt lat="50.856328038498759" lon="8.799249026924372">
        <ele>209.22</ele>
        <time>2017-10-29T16:10:29Z</time>
      </trkpt>
      <trkpt lat="50.857180980965495" lon="8.801402002573013">
        <ele>206.81999999999999</ele>
        <time>2017-10-29T16:10:36Z</time>
      </trkpt>
      <trkpt lat="50.857618013396859" lon="8.803547015413642">
        <ele>203.46000000000001</ele>
        <time>2017-10-29T16:10:43Z</time>
      </trkpt>
      <trkpt lat="50.857746005058289" lon="8.806477999314666">
        <ele>197.21000000000001</ele>
        <time>2017-10-29T16:10:52Z</time>
      </trkpt>
      <trkpt lat="50.857536038383842" lon="8.808365017175674">
        <ele>193.36000000000001</ele>
        <time>2017-10-29T16:10:59Z</time>
      </trkpt>
      <trkpt lat="50.857369992882013" lon="8.809132967144251">
        <ele>190.96000000000001</ele>
        <time>2017-10-29T16:11:03Z</time>
      </trkpt>
      <trkpt lat="50.857301009818912" lon="8.809447037056088">
        <ele>190</ele>
        <time>2017-10-29T16:11:05Z</time>
      </trkpt>
      <trkpt lat="50.857237977907062" lon="8.809560025110841">
        <ele>189.52000000000001</ele>
        <time>2017-10-29T16:11:06Z</time>
      </trkpt>
      <trkpt lat="50.857161032035947" lon="8.809660021215677">
        <ele>189.52000000000001</ele>
        <time>2017-10-29T16:11:07Z</time>
      </trkpt>
      <trkpt lat="50.857072016224265" lon="8.809714000672102">
        <ele>189.03999999999999</ele>
        <time>2017-10-29T16:11:08Z</time>
      </trkpt>
      <trkpt lat="50.856978977099061" lon="8.809768985956907">
        <ele>189.03999999999999</ele>
        <time>2017-10-29T16:11:09Z</time>
      </trkpt>
      <trkpt lat="50.856881998479366" lon="8.809777032583952">
        <ele>188.56</ele>
        <time>2017-10-29T16:11:10Z</time>
      </trkpt>
      <trkpt lat="50.85678300820291" lon="8.809783989563584">
        <ele>188.56</ele>
        <time>2017-10-29T16:11:11Z</time>
      </trkpt>
      <trkpt lat="50.856668008491397" lon="8.809765968471766">
        <ele>188.56</ele>
        <time>2017-10-29T16:11:12Z</time>
      </trkpt>
      <trkpt lat="50.856573963537812" lon="8.809692962095141">
        <ele>188.56</ele>
        <time>2017-10-29T16:11:13Z</time>
      </trkpt>
      <trkpt lat="50.856478996574879" lon="8.809618027880788">
        <ele>188.56</ele>
        <time>2017-10-29T16:11:14Z</time>
      </trkpt>
      <trkpt lat="50.856384029611945" lon="8.809545021504164">
        <ele>189.03999999999999</ele>
        <time>2017-10-29T16:11:15Z</time>
      </trkpt>
      <trkpt lat="50.856295013800263" lon="8.809456005692482">
        <ele>189.03999999999999</ele>
        <time>2017-10-29T16:11:16Z</time>
      </trkpt>
      <trkpt lat="50.856236005201936" lon="8.809351986274123">
        <ele>189.52000000000001</ele>
        <time>2017-10-29T16:11:17Z</time>
      </trkpt>
      <trkpt lat="50.85618101991713" lon="8.809252995997667">
        <ele>189.52000000000001</ele>
        <time>2017-10-29T16:11:18Z</time>
      </trkpt>
      <trkpt lat="50.856119999662042" lon="8.809127015992999">
        <ele>190</ele>
        <time>2017-10-29T16:11:19Z</time>
      </trkpt>
      <trkpt lat="50.856113964691758" lon="8.809025008231401">
        <ele>190.47999999999999</ele>
        <time>2017-10-29T16:11:20Z</time>
      </trkpt>
      <trkpt lat="50.856108013540506" lon="8.808934986591339">
        <ele>190.47999999999999</ele>
        <time>2017-10-29T16:11:21Z</time>
      </trkpt>
      <trkpt lat="50.856102984398603" lon="8.808859968557954">
        <ele>190.96000000000001</ele>
        <time>2017-10-29T16:11:22Z</time>
      </trkpt>
      <trkpt lat="50.856101978570223" lon="8.808777993544936">
        <ele>191.44</ele>
        <time>2017-10-29T16:11:23Z</time>
      </trkpt>
      <trkpt lat="50.856106001883745" lon="8.808724014088512">
        <ele>191.91999999999999</ele>
        <time>2017-10-29T16:11:24Z</time>
      </trkpt>
      <trkpt lat="50.856109019368887" lon="8.8086779974401">
        <ele>191.91999999999999</ele>
        <time>2017-10-29T16:11:25Z</time>
      </trkpt>
      <trkpt lat="50.856227036565542" lon="8.808540031313896">
        <ele>192.40000000000001</ele>
        <time>2017-10-29T16:11:26Z</time>
      </trkpt>
      <trkpt lat="50.856273975223303" lon="8.808546988293529">
        <ele>192.88</ele>
        <time>2017-10-29T16:11:27Z</time>
      </trkpt>
      <trkpt lat="50.856334995478392" lon="8.808560986071825">
        <ele>193.36000000000001</ele>
        <time>2017-10-29T16:11:28Z</time>
      </trkpt>
      <trkpt lat="50.856411019340158" lon="8.808579007163644">
        <ele>193.36000000000001</ele>
        <time>2017-10-29T16:11:29Z</time>
      </trkpt>
      <trkpt lat="50.856499029323459" lon="8.808599039912224">
        <ele>193.84</ele>
        <time>2017-10-29T16:11:30Z</time>
      </trkpt>
      <trkpt lat="50.856600031256676" lon="8.808623012155294">
        <ele>194.31999999999999</ele>
        <time>2017-10-29T16:11:31Z</time>
      </trkpt>
      <trkpt lat="50.857565039768815" lon="8.809059960767627">
        <ele>197.21000000000001</ele>
        <time>2017-10-29T16:11:38Z</time>
      </trkpt>
      <trkpt lat="50.85875803604722" lon="8.810377009212971">
        <ele>198.16999999999999</ele>
        <time>2017-10-29T16:11:47Z</time>
      </trkpt>
      <trkpt lat="50.859807031229138" lon="8.812301997095347">
        <ele>195.28</ele>
        <time>2017-10-29T16:11:56Z</time>
      </trkpt>
      <trkpt lat="50.860811015591025" lon="8.813460962846875">
        <ele>193.84</ele>
        <time>2017-10-29T16:12:03Z</time>
      </trkpt>
      <trkpt lat="50.861797984689474" lon="8.81381400860846">
        <ele>193.84</ele>
        <time>2017-10-29T16:12:10Z</time>
      </trkpt>
      <trkpt lat="50.862358985468745" lon="8.813810991123319">
        <ele>192.88</ele>
        <time>2017-10-29T16:12:17Z</time>
      </trkpt>
      <trkpt lat="50.862416988238692" lon="8.813805039972067">
        <ele>192.88</ele>
        <time>2017-10-29T16:12:18Z</time>
      </trkpt>
      <trkpt lat="50.862479014322162" lon="8.813933031633496">
        <ele>192.88</ele>
        <time>2017-10-29T16:12:19Z</time>
      </trkpt>
      <trkpt lat="50.862494017928839" lon="8.813975024968386">
        <ele>192.88</ele>
        <time>2017-10-29T16:12:20Z</time>
      </trkpt>
      <trkpt lat="50.862676994875073" lon="8.814053982496262">
        <ele>193.36000000000001</ele>
        <time>2017-10-29T16:12:21Z</time>
      </trkpt>
      <trkpt lat="50.862693004310131" lon="8.814166970551014">
        <ele>193.36000000000001</ele>
        <time>2017-10-29T16:12:22Z</time>
      </trkpt>
      <trkpt lat="50.862709013745189" lon="8.814275013282895">
        <ele>193.36000000000001</ele>
        <time>2017-10-29T16:12:23Z</time>
      </trkpt>
      <trkpt lat="50.86271102540195" lon="8.814452961087227">
        <ele>193.84</ele>
        <time>2017-10-29T16:12:24Z</time>
      </trkpt>
      <trkpt lat="50.862713037058711" lon="8.81461095996201">
        <ele>193.84</ele>
        <time>2017-10-29T16:12:25Z</time>
      </trkpt>
      <trkpt lat="50.862714964896441" lon="8.8160689920187">
        <ele>196.25</ele>
        <time>2017-10-29T16:12:34Z</time>
      </trkpt>
      <trkpt lat="50.862643970176578" lon="8.816999970003963">
        <ele>195.77000000000001</ele>
        <time>2017-10-29T16:12:41Z</time>
      </trkpt>
      <trkpt lat="50.862515978515148" lon="8.817171966657043">
        <ele>195.77000000000001</ele>
        <time>2017-10-29T16:12:42Z</time>
      </trkpt>
      <trkpt lat="50.86249703541398" lon="8.817232986912131">
        <ele>195.28</ele>
        <time>2017-10-29T16:12:44Z</time>
      </trkpt>
      <trkpt lat="50.862472979351878" lon="8.8173140399158">
        <ele>195.28</ele>
        <time>2017-10-29T16:12:45Z</time>
      </trkpt>
      <trkpt lat="50.862451018765569" lon="8.817408001050353">
        <ele>195.28</ele>
        <time>2017-10-29T16:12:46Z</time>
      </trkpt>
      <trkpt lat="50.862499969080091" lon="8.817544961348176">
        <ele>195.77000000000001</ele>
        <time>2017-10-29T16:12:47Z</time>
      </trkpt>
      <trkpt lat="50.862550009042025" lon="8.81757496856153">
        <ele>195.77000000000001</ele>
        <time>2017-10-29T16:12:48Z</time>
      </trkpt>
      <trkpt lat="50.862613040953875" lon="8.817569017410278">
        <ele>195.77000000000001</ele>
        <time>2017-10-29T16:12:49Z</time>
      </trkpt>
      <trkpt lat="50.862666014581919" lon="8.817558037117124">
        <ele>195.77000000000001</ele>
        <time>2017-10-29T16:12:50Z</time>
      </trkpt>
      <trkpt lat="50.862774979323149" lon="8.817532975226641">
        <ele>195.77000000000001</ele>
        <time>2017-10-29T16:12:51Z</time>
      </trkpt>
      <trkpt lat="50.862847985699773" lon="8.817599024623632">
        <ele>196.25</ele>
        <time>2017-10-29T16:12:52Z</time>
      </trkpt>
      <trkpt lat="50.862929038703442" lon="8.817672031000257">
        <ele>196.72999999999999</ele>
        <time>2017-10-29T16:12:53Z</time>
      </trkpt>
      <trkpt lat="50.863002967089415" lon="8.81778602488339">
        <ele>197.21000000000001</ele>
        <time>2017-10-29T16:12:54Z</time>
      </trkpt>
      <trkpt lat="50.8630779851228" lon="8.8179150223732">
        <ele>197.21000000000001</ele>
        <time>2017-10-29T16:12:55Z</time>
      </trkpt>
      <trkpt lat="50.863158032298088" lon="8.818050976842642">
        <ele>197.21000000000001</ele>
        <time>2017-10-29T16:12:56Z</time>
      </trkpt>
      <trkpt lat="50.863667987287045" lon="8.818782968446612">
        <ele>197.69</ele>
        <time>2017-10-29T16:13:01Z</time>
      </trkpt>
      <trkpt lat="50.863797990605235" lon="8.818910038098693">
        <ele>197.21000000000001</ele>
        <time>2017-10-29T16:13:02Z</time>
      </trkpt>
      <trkpt lat="50.863940985873342" lon="8.819025037810206">
        <ele>197.21000000000001</ele>
        <time>2017-10-29T16:13:03Z</time>
      </trkpt>
      <trkpt lat="50.865749968215823" lon="8.820164976641536">
        <ele>197.69</ele>
        <time>2017-10-29T16:13:14Z</time>
      </trkpt>
      <trkpt lat="50.868494035676122" lon="8.821873040869832">
        <ele>200.56999999999999</ele>
        <time>2017-10-29T16:13:30Z</time>
      </trkpt>
      <trkpt lat="50.869708992540836" lon="8.822935028001666">
        <ele>202.00999999999999</ele>
        <time>2017-10-29T16:13:38Z</time>
      </trkpt>
      <trkpt lat="50.871136011555791" lon="8.824075972661376">
        <ele>203.94</ele>
        <time>2017-10-29T16:13:47Z</time>
      </trkpt>
      <trkpt lat="50.872611980885267" lon="8.824533959850669">
        <ele>205.86000000000001</ele>
        <time>2017-10-29T16:13:56Z</time>
      </trkpt>
      <trkpt lat="50.873076003044844" lon="8.824736969545484">
        <ele>205.86000000000001</ele>
        <time>2017-10-29T16:13:59Z</time>
      </trkpt>
      <trkpt lat="50.873234001919627" lon="8.824821962043643">
        <ele>205.86000000000001</ele>
        <time>2017-10-29T16:14:00Z</time>
      </trkpt>
      <trkpt lat="50.873374985530972" lon="8.82496302947402">
        <ele>205.86000000000001</ele>
        <time>2017-10-29T16:14:01Z</time>
      </trkpt>
      <trkpt lat="50.874419035390019" lon="8.826516028493643">
        <ele>206.81999999999999</ele>
        <time>2017-10-29T16:14:09Z</time>
      </trkpt>
      <trkpt lat="50.87525999173522" lon="8.82777800783515">
        <ele>208.74000000000001</ele>
        <time>2017-10-29T16:14:16Z</time>
      </trkpt>
      <trkpt lat="50.875398041680455" lon="8.827902982011437">
        <ele>209.22</ele>
        <time>2017-10-29T16:14:17Z</time>
      </trkpt>
      <trkpt lat="50.875544976443052" lon="8.82799400947988">
        <ele>209.22</ele>
        <time>2017-10-29T16:14:18Z</time>
      </trkpt>
      <trkpt lat="50.877023041248322" lon="8.82855199277401">
        <ele>211.15000000000001</ele>
        <time>2017-10-29T16:14:28Z</time>
      </trkpt>
      <trkpt lat="50.87837697006762" lon="8.828971004113555">
        <ele>211.15000000000001</ele>
        <time>2017-10-29T16:14:38Z</time>
      </trkpt>
      <trkpt lat="50.87867402471602" lon="8.829066976904869">
        <ele>211.15000000000001</ele>
        <time>2017-10-29T16:14:42Z</time>
      </trkpt>
      <trkpt lat="50.878731021657586" lon="8.829008974134922">
        <ele>211.15000000000001</ele>
        <time>2017-10-29T16:14:43Z</time>
      </trkpt>
      <trkpt lat="50.878747031092644" lon="8.828934961929917">
        <ele>210.66999999999999</ele>
        <time>2017-10-29T16:14:44Z</time>
      </trkpt>
      <trkpt lat="50.878768991678953" lon="8.828834965825081">
        <ele>210.66999999999999</ele>
        <time>2017-10-29T16:14:45Z</time>
      </trkpt>
      <trkpt lat="50.878793969750404" lon="8.828718038275838">
        <ele>210.19</ele>
        <time>2017-10-29T16:14:46Z</time>
      </trkpt>
      <trkpt lat="50.878823976963758" lon="8.828578982502222">
        <ele>210.19</ele>
        <time>2017-10-29T16:14:47Z</time>
      </trkpt>
      <trkpt lat="50.878897989168763" lon="8.828232977539301">
        <ele>210.19</ele>
        <time>2017-10-29T16:14:49Z</time>
      </trkpt>
      <trkpt lat="50.878996979445219" lon="8.827826036140323">
        <ele>209.69999999999999</ele>
        <time>2017-10-29T16:14:51Z</time>
      </trkpt>
      <trkpt lat="50.879078032448888" lon="8.827636018395424">
        <ele>209.69999999999999</ele>
        <time>2017-10-29T16:14:52Z</time>
      </trkpt>
      <trkpt lat="50.879160007461905" lon="8.827444994822145">
        <ele>209.69999999999999</ele>
        <time>2017-10-29T16:14:53Z</time>
      </trkpt>
      <trkpt lat="50.879239970818162" lon="8.827265035361052">
        <ele>209.22</ele>
        <time>2017-10-29T16:14:54Z</time>
      </trkpt>
      <trkpt lat="50.879336027428508" lon="8.827117010951042">
        <ele>209.22</ele>
        <time>2017-10-29T16:14:55Z</time>
      </trkpt>
      <trkpt lat="50.879432000219822" lon="8.826967980712652">
        <ele>208.74000000000001</ele>
        <time>2017-10-29T16:14:56Z</time>
      </trkpt>
      <trkpt lat="50.879540964961052" lon="8.82683495990932">
        <ele>208.74000000000001</ele>
        <time>2017-10-29T16:14:57Z</time>
      </trkpt>
      <trkpt lat="50.879656970500946" lon="8.826710991561413">
        <ele>208.74000000000001</ele>
        <time>2017-10-29T16:14:58Z</time>
      </trkpt>
      <trkpt lat="50.879776999354362" lon="8.826587023213506">
        <ele>208.74000000000001</ele>
        <time>2017-10-29T16:14:59Z</time>
      </trkpt>
      <trkpt lat="50.879910020157695" lon="8.826513011008501">
        <ele>208.25999999999999</ele>
        <time>2017-10-29T16:15:00Z</time>
      </trkpt>
      <trkpt lat="50.880044968798757" lon="8.826437992975116">
        <ele>208.25999999999999</ele>
        <time>2017-10-29T16:15:01Z</time>
      </trkpt>
      <trkpt lat="50.880181007087231" lon="8.826369009912014">
        <ele>208.25999999999999</ele>
        <time>2017-10-29T16:15:02Z</time>
      </trkpt>
      <trkpt lat="50.880324002355337" lon="8.826323999091983">
        <ele>208.74000000000001</ele>
        <time>2017-10-29T16:15:03Z</time>
      </trkpt>
      <trkpt lat="50.881710033863783" lon="8.825961984694004">
        <ele>211.15000000000001</ele>
        <time>2017-10-29T16:15:12Z</time>
      </trkpt>
      <trkpt lat="50.883351964876056" lon="8.825531993061304">
        <ele>210.66999999999999</ele>
        <time>2017-10-29T16:15:24Z</time>
      </trkpt>
      <trkpt lat="50.884598018601537" lon="8.825076017528772">
        <ele>211.15000000000001</ele>
        <time>2017-10-29T16:15:35Z</time>
      </trkpt>
      <trkpt lat="50.884716035798192" lon="8.825068976730108">
        <ele>211.15000000000001</ele>
        <time>2017-10-29T16:15:36Z</time>
      </trkpt>
      <trkpt lat="50.885260021314025" lon="8.825158998370171">
        <ele>212.11000000000001</ele>
        <time>2017-10-29T16:15:42Z</time>
      </trkpt>
      <trkpt lat="50.885445009917021" lon="8.825260000303388">
        <ele>212.11000000000001</ele>
        <time>2017-10-29T16:15:44Z</time>
      </trkpt>
      <trkpt lat="50.885547017678618" lon="8.825342981144786">
        <ele>212.11000000000001</ele>
        <time>2017-10-29T16:15:45Z</time>
      </trkpt>
      <trkpt lat="50.885753966867924" lon="8.825536016374826">
        <ele>213.06999999999999</ele>
        <time>2017-10-29T16:15:47Z</time>
      </trkpt>
      <trkpt lat="50.886826012283564" lon="8.827079962939024">
        <ele>219.80000000000001</ele>
        <time>2017-10-29T16:15:58Z</time>
      </trkpt>
      <trkpt lat="50.887511987239122" lon="8.827630989253521">
        <ele>221.24000000000001</ele>
        <time>2017-10-29T16:16:03Z</time>
      </trkpt>
      <trkpt lat="50.888652009889483" lon="8.82792997173965">
        <ele>220.75999999999999</ele>
        <time>2017-10-29T16:16:10Z</time>
      </trkpt>
      <trkpt lat="50.890163015574217" lon="8.827857971191406">
        <ele>216.43000000000001</ele>
        <time>2017-10-29T16:16:17Z</time>
      </trkpt>
      <trkpt lat="50.891748033463955" lon="8.827683962881565">
        <ele>217.40000000000001</ele>
        <time>2017-10-29T16:16:25Z</time>
      </trkpt>
      <trkpt lat="50.893938979133964" lon="8.826997987926006">
        <ele>217.88</ele>
        <time>2017-10-29T16:16:36Z</time>
      </trkpt>
      <trkpt lat="50.894325971603394" lon="8.826922969892621">
        <ele>217.88</ele>
        <time>2017-10-29T16:16:38Z</time>
      </trkpt>
      <trkpt lat="50.894512971863151" lon="8.826892040669918">
        <ele>217.88</ele>
        <time>2017-10-29T16:16:39Z</time>
      </trkpt>
      <trkpt lat="50.89567000977695" lon="8.827165039256215">
        <ele>219.31999999999999</ele>
        <time>2017-10-29T16:16:46Z</time>
      </trkpt>
      <trkpt lat="50.895802024751902" lon="8.827240979298949">
        <ele>218.84</ele>
        <time>2017-10-29T16:16:47Z</time>
      </trkpt>
      <trkpt lat="50.896081980317831" lon="8.827404007315636">
        <ele>218.36000000000001</ele>
        <time>2017-10-29T16:16:49Z</time>
      </trkpt>
      <trkpt lat="50.896388003602624" lon="8.827548008412123">
        <ele>218.36000000000001</ele>
        <time>2017-10-29T16:16:51Z</time>
      </trkpt>
      <trkpt lat="50.89655396528542" lon="8.827571980655193">
        <ele>218.84</ele>
        <time>2017-10-29T16:16:52Z</time>
      </trkpt>
      <trkpt lat="50.896740965545177" lon="8.827600982040167">
        <ele>218.84</ele>
        <time>2017-10-29T16:16:53Z</time>
      </trkpt>
      <trkpt lat="50.897632967680693" lon="8.827458992600441">
        <ele>221.24000000000001</ele>
        <time>2017-10-29T16:16:59Z</time>
      </trkpt>
      <trkpt lat="50.897752996534109" lon="8.827490005642176">
        <ele>221.24000000000001</ele>
        <time>2017-10-29T16:17:00Z</time>
      </trkpt>
      <trkpt lat="50.897880988195539" lon="8.827565023675561">
        <ele>221.24000000000001</ele>
        <time>2017-10-29T16:17:01Z</time>
      </trkpt>
      <trkpt lat="50.898009985685349" lon="8.827664013952017">
        <ele>221.24000000000001</ele>
        <time>2017-10-29T16:17:02Z</time>
      </trkpt>
      <trkpt lat="50.898146023973823" lon="8.827788988128305">
        <ele>221.72</ele>
        <time>2017-10-29T16:17:03Z</time>
      </trkpt>
      <trkpt lat="50.898274015635252" lon="8.827942963689566">
        <ele>221.72</ele>
        <time>2017-10-29T16:17:04Z</time>
      </trkpt>
      <trkpt lat="50.898392032831907" lon="8.828134993091226">
        <ele>222.19999999999999</ele>
        <time>2017-10-29T16:17:05Z</time>
      </trkpt>
      <trkpt lat="50.898511977866292" lon="8.828330039978027">
        <ele>222.19999999999999</ele>
        <time>2017-10-29T16:17:06Z</time>
      </trkpt>
      <trkpt lat="50.89863502420485" lon="8.828528020530939">
        <ele>222.19999999999999</ele>
        <time>2017-10-29T16:17:07Z</time>
      </trkpt>
      <trkpt lat="50.89951403439045" lon="8.8304209895432">
        <ele>221.72</ele>
        <time>2017-10-29T16:17:16Z</time>
      </trkpt>
      <trkpt lat="50.899703968316317" lon="8.830831032246351">
        <ele>221.72</ele>
        <time>2017-10-29T16:17:18Z</time>
      </trkpt>
      <trkpt lat="50.899809999391437" lon="8.831006968393922">
        <ele>221.72</ele>
        <time>2017-10-29T16:17:19Z</time>
      </trkpt>
      <trkpt lat="50.899943020194769" lon="8.831148035824299">
        <ele>221.72</ele>
        <time>2017-10-29T16:17:20Z</time>
      </trkpt>
      <trkpt lat="50.900082997977734" lon="8.831257000565529">
        <ele>222.19999999999999</ele>
        <time>2017-10-29T16:17:21Z</time>
      </trkpt>
      <trkpt lat="50.900219036266208" lon="8.831363031640649">
        <ele>222.68000000000001</ele>
        <time>2017-10-29T16:17:22Z</time>
      </trkpt>
      <trkpt lat="50.900476025417447" lon="8.831564029678702">
        <ele>224.61000000000001</ele>
        <time>2017-10-29T16:17:24Z</time>
      </trkpt>
      <trkpt lat="50.900746006518602" lon="8.831791011616588">
        <ele>226.53</ele>
        <time>2017-10-29T16:17:26Z</time>
      </trkpt>
      <trkpt lat="50.901000984013081" lon="8.832097034901381">
        <ele>227.97</ele>
        <time>2017-10-29T16:17:28Z</time>
      </trkpt>
      <trkpt lat="50.901110032573342" lon="8.832274982705712">
        <ele>228.93000000000001</ele>
        <time>2017-10-29T16:17:29Z</time>
      </trkpt>
      <trkpt lat="50.901693999767303" lon="8.833352979272604">
        <ele>230.84999999999999</ele>
        <time>2017-10-29T16:17:35Z</time>
      </trkpt>
      <trkpt lat="50.901792990043759" lon="8.83353503420949">
        <ele>230.84999999999999</ele>
        <time>2017-10-29T16:17:36Z</time>
      </trkpt>
      <trkpt lat="50.901897009462118" lon="8.833723040297627">
        <ele>230.84999999999999</ele>
        <time>2017-10-29T16:17:37Z</time>
      </trkpt>
      <trkpt lat="50.90203195810318" lon="8.833867963403463">
        <ele>230.84999999999999</ele>
        <time>2017-10-29T16:17:38Z</time>
      </trkpt>
      <trkpt lat="50.902172019705176" lon="8.834017999470234">
        <ele>231.33000000000001</ele>
        <time>2017-10-29T16:17:39Z</time>
      </trkpt>
      <trkpt lat="50.902319038286805" lon="8.834135010838509">
        <ele>231.33000000000001</ele>
        <time>2017-10-29T16:17:40Z</time>
      </trkpt>
      <trkpt lat="50.902464967221022" lon="8.834251016378403">
        <ele>231.81</ele>
        <time>2017-10-29T16:17:41Z</time>
      </trkpt>
      <trkpt lat="50.902609974145889" lon="8.834366016089916">
        <ele>231.81</ele>
        <time>2017-10-29T16:17:42Z</time>
      </trkpt>
      <trkpt lat="50.902898982167244" lon="8.834596015512943">
        <ele>231.81</ele>
        <time>2017-10-29T16:17:44Z</time>
      </trkpt>
      <trkpt lat="50.903177009895444" lon="8.83471897803247">
        <ele>231.81</ele>
        <time>2017-10-29T16:17:46Z</time>
      </trkpt>
      <trkpt lat="50.903329979628325" lon="8.834787039086223">
        <ele>232.30000000000001</ele>
        <time>2017-10-29T16:17:47Z</time>
      </trkpt>
      <trkpt lat="50.90351396240294" lon="8.834859961643815">
        <ele>232.78</ele>
        <time>2017-10-29T16:17:48Z</time>
      </trkpt>
      <trkpt lat="50.904632024466991" lon="8.835059031844139">
        <ele>232.78</ele>
        <time>2017-10-29T16:17:53Z</time>
      </trkpt>
      <trkpt lat="50.905193025246263" lon="8.835159027948976">
        <ele>234.22</ele>
        <time>2017-10-29T16:17:56Z</time>
      </trkpt>
      <trkpt lat="50.905350018292665" lon="8.8352130074054">
        <ele>234.69999999999999</ele>
        <time>2017-10-29T16:17:57Z</time>
      </trkpt>
      <trkpt lat="50.906950961798429" lon="8.836097968742251">
        <ele>238.06</ele>
        <time>2017-10-29T16:18:07Z</time>
      </trkpt>
      <trkpt lat="50.907994005829096" lon="8.836832977831364">
        <ele>233.25999999999999</ele>
        <time>2017-10-29T16:18:14Z</time>
      </trkpt>
      <trkpt lat="50.908665983006358" lon="8.837366988882422">
        <ele>231.33000000000001</ele>
        <time>2017-10-29T16:18:17Z</time>
      </trkpt>
      <trkpt lat="50.908831022679806" lon="8.837543008849025">
        <ele>231.33000000000001</ele>
        <time>2017-10-29T16:18:18Z</time>
      </trkpt>
      <trkpt lat="50.910450993105769" lon="8.839622978121042">
        <ele>232.30000000000001</ele>
        <time>2017-10-29T16:18:28Z</time>
      </trkpt>
      <trkpt lat="50.911724958568811" lon="8.841040022671223">
        <ele>232.78</ele>
        <time>2017-10-29T16:18:36Z</time>
      </trkpt>
      <trkpt lat="50.91333101503551" lon="8.842328991740942">
        <ele>233.74000000000001</ele>
        <time>2017-10-29T16:18:45Z</time>
      </trkpt>
      <trkpt lat="50.914403982460499" lon="8.843650985509157">
        <ele>234.69999999999999</ele>
        <time>2017-10-29T16:18:52Z</time>
      </trkpt>
      <trkpt lat="50.915167992934585" lon="8.844600990414619">
        <ele>236.62</ele>
        <time>2017-10-29T16:18:59Z</time>
      </trkpt>
      <trkpt lat="50.9162119589746" lon="8.845286965370178">
        <ele>239.02000000000001</ele>
        <time>2017-10-29T16:19:09Z</time>
      </trkpt>
      <trkpt lat="50.917102033272386" lon="8.845789963379502">
        <ele>241.43000000000001</ele>
        <time>2017-10-29T16:19:17Z</time>
      </trkpt>
      <trkpt lat="50.917214015498757" lon="8.845863975584507">
        <ele>241.43000000000001</ele>
        <time>2017-10-29T16:19:18Z</time>
      </trkpt>
      <trkpt lat="50.917304959148169" lon="8.845980986952782">
        <ele>241.43000000000001</ele>
        <time>2017-10-29T16:19:19Z</time>
      </trkpt>
      <trkpt lat="50.91739003546536" lon="8.846095986664295">
        <ele>241.91</ele>
        <time>2017-10-29T16:19:20Z</time>
      </trkpt>
      <trkpt lat="50.917475027963519" lon="8.846210986375809">
        <ele>241.43000000000001</ele>
        <time>2017-10-29T16:19:21Z</time>
      </trkpt>
      <trkpt lat="50.917559014633298" lon="8.846324980258942">
        <ele>241.43000000000001</ele>
        <time>2017-10-29T16:19:22Z</time>
      </trkpt>
      <trkpt lat="50.917639983817935" lon="8.846435034647584">
        <ele>241.43000000000001</ele>
        <time>2017-10-29T16:19:23Z</time>
      </trkpt>
      <trkpt lat="50.917890015989542" lon="8.846747009083629">
        <ele>241.43000000000001</ele>
        <time>2017-10-29T16:19:26Z</time>
      </trkpt>
      <trkpt lat="50.917985988780856" lon="8.846832001581788">
        <ele>241.43000000000001</ele>
        <time>2017-10-29T16:19:27Z</time>
      </trkpt>
      <trkpt lat="50.918081039562821" lon="8.846913976594806">
        <ele>241.43000000000001</ele>
        <time>2017-10-29T16:19:28Z</time>
      </trkpt>
      <trkpt lat="50.918268039822578" lon="8.847043979912996">
        <ele>241.43000000000001</ele>
        <time>2017-10-29T16:19:30Z</time>
      </trkpt>
      <trkpt lat="50.91835998930037" lon="8.847105000168085">
        <ele>241.43000000000001</ele>
        <time>2017-10-29T16:19:31Z</time>
      </trkpt>
      <trkpt lat="50.918454034253955" lon="8.847177000716329">
        <ele>241.91</ele>
        <time>2017-10-29T16:19:32Z</time>
      </trkpt>
      <trkpt lat="50.91855101287365" lon="8.847251012921333">
        <ele>241.91</ele>
        <time>2017-10-29T16:19:33Z</time>
      </trkpt>
      <trkpt lat="50.918632987886667" lon="8.847342040389776">
        <ele>241.91</ele>
        <time>2017-10-29T16:19:34Z</time>
      </trkpt>
      <trkpt lat="50.918710017576814" lon="8.847443964332342">
        <ele>241.91</ele>
        <time>2017-10-29T16:19:35Z</time>
      </trkpt>
      <trkpt lat="50.91887203976512" lon="8.847636999562383">
        <ele>241.91</ele>
        <time>2017-10-29T16:19:37Z</time>
      </trkpt>
      <trkpt lat="50.918970024213195" lon="8.847689973190427">
        <ele>241.91</ele>
        <time>2017-10-29T16:19:38Z</time>
      </trkpt>
      <trkpt lat="50.919077983126044" lon="8.847748981788755">
        <ele>241.91</ele>
        <time>2017-10-29T16:19:39Z</time>
      </trkpt>
      <trkpt lat="50.919178985059261" lon="8.847792986780405">
        <ele>241.91</ele>
        <time>2017-10-29T16:19:40Z</time>
      </trkpt>
      <trkpt lat="50.919275041669607" lon="8.847833974286914">
        <ele>241.91</ele>
        <time>2017-10-29T16:19:41Z</time>
      </trkpt>
      <trkpt lat="50.919361962005496" lon="8.847871022298932">
        <ele>242.38999999999999</ele>
        <time>2017-10-29T16:19:42Z</time>
      </trkpt>
      <trkpt lat="50.919452989473939" lon="8.847877979278565">
        <ele>242.38999999999999</ele>
        <time>2017-10-29T16:19:43Z</time>
      </trkpt>
      <trkpt lat="50.919525995850563" lon="8.847877979278565">
        <ele>242.38999999999999</ele>
        <time>2017-10-29T16:19:44Z</time>
      </trkpt>
      <trkpt lat="50.919579975306988" lon="8.847877979278565">
        <ele>242.38999999999999</ele>
        <time>2017-10-29T16:19:45Z</time>
      </trkpt>
      <trkpt lat="50.919752977788448" lon="8.847979987040162">
        <ele>241.43000000000001</ele>
        <time>2017-10-29T16:19:52Z</time>
      </trkpt>
      <trkpt lat="50.919805029407144" lon="8.848216021433473">
        <ele>241.43000000000001</ele>
        <time>2017-10-29T16:19:56Z</time>
      </trkpt>
      <trkpt lat="50.919822966679931" lon="8.848295984789729">
        <ele>241.91</ele>
        <time>2017-10-29T16:19:57Z</time>
      </trkpt>
      <trkpt lat="50.91984199360013" lon="8.848385000601411">
        <ele>241.91</ele>
        <time>2017-10-29T16:19:58Z</time>
      </trkpt>
      <trkpt lat="50.920006027445197" lon="8.849131995812058">
        <ele>242.87</ele>
        <time>2017-10-29T16:20:04Z</time>
      </trkpt>
      <trkpt lat="50.920033017173409" lon="8.849255964159966">
        <ele>242.87</ele>
        <time>2017-10-29T16:20:05Z</time>
      </trkpt>
      <trkpt lat="50.920057995244861" lon="8.849370963871479">
        <ele>243.34999999999999</ele>
        <time>2017-10-29T16:20:06Z</time>
      </trkpt>
      <trkpt lat="50.920041985809803" lon="8.849517982453108">
        <ele>243.34999999999999</ele>
        <time>2017-10-29T16:20:07Z</time>
      </trkpt>
      <trkpt lat="50.920012984424829" lon="8.849661983549595">
        <ele>243.83000000000001</ele>
        <time>2017-10-29T16:20:08Z</time>
      </trkpt>
      <trkpt lat="50.919982977211475" lon="8.849812019616365">
        <ele>243.83000000000001</ele>
        <time>2017-10-29T16:20:09Z</time>
      </trkpt>
      <trkpt lat="50.919951964169741" lon="8.849967001006007">
        <ele>244.31</ele>
        <time>2017-10-29T16:20:10Z</time>
      </trkpt>
      <trkpt lat="50.919888010248542" lon="8.850312000140548">
        <ele>244.78999999999999</ele>
        <time>2017-10-29T16:20:12Z</time>
      </trkpt>
      <trkpt lat="50.919593973085284" lon="8.852146966382861">
        <ele>252.47999999999999</ele>
        <time>2017-10-29T16:20:21Z</time>
      </trkpt>
      <trkpt lat="50.918988967314363" lon="8.853850001469255">
        <ele>259.69</ele>
        <time>2017-10-29T16:20:29Z</time>
      </trkpt>
      <trkpt lat="50.918911015614867" lon="8.853992996737361">
        <ele>260.64999999999998</ele>
        <time>2017-10-29T16:20:30Z</time>
      </trkpt>
      <trkpt lat="50.918825017288327" lon="8.8540980219841">
        <ele>261.13999999999999</ele>
        <time>2017-10-29T16:20:31Z</time>
      </trkpt>
      <trkpt lat="50.918727032840252" lon="8.854214027523994">
        <ele>262.10000000000002</ele>
        <time>2017-10-29T16:20:32Z</time>
      </trkpt>
      <trkpt lat="50.918611027300358" lon="8.854297008365393">
        <ele>262.10000000000002</ele>
        <time>2017-10-29T16:20:33Z</time>
      </trkpt>
      <trkpt lat="50.918490998446941" lon="8.854383006691933">
        <ele>262.57999999999998</ele>
        <time>2017-10-29T16:20:34Z</time>
      </trkpt>
      <trkpt lat="50.917654987424612" lon="8.85521499440074">
        <ele>263.06</ele>
        <time>2017-10-29T16:20:41Z</time>
      </trkpt>
      <trkpt lat="50.916157979518175" lon="8.857044009491801">
        <ele>263.54000000000002</ele>
        <time>2017-10-29T16:20:52Z</time>
      </trkpt>
      <trkpt lat="50.915086017921567" lon="8.858461976051331">
        <ele>264.01999999999998</ele>
        <time>2017-10-29T16:21:00Z</time>
      </trkpt>
      <trkpt lat="50.914988033473492" lon="8.858663979917765">
        <ele>263.54000000000002</ele>
        <time>2017-10-29T16:21:01Z</time>
      </trkpt>
      <trkpt lat="50.914888037368655" lon="8.858873024582863">
        <ele>263.06</ele>
        <time>2017-10-29T16:21:02Z</time>
      </trkpt>
      <trkpt lat="50.914790974929929" lon="8.859108975157142">
        <ele>262.57999999999998</ele>
        <time>2017-10-29T16:21:03Z</time>
      </trkpt>
      <trkpt lat="50.914702964946628" lon="8.859379962086678">
        <ele>262.10000000000002</ele>
        <time>2017-10-29T16:21:04Z</time>
      </trkpt>
      <trkpt lat="50.913685988634825" lon="8.862678995355964">
        <ele>267.38</ele>
        <time>2017-10-29T16:21:15Z</time>
      </trkpt>
      <trkpt lat="50.912432977929711" lon="8.866493012756109">
        <ele>272.67000000000002</ele>
        <time>2017-10-29T16:21:28Z</time>
      </trkpt>
      <trkpt lat="50.911373002454638" lon="8.869349984452128">
        <ele>271.70999999999998</ele>
        <time>2017-10-29T16:21:39Z</time>
      </trkpt>
      <trkpt lat="50.90997900813818" lon="8.871913002803922">
        <ele>271.70999999999998</ele>
        <time>2017-10-29T16:21:51Z</time>
      </trkpt>
      <trkpt lat="50.908816019073129" lon="8.873664988204837">
        <ele>272.67000000000002</ele>
        <time>2017-10-29T16:22:01Z</time>
      </trkpt>
      <trkpt lat="50.906999995931983" lon="8.875832967460156">
        <ele>273.63</ele>
        <time>2017-10-29T16:22:14Z</time>
      </trkpt>
      <trkpt lat="50.905623016878963" lon="8.877545977011323">
        <ele>278.92000000000002</ele>
        <time>2017-10-29T16:22:25Z</time>
      </trkpt>
      <trkpt lat="50.905551016330719" lon="8.877682015299797">
        <ele>279.39999999999998</ele>
        <time>2017-10-29T16:22:26Z</time>
      </trkpt>
      <trkpt lat="50.905516985803843" lon="8.877746975049377">
        <ele>280.36000000000001</ele>
        <time>2017-10-29T16:22:27Z</time>
      </trkpt>
      <trkpt lat="50.905453031882644" lon="8.877921989187598">
        <ele>280.83999999999997</ele>
        <time>2017-10-29T16:22:28Z</time>
      </trkpt>
      <trkpt lat="50.905300984159112" lon="8.878333959728479">
        <ele>283.73000000000002</ele>
        <time>2017-10-29T16:22:32Z</time>
      </trkpt>
      <trkpt lat="50.90525396168232" lon="8.878421969711781">
        <ele>283.73000000000002</ele>
        <time>2017-10-29T16:22:33Z</time>
      </trkpt>
      <trkpt lat="50.905077019706368" lon="8.878631014376879">
        <ele>285.17000000000002</ele>
        <time>2017-10-29T16:22:38Z</time>
      </trkpt>
      <trkpt lat="50.905094034969807" lon="8.878778032958508">
        <ele>285.64999999999998</ele>
        <time>2017-10-29T16:22:39Z</time>
      </trkpt>
      <trkpt lat="50.905138039961457" lon="8.878872999921441">
        <ele>286.13</ele>
        <time>2017-10-29T16:22:40Z</time>
      </trkpt>
      <trkpt lat="50.905193025246263" lon="8.878993028774858">
        <ele>286.61000000000001</ele>
        <time>2017-10-29T16:22:41Z</time>
      </trkpt>
      <trkpt lat="50.905257984995842" lon="8.879136024042964">
        <ele>287.08999999999997</ele>
        <time>2017-10-29T16:22:42Z</time>
      </trkpt>
      <trkpt lat="50.9055520221591" lon="8.88050302863121">
        <ele>289.49000000000001</ele>
        <time>2017-10-29T16:22:48Z</time>
      </trkpt>
      <trkpt lat="50.905934991315007" lon="8.883121032267809">
        <ele>291.42000000000002</ele>
        <time>2017-10-29T16:22:56Z</time>
      </trkpt>
      <trkpt lat="50.906707970425487" lon="8.888478996232152">
        <ele>284.69</ele>
        <time>2017-10-29T16:23:10Z</time>
      </trkpt>
      <trkpt lat="50.90729596093297" lon="8.892671037465334">
        <ele>276.04000000000002</ele>
        <time>2017-10-29T16:23:21Z</time>
      </trkpt>
      <trkpt lat="50.907535012811422" lon="8.895765971392393">
        <ele>265.45999999999998</ele>
        <time>2017-10-29T16:23:30Z</time>
      </trkpt>
      <trkpt lat="50.90783198364079" lon="8.899383014068008">
        <ele>257.76999999999998</ele>
        <time>2017-10-29T16:23:41Z</time>
      </trkpt>
      <trkpt lat="50.908554000779986" lon="8.903097035363317">
        <ele>257.29000000000002</ele>
        <time>2017-10-29T16:23:52Z</time>
      </trkpt>
      <trkpt lat="50.908720968291163" lon="8.906103959307075">
        <ele>256.32999999999998</ele>
        <time>2017-10-29T16:24:00Z</time>
      </trkpt>
      <trkpt lat="50.908569004386663" lon="8.910226011648774">
        <ele>254.88999999999999</ele>
        <time>2017-10-29T16:24:11Z</time>
      </trkpt>
      <trkpt lat="50.908782994374633" lon="8.912670006975532">
        <ele>251.52000000000001</ele>
        <time>2017-10-29T16:24:18Z</time>
      </trkpt>
      <trkpt lat="50.90944298543036" lon="8.915624963119626">
        <ele>243.34999999999999</ele>
        <time>2017-10-29T16:24:27Z</time>
      </trkpt>
      <trkpt lat="50.909865014255047" lon="8.918883008882403">
        <ele>237.09999999999999</ele>
        <time>2017-10-29T16:24:37Z</time>
      </trkpt>
      <trkpt lat="50.910033993422985" lon="8.922573979943991">
        <ele>233.25999999999999</ele>
        <time>2017-10-29T16:24:47Z</time>
      </trkpt>
      <trkpt lat="50.910508995875716" lon="8.926016008481383">
        <ele>233.25999999999999</ele>
        <time>2017-10-29T16:24:56Z</time>
      </trkpt>
      <trkpt lat="50.910837985575199" lon="8.928815983235836">
        <ele>231.33000000000001</ele>
        <time>2017-10-29T16:25:04Z</time>
      </trkpt>
      <trkpt lat="50.910802027210593" lon="8.929202975705266">
        <ele>231.33000000000001</ele>
        <time>2017-10-29T16:25:05Z</time>
      </trkpt>
      <trkpt lat="50.910759028047323" lon="8.929549986496568">
        <ele>230.84999999999999</ele>
        <time>2017-10-29T16:25:06Z</time>
      </trkpt>
      <trkpt lat="50.910661965608597" lon="8.929861038923264">
        <ele>230.84999999999999</ele>
        <time>2017-10-29T16:25:07Z</time>
      </trkpt>
      <trkpt lat="50.910563981160522" lon="8.930173013359308">
        <ele>230.84999999999999</ele>
        <time>2017-10-29T16:25:08Z</time>
      </trkpt>
      <trkpt lat="50.910465996712446" lon="8.930483981966972">
        <ele>230.84999999999999</ele>
        <time>2017-10-29T16:25:09Z</time>
      </trkpt>
      <trkpt lat="50.9103440400213" lon="8.930766033008695">
        <ele>230.84999999999999</ele>
        <time>2017-10-29T16:25:10Z</time>
      </trkpt>
      <trkpt lat="50.910201966762543" lon="8.931039031594992">
        <ele>230.37</ele>
        <time>2017-10-29T16:25:11Z</time>
      </trkpt>
      <trkpt lat="50.91004497371614" lon="8.931299960240722">
        <ele>230.37</ele>
        <time>2017-10-29T16:25:12Z</time>
      </trkpt>
      <trkpt lat="50.90987297706306" lon="8.931519985198975">
        <ele>230.37</ele>
        <time>2017-10-29T16:25:13Z</time>
      </trkpt>
      <trkpt lat="50.909670973196626" lon="8.931720983237028">
        <ele>229.88999999999999</ele>
        <time>2017-10-29T16:25:14Z</time>
      </trkpt>
      <trkpt lat="50.909475004300475" lon="8.931918041780591">
        <ele>229.88999999999999</ele>
        <time>2017-10-29T16:25:15Z</time>
      </trkpt>
      <trkpt lat="50.908316960558295" lon="8.933081030845642">
        <ele>227.00999999999999</ele>
        <time>2017-10-29T16:25:21Z</time>
      </trkpt>
      <trkpt lat="50.907349018380046" lon="8.934778030961752">
        <ele>225.09</ele>
        <time>2017-10-29T16:25:27Z</time>
      </trkpt>
      <trkpt lat="50.906767984852195" lon="8.937037959694862">
        <ele>224.12</ele>
        <time>2017-10-29T16:25:34Z</time>
      </trkpt>
      <trkpt lat="50.906725991517305" lon="8.938652984797955">
        <ele>222.19999999999999</ele>
        <time>2017-10-29T16:25:40Z</time>
      </trkpt>
      <trkpt lat="50.906872004270554" lon="8.939900966361165">
        <ele>221.24000000000001</ele>
        <time>2017-10-29T16:25:47Z</time>
      </trkpt>
      <trkpt lat="50.90688600204885" lon="8.940015966072679">
        <ele>221.24000000000001</ele>
        <time>2017-10-29T16:25:48Z</time>
      </trkpt>
      <trkpt lat="50.906897988170385" lon="8.940105987712741">
        <ele>221.24000000000001</ele>
        <time>2017-10-29T16:25:49Z</time>
      </trkpt>
      <trkpt lat="50.906847026199102" lon="8.94025300629437">
        <ele>220.75999999999999</ele>
        <time>2017-10-29T16:25:50Z</time>
      </trkpt>
      <trkpt lat="50.906807966530323" lon="8.940384015440941">
        <ele>220.28</ele>
        <time>2017-10-29T16:25:52Z</time>
      </trkpt>
      <trkpt lat="50.906792040914297" lon="8.940500020980835">
        <ele>220.28</ele>
        <time>2017-10-29T16:25:53Z</time>
      </trkpt>
      <trkpt lat="50.906814001500607" lon="8.940578978508711">
        <ele>220.28</ele>
        <time>2017-10-29T16:25:54Z</time>
      </trkpt>
      <trkpt lat="50.906875021755695" lon="8.940633963793516">
        <ele>220.28</ele>
        <time>2017-10-29T16:25:55Z</time>
      </trkpt>
      <trkpt lat="50.906926989555359" lon="8.940651984885335">
        <ele>220.28</ele>
        <time>2017-10-29T16:25:56Z</time>
      </trkpt>
      <trkpt lat="50.906977029517293" lon="8.940629018470645">
        <ele>220.28</ele>
        <time>2017-10-29T16:25:57Z</time>
      </trkpt>
      <trkpt lat="50.907021034508944" lon="8.940567998215556">
        <ele>220.28</ele>
        <time>2017-10-29T16:25:58Z</time>
      </trkpt>
      <trkpt lat="50.907062022015452" lon="8.94051100127399">
        <ele>220.28</ele>
        <time>2017-10-29T16:25:59Z</time>
      </trkpt>
      <trkpt lat="50.907165035605431" lon="8.94040497019887">
        <ele>220.28</ele>
        <time>2017-10-29T16:26:00Z</time>
      </trkpt>
      <trkpt lat="50.907261008396745" lon="8.940406981855631">
        <ele>220.28</ele>
        <time>2017-10-29T16:26:01Z</time>
      </trkpt>
      <trkpt lat="50.90738195925951" lon="8.940408993512392">
        <ele>220.28</ele>
        <time>2017-10-29T16:26:02Z</time>
      </trkpt>
      <trkpt lat="50.908500021323562" lon="8.940464984625578">
        <ele>219.31999999999999</ele>
        <time>2017-10-29T16:26:09Z</time>
      </trkpt>
      <trkpt lat="50.908803027123213" lon="8.94053497351706">
        <ele>219.80000000000001</ele>
        <time>2017-10-29T16:26:11Z</time>
      </trkpt>
      <trkpt lat="50.908953985199332" lon="8.940605968236923">
        <ele>219.80000000000001</ele>
        <time>2017-10-29T16:26:12Z</time>
      </trkpt>
      <trkpt lat="50.909104021266103" lon="8.940719040110707">
        <ele>219.80000000000001</ele>
        <time>2017-10-29T16:26:13Z</time>
      </trkpt>
      <trkpt lat="50.910439006984234" lon="8.941814973950386">
        <ele>219.80000000000001</ele>
        <time>2017-10-29T16:26:22Z</time>
      </trkpt>
      <trkpt lat="50.911846999078989" lon="8.942604968324304">
        <ele>218.84</ele>
        <time>2017-10-29T16:26:33Z</time>
      </trkpt>
      <trkpt lat="50.913349036127329" lon="8.943299995735288">
        <ele>219.80000000000001</ele>
        <time>2017-10-29T16:26:47Z</time>
      </trkpt>
      <trkpt lat="50.913581969216466" lon="8.943299995735288">
        <ele>218.84</ele>
        <time>2017-10-29T16:26:49Z</time>
      </trkpt>
      <trkpt lat="50.913694035261869" lon="8.943299995735288">
        <ele>218.84</ele>
        <time>2017-10-29T16:26:50Z</time>
      </trkpt>
      <trkpt lat="50.914704976603389" lon="8.943148031830788">
        <ele>217.40000000000001</ele>
        <time>2017-10-29T16:26:59Z</time>
      </trkpt>
      <trkpt lat="50.915473010390997" lon="8.942828010767698">
        <ele>219.80000000000001</ele>
        <time>2017-10-29T16:27:06Z</time>
      </trkpt>
      <trkpt lat="50.915575018152595" lon="8.942828010767698">
        <ele>220.28</ele>
        <time>2017-10-29T16:27:07Z</time>
      </trkpt>
      <trkpt lat="50.916545977815986" lon="8.943060021847487">
        <ele>221.24000000000001</ele>
        <time>2017-10-29T16:27:14Z</time>
      </trkpt>
      <trkpt lat="50.91825102455914" lon="8.943424969911575">
        <ele>221.24000000000001</ele>
        <time>2017-10-29T16:27:23Z</time>
      </trkpt>
      <trkpt lat="50.919968979433179" lon="8.944176994264126">
        <ele>221.72</ele>
        <time>2017-10-29T16:27:33Z</time>
      </trkpt>
      <trkpt lat="50.921299019828439" lon="8.945276029407978">
        <ele>222.68000000000001</ele>
        <time>2017-10-29T16:27:41Z</time>
      </trkpt>
      <trkpt lat="50.922285988926888" lon="8.94710898399353">
        <ele>224.61000000000001</ele>
        <time>2017-10-29T16:27:48Z</time>
      </trkpt>
      <trkpt lat="50.923756007105112" lon="8.950223028659821">
        <ele>225.56999999999999</ele>
        <time>2017-10-29T16:27:59Z</time>
      </trkpt>
      <trkpt lat="50.925210015848279" lon="8.951894966885448">
        <ele>223.63999999999999</ele>
        <time>2017-10-29T16:28:07Z</time>
      </trkpt>
      <trkpt lat="50.926747005432844" lon="8.952732989564538">
        <ele>222.19999999999999</ele>
        <time>2017-10-29T16:28:14Z</time>
      </trkpt>
      <trkpt lat="50.928668975830078" lon="8.952945973724127">
        <ele>223.63999999999999</ele>
        <time>2017-10-29T16:28:22Z</time>
      </trkpt>
      <trkpt lat="50.931079024448991" lon="8.95331896841526">
        <ele>227.00999999999999</ele>
        <time>2017-10-29T16:28:32Z</time>
      </trkpt>
      <trkpt lat="50.932905022054911" lon="8.95430501550436">
        <ele>229.88999999999999</ele>
        <time>2017-10-29T16:28:40Z</time>
      </trkpt>
      <trkpt lat="50.933126974850893" lon="8.95441398024559">
        <ele>230.37</ele>
        <time>2017-10-29T16:28:41Z</time>
      </trkpt>
      <trkpt lat="50.934818023815751" lon="8.954989984631538">
        <ele>233.25999999999999</ele>
        <time>2017-10-29T16:28:49Z</time>
      </trkpt>
      <trkpt lat="50.936340009793639" lon="8.955633966252208">
        <ele>233.74000000000001</ele>
        <time>2017-10-29T16:28:57Z</time>
      </trkpt>
      <trkpt lat="50.937612969428301" lon="8.95664700306952">
        <ele>233.25999999999999</ele>
        <time>2017-10-29T16:29:04Z</time>
      </trkpt>
      <trkpt lat="50.939159011468291" lon="8.95849697291851">
        <ele>235.66</ele>
        <time>2017-10-29T16:29:13Z</time>
      </trkpt>
      <trkpt lat="50.940394001081586" lon="8.959732968360186">
        <ele>235.66</ele>
        <time>2017-10-29T16:29:21Z</time>
      </trkpt>
      <trkpt lat="50.941554978489876" lon="8.960347026586533">
        <ele>236.13999999999999</ele>
        <time>2017-10-29T16:29:28Z</time>
      </trkpt>
      <trkpt lat="50.943189030513167" lon="8.960631005465984">
        <ele>236.62</ele>
        <time>2017-10-29T16:29:36Z</time>
      </trkpt>
      <trkpt lat="50.944759966805577" lon="8.961184965446591">
        <ele>235.66</ele>
        <time>2017-10-29T16:29:45Z</time>
      </trkpt>
      <trkpt lat="50.946225039660931" lon="8.96236103028059">
        <ele>236.62</ele>
        <time>2017-10-29T16:29:54Z</time>
      </trkpt>
      <trkpt lat="50.947698997333646" lon="8.963631978258491">
        <ele>238.06</ele>
        <time>2017-10-29T16:30:01Z</time>
      </trkpt>
      <trkpt lat="50.949287032708526" lon="8.964529009535909">
        <ele>238.06</ele>
        <time>2017-10-29T16:30:09Z</time>
      </trkpt>
      <trkpt lat="50.950683038681746" lon="8.964696982875466">
        <ele>237.58000000000001</ele>
        <time>2017-10-29T16:30:16Z</time>
      </trkpt>
      <trkpt lat="50.952297979965806" lon="8.964522974565625">
        <ele>236.13999999999999</ele>
        <time>2017-10-29T16:30:24Z</time>
      </trkpt>
      <trkpt lat="50.954166976734996" lon="8.964393977075815">
        <ele>234.22</ele>
        <time>2017-10-29T16:30:34Z</time>
      </trkpt>
      <trkpt lat="50.956220040097833" lon="8.964736964553595">
        <ele>233.74000000000001</ele>
        <time>2017-10-29T16:30:45Z</time>
      </trkpt>
      <trkpt lat="50.957663990557194" lon="8.965181037783623">
        <ele>235.18000000000001</ele>
        <time>2017-10-29T16:30:53Z</time>
      </trkpt>
      <trkpt lat="50.959408013150096" lon="8.965872963890433">
        <ele>238.53999999999999</ele>
        <time>2017-10-29T16:31:03Z</time>
      </trkpt>
      <trkpt lat="50.961094032973051" lon="8.966619037091732">
        <ele>241.91</ele>
        <time>2017-10-29T16:31:14Z</time>
      </trkpt>
      <trkpt lat="50.962417032569647" lon="8.967136032879353">
        <ele>244.31</ele>
        <time>2017-10-29T16:31:23Z</time>
      </trkpt>
      <trkpt lat="50.962566984817386" lon="8.967156987637281">
        <ele>244.31</ele>
        <time>2017-10-29T16:31:24Z</time>
      </trkpt>
      <trkpt lat="50.962716015055776" lon="8.967116000130773">
        <ele>244.78999999999999</ele>
        <time>2017-10-29T16:31:25Z</time>
      </trkpt>
      <trkpt lat="50.962868984788656" lon="8.967074006795883">
        <ele>244.78999999999999</ele>
        <time>2017-10-29T16:31:26Z</time>
      </trkpt>
      <trkpt lat="50.963016003370285" lon="8.967033019289374">
        <ele>244.78999999999999</ele>
        <time>2017-10-29T16:31:27Z</time>
      </trkpt>
      <trkpt lat="50.96401303075254" lon="8.966925982385874">
        <ele>246.22999999999999</ele>
        <time>2017-10-29T16:31:35Z</time>
      </trkpt>
      <trkpt lat="50.965393027290702" lon="8.967341976240277">
        <ele>248.16</ele>
        <time>2017-10-29T16:31:47Z</time>
      </trkpt>
      <trkpt lat="50.966734969988465" lon="8.967890990898013">
        <ele>248.63999999999999</ele>
        <time>2017-10-29T16:31:59Z</time>
      </trkpt>
      <trkpt lat="50.967472996562719" lon="8.968382002785802">
        <ele>248.63999999999999</ele>
        <time>2017-10-29T16:32:06Z</time>
      </trkpt>
      <trkpt lat="50.967579027637839" lon="8.968452997505665">
        <ele>249.12</ele>
        <time>2017-10-29T16:32:07Z</time>
      </trkpt>
      <trkpt lat="50.967700984328985" lon="8.968534972518683">
        <ele>249.12</ele>
        <time>2017-10-29T16:32:08Z</time>
      </trkpt>
      <trkpt lat="50.968845030292869" lon="8.969203010201454">
        <ele>253.93000000000001</ele>
        <time>2017-10-29T16:32:19Z</time>
      </trkpt>
      <trkpt lat="50.969720017164946" lon="8.969662003219128">
        <ele>253.93000000000001</ele>
        <time>2017-10-29T16:32:28Z</time>
      </trkpt>
      <trkpt lat="50.969813978299499" lon="8.969717994332314">
        <ele>253.93000000000001</ele>
        <time>2017-10-29T16:32:29Z</time>
      </trkpt>
      <trkpt lat="50.969911040738225" lon="8.969779014587402">
        <ele>253.44</ele>
        <time>2017-10-29T16:32:30Z</time>
      </trkpt>
      <trkpt lat="50.970256961882114" lon="8.970009014010429">
        <ele>253.93000000000001</ele>
        <time>2017-10-29T16:32:34Z</time>
      </trkpt>
      <trkpt lat="50.970747973769903" lon="8.970143962651491">
        <ele>254.88999999999999</ele>
        <time>2017-10-29T16:32:40Z</time>
      </trkpt>
      <trkpt lat="50.970833972096443" lon="8.970128037035465">
        <ele>255.37</ele>
        <time>2017-10-29T16:32:41Z</time>
      </trkpt>
      <trkpt lat="50.970920976251364" lon="8.970113033428788">
        <ele>255.37</ele>
        <time>2017-10-29T16:32:42Z</time>
      </trkpt>
      <trkpt lat="50.971013009548187" lon="8.97009601816535">
        <ele>255.37</ele>
        <time>2017-10-29T16:32:43Z</time>
      </trkpt>
      <trkpt lat="50.97110596485436" lon="8.970079002901912">
        <ele>255.37</ele>
        <time>2017-10-29T16:32:44Z</time>
      </trkpt>
      <trkpt lat="50.971542997285724" lon="8.969857972115278">
        <ele>253.44</ele>
        <time>2017-10-29T16:32:49Z</time>
      </trkpt>
      <trkpt lat="50.971633018925786" lon="8.969799969345331">
        <ele>253.44</ele>
        <time>2017-10-29T16:32:50Z</time>
      </trkpt>
      <trkpt lat="50.971735026687384" lon="8.969736015424132">
        <ele>252.96000000000001</ele>
        <time>2017-10-29T16:32:51Z</time>
      </trkpt>
      <trkpt lat="50.971821025013924" lon="8.969671977683902">
        <ele>252.47999999999999</ele>
        <time>2017-10-29T16:32:52Z</time>
      </trkpt>
      <trkpt lat="50.971915991976857" lon="8.969622021540999">
        <ele>252</ele>
        <time>2017-10-29T16:32:53Z</time>
      </trkpt>
      <trkpt lat="50.972212962806225" lon="8.969466034322977">
        <ele>251.03999999999999</ele>
        <time>2017-10-29T16:32:56Z</time>
      </trkpt>
      <trkpt lat="50.972319999709725" lon="8.969428986310959">
        <ele>251.03999999999999</ele>
        <time>2017-10-29T16:32:57Z</time>
      </trkpt>
      <trkpt lat="50.973191969096661" lon="8.969357991591096">
        <ele>252.47999999999999</ele>
        <time>2017-10-29T16:33:06Z</time>
      </trkpt>
      <trkpt lat="50.973766967654228" lon="8.969334019348025">
        <ele>253.93000000000001</ele>
        <time>2017-10-29T16:33:12Z</time>
      </trkpt>
      <trkpt lat="50.973868975415826" lon="8.969328990206122">
        <ele>254.41</ele>
        <time>2017-10-29T16:33:13Z</time>
      </trkpt>
      <trkpt lat="50.973972994834185" lon="8.969328990206122">
        <ele>254.41</ele>
        <time>2017-10-29T16:33:14Z</time>
      </trkpt>
      <trkpt lat="50.974914031103253" lon="8.969288002699614">
        <ele>254.41</ele>
        <time>2017-10-29T16:33:23Z</time>
      </trkpt>
      <trkpt lat="50.97501402720809" lon="8.969285991042852">
        <ele>253.93000000000001</ele>
        <time>2017-10-29T16:33:24Z</time>
      </trkpt>
      <trkpt lat="50.975116034969687" lon="8.969274004921317">
        <ele>253.93000000000001</ele>
        <time>2017-10-29T16:33:25Z</time>
      </trkpt>
      <trkpt lat="50.975537979975343" lon="8.969183983281255">
        <ele>253.44</ele>
        <time>2017-10-29T16:33:29Z</time>
      </trkpt>
      <trkpt lat="50.975646022707224" lon="8.969162022694945">
        <ele>252.47999999999999</ele>
        <time>2017-10-29T16:33:30Z</time>
      </trkpt>
      <trkpt lat="50.976487984880805" lon="8.968984996899962">
        <ele>248.63999999999999</ele>
        <time>2017-10-29T16:33:38Z</time>
      </trkpt>
      <trkpt lat="50.976770035922527" lon="8.968990026041865">
        <ele>250.08000000000001</ele>
        <time>2017-10-29T16:33:41Z</time>
      </trkpt>
      <trkpt lat="50.976873971521854" lon="8.968992037698627">
        <ele>250.56</ele>
        <time>2017-10-29T16:33:42Z</time>
      </trkpt>
      <trkpt lat="50.976982014253736" lon="8.968993965536356">
        <ele>251.03999999999999</ele>
        <time>2017-10-29T16:33:43Z</time>
      </trkpt>
      <trkpt lat="50.977570004761219" lon="8.969005029648542">
        <ele>251.52000000000001</ele>
        <time>2017-10-29T16:33:49Z</time>
      </trkpt>
      <trkpt lat="50.978353964164853" lon="8.969175014644861">
        <ele>251.03999999999999</ele>
        <time>2017-10-29T16:33:58Z</time>
      </trkpt>
      <trkpt lat="50.978424958884716" lon="8.96919303573668">
        <ele>252</ele>
        <time>2017-10-29T16:33:59Z</time>
      </trkpt>
      <trkpt lat="50.978543981909752" lon="8.96927903406322">
        <ele>252.47999999999999</ele>
        <time>2017-10-29T16:34:01Z</time>
      </trkpt>
      <trkpt lat="50.978618999943137" lon="8.969667032361031">
        <ele>253.93000000000001</ele>
        <time>2017-10-29T16:34:03Z</time>
      </trkpt>
      <trkpt lat="50.978686977177858" lon="8.969809021800757">
        <ele>254.41</ele>
        <time>2017-10-29T16:34:04Z</time>
      </trkpt>
      <trkpt lat="50.978759983554482" lon="8.969961991533637">
        <ele>255.37</ele>
        <time>2017-10-29T16:34:05Z</time>
      </trkpt>
      <trkpt lat="50.978851011022925" lon="8.970108004286885">
        <ele>255.84999999999999</ele>
        <time>2017-10-29T16:34:06Z</time>
      </trkpt>
      <trkpt lat="50.978959975764155" lon="8.970199031755328">
        <ele>256.81</ele>
        <time>2017-10-29T16:34:07Z</time>
      </trkpt>
      <trkpt lat="50.979070030152798" lon="8.97029098123312">
        <ele>257.29000000000002</ele>
        <time>2017-10-29T16:34:08Z</time>
      </trkpt>
      <trkpt lat="50.979201961308718" lon="8.970401035621762">
        <ele>257.76999999999998</ele>
        <time>2017-10-29T16:34:09Z</time>
      </trkpt>
      <trkpt lat="50.979313021525741" lon="8.970435988157988">
        <ele>258.25</ele>
        <time>2017-10-29T16:34:10Z</time>
      </trkpt>
      <trkpt lat="50.979437995702028" lon="8.970475969836116">
        <ele>258.25</ele>
        <time>2017-10-29T16:34:11Z</time>
      </trkpt>
      <trkpt lat="50.980249028652906" lon="8.970530033111572">
        <ele>259.20999999999998</ele>
        <time>2017-10-29T16:34:17Z</time>
      </trkpt>
      <trkpt lat="50.980377020314336" lon="8.970537995919585">
        <ele>259.20999999999998</ele>
        <time>2017-10-29T16:34:18Z</time>
      </trkpt>
      <trkpt lat="50.98049302585423" lon="8.970601027831435">
        <ele>259.20999999999998</ele>
        <time>2017-10-29T16:34:19Z</time>
      </trkpt>
      <trkpt lat="50.980610037222505" lon="8.970662970095873">
        <ele>259.69</ele>
        <time>2017-10-29T16:34:20Z</time>
      </trkpt>
      <trkpt lat="50.980726964771748" lon="8.970747040584683">
        <ele>259.69</ele>
        <time>2017-10-29T16:34:21Z</time>
      </trkpt>
      <trkpt lat="50.980835007503629" lon="8.970858016982675">
        <ele>260.17000000000002</ele>
        <time>2017-10-29T16:34:22Z</time>
      </trkpt>
      <trkpt lat="50.981875034049153" lon="8.971796035766602">
        <ele>261.62</ele>
        <time>2017-10-29T16:34:31Z</time>
      </trkpt>
      <trkpt lat="50.983332982286811" lon="8.972535990178585">
        <ele>264.5</ele>
        <time>2017-10-29T16:34:41Z</time>
      </trkpt>
      <trkpt lat="50.983484024181962" lon="8.972624000161886">
        <ele>264.5</ele>
        <time>2017-10-29T16:34:42Z</time>
      </trkpt>
      <trkpt lat="50.983626013621688" lon="8.972752997651696">
        <ele>264.5</ele>
        <time>2017-10-29T16:34:43Z</time>
      </trkpt>
      <trkpt lat="50.983750987797976" lon="8.972890041768551">
        <ele>264.5</ele>
        <time>2017-10-29T16:34:44Z</time>
      </trkpt>
      <trkpt lat="50.983860958367586" lon="8.973109982907772">
        <ele>264.5</ele>
        <time>2017-10-29T16:34:45Z</time>
      </trkpt>
      <trkpt lat="50.983958020806313" lon="8.973304023966193">
        <ele>264.5</ele>
        <time>2017-10-29T16:34:46Z</time>
      </trkpt>
      <trkpt lat="50.984049970284104" lon="8.973488006740809">
        <ele>264.5</ele>
        <time>2017-10-29T16:34:47Z</time>
      </trkpt>
      <trkpt lat="50.984138986095786" lon="8.973665032535791">
        <ele>264.5</ele>
        <time>2017-10-29T16:34:48Z</time>
      </trkpt>
      <trkpt lat="50.984309976920485" lon="8.974008020013571">
        <ele>264.98000000000002</ele>
        <time>2017-10-29T16:34:50Z</time>
      </trkpt>
      <trkpt lat="50.98448901437223" lon="8.974366011098027">
        <ele>265.94</ele>
        <time>2017-10-29T16:34:52Z</time>
      </trkpt>
      <trkpt lat="50.984566966071725" lon="8.974520992487669">
        <ele>266.42000000000002</ele>
        <time>2017-10-29T16:34:53Z</time>
      </trkpt>
      <trkpt lat="50.984697975218296" lon="8.97462903521955">
        <ele>266.89999999999998</ele>
        <time>2017-10-29T16:34:54Z</time>
      </trkpt>
      <trkpt lat="50.984807023778558" lon="8.974718973040581">
        <ele>267.38</ele>
        <time>2017-10-29T16:34:55Z</time>
      </trkpt>
      <trkpt lat="50.984931997954845" lon="8.974821986630559">
        <ele>267.86000000000001</ele>
        <time>2017-10-29T16:34:56Z</time>
      </trkpt>
      <trkpt lat="50.985038029029965" lon="8.974837996065617">
        <ele>268.35000000000002</ele>
        <time>2017-10-29T16:34:57Z</time>
      </trkpt>
      <trkpt lat="50.985169038176537" lon="8.974858028814197">
        <ele>268.82999999999998</ele>
        <time>2017-10-29T16:34:58Z</time>
      </trkpt>
      <trkpt lat="50.985302980989218" lon="8.974849982187152">
        <ele>269.31</ele>
        <time>2017-10-29T16:34:59Z</time>
      </trkpt>
      <trkpt lat="50.98543499596417" lon="8.974828021600843">
        <ele>269.79000000000002</ele>
        <time>2017-10-29T16:35:00Z</time>
      </trkpt>
      <trkpt lat="50.985959032550454" lon="8.974775969982147">
        <ele>271.70999999999998</ele>
        <time>2017-10-29T16:35:04Z</time>
      </trkpt>
      <trkpt lat="50.986078977584839" lon="8.97480396553874">
        <ele>272.19</ele>
        <time>2017-10-29T16:35:05Z</time>
      </trkpt>
      <trkpt lat="50.986195988953114" lon="8.974863979965448">
        <ele>273.14999999999998</ele>
        <time>2017-10-29T16:35:06Z</time>
      </trkpt>
      <trkpt lat="50.986305037513375" lon="8.974976968020201">
        <ele>273.63</ele>
        <time>2017-10-29T16:35:07Z</time>
      </trkpt>
      <trkpt lat="50.986412996426225" lon="8.975088028237224">
        <ele>274.11000000000001</ele>
        <time>2017-10-29T16:35:08Z</time>
      </trkpt>
      <trkpt lat="50.986513998359442" lon="8.975191963836551">
        <ele>274.58999999999997</ele>
        <time>2017-10-29T16:35:09Z</time>
      </trkpt>
      <trkpt lat="50.986612988635898" lon="8.975293971598148">
        <ele>275.06999999999999</ele>
        <time>2017-10-29T16:35:10Z</time>
      </trkpt>
      <trkpt lat="50.986819015815854" lon="8.975507039576769">
        <ele>276.51999999999998</ele>
        <time>2017-10-29T16:35:12Z</time>
      </trkpt>
      <trkpt lat="50.98693803884089" lon="8.97557501681149">
        <ele>276.51999999999998</ele>
        <time>2017-10-29T16:35:13Z</time>
      </trkpt>
      <trkpt lat="50.987061001360416" lon="8.975633019581437">
        <ele>277</ele>
        <time>2017-10-29T16:35:14Z</time>
      </trkpt>
      <trkpt lat="50.987184969708323" lon="8.975691022351384">
        <ele>277.48000000000002</ele>
        <time>2017-10-29T16:35:15Z</time>
      </trkpt>
      <trkpt lat="50.987313967198133" lon="8.975694039836526">
        <ele>277.48000000000002</ele>
        <time>2017-10-29T16:35:16Z</time>
      </trkpt>
      <trkpt lat="50.987443970516324" lon="8.975684987381101">
        <ele>277.95999999999998</ele>
        <time>2017-10-29T16:35:17Z</time>
      </trkpt>
      <trkpt lat="50.987576991319656" lon="8.975676018744707">
        <ele>278.44</ele>
        <time>2017-10-29T16:35:18Z</time>
      </trkpt>
      <trkpt lat="50.988279981538653" lon="8.975685993209481">
        <ele>280.36000000000001</ele>
        <time>2017-10-29T16:35:25Z</time>
      </trkpt>
      <trkpt lat="50.988363968208432" lon="8.975712982937694">
        <ele>280.83999999999997</ele>
        <time>2017-10-29T16:35:26Z</time>
      </trkpt>
      <trkpt lat="50.988978026434779" lon="8.975912975147367">
        <ele>280.83999999999997</ele>
        <time>2017-10-29T16:35:32Z</time>
      </trkpt>
      <trkpt lat="50.989098977297544" lon="8.975918004289269">
        <ele>280.83999999999997</ele>
        <time>2017-10-29T16:35:33Z</time>
      </trkpt>
      <trkpt lat="50.989226968958974" lon="8.975921021774411">
        <ele>280.83999999999997</ele>
        <time>2017-10-29T16:35:34Z</time>
      </trkpt>
      <trkpt lat="50.989814959466457" lon="8.975934013724327">
        <ele>279.88</ele>
        <time>2017-10-29T16:35:39Z</time>
      </trkpt>
      <trkpt lat="50.98992601968348" lon="8.975937031209469">
        <ele>279.39999999999998</ele>
        <time>2017-10-29T16:35:40Z</time>
      </trkpt>
      <trkpt lat="50.991081967949867" lon="8.975981036201119">
        <ele>277.95999999999998</ele>
        <time>2017-10-29T16:35:50Z</time>
      </trkpt>
      <trkpt lat="50.992078995332122" lon="8.975996039807797">
        <ele>281.31999999999999</ele>
        <time>2017-10-29T16:36:00Z</time>
      </trkpt>
      <trkpt lat="50.992373032495379" lon="8.975999979302287">
        <ele>281.80000000000001</ele>
        <time>2017-10-29T16:36:06Z</time>
      </trkpt>
      <trkpt lat="50.992454001680017" lon="8.976001990959048">
        <ele>281.31999999999999</ele>
        <time>2017-10-29T16:36:07Z</time>
      </trkpt>
      <trkpt lat="50.992545029148459" lon="8.976001990959048">
        <ele>280.83999999999997</ele>
        <time>2017-10-29T16:36:08Z</time>
      </trkpt>
      <trkpt lat="50.993348015472293" lon="8.975891014561057">
        <ele>276.51999999999998</ele>
        <time>2017-10-29T16:36:14Z</time>
      </trkpt>
      <trkpt lat="50.994608988985419" lon="8.975717006251216">
        <ele>273.14999999999998</ele>
        <time>2017-10-29T16:36:21Z</time>
      </trkpt>
      <trkpt lat="50.995604004710913" lon="8.975297994911671">
        <ele>273.14999999999998</ele>
        <time>2017-10-29T16:36:27Z</time>
      </trkpt>
      <trkpt lat="50.996829019859433" lon="8.974380008876324">
        <ele>273.63</ele>
        <time>2017-10-29T16:36:35Z</time>
      </trkpt>
      <trkpt lat="50.996992969885468" lon="8.974340027198196">
        <ele>273.63</ele>
        <time>2017-10-29T16:36:36Z</time>
      </trkpt>
      <trkpt lat="50.997153986245394" lon="8.974322006106377">
        <ele>273.14999999999998</ele>
        <time>2017-10-29T16:36:37Z</time>
      </trkpt>
      <trkpt lat="50.997307039797306" lon="8.974312031641603">
        <ele>273.14999999999998</ele>
        <time>2017-10-29T16:36:38Z</time>
      </trkpt>
      <trkpt lat="50.997454980388284" lon="8.974360981956124">
        <ele>273.63</ele>
        <time>2017-10-29T16:36:39Z</time>
      </trkpt>
      <trkpt lat="50.997605016455054" lon="8.974411021918058">
        <ele>273.63</ele>
        <time>2017-10-29T16:36:40Z</time>
      </trkpt>
      <trkpt lat="50.99776603281498" lon="8.974474975839257">
        <ele>273.63</ele>
        <time>2017-10-29T16:36:41Z</time>
      </trkpt>
      <trkpt lat="50.99791799671948" lon="8.974591987207532">
        <ele>274.11000000000001</ele>
        <time>2017-10-29T16:36:42Z</time>
      </trkpt>
      <trkpt lat="50.99807096645236" lon="8.9747369941324">
        <ele>274.11000000000001</ele>
        <time>2017-10-29T16:36:43Z</time>
      </trkpt>
      <trkpt lat="50.998212033882737" lon="8.974918965250254">
        <ele>274.58999999999997</ele>
        <time>2017-10-29T16:36:44Z</time>
      </trkpt>
      <trkpt lat="50.998339019715786" lon="8.975141001865268">
        <ele>275.06999999999999</ele>
        <time>2017-10-29T16:36:45Z</time>
      </trkpt>
      <trkpt lat="50.998464999720454" lon="8.975373012945056">
        <ele>276.04000000000002</ele>
        <time>2017-10-29T16:36:46Z</time>
      </trkpt>
      <trkpt lat="50.998591985553503" lon="8.975607035681605">
        <ele>277</ele>
        <time>2017-10-29T16:36:47Z</time>
      </trkpt>
      <trkpt lat="50.998938996344805" lon="8.976236013695598">
        <ele>280.83999999999997</ele>
        <time>2017-10-29T16:36:50Z</time>
      </trkpt>
      <trkpt lat="50.999082997441292" lon="8.976396024227142">
        <ele>282.27999999999997</ele>
        <time>2017-10-29T16:36:51Z</time>
      </trkpt>
      <trkpt lat="50.999233033508062" lon="8.976561985909939">
        <ele>283.25</ele>
        <time>2017-10-29T16:36:52Z</time>
      </trkpt>
      <trkpt lat="50.999388014897704" lon="8.976689977571368">
        <ele>284.20999999999998</ele>
        <time>2017-10-29T16:36:53Z</time>
      </trkpt>
      <trkpt lat="50.99955297075212" lon="8.976782010868192">
        <ele>285.17000000000002</ele>
        <time>2017-10-29T16:36:54Z</time>
      </trkpt>
      <trkpt lat="50.999719016253948" lon="8.976863985881209">
        <ele>286.61000000000001</ele>
        <time>2017-10-29T16:36:55Z</time>
      </trkpt>
      <trkpt lat="50.99989696405828" lon="8.976888963952661">
        <ele>287.56999999999999</ele>
        <time>2017-10-29T16:36:56Z</time>
      </trkpt>
      <trkpt lat="51.000078013166785" lon="8.976917965337634">
        <ele>289.00999999999999</ele>
        <time>2017-10-29T16:36:57Z</time>
      </trkpt>
      <trkpt lat="51.000261995941401" lon="8.976951995864511">
        <ele>289.97000000000003</ele>
        <time>2017-10-29T16:36:58Z</time>
      </trkpt>
      <trkpt lat="51.00150796584785" lon="8.977150982245803">
        <ele>296.22000000000003</ele>
        <time>2017-10-29T16:37:05Z</time>
      </trkpt>
      <trkpt lat="51.002575987949967" lon="8.977052997797728">
        <ele>298.14999999999998</ele>
        <time>2017-10-29T16:37:12Z</time>
      </trkpt>
      <trkpt lat="51.003203960135579" lon="8.977114018052816">
        <ele>297.18000000000001</ele>
        <time>2017-10-29T16:37:17Z</time>
      </trkpt>
      <trkpt lat="51.003309991210699" lon="8.977131033316255">
        <ele>297.18000000000001</ele>
        <time>2017-10-29T16:37:18Z</time>
      </trkpt>
      <trkpt lat="51.00339699536562" lon="8.977173026651144">
        <ele>296.69999999999999</ele>
        <time>2017-10-29T16:37:19Z</time>
      </trkpt>
      <trkpt lat="51.003473019227386" lon="8.977248966693878">
        <ele>296.22000000000003</ele>
        <time>2017-10-29T16:37:20Z</time>
      </trkpt>
      <trkpt lat="51.00354703143239" lon="8.97735801525414">
        <ele>296.22000000000003</ele>
        <time>2017-10-29T16:37:21Z</time>
      </trkpt>
      <trkpt lat="51.004197970032692" lon="8.978149015456438">
        <ele>298.63</ele>
        <time>2017-10-29T16:37:27Z</time>
      </trkpt>
      <trkpt lat="51.005796985700727" lon="8.979624984785914">
        <ele>308.72000000000003</ele>
        <time>2017-10-29T16:37:39Z</time>
      </trkpt>
      <trkpt lat="51.006346000358462" lon="8.980250023305416">
        <ele>312.56999999999999</ele>
        <time>2017-10-29T16:37:43Z</time>
      </trkpt>
      <trkpt lat="51.006453959271312" lon="8.980455966666341">
        <ele>313.52999999999997</ele>
        <time>2017-10-29T16:37:44Z</time>
      </trkpt>
      <trkpt lat="51.006566025316715" lon="8.980670040473342">
        <ele>314.49000000000001</ele>
        <time>2017-10-29T16:37:45Z</time>
      </trkpt>
      <trkpt lat="51.006656968966126" lon="8.980890987440944">
        <ele>315.44999999999999</ele>
        <time>2017-10-29T16:37:46Z</time>
      </trkpt>
      <trkpt lat="51.006740033626556" lon="8.981103971600533">
        <ele>316.41000000000003</ele>
        <time>2017-10-29T16:37:47Z</time>
      </trkpt>
      <trkpt lat="51.007465990260243" lon="8.982436023652554">
        <ele>319.77999999999997</ele>
        <time>2017-10-29T16:37:55Z</time>
      </trkpt>
      <trkpt lat="51.007937975227833" lon="8.982760990038514">
        <ele>320.25999999999999</ele>
        <time>2017-10-29T16:38:00Z</time>
      </trkpt>
      <trkpt lat="51.008954029530287" lon="8.983033988624811">
        <ele>324.10000000000002</ele>
        <time>2017-10-29T16:38:07Z</time>
      </trkpt>
      <trkpt lat="51.01031499914825" lon="8.983655003830791">
        <ele>328.43000000000001</ele>
        <time>2017-10-29T16:38:15Z</time>
      </trkpt>
      <trkpt lat="51.011099964380264" lon="8.983968989923596">
        <ele>332.75</ele>
        <time>2017-10-29T16:38:21Z</time>
      </trkpt>
      <trkpt lat="51.011314038187265" lon="8.983957003802061">
        <ele>337.56</ele>
        <time>2017-10-29T16:38:27Z</time>
      </trkpt>
      <trkpt lat="51.011361982673407" lon="8.983949040994048">
        <ele>339.48000000000002</ele>
        <time>2017-10-29T16:38:32Z</time>
      </trkpt>
      <trkpt lat="51.01141001097858" lon="8.983940994367003">
        <ele>339.95999999999998</ele>
        <time>2017-10-29T16:38:33Z</time>
      </trkpt>
      <trkpt lat="51.01141001097858" lon="8.983940994367003">
        <ele>340.44</ele>
        <time>2017-10-29T16:38:47Z</time>
      </trkpt>
      <trkpt lat="51.01141001097858" lon="8.983940994367003">
        <ele>340.44</ele>
        <time>2017-10-29T16:39:37Z</time>
      </trkpt>
      <trkpt lat="51.01141001097858" lon="8.983940994367003">
        <ele>340.44</ele>
        <time>2017-10-29T16:40:27Z</time>
      </trkpt>
      <trkpt lat="51.011455021798611" lon="8.983908975496888">
        <ele>339.95999999999998</ele>
        <time>2017-10-29T16:40:31Z</time>
      </trkpt>
      <trkpt lat="51.012053992599249" lon="8.983427016064525">
        <ele>340.44</ele>
        <time>2017-10-29T16:40:37Z</time>
      </trkpt>
      <trkpt lat="51.013486040756106" lon="8.982224967330694">
        <ele>340.44</ele>
        <time>2017-10-29T16:40:47Z</time>
      </trkpt>
      <trkpt lat="51.015284964814782" lon="8.980713961645961">
        <ele>338.04000000000002</ele>
        <time>2017-10-29T16:40:57Z</time>
      </trkpt>
      <trkpt lat="51.017901962623" lon="8.978521004319191">
        <ele>344.76999999999998</ele>
        <time>2017-10-29T16:41:10Z</time>
      </trkpt>
      <trkpt lat="51.019024970009923" lon="8.978229984641075">
        <ele>348.13</ele>
        <time>2017-10-29T16:41:16Z</time>
      </trkpt>
      <trkpt lat="51.020541004836559" lon="8.978470964357257">
        <ele>349.57999999999998</ele>
        <time>2017-10-29T16:41:23Z</time>
      </trkpt>
      <trkpt lat="51.022143959999084" lon="8.978768019005656">
        <ele>353.89999999999998</ele>
        <time>2017-10-29T16:41:31Z</time>
      </trkpt>
      <trkpt lat="51.023392025381327" lon="8.978457972407341">
        <ele>353.42000000000002</ele>
        <time>2017-10-29T16:41:38Z</time>
      </trkpt>
      <trkpt lat="51.023566033691168" lon="8.978338027372956">
        <ele>352.45999999999998</ele>
        <time>2017-10-29T16:41:39Z</time>
      </trkpt>
      <trkpt lat="51.023749010637403" lon="8.978211963549256">
        <ele>351.5</ele>
        <time>2017-10-29T16:41:40Z</time>
      </trkpt>
      <trkpt lat="51.023898040875793" lon="8.978027980774641">
        <ele>350.06</ele>
        <time>2017-10-29T16:41:41Z</time>
      </trkpt>
      <trkpt lat="51.024050004780293" lon="8.97783201187849">
        <ele>348.62</ele>
        <time>2017-10-29T16:41:42Z</time>
      </trkpt>
      <trkpt lat="51.024187970906496" lon="8.977604024112225">
        <ele>347.17000000000002</ele>
        <time>2017-10-29T16:41:43Z</time>
      </trkpt>
      <trkpt lat="51.024328032508492" lon="8.977371007204056">
        <ele>345.73000000000002</ele>
        <time>2017-10-29T16:41:44Z</time>
      </trkpt>
      <trkpt lat="51.025023981928825" lon="8.976366017013788">
        <ele>338.04000000000002</ele>
        <time>2017-10-29T16:41:49Z</time>
      </trkpt>
      <trkpt lat="51.025167983025312" lon="8.976238025352359">
        <ele>336.60000000000002</ele>
        <time>2017-10-29T16:41:50Z</time>
      </trkpt>
      <trkpt lat="51.025319024920464" lon="8.976123025640845">
        <ele>335.16000000000003</ele>
        <time>2017-10-29T16:41:51Z</time>
      </trkpt>
      <trkpt lat="51.025480963289738" lon="8.976051025092602">
        <ele>334.19999999999999</ele>
        <time>2017-10-29T16:41:52Z</time>
      </trkpt>
      <trkpt lat="51.025647008791566" lon="8.97598497569561">
        <ele>333.23000000000002</ele>
        <time>2017-10-29T16:41:53Z</time>
      </trkpt>
      <trkpt lat="51.025817999616265" lon="8.975958991795778">
        <ele>332.75</ele>
        <time>2017-10-29T16:41:54Z</time>
      </trkpt>
      <trkpt lat="51.025995025411248" lon="8.975935019552708">
        <ele>331.79000000000002</ele>
        <time>2017-10-29T16:41:55Z</time>
      </trkpt>
      <trkpt lat="51.026992974802852" lon="8.975780960172415">
        <ele>328.91000000000003</ele>
        <time>2017-10-29T16:42:02Z</time>
      </trkpt>
      <trkpt lat="51.027263039723039" lon="8.975735027343035">
        <ele>327.94999999999999</ele>
        <time>2017-10-29T16:42:05Z</time>
      </trkpt>
      <trkpt lat="51.02733202278614" lon="8.975723041221499">
        <ele>327.47000000000003</ele>
        <time>2017-10-29T16:42:06Z</time>
      </trkpt>
      <trkpt lat="51.027423972263932" lon="8.975645005702972">
        <ele>326.99000000000001</ele>
        <time>2017-10-29T16:42:07Z</time>
      </trkpt>
      <trkpt lat="51.027492033317685" lon="8.975588008761406">
        <ele>326.01999999999998</ele>
        <time>2017-10-29T16:42:08Z</time>
      </trkpt>
      <trkpt lat="51.027553975582123" lon="8.975535035133362">
        <ele>325.54000000000002</ele>
        <time>2017-10-29T16:42:09Z</time>
      </trkpt>
      <trkpt lat="51.027610972523689" lon="8.975487006828189">
        <ele>325.06</ele>
        <time>2017-10-29T16:42:10Z</time>
      </trkpt>
      <trkpt lat="51.027653971686959" lon="8.975401008501649">
        <ele>324.57999999999998</ele>
        <time>2017-10-29T16:42:11Z</time>
      </trkpt>
      <trkpt lat="51.027643997222185" lon="8.975282991304994">
        <ele>324.10000000000002</ele>
        <time>2017-10-29T16:42:12Z</time>
      </trkpt>
      <trkpt lat="51.02763201110065" lon="8.97514502517879">
        <ele>323.62</ele>
        <time>2017-10-29T16:42:13Z</time>
      </trkpt>
      <trkpt lat="51.027619019150734" lon="8.974987026304007">
        <ele>322.66000000000003</ele>
        <time>2017-10-29T16:42:14Z</time>
      </trkpt>
      <trkpt lat="51.027605021372437" lon="8.974816035479307">
        <ele>321.69999999999999</ele>
        <time>2017-10-29T16:42:15Z</time>
      </trkpt>
      <trkpt lat="51.02758901193738" lon="8.974634986370802">
        <ele>321.22000000000003</ele>
        <time>2017-10-29T16:42:16Z</time>
      </trkpt>
      <trkpt lat="51.027489015832543" lon="8.973438972607255">
        <ele>318.81</ele>
        <time>2017-10-29T16:42:23Z</time>
      </trkpt>
      <trkpt lat="51.027470994740725" lon="8.972980985417962">
        <ele>318.32999999999998</ele>
        <time>2017-10-29T16:42:27Z</time>
      </trkpt>
      <trkpt lat="51.027467977255583" lon="8.972898004576564">
        <ele>318.32999999999998</ele>
        <time>2017-10-29T16:42:28Z</time>
      </trkpt>
      <trkpt lat="51.027465965598822" lon="8.972827009856701">
        <ele>318.32999999999998</ele>
        <time>2017-10-29T16:42:29Z</time>
      </trkpt>
      <trkpt lat="51.027464959770441" lon="8.972769007086754">
        <ele>318.32999999999998</ele>
        <time>2017-10-29T16:42:30Z</time>
      </trkpt>
      <trkpt lat="51.027539977803826" lon="8.972627017647028">
        <ele>318.32999999999998</ele>
        <time>2017-10-29T16:42:31Z</time>
      </trkpt>
      <trkpt lat="51.027579037472606" lon="8.972624000161886">
        <ele>318.81</ele>
        <time>2017-10-29T16:42:32Z</time>
      </trkpt>
      <trkpt lat="51.027640979737043" lon="8.972618971019983">
        <ele>318.81</ele>
        <time>2017-10-29T16:42:33Z</time>
      </trkpt>
      <trkpt lat="51.027837032452226" lon="8.972602961584926">
        <ele>319.77999999999997</ele>
        <time>2017-10-29T16:42:35Z</time>
      </trkpt>
      <trkpt lat="51.027957983314991" lon="8.972592987120152">
        <ele>319.77999999999997</ele>
        <time>2017-10-29T16:42:36Z</time>
      </trkpt>
      <trkpt lat="51.028081029653549" lon="8.9725680090487">
        <ele>320.25999999999999</ele>
        <time>2017-10-29T16:42:37Z</time>
      </trkpt>
      <trkpt lat="51.028748983517289" lon="8.9724609721452">
        <ele>324.57999999999998</ele>
        <time>2017-10-29T16:42:42Z</time>
      </trkpt>
      <trkpt lat="51.029342003166676" lon="8.972514029592276">
        <ele>326.99000000000001</ele>
        <time>2017-10-29T16:42:46Z</time>
      </trkpt>
      <trkpt lat="51.02960997261107" lon="8.972592987120152">
        <ele>328.43000000000001</ele>
        <time>2017-10-29T16:42:48Z</time>
      </trkpt>
      <trkpt lat="51.029722960665822" lon="8.972666999325156">
        <ele>329.38999999999999</ele>
        <time>2017-10-29T16:42:49Z</time>
      </trkpt>
      <trkpt lat="51.029843995347619" lon="8.972774036228657">
        <ele>329.87</ele>
        <time>2017-10-29T16:42:50Z</time>
      </trkpt>
      <trkpt lat="51.030032001435757" lon="8.973054997622967">
        <ele>331.31</ele>
        <time>2017-10-29T16:42:52Z</time>
      </trkpt>
      <trkpt lat="51.030466016381979" lon="8.973879022523761">
        <ele>331.31</ele>
        <time>2017-10-29T16:42:59Z</time>
      </trkpt>
      <trkpt lat="51.030536005273461" lon="8.973949011415243">
        <ele>331.31</ele>
        <time>2017-10-29T16:43:00Z</time>
      </trkpt>
      <trkpt lat="51.030612029135227" lon="8.973984969779849">
        <ele>331.31</ele>
        <time>2017-10-29T16:43:01Z</time>
      </trkpt>
      <trkpt lat="51.030689980834723" lon="8.973984969779849">
        <ele>331.31</ele>
        <time>2017-10-29T16:43:02Z</time>
      </trkpt>
      <trkpt lat="51.030786959454417" lon="8.973984969779849">
        <ele>331.31</ele>
        <time>2017-10-29T16:43:03Z</time>
      </trkpt>
      <trkpt lat="51.030831970274448" lon="8.97390098311007">
        <ele>331.31</ele>
        <time>2017-10-29T16:43:04Z</time>
      </trkpt>
      <trkpt lat="51.030887961387634" lon="8.973797969520092">
        <ele>331.31</ele>
        <time>2017-10-29T16:43:05Z</time>
      </trkpt>
      <trkpt lat="51.030947975814342" lon="8.973686993122101">
        <ele>331.31</ele>
        <time>2017-10-29T16:43:06Z</time>
      </trkpt>
      <trkpt lat="51.031012013554573" lon="8.973569981753826">
        <ele>331.31</ele>
        <time>2017-10-29T16:43:07Z</time>
      </trkpt>
      <trkpt lat="51.031119972467422" lon="8.973369989544153">
        <ele>332.26999999999998</ele>
        <time>2017-10-29T16:43:09Z</time>
      </trkpt>
      <trkpt lat="51.031161965802312" lon="8.973293965682387">
        <ele>332.26999999999998</ele>
        <time>2017-10-29T16:43:10Z</time>
      </trkpt>
      <trkpt lat="51.031203037127852" lon="8.973239986225963">
        <ele>332.75</ele>
        <time>2017-10-29T16:43:11Z</time>
      </trkpt>
      <trkpt lat="51.031260034069419" lon="8.973279967904091">
        <ele>332.75</ele>
        <time>2017-10-29T16:43:12Z</time>
      </trkpt>
      <trkpt lat="51.031345026567578" lon="8.97334098815918">
        <ele>333.23000000000002</ele>
        <time>2017-10-29T16:43:13Z</time>
      </trkpt>
      <trkpt lat="51.031396994367242" lon="8.973428998142481">
        <ele>333.23000000000002</ele>
        <time>2017-10-29T16:43:14Z</time>
      </trkpt>
      <trkpt lat="51.031463965773582" lon="8.973541986197233">
        <ele>333.70999999999998</ele>
        <time>2017-10-29T16:43:15Z</time>
      </trkpt>
      <trkpt lat="51.031688014045358" lon="8.97392001003027">
        <ele>335.16000000000003</ele>
        <time>2017-10-29T16:43:18Z</time>
      </trkpt>
      <trkpt lat="51.031772000715137" lon="8.9740289747715">
        <ele>336.12</ele>
        <time>2017-10-29T16:43:19Z</time>
      </trkpt>
      <trkpt lat="51.031837966293097" lon="8.974113967269659">
        <ele>337.07999999999998</ele>
        <time>2017-10-29T16:43:20Z</time>
      </trkpt>
      <trkpt lat="51.031956989318132" lon="8.974169036373496">
        <ele>338.04000000000002</ele>
        <time>2017-10-29T16:43:21Z</time>
      </trkpt>
      <trkpt lat="51.032062014564872" lon="8.974216980859637">
        <ele>339</ele>
        <time>2017-10-29T16:43:22Z</time>
      </trkpt>
      <trkpt lat="51.032164022326469" lon="8.974230978637934">
        <ele>339.95999999999998</ele>
        <time>2017-10-29T16:43:23Z</time>
      </trkpt>
      <trkpt lat="51.032282961532474" lon="8.974189991131425">
        <ele>341.41000000000003</ele>
        <time>2017-10-29T16:43:24Z</time>
      </trkpt>
      <trkpt lat="51.032410031184554" lon="8.974141040816903">
        <ele>342.37</ele>
        <time>2017-10-29T16:43:25Z</time>
      </trkpt>
      <trkpt lat="51.032656962051988" lon="8.974045990034938">
        <ele>344.29000000000002</ele>
        <time>2017-10-29T16:43:27Z</time>
      </trkpt>
      <trkpt lat="51.032766010612249" lon="8.973998967558146">
        <ele>345.25</ele>
        <time>2017-10-29T16:43:28Z</time>
      </trkpt>
      <trkpt lat="51.032863995060325" lon="8.973881034180522">
        <ele>346.20999999999998</ele>
        <time>2017-10-29T16:43:29Z</time>
      </trkpt>
      <trkpt lat="51.032969020307064" lon="8.973754970356822">
        <ele>347.64999999999998</ele>
        <time>2017-10-29T16:43:30Z</time>
      </trkpt>
      <trkpt lat="51.033081002533436" lon="8.97361901588738">
        <ele>348.62</ele>
        <time>2017-10-29T16:43:31Z</time>
      </trkpt>
      <trkpt lat="51.033383002504706" lon="8.97325498983264">
        <ele>351.98000000000002</ele>
        <time>2017-10-29T16:43:34Z</time>
      </trkpt>
      <trkpt lat="51.033495990559459" lon="8.97325498983264">
        <ele>353.42000000000002</ele>
        <time>2017-10-29T16:43:35Z</time>
      </trkpt>
      <trkpt lat="51.033616019412875" lon="8.97325498983264">
        <ele>354.86000000000001</ele>
        <time>2017-10-29T16:43:36Z</time>
      </trkpt>
      <trkpt lat="51.033738981932402" lon="8.97325498983264">
        <ele>356.31</ele>
        <time>2017-10-29T16:43:37Z</time>
      </trkpt>
      <trkpt lat="51.033846018835902" lon="8.973295977339149">
        <ele>357.26999999999998</ele>
        <time>2017-10-29T16:43:38Z</time>
      </trkpt>
      <trkpt lat="51.033956995233893" lon="8.973354985937476">
        <ele>358.70999999999998</ele>
        <time>2017-10-29T16:43:39Z</time>
      </trkpt>
      <trkpt lat="51.034091021865606" lon="8.97342698648572">
        <ele>360.14999999999998</ele>
        <time>2017-10-29T16:43:40Z</time>
      </trkpt>
      <trkpt lat="51.034152964130044" lon="8.973509967327118">
        <ele>361.58999999999997</ele>
        <time>2017-10-29T16:43:41Z</time>
      </trkpt>
      <trkpt lat="51.034220019355416" lon="8.9735989831388">
        <ele>363.04000000000002</ele>
        <time>2017-10-29T16:43:42Z</time>
      </trkpt>
      <trkpt lat="51.034309035167098" lon="8.973764022812247">
        <ele>364.95999999999998</ele>
        <time>2017-10-29T16:43:43Z</time>
      </trkpt>
      <trkpt lat="51.034375000745058" lon="8.973896037787199">
        <ele>367.36000000000001</ele>
        <time>2017-10-29T16:43:44Z</time>
      </trkpt>
      <trkpt lat="51.034431997686625" lon="8.974087983369827">
        <ele>369.75999999999999</ele>
        <time>2017-10-29T16:43:45Z</time>
      </trkpt>
      <trkpt lat="51.034493017941713" lon="8.974291998893023">
        <ele>371.69</ele>
        <time>2017-10-29T16:43:46Z</time>
      </trkpt>
      <trkpt lat="51.034670965746045" lon="8.974891975522041">
        <ele>377.44999999999999</ele>
        <time>2017-10-29T16:43:49Z</time>
      </trkpt>
      <trkpt lat="51.034743972122669" lon="8.975085010752082">
        <ele>378.89999999999998</ele>
        <time>2017-10-29T16:43:50Z</time>
      </trkpt>
      <trkpt lat="51.034856038168073" lon="8.975236974656582">
        <ele>380.81999999999999</ele>
        <time>2017-10-29T16:43:51Z</time>
      </trkpt>
      <trkpt lat="51.034986963495612" lon="8.975346023216844">
        <ele>382.25999999999999</ele>
        <time>2017-10-29T16:43:52Z</time>
      </trkpt>
      <trkpt lat="51.035128030925989" lon="8.975464040413499">
        <ele>384.18000000000001</ele>
        <time>2017-10-29T16:43:53Z</time>
      </trkpt>
      <trkpt lat="51.035289969295263" lon="8.975562024861574">
        <ele>385.63</ele>
        <time>2017-10-29T16:43:54Z</time>
      </trkpt>
      <trkpt lat="51.035459032282233" lon="8.975626984611154">
        <ele>387.06999999999999</ele>
        <time>2017-10-29T16:43:55Z</time>
      </trkpt>
      <trkpt lat="51.036350028589368" lon="8.975938959047198">
        <ele>395.72000000000003</ele>
        <time>2017-10-29T16:44:00Z</time>
      </trkpt>
      <trkpt lat="51.03760002180934" lon="8.976001990959048">
        <ele>406.76999999999998</ele>
        <time>2017-10-29T16:44:07Z</time>
      </trkpt>
      <trkpt lat="51.037747962400317" lon="8.976055970415473">
        <ele>407.74000000000001</ele>
        <time>2017-10-29T16:44:08Z</time>
      </trkpt>
      <trkpt lat="51.037895986810327" lon="8.976110033690929">
        <ele>408.69999999999999</ele>
        <time>2017-10-29T16:44:09Z</time>
      </trkpt>
      <trkpt lat="51.038026995956898" lon="8.976207012310624">
        <ele>409.66000000000003</ele>
        <time>2017-10-29T16:44:10Z</time>
      </trkpt>
      <trkpt lat="51.038148030638695" lon="8.976336009800434">
        <ele>411.10000000000002</ele>
        <time>2017-10-29T16:44:11Z</time>
      </trkpt>
      <trkpt lat="51.038273004814982" lon="8.976466013118625">
        <ele>412.06</ele>
        <time>2017-10-29T16:44:12Z</time>
      </trkpt>
      <trkpt lat="51.038398984819651" lon="8.976613031700254">
        <ele>413.5</ele>
        <time>2017-10-29T16:44:13Z</time>
      </trkpt>
      <trkpt lat="51.039458960294724" lon="8.978145997971296">
        <ele>420.23000000000002</ele>
        <time>2017-10-29T16:44:22Z</time>
      </trkpt>
      <trkpt lat="51.039856011047959" lon="8.97858495824039">
        <ele>419.75</ele>
        <time>2017-10-29T16:44:26Z</time>
      </trkpt>
      <trkpt lat="51.039958018809557" lon="8.978674979880452">
        <ele>419.26999999999998</ele>
        <time>2017-10-29T16:44:27Z</time>
      </trkpt>
      <trkpt lat="51.040049968287349" lon="8.978710016235709">
        <ele>418.79000000000002</ele>
        <time>2017-10-29T16:44:28Z</time>
      </trkpt>
      <trkpt lat="51.040155999362469" lon="8.978717979043722">
        <ele>418.31</ele>
        <time>2017-10-29T16:44:29Z</time>
      </trkpt>
      <trkpt lat="51.040270999073982" lon="8.978727031499147">
        <ele>417.82999999999998</ele>
        <time>2017-10-29T16:44:30Z</time>
      </trkpt>
      <trkpt lat="51.040376024320722" lon="8.978645978495479">
        <ele>417.35000000000002</ele>
        <time>2017-10-29T16:44:31Z</time>
      </trkpt>
      <trkpt lat="51.040493035688996" lon="8.978555034846067">
        <ele>416.87</ele>
        <time>2017-10-29T16:44:32Z</time>
      </trkpt>
      <trkpt lat="51.04061096906662" lon="8.978463001549244">
        <ele>415.91000000000003</ele>
        <time>2017-10-29T16:44:33Z</time>
      </trkpt>
      <trkpt lat="51.040734015405178" lon="8.978406004607678">
        <ele>414.94999999999999</ele>
        <time>2017-10-29T16:44:34Z</time>
      </trkpt>
      <trkpt lat="51.040857983753085" lon="8.978371974080801">
        <ele>413.98000000000002</ele>
        <time>2017-10-29T16:44:35Z</time>
      </trkpt>
      <trkpt lat="51.041131988167763" lon="8.978445986285806">
        <ele>413.01999999999998</ele>
        <time>2017-10-29T16:44:37Z</time>
      </trkpt>
      <trkpt lat="51.041271965950727" lon="8.978495020419359">
        <ele>412.54000000000002</ele>
        <time>2017-10-29T16:44:38Z</time>
      </trkpt>
      <trkpt lat="51.042383993044496" lon="8.979476960375905">
        <ele>413.98000000000002</ele>
        <time>2017-10-29T16:44:45Z</time>
      </trkpt>
      <trkpt lat="51.044230023398995" lon="8.981725992634893">
        <ele>428.88999999999999</ele>
        <time>2017-10-29T16:44:56Z</time>
      </trkpt>
      <trkpt lat="51.045570960268378" lon="8.983598006889224">
        <ele>432.25</ele>
        <time>2017-10-29T16:45:05Z</time>
      </trkpt>
      <trkpt lat="51.045726025477052" lon="8.983701020479202">
        <ele>432.25</ele>
        <time>2017-10-29T16:45:06Z</time>
      </trkpt>
      <trkpt lat="51.045887963846326" lon="8.983808979392052">
        <ele>431.76999999999998</ele>
        <time>2017-10-29T16:45:07Z</time>
      </trkpt>
      <trkpt lat="51.046062977984548" lon="8.983885003253818">
        <ele>431.76999999999998</ele>
        <time>2017-10-29T16:45:08Z</time>
      </trkpt>
      <trkpt lat="51.046246038749814" lon="8.983962032943964">
        <ele>431.76999999999998</ele>
        <time>2017-10-29T16:45:09Z</time>
      </trkpt>
      <trkpt lat="51.0475729778409" lon="8.984525967389345">
        <ele>432.73000000000002</ele>
        <time>2017-10-29T16:45:16Z</time>
      </trkpt>
      <trkpt lat="51.049076020717621" lon="8.98457801900804">
        <ele>437.54000000000002</ele>
        <time>2017-10-29T16:45:23Z</time>
      </trkpt>
      <trkpt lat="51.051736017689109" lon="8.984562009572983">
        <ele>445.70999999999998</ele>
        <time>2017-10-29T16:45:34Z</time>
      </trkpt>
      <trkpt lat="51.053123977035284" lon="8.984086001291871">
        <ele>454.83999999999997</ele>
        <time>2017-10-29T16:45:41Z</time>
      </trkpt>
      <trkpt lat="51.054400959983468" lon="8.98397795855999">
        <ele>463.97000000000003</ele>
        <time>2017-10-29T16:45:48Z</time>
      </trkpt>
      <trkpt lat="51.054568011313677" lon="8.984007965773344">
        <ele>464.93000000000001</ele>
        <time>2017-10-29T16:45:49Z</time>
      </trkpt>
      <trkpt lat="51.054721986874938" lon="8.984059011563659">
        <ele>466.38</ele>
        <time>2017-10-29T16:45:50Z</time>
      </trkpt>
      <trkpt lat="51.054864982143044" lon="8.984136963263154">
        <ele>467.33999999999997</ele>
        <time>2017-10-29T16:45:51Z</time>
      </trkpt>
      <trkpt lat="51.054975958541036" lon="8.984248023480177">
        <ele>468.30000000000001</ele>
        <time>2017-10-29T16:45:52Z</time>
      </trkpt>
      <trkpt lat="51.055097999051213" lon="8.984369980171323">
        <ele>469.25999999999999</ele>
        <time>2017-10-29T16:45:53Z</time>
      </trkpt>
      <trkpt lat="51.055165976285934" lon="8.984476011246443">
        <ele>470.22000000000003</ele>
        <time>2017-10-29T16:45:54Z</time>
      </trkpt>
      <trkpt lat="51.055245017632842" lon="8.984598973765969">
        <ele>471.18000000000001</ele>
        <time>2017-10-29T16:45:55Z</time>
      </trkpt>
      <trkpt lat="51.055325986817479" lon="8.984725037589669">
        <ele>471.66000000000003</ele>
        <time>2017-10-29T16:45:56Z</time>
      </trkpt>
      <trkpt lat="51.0554129909724" lon="8.984859986230731">
        <ele>472.13999999999999</ele>
        <time>2017-10-29T16:45:57Z</time>
      </trkpt>
      <trkpt lat="51.05549898929894" lon="8.984978003427386">
        <ele>473.11000000000001</ele>
        <time>2017-10-29T16:45:58Z</time>
      </trkpt>
      <trkpt lat="51.055609965696931" lon="8.985033994540572">
        <ele>473.58999999999997</ele>
        <time>2017-10-29T16:45:59Z</time>
      </trkpt>
      <trkpt lat="51.055718008428812" lon="8.985087973996997">
        <ele>473.58999999999997</ele>
        <time>2017-10-29T16:46:00Z</time>
      </trkpt>
      <trkpt lat="51.055837031453848" lon="8.985138013958931">
        <ele>474.55000000000001</ele>
        <time>2017-10-29T16:46:01Z</time>
      </trkpt>
      <trkpt lat="51.055956976488233" lon="8.9850739762187">
        <ele>475.02999999999997</ele>
        <time>2017-10-29T16:46:02Z</time>
      </trkpt>
      <trkpt lat="51.056088991463184" lon="8.985002981498838">
        <ele>475.99000000000001</ele>
        <time>2017-10-29T16:46:03Z</time>
      </trkpt>
      <trkpt lat="51.05622704140842" lon="8.984927963465452">
        <ele>476.94999999999999</ele>
        <time>2017-10-29T16:46:04Z</time>
      </trkpt>
      <trkpt lat="51.056374981999397" lon="8.984849005937576">
        <ele>478.38999999999999</ele>
        <time>2017-10-29T16:46:05Z</time>
      </trkpt>
      <trkpt lat="51.057506036013365" lon="8.984242994338274">
        <ele>487.05000000000001</ele>
        <time>2017-10-29T16:46:12Z</time>
      </trkpt>
      <trkpt lat="51.05764701962471" lon="8.984198989346623">
        <ele>488.49000000000001</ele>
        <time>2017-10-29T16:46:13Z</time>
      </trkpt>
      <trkpt lat="51.057788003236055" lon="8.984198989346623">
        <ele>489.93000000000001</ele>
        <time>2017-10-29T16:46:14Z</time>
      </trkpt>
      <trkpt lat="51.057932004332542" lon="8.984209969639778">
        <ele>490.88999999999999</ele>
        <time>2017-10-29T16:46:15Z</time>
      </trkpt>
      <trkpt lat="51.058078017085791" lon="8.984249029308558">
        <ele>492.32999999999998</ele>
        <time>2017-10-29T16:46:16Z</time>
      </trkpt>
      <trkpt lat="51.058835992589593" lon="8.984451033174992">
        <ele>496.66000000000003</ele>
        <time>2017-10-29T16:46:21Z</time>
      </trkpt>
      <trkpt lat="51.059216028079391" lon="8.984472993761301">
        <ele>497.62</ele>
        <time>2017-10-29T16:46:24Z</time>
      </trkpt>
      <trkpt lat="51.059304038062692" lon="8.984478022903204">
        <ele>497.62</ele>
        <time>2017-10-29T16:46:25Z</time>
      </trkpt>
      <trkpt lat="51.059437980875373" lon="8.984438963234425">
        <ele>497.62</ele>
        <time>2017-10-29T16:46:26Z</time>
      </trkpt>
      <trkpt lat="51.059562033042312" lon="8.984404010698199">
        <ele>498.10000000000002</ele>
        <time>2017-10-29T16:46:27Z</time>
      </trkpt>
      <trkpt lat="51.059687007218599" lon="8.984339972957969">
        <ele>498.10000000000002</ele>
        <time>2017-10-29T16:46:28Z</time>
      </trkpt>
      <trkpt lat="51.060924008488655" lon="8.983733961358666">
        <ele>500.5</ele>
        <time>2017-10-29T16:46:37Z</time>
      </trkpt>
      <trkpt lat="51.062171990051866" lon="8.983218977227807">
        <ele>496.66000000000003</ele>
        <time>2017-10-29T16:46:48Z</time>
      </trkpt>
      <trkpt lat="51.062971036881208" lon="8.982835002243519">
        <ele>490.41000000000003</ele>
        <time>2017-10-29T16:46:56Z</time>
      </trkpt>
      <trkpt lat="51.063070027157664" lon="8.982740035280585">
        <ele>489.44999999999999</ele>
        <time>2017-10-29T16:46:57Z</time>
      </trkpt>
      <trkpt lat="51.063789026811719" lon="8.981953980401158">
        <ele>483.68000000000001</ele>
        <time>2017-10-29T16:47:05Z</time>
      </trkpt>
      <trkpt lat="51.064198985695839" lon="8.981621973216534">
        <ele>481.75999999999999</ele>
        <time>2017-10-29T16:47:10Z</time>
      </trkpt>
      <trkpt lat="51.064282972365618" lon="8.981579979881644">
        <ele>481.27999999999997</ele>
        <time>2017-10-29T16:47:11Z</time>
      </trkpt>
      <trkpt lat="51.064368970692158" lon="8.981536980718374">
        <ele>480.80000000000001</ele>
        <time>2017-10-29T16:47:12Z</time>
      </trkpt>
      <trkpt lat="51.064451029524207" lon="8.981495993211865">
        <ele>480.31999999999999</ele>
        <time>2017-10-29T16:47:13Z</time>
      </trkpt>
      <trkpt lat="51.064524035900831" lon="8.981476966291666">
        <ele>480.31999999999999</ele>
        <time>2017-10-29T16:47:14Z</time>
      </trkpt>
      <trkpt lat="51.064611040055752" lon="8.981489036232233">
        <ele>480.31999999999999</ele>
        <time>2017-10-29T16:47:15Z</time>
      </trkpt>
      <trkpt lat="51.064701983705163" lon="8.981501022353768">
        <ele>480.31999999999999</ele>
        <time>2017-10-29T16:47:16Z</time>
      </trkpt>
      <trkpt lat="51.065041031688452" lon="8.981516025960445">
        <ele>478.87</ele>
        <time>2017-10-29T16:47:20Z</time>
      </trkpt>
      <trkpt lat="51.065311012789607" lon="8.981516025960445">
        <ele>476.47000000000003</ele>
        <time>2017-10-29T16:47:25Z</time>
      </trkpt>
      <trkpt lat="51.065418971702456" lon="8.981216037645936">
        <ele>475.99000000000001</ele>
        <time>2017-10-29T16:47:26Z</time>
      </trkpt>
      <trkpt lat="51.065418971702456" lon="8.981216037645936">
        <ele>475.99000000000001</ele>
        <time>2017-10-29T16:47:27Z</time>
      </trkpt>
      <trkpt lat="51.065546041354537" lon="8.981001041829586">
        <ele>476.94999999999999</ele>
        <time>2017-10-29T16:47:29Z</time>
      </trkpt>
      <trkpt lat="51.065763970836997" lon="8.980629974976182">
        <ele>478.87</ele>
        <time>2017-10-29T16:47:32Z</time>
      </trkpt>
      <trkpt lat="51.065798001363873" lon="8.980479016900063">
        <ele>479.35000000000002</ele>
        <time>2017-10-29T16:47:33Z</time>
      </trkpt>
      <trkpt lat="51.065805964171886" lon="8.980312971398234">
        <ele>480.31999999999999</ele>
        <time>2017-10-29T16:47:34Z</time>
      </trkpt>
      <trkpt lat="51.065792972221971" lon="8.980148015543819">
        <ele>480.80000000000001</ele>
        <time>2017-10-29T16:47:35Z</time>
      </trkpt>
      <trkpt lat="51.065760031342506" lon="8.979990016669035">
        <ele>481.27999999999997</ele>
        <time>2017-10-29T16:47:36Z</time>
      </trkpt>
      <trkpt lat="51.065723989158869" lon="8.979821037501097">
        <ele>481.75999999999999</ele>
        <time>2017-10-29T16:47:37Z</time>
      </trkpt>
      <trkpt lat="51.065615024417639" lon="8.97888402454555">
        <ele>484.16000000000003</ele>
        <time>2017-10-29T16:47:42Z</time>
      </trkpt>
      <trkpt lat="51.065408997237682" lon="8.976992983371019">
        <ele>485.60000000000002</ele>
        <time>2017-10-29T16:47:52Z</time>
      </trkpt>
      <trkpt lat="51.065235994756222" lon="8.97583200596273">
        <ele>488.00999999999999</ele>
        <time>2017-10-29T16:47:58Z</time>
      </trkpt>
      <trkpt lat="51.065233983099461" lon="8.975627990439534">
        <ele>488.49000000000001</ele>
        <time>2017-10-29T16:47:59Z</time>
      </trkpt>
      <trkpt lat="51.065245969220996" lon="8.975436966866255">
        <ele>488.97000000000003</ele>
        <time>2017-10-29T16:48:00Z</time>
      </trkpt>
      <trkpt lat="51.065288968384266" lon="8.975246027112007">
        <ele>488.97000000000003</ele>
        <time>2017-10-29T16:48:01Z</time>
      </trkpt>
      <trkpt lat="51.065338002517819" lon="8.975065983831883">
        <ele>489.93000000000001</ele>
        <time>2017-10-29T16:48:02Z</time>
      </trkpt>
      <trkpt lat="51.065387036651373" lon="8.974884012714028">
        <ele>490.41000000000003</ele>
        <time>2017-10-29T16:48:03Z</time>
      </trkpt>
      <trkpt lat="51.065436992794275" lon="8.974699024111033">
        <ele>490.88999999999999</ele>
        <time>2017-10-29T16:48:04Z</time>
      </trkpt>
      <trkpt lat="51.066030012443662" lon="8.972641015425324">
        <ele>494.74000000000001</ele>
        <time>2017-10-29T16:48:14Z</time>
      </trkpt>
      <trkpt lat="51.067032990977168" lon="8.969035958871245">
        <ele>491.85000000000002</ele>
        <time>2017-10-29T16:48:29Z</time>
      </trkpt>
      <trkpt lat="51.067844023928046" lon="8.967376006767154">
        <ele>492.81</ele>
        <time>2017-10-29T16:48:36Z</time>
      </trkpt>
      <trkpt lat="51.069681001827121" lon="8.96530601195991">
        <ele>496.18000000000001</ele>
        <time>2017-10-29T16:48:47Z</time>
      </trkpt>
      <trkpt lat="51.071880999952555" lon="8.963128980249167">
        <ele>495.22000000000003</ele>
        <time>2017-10-29T16:48:59Z</time>
      </trkpt>
      <trkpt lat="51.072017038241029" lon="8.962929993867874">
        <ele>495.69999999999999</ele>
        <time>2017-10-29T16:49:00Z</time>
      </trkpt>
      <trkpt lat="51.072149975225329" lon="8.962736958637834">
        <ele>495.69999999999999</ele>
        <time>2017-10-29T16:49:01Z</time>
      </trkpt>
      <trkpt lat="51.072272015735507" lon="8.962503019720316">
        <ele>496.18000000000001</ele>
        <time>2017-10-29T16:49:02Z</time>
      </trkpt>
      <trkpt lat="51.072364971041679" lon="8.962262962013483">
        <ele>496.66000000000003</ele>
        <time>2017-10-29T16:49:03Z</time>
      </trkpt>
      <trkpt lat="51.072438983246684" lon="8.96199700422585">
        <ele>497.13999999999999</ele>
        <time>2017-10-29T16:49:04Z</time>
      </trkpt>
      <trkpt lat="51.072508972138166" lon="8.961733980104327">
        <ele>497.13999999999999</ele>
        <time>2017-10-29T16:49:05Z</time>
      </trkpt>
      <trkpt lat="51.072635035961866" lon="8.961183959618211">
        <ele>497.62</ele>
        <time>2017-10-29T16:49:07Z</time>
      </trkpt>
      <trkpt lat="51.072806026786566" lon="8.958914978429675">
        <ele>498.57999999999998</ele>
        <time>2017-10-29T16:49:15Z</time>
      </trkpt>
      <trkpt lat="51.072722962126136" lon="8.957949969917536">
        <ele>498.57999999999998</ele>
        <time>2017-10-29T16:49:20Z</time>
      </trkpt>
      <trkpt lat="51.072713993489742" lon="8.957857014611363">
        <ele>498.57999999999998</ele>
        <time>2017-10-29T16:49:21Z</time>
      </trkpt>
      <trkpt lat="51.07270703651011" lon="8.957780990749598">
        <ele>499.06</ele>
        <time>2017-10-29T16:49:22Z</time>
      </trkpt>
      <trkpt lat="51.072746012359858" lon="8.957602959126234">
        <ele>499.54000000000002</ele>
        <time>2017-10-29T16:49:23Z</time>
      </trkpt>
      <trkpt lat="51.072803009301424" lon="8.957568006590009">
        <ele>499.54000000000002</ele>
        <time>2017-10-29T16:49:24Z</time>
      </trkpt>
      <trkpt lat="51.072874004021287" lon="8.957526013255119">
        <ele>500.01999999999998</ele>
        <time>2017-10-29T16:49:25Z</time>
      </trkpt>
      <trkpt lat="51.072962014004588" lon="8.957488965243101">
        <ele>500.01999999999998</ele>
        <time>2017-10-29T16:49:26Z</time>
      </trkpt>
      <trkpt lat="51.073059998452663" lon="8.957459963858128">
        <ele>500.01999999999998</ele>
        <time>2017-10-29T16:49:27Z</time>
      </trkpt>
      <trkpt lat="51.073299972340465" lon="8.957387963309884">
        <ele>500.01999999999998</ele>
        <time>2017-10-29T16:49:29Z</time>
      </trkpt>
      <trkpt lat="51.073440033942461" lon="8.957395004108548">
        <ele>500.01999999999998</ele>
        <time>2017-10-29T16:49:30Z</time>
      </trkpt>
      <trkpt lat="51.073569031432271" lon="8.957416964694858">
        <ele>500.01999999999998</ele>
        <time>2017-10-29T16:49:31Z</time>
      </trkpt>
      <trkpt lat="51.074615009129047" lon="8.958010990172625">
        <ele>503.87</ele>
        <time>2017-10-29T16:49:38Z</time>
      </trkpt>
      <trkpt lat="51.075455965474248" lon="8.958662012591958">
        <ele>508.19</ele>
        <time>2017-10-29T16:49:44Z</time>
      </trkpt>
      <trkpt lat="51.075655035674572" lon="8.958767959848046">
        <ele>510.12</ele>
        <time>2017-10-29T16:49:46Z</time>
      </trkpt>
      <trkpt lat="51.075857039541006" lon="8.958827974274755">
        <ele>511.56</ele>
        <time>2017-10-29T16:49:48Z</time>
      </trkpt>
      <trkpt lat="51.075940020382404" lon="8.95881799980998">
        <ele>512.51999999999998</ele>
        <time>2017-10-29T16:49:49Z</time>
      </trkpt>
      <trkpt lat="51.07597597874701" lon="8.958813976496458">
        <ele>513.48000000000002</ele>
        <time>2017-10-29T16:49:50Z</time>
      </trkpt>
      <trkpt lat="51.076047979295254" lon="8.958733007311821">
        <ele>513.96000000000004</ele>
        <time>2017-10-29T16:49:51Z</time>
      </trkpt>
      <trkpt lat="51.076117968186736" lon="8.958652038127184">
        <ele>514.44000000000005</ele>
        <time>2017-10-29T16:49:52Z</time>
      </trkpt>
      <trkpt lat="51.076162979006767" lon="8.958545001223683">
        <ele>514.44000000000005</ele>
        <time>2017-10-29T16:49:53Z</time>
      </trkpt>
      <trkpt lat="51.076201032847166" lon="8.958411980420351">
        <ele>514.91999999999996</ele>
        <time>2017-10-29T16:49:54Z</time>
      </trkpt>
      <trkpt lat="51.07623104006052" lon="8.958234032616019">
        <ele>514.91999999999996</ele>
        <time>2017-10-29T16:49:55Z</time>
      </trkpt>
      <trkpt lat="51.076255012303591" lon="8.958085002377629">
        <ele>515.39999999999998</ele>
        <time>2017-10-29T16:49:56Z</time>
      </trkpt>
      <trkpt lat="51.076247971504927" lon="8.957859026268125">
        <ele>515.39999999999998</ele>
        <time>2017-10-29T16:49:57Z</time>
      </trkpt>
      <trkpt lat="51.076241014525294" lon="8.957636989653111">
        <ele>514.91999999999996</ele>
        <time>2017-10-29T16:49:58Z</time>
      </trkpt>
      <trkpt lat="51.07623003423214" lon="8.957414031028748">
        <ele>514.91999999999996</ele>
        <time>2017-10-29T16:49:59Z</time>
      </trkpt>
      <trkpt lat="51.076196003705263" lon="8.957165004685521">
        <ele>515.39999999999998</ele>
        <time>2017-10-29T16:50:00Z</time>
      </trkpt>
      <trkpt lat="51.076161973178387" lon="8.956915978342295">
        <ele>515.39999999999998</ele>
        <time>2017-10-29T16:50:01Z</time>
      </trkpt>
      <trkpt lat="51.076087038964033" lon="8.956295968964696">
        <ele>516.37</ele>
        <time>2017-10-29T16:50:04Z</time>
      </trkpt>
      <trkpt lat="51.07610397040844" lon="8.95602498203516">
        <ele>515.88</ele>
        <time>2017-10-29T16:50:06Z</time>
      </trkpt>
      <trkpt lat="51.076151998713613" lon="8.955909982323647">
        <ele>515.88</ele>
        <time>2017-10-29T16:50:07Z</time>
      </trkpt>
      <trkpt lat="51.07619097456336" lon="8.955832030624151">
        <ele>515.88</ele>
        <time>2017-10-29T16:50:08Z</time>
      </trkpt>
      <trkpt lat="51.07619097456336" lon="8.955832030624151">
        <ele>516.37</ele>
        <time>2017-10-29T16:50:09Z</time>
      </trkpt>
      <trkpt lat="51.07631997205317" lon="8.955690963193774">
        <ele>516.37</ele>
        <time>2017-10-29T16:50:10Z</time>
      </trkpt>
      <trkpt lat="51.076427008956671" lon="8.955574035644531">
        <ele>515.88</ele>
        <time>2017-10-29T16:50:11Z</time>
      </trkpt>
      <trkpt lat="51.076478976756334" lon="8.95555199123919">
        <ele>515.39999999999998</ele>
        <time>2017-10-29T16:50:12Z</time>
      </trkpt>
      <trkpt lat="51.076573021709919" lon="8.955513015389442">
        <ele>515.39999999999998</ele>
        <time>2017-10-29T16:50:13Z</time>
      </trkpt>
      <trkpt lat="51.076666982844472" lon="8.955473033711314">
        <ele>514.91999999999996</ele>
        <time>2017-10-29T16:50:14Z</time>
      </trkpt>
      <trkpt lat="51.076761027798057" lon="8.955432968214154">
        <ele>514.91999999999996</ele>
        <time>2017-10-29T16:50:15Z</time>
      </trkpt>
      <trkpt lat="51.076862029731274" lon="8.955389969050884">
        <ele>514.91999999999996</ele>
        <time>2017-10-29T16:50:16Z</time>
      </trkpt>
      <trkpt lat="51.076964037492871" lon="8.955346969887614">
        <ele>514.44000000000005</ele>
        <time>2017-10-29T16:50:17Z</time>
      </trkpt>
      <trkpt lat="51.077049029991031" lon="8.955252002924681">
        <ele>514.44000000000005</ele>
        <time>2017-10-29T16:50:18Z</time>
      </trkpt>
      <trkpt lat="51.077139973640442" lon="8.955129962414503">
        <ele>513.96000000000004</ele>
        <time>2017-10-29T16:50:19Z</time>
      </trkpt>
      <trkpt lat="51.077601984143257" lon="8.954443987458944">
        <ele>513.48000000000002</ele>
        <time>2017-10-29T16:50:24Z</time>
      </trkpt>
      <trkpt lat="51.077667027711868" lon="8.95428498275578">
        <ele>513</ele>
        <time>2017-10-29T16:50:25Z</time>
      </trkpt>
      <trkpt lat="51.077712960541248" lon="8.954118015244603">
        <ele>512.51999999999998</ele>
        <time>2017-10-29T16:50:26Z</time>
      </trkpt>
      <trkpt lat="51.077756965532899" lon="8.953878963366151">
        <ele>512.03999999999996</ele>
        <time>2017-10-29T16:50:27Z</time>
      </trkpt>
      <trkpt lat="51.077766017988324" lon="8.95370596088469">
        <ele>510.60000000000002</ele>
        <time>2017-10-29T16:50:28Z</time>
      </trkpt>
      <trkpt lat="51.077778004109859" lon="8.95346699282527">
        <ele>509.63999999999999</ele>
        <time>2017-10-29T16:50:29Z</time>
      </trkpt>
      <trkpt lat="51.077852016314864" lon="8.951548961922526">
        <ele>505.31</ele>
        <time>2017-10-29T16:50:36Z</time>
      </trkpt>
      <trkpt lat="51.07777900993824" lon="8.948686039075255">
        <ele>498.57999999999998</ele>
        <time>2017-10-29T16:50:46Z</time>
      </trkpt>
      <trkpt lat="51.07797397300601" lon="8.947247033938766">
        <ele>493.76999999999998</ele>
        <time>2017-10-29T16:50:52Z</time>
      </trkpt>
      <trkpt lat="51.07799400575459" lon="8.947119964286685">
        <ele>492.81</ele>
        <time>2017-10-29T16:50:53Z</time>
      </trkpt>
      <trkpt lat="51.078053014352918" lon="8.947016028687358">
        <ele>491.85000000000002</ele>
        <time>2017-10-29T16:50:54Z</time>
      </trkpt>
      <trkpt lat="51.0781230032444" lon="8.9468929823488">
        <ele>491.37</ele>
        <time>2017-10-29T16:50:55Z</time>
      </trkpt>
      <trkpt lat="51.078202966600657" lon="8.946754010394216">
        <ele>490.41000000000003</ele>
        <time>2017-10-29T16:50:56Z</time>
      </trkpt>
      <trkpt lat="51.078305980190635" lon="8.946629036217928">
        <ele>489.44999999999999</ele>
        <time>2017-10-29T16:50:57Z</time>
      </trkpt>
      <trkpt lat="51.078446041792631" lon="8.94652702845633">
        <ele>488.49000000000001</ele>
        <time>2017-10-29T16:50:58Z</time>
      </trkpt>
      <trkpt lat="51.079682037234306" lon="8.945551039651036">
        <ele>483.68000000000001</ele>
        <time>2017-10-29T16:51:05Z</time>
      </trkpt>
      <trkpt lat="51.080197021365166" lon="8.945048041641712">
        <ele>481.27999999999997</ele>
        <time>2017-10-29T16:51:08Z</time>
      </trkpt>
      <trkpt lat="51.080347979441285" lon="8.944821981713176">
        <ele>479.83999999999997</ele>
        <time>2017-10-29T16:51:09Z</time>
      </trkpt>
      <trkpt lat="51.081533012911677" lon="8.94283002242446">
        <ele>469.74000000000001</ele>
        <time>2017-10-29T16:51:17Z</time>
      </trkpt>
      <trkpt lat="51.082277996465564" lon="8.940669000148773">
        <ele>458.69</ele>
        <time>2017-10-29T16:51:24Z</time>
      </trkpt>
      <trkpt lat="51.082389978691936" lon="8.940388960763812">
        <ele>456.75999999999999</ele>
        <time>2017-10-29T16:51:25Z</time>
      </trkpt>
      <trkpt lat="51.083289021626115" lon="8.938716016709805">
        <ele>449.06999999999999</ele>
        <time>2017-10-29T16:51:32Z</time>
      </trkpt>
      <trkpt lat="51.083439979702234" lon="8.938575033098459">
        <ele>448.11000000000001</ele>
        <time>2017-10-29T16:51:33Z</time>
      </trkpt>
      <trkpt lat="51.083607031032443" lon="8.938430026173592">
        <ele>447.63</ele>
        <time>2017-10-29T16:51:34Z</time>
      </trkpt>
      <trkpt lat="51.084935981780291" lon="8.937671966850758">
        <ele>441.86000000000001</ele>
        <time>2017-10-29T16:51:41Z</time>
      </trkpt>
      <trkpt lat="51.085134968161583" lon="8.937617987394333">
        <ele>440.89999999999998</ele>
        <time>2017-10-29T16:51:42Z</time>
      </trkpt>
      <trkpt lat="51.086419997736812" lon="8.937633996829391">
        <ele>435.61000000000001</ele>
        <time>2017-10-29T16:51:49Z</time>
      </trkpt>
      <trkpt lat="51.087448038160801" lon="8.937669033184648">
        <ele>430.32999999999998</ele>
        <time>2017-10-29T16:51:56Z</time>
      </trkpt>
      <trkpt lat="51.088083973154426" lon="8.937510028481484">
        <ele>426.95999999999998</ele>
        <time>2017-10-29T16:52:02Z</time>
      </trkpt>
      <trkpt lat="51.088249012827873" lon="8.937422018498182">
        <ele>425.51999999999998</ele>
        <time>2017-10-29T16:52:04Z</time>
      </trkpt>
      <trkpt lat="51.088334005326033" lon="8.937338031828404">
        <ele>425.04000000000002</ele>
        <time>2017-10-29T16:52:05Z</time>
      </trkpt>
      <trkpt lat="51.088507007807493" lon="8.937165029346943">
        <ele>425.04000000000002</ele>
        <time>2017-10-29T16:52:07Z</time>
      </trkpt>
      <trkpt lat="51.088592000305653" lon="8.937055980786681">
        <ele>424.56</ele>
        <time>2017-10-29T16:52:08Z</time>
      </trkpt>
      <trkpt lat="51.089450977742672" lon="8.935713032260537">
        <ele>423.12</ele>
        <time>2017-10-29T16:52:19Z</time>
      </trkpt>
      <trkpt lat="51.089864037930965" lon="8.934973999857903">
        <ele>423.60000000000002</ele>
        <time>2017-10-29T16:52:26Z</time>
      </trkpt>
      <trkpt lat="51.089991023764014" lon="8.934727990999818">
        <ele>424.56</ele>
        <time>2017-10-29T16:52:31Z</time>
      </trkpt>
      <trkpt lat="51.090020025148988" lon="8.934671999886632">
        <ele>424.56</ele>
        <time>2017-10-29T16:52:32Z</time>
      </trkpt>
      <trkpt lat="51.090104011818767" lon="8.93460301682353">
        <ele>424.56</ele>
        <time>2017-10-29T16:52:33Z</time>
      </trkpt>
      <trkpt lat="51.090139970183372" lon="8.934647021815181">
        <ele>424.56</ele>
        <time>2017-10-29T16:52:34Z</time>
      </trkpt>
      <trkpt lat="51.090179029852152" lon="8.934693960472941">
        <ele>424.56</ele>
        <time>2017-10-29T16:52:35Z</time>
      </trkpt>
      <trkpt lat="51.090220017358661" lon="8.934744000434876">
        <ele>425.04000000000002</ele>
        <time>2017-10-29T16:52:36Z</time>
      </trkpt>
      <trkpt lat="51.090264022350311" lon="8.93479697406292">
        <ele>425.51999999999998</ele>
        <time>2017-10-29T16:52:37Z</time>
      </trkpt>
      <trkpt lat="51.090306015685201" lon="8.934848019853234">
        <ele>426</ele>
        <time>2017-10-29T16:52:38Z</time>
      </trkpt>
      <trkpt lat="51.090337028726935" lon="8.934884984046221">
        <ele>426.95999999999998</ele>
        <time>2017-10-29T16:52:39Z</time>
      </trkpt>
      <trkpt lat="51.090365024283528" lon="8.934919014573097">
        <ele>427.44</ele>
        <time>2017-10-29T16:52:40Z</time>
      </trkpt>
      <trkpt lat="51.090395031496882" lon="8.934954972937703">
        <ele>427.92000000000002</ele>
        <time>2017-10-29T16:52:41Z</time>
      </trkpt>
      <trkpt lat="51.090435013175011" lon="8.935004007071257">
        <ele>428.39999999999998</ele>
        <time>2017-10-29T16:52:42Z</time>
      </trkpt>
      <trkpt lat="51.090487986803055" lon="8.935067960992456">
        <ele>428.88999999999999</ele>
        <time>2017-10-29T16:52:43Z</time>
      </trkpt>
      <trkpt lat="51.091237999498844" lon="8.935971027240157">
        <ele>434.64999999999998</ele>
        <time>2017-10-29T16:52:54Z</time>
      </trkpt>
      <trkpt lat="51.092401994392276" lon="8.937430987134576">
        <ele>440.89999999999998</ele>
        <time>2017-10-29T16:53:08Z</time>
      </trkpt>
      <trkpt lat="51.093144966289401" lon="8.938349978998303">
        <ele>445.23000000000002</ele>
        <time>2017-10-29T16:53:17Z</time>
      </trkpt>
      <trkpt lat="51.093316040933132" lon="8.938601016998291">
        <ele>447.14999999999998</ele>
        <time>2017-10-29T16:53:21Z</time>
      </trkpt>
      <trkpt lat="51.093373959884048" lon="8.93862197175622">
        <ele>447.14999999999998</ele>
        <time>2017-10-29T16:53:22Z</time>
      </trkpt>
      <trkpt lat="51.093390975147486" lon="8.93857603892684">
        <ele>447.63</ele>
        <time>2017-10-29T16:53:23Z</time>
      </trkpt>
      <trkpt lat="51.093413019552827" lon="8.938515018671751">
        <ele>447.63</ele>
        <time>2017-10-29T16:53:24Z</time>
      </trkpt>
      <trkpt lat="51.09342198818922" lon="8.938436983153224">
        <ele>447.63</ele>
        <time>2017-10-29T16:53:25Z</time>
      </trkpt>
      <trkpt lat="51.09342198818922" lon="8.938330030068755">
        <ele>448.11000000000001</ele>
        <time>2017-10-29T16:53:26Z</time>
      </trkpt>
      <trkpt lat="51.093416037037969" lon="8.937144996598363">
        <ele>447.14999999999998</ele>
        <time>2017-10-29T16:53:33Z</time>
      </trkpt>
      <trkpt lat="51.093400027602911" lon="8.936448963358998">
        <ele>445.23000000000002</ele>
        <time>2017-10-29T16:53:37Z</time>
      </trkpt>
      <trkpt lat="51.093400027602911" lon="8.936290964484215">
        <ele>444.75</ele>
        <time>2017-10-29T16:53:38Z</time>
      </trkpt>
      <trkpt lat="51.09337898902595" lon="8.9353989623487">
        <ele>440.89999999999998</ele>
        <time>2017-10-29T16:53:45Z</time>
      </trkpt>
      <trkpt lat="51.09337898902595" lon="8.935015993192792">
        <ele>439.45999999999998</ele>
        <time>2017-10-29T16:53:52Z</time>
      </trkpt>
      <trkpt lat="51.093365997076035" lon="8.934641992673278">
        <ele>438.98000000000002</ele>
        <time>2017-10-29T16:53:59Z</time>
      </trkpt>
      <trkpt lat="51.093365997076035" lon="8.934641992673278">
        <ele>439.45999999999998</ele>
        <time>2017-10-29T16:54:10Z</time>
      </trkpt>
      <trkpt lat="51.093365997076035" lon="8.934641992673278">
        <ele>438.98000000000002</ele>
        <time>2017-10-29T16:54:48Z</time>
      </trkpt>
      <trkpt lat="51.093365997076035" lon="8.934641992673278">
        <ele>438.98000000000002</ele>
        <time>2017-10-29T16:55:41Z</time>
      </trkpt>
      <trkpt lat="51.093144966289401" lon="8.934684991836548">
        <ele>456.75999999999999</ele>
        <time>2017-10-29T16:58:44Z</time>
      </trkpt>
      <trkpt lat="51.093200035393238" lon="8.934664037078619">
        <ele>440.42000000000002</ele>
        <time>2017-10-29T16:59:20Z</time>
      </trkpt>
      <trkpt lat="51.093201963230968" lon="8.934744000434876">
        <ele>433.69</ele>
        <time>2017-10-29T16:59:58Z</time>
      </trkpt>
      <trkpt lat="51.093229036778212" lon="8.934755986556411">
        <ele>427.44</ele>
        <time>2017-10-29T17:00:25Z</time>
      </trkpt>
      <trkpt lat="51.093148989602923" lon="8.934776019304991">
        <ele>432.73000000000002</ele>
        <time>2017-10-29T17:00:34Z</time>
      </trkpt>
      <trkpt lat="51.09339902177453" lon="8.934828992933035">
        <ele>434.64999999999998</ele>
        <time>2017-10-29T17:00:41Z</time>
      </trkpt>
      <trkpt lat="51.093443026766181" lon="8.934652972966433">
        <ele>434.64999999999998</ele>
        <time>2017-10-29T17:00:42Z</time>
      </trkpt>
      <trkpt lat="51.093443026766181" lon="8.934652972966433">
        <ele>434.64999999999998</ele>
        <time>2017-10-29T17:00:43Z</time>
      </trkpt>
      <trkpt lat="51.093443026766181" lon="8.934652972966433">
        <ele>434.64999999999998</ele>
        <time>2017-10-29T17:00:51Z</time>
      </trkpt>
      <trkpt lat="51.09337898902595" lon="8.934909962117672">
        <ele>434.64999999999998</ele>
        <time>2017-10-29T17:00:52Z</time>
      </trkpt>
      <trkpt lat="51.09337898902595" lon="8.934909962117672">
        <ele>435.13</ele>
        <time>2017-10-29T17:00:53Z</time>
      </trkpt>
      <trkpt lat="51.09337898902595" lon="8.934909962117672">
        <ele>435.13</ele>
        <time>2017-10-29T17:00:54Z</time>
      </trkpt>
      <trkpt lat="51.09337898902595" lon="8.934909962117672">
        <ele>435.61000000000001</ele>
        <time>2017-10-29T17:00:55Z</time>
      </trkpt>
      <trkpt lat="51.09337898902595" lon="8.934977017343044">
        <ele>435.61000000000001</ele>
        <time>2017-10-29T17:00:56Z</time>
      </trkpt>
      <trkpt lat="51.09337898902595" lon="8.935111965984106">
        <ele>435.61000000000001</ele>
        <time>2017-10-29T17:00:57Z</time>
      </trkpt>
      <trkpt lat="51.093379994854331" lon="8.935620998963714">
        <ele>438.01999999999998</ele>
        <time>2017-10-29T17:01:06Z</time>
      </trkpt>
      <trkpt lat="51.093379994854331" lon="8.935619993135333">
        <ele>438.98000000000002</ele>
        <time>2017-10-29T17:01:07Z</time>
      </trkpt>
      <trkpt lat="51.093381000682712" lon="8.935646982863545">
        <ele>439.45999999999998</ele>
        <time>2017-10-29T17:01:08Z</time>
      </trkpt>
      <trkpt lat="51.093384018167853" lon="8.935699034482241">
        <ele>439.94</ele>
        <time>2017-10-29T17:01:18Z</time>
      </trkpt>
      <trkpt lat="51.093373959884048" lon="8.935597026720643">
        <ele>440.42000000000002</ele>
        <time>2017-10-29T17:01:20Z</time>
      </trkpt>
      <trkpt lat="51.09337898902595" lon="8.935576993972063">
        <ele>439.94</ele>
        <time>2017-10-29T17:01:21Z</time>
      </trkpt>
      <trkpt lat="51.09337898902595" lon="8.935501975938678">
        <ele>439.94</ele>
        <time>2017-10-29T17:01:22Z</time>
      </trkpt>
      <trkpt lat="51.09337898902595" lon="8.935422012582421">
        <ele>439.94</ele>
        <time>2017-10-29T17:01:23Z</time>
      </trkpt>
      <trkpt lat="51.093400027602911" lon="8.934823963791132">
        <ele>438.98000000000002</ele>
        <time>2017-10-29T17:01:30Z</time>
      </trkpt>
      <trkpt lat="51.093417964875698" lon="8.93475104123354">
        <ele>438.98000000000002</ele>
        <time>2017-10-29T17:01:31Z</time>
      </trkpt>
      <trkpt lat="51.093437997624278" lon="8.934671999886632">
        <ele>438.5</ele>
        <time>2017-10-29T17:01:32Z</time>
      </trkpt>
      <trkpt lat="51.093501029536128" lon="8.934626989066601">
        <ele>438.01999999999998</ele>
        <time>2017-10-29T17:01:34Z</time>
      </trkpt>
      <trkpt lat="51.093558026477695" lon="8.93460201099515">
        <ele>437.54000000000002</ele>
        <time>2017-10-29T17:01:35Z</time>
      </trkpt>
      <trkpt lat="51.09363597817719" lon="8.934566974639893">
        <ele>436.57999999999998</ele>
        <time>2017-10-29T17:01:36Z</time>
      </trkpt>
      <trkpt lat="51.093672020360827" lon="8.934574015438557">
        <ele>436.10000000000002</ele>
        <time>2017-10-29T17:01:37Z</time>
      </trkpt>
      <trkpt lat="51.093735974282026" lon="8.934587007388473">
        <ele>435.61000000000001</ele>
        <time>2017-10-29T17:01:38Z</time>
      </trkpt>
      <trkpt lat="51.093802023679018" lon="8.934599999338388">
        <ele>435.13</ele>
        <time>2017-10-29T17:01:39Z</time>
      </trkpt>
      <trkpt lat="51.094886977225542" lon="8.9347979798913">
        <ele>428.88999999999999</ele>
        <time>2017-10-29T17:01:51Z</time>
      </trkpt>
      <trkpt lat="51.095733968541026" lon="8.934897975996137">
        <ele>422.63999999999999</ele>
        <time>2017-10-29T17:02:00Z</time>
      </trkpt>
      <trkpt lat="51.097124023362994" lon="8.93440998159349">
        <ele>412.06</ele>
        <time>2017-10-29T17:02:08Z</time>
      </trkpt>
      <trkpt lat="51.097801029682159" lon="8.93421501852572">
        <ele>406.76999999999998</ele>
        <time>2017-10-29T17:02:12Z</time>
      </trkpt>
      <trkpt lat="51.097961962223053" lon="8.934230022132397">
        <ele>405.81</ele>
        <time>2017-10-29T17:02:13Z</time>
      </trkpt>
      <trkpt lat="51.098106969147921" lon="8.934244019910693">
        <ele>404.85000000000002</ele>
        <time>2017-10-29T17:02:14Z</time>
      </trkpt>
      <trkpt lat="51.098239989951253" lon="8.934305040165782">
        <ele>403.41000000000003</ele>
        <time>2017-10-29T17:02:15Z</time>
      </trkpt>
      <trkpt lat="51.098387008532882" lon="8.934377962723374">
        <ele>401.97000000000003</ele>
        <time>2017-10-29T17:02:16Z</time>
      </trkpt>
      <trkpt lat="51.098889000713825" lon="8.934676023200154">
        <ele>398.60000000000002</ele>
        <time>2017-10-29T17:02:19Z</time>
      </trkpt>
      <trkpt lat="51.099055968225002" lon="8.934808960184455">
        <ele>397.16000000000003</ele>
        <time>2017-10-29T17:02:20Z</time>
      </trkpt>
      <trkpt lat="51.099990969523787" lon="8.935626028105617">
        <ele>389.94999999999999</ele>
        <time>2017-10-29T17:02:26Z</time>
      </trkpt>
      <trkpt lat="51.1001440230757" lon="8.9356769900769">
        <ele>388.99000000000001</ele>
        <time>2017-10-29T17:02:27Z</time>
      </trkpt>
      <trkpt lat="51.100286012515426" lon="8.93569802865386">
        <ele>388.02999999999997</ele>
        <time>2017-10-29T17:02:28Z</time>
      </trkpt>
      <trkpt lat="51.100418027490377" lon="8.93565502949059">
        <ele>387.06999999999999</ele>
        <time>2017-10-29T17:02:29Z</time>
      </trkpt>
      <trkpt lat="51.100541995838284" lon="8.935577999800444">
        <ele>386.11000000000001</ele>
        <time>2017-10-29T17:02:30Z</time>
      </trkpt>
      <trkpt lat="51.100667975842953" lon="8.935498958453536">
        <ele>385.63</ele>
        <time>2017-10-29T17:02:31Z</time>
      </trkpt>
      <trkpt lat="51.100791022181511" lon="8.93537599593401">
        <ele>384.66000000000003</ele>
        <time>2017-10-29T17:02:32Z</time>
      </trkpt>
      <trkpt lat="51.100917002186179" lon="8.935206010937691">
        <ele>384.66000000000003</ele>
        <time>2017-10-29T17:02:33Z</time>
      </trkpt>
      <trkpt lat="51.101043988019228" lon="8.93503200262785">
        <ele>384.18000000000001</ele>
        <time>2017-10-29T17:02:34Z</time>
      </trkpt>
      <trkpt lat="51.101170973852277" lon="8.934856988489628">
        <ele>384.18000000000001</ele>
        <time>2017-10-29T17:02:36Z</time>
      </trkpt>
      <trkpt lat="51.101502981036901" lon="8.934650039300323">
        <ele>384.18000000000001</ele>
        <time>2017-10-29T17:02:37Z</time>
      </trkpt>
      <trkpt lat="51.103264018893242" lon="8.933801958337426">
        <ele>386.58999999999997</ele>
        <time>2017-10-29T17:02:46Z</time>
      </trkpt>
      <trkpt lat="51.104327011853456" lon="8.933502975851297">
        <ele>389.94999999999999</ele>
        <time>2017-10-29T17:02:52Z</time>
      </trkpt>
      <trkpt lat="51.105264024809003" lon="8.933333996683359">
        <ele>392.36000000000001</ele>
        <time>2017-10-29T17:02:59Z</time>
      </trkpt>
      <trkpt lat="51.105399979278445" lon="8.933181026950479">
        <ele>392.83999999999997</ele>
        <time>2017-10-29T17:03:00Z</time>
      </trkpt>
      <trkpt lat="51.105481032282114" lon="8.933043982833624">
        <ele>393.31999999999999</ele>
        <time>2017-10-29T17:03:01Z</time>
      </trkpt>
      <trkpt lat="51.1055370233953" lon="8.932873997837305">
        <ele>394.27999999999997</ele>
        <time>2017-10-29T17:03:03Z</time>
      </trkpt>
      <trkpt lat="51.106254011392593" lon="8.930956972762942">
        <ele>397.63999999999999</ele>
        <time>2017-10-29T17:03:10Z</time>
      </trkpt>
      <trkpt lat="51.106499014422297" lon="8.930432014167309">
        <ele>399.56999999999999</ele>
        <time>2017-10-29T17:03:13Z</time>
      </trkpt>
      <trkpt lat="51.106762960553169" lon="8.930009985342622">
        <ele>400.52999999999997</ele>
        <time>2017-10-29T17:03:17Z</time>
      </trkpt>
      <trkpt lat="51.106857005506754" lon="8.929962040856481">
        <ele>401.00999999999999</ele>
        <time>2017-10-29T17:03:18Z</time>
      </trkpt>
      <trkpt lat="51.106974016875029" lon="8.929902026429772">
        <ele>400.52999999999997</ele>
        <time>2017-10-29T17:03:19Z</time>
      </trkpt>
      <trkpt lat="51.107841040939093" lon="8.929482009261847">
        <ele>399.56999999999999</ele>
        <time>2017-10-29T17:03:25Z</time>
      </trkpt>
      <trkpt lat="51.107936007902026" lon="8.929482009261847">
        <ele>399.56999999999999</ele>
        <time>2017-10-29T17:03:27Z</time>
      </trkpt>
      <trkpt lat="51.108119990676641" lon="8.929588962346315">
        <ele>399.56999999999999</ele>
        <time>2017-10-29T17:03:28Z</time>
      </trkpt>
      <trkpt lat="51.108186962082982" lon="8.929680995643139">
        <ele>399.56999999999999</ele>
        <time>2017-10-29T17:03:29Z</time>
      </trkpt>
      <trkpt lat="51.108291987329721" lon="8.929824996739626">
        <ele>399.56999999999999</ele>
        <time>2017-10-29T17:03:30Z</time>
      </trkpt>
      <trkpt lat="51.108341021463275" lon="8.929973021149635">
        <ele>399.56999999999999</ele>
        <time>2017-10-29T17:03:31Z</time>
      </trkpt>
      <trkpt lat="51.10839600674808" lon="8.930137977004051">
        <ele>399.07999999999998</ele>
        <time>2017-10-29T17:03:32Z</time>
      </trkpt>
      <trkpt lat="51.108442023396492" lon="8.930276026949287">
        <ele>398.60000000000002</ele>
        <time>2017-10-29T17:03:33Z</time>
      </trkpt>
      <trkpt lat="51.108475970104337" lon="8.930445006117225">
        <ele>398.60000000000002</ele>
        <time>2017-10-29T17:03:34Z</time>
      </trkpt>
      <trkpt lat="51.10850103199482" lon="8.930569980293512">
        <ele>398.12</ele>
        <time>2017-10-29T17:03:35Z</time>
      </trkpt>
      <trkpt lat="51.108472030609846" lon="8.930718004703522">
        <ele>397.63999999999999</ele>
        <time>2017-10-29T17:03:36Z</time>
      </trkpt>
      <trkpt lat="51.108434982597828" lon="8.930850019678474">
        <ele>397.63999999999999</ele>
        <time>2017-10-29T17:03:37Z</time>
      </trkpt>
      <trkpt lat="51.108392989262938" lon="8.930998966097832">
        <ele>397.63999999999999</ele>
        <time>2017-10-29T17:03:38Z</time>
      </trkpt>
      <trkpt lat="51.108344960957766" lon="8.931170962750912">
        <ele>397.16000000000003</ele>
        <time>2017-10-29T17:03:39Z</time>
      </trkpt>
      <trkpt lat="51.108019994571805" lon="8.932574009522796">
        <ele>395.24000000000001</ele>
        <time>2017-10-29T17:03:46Z</time>
      </trkpt>
      <trkpt lat="51.107990993186831" lon="8.932699989527464">
        <ele>394.27999999999997</ele>
        <time>2017-10-29T17:03:48Z</time>
      </trkpt>
      <trkpt lat="51.107976995408535" lon="8.932982962578535">
        <ele>393.31999999999999</ele>
        <time>2017-10-29T17:03:49Z</time>
      </trkpt>
      <trkpt lat="51.107971966266632" lon="8.93307700753212">
        <ele>391.87</ele>
        <time>2017-10-29T17:03:51Z</time>
      </trkpt>
      <trkpt lat="51.108003985136747" lon="8.933158982545137">
        <ele>391.38999999999999</ele>
        <time>2017-10-29T17:03:52Z</time>
      </trkpt>
      <trkpt lat="51.108134994283319" lon="8.933252021670342">
        <ele>390.43000000000001</ele>
        <time>2017-10-29T17:03:53Z</time>
      </trkpt>
      <trkpt lat="51.108218980953097" lon="8.933234000578523">
        <ele>389.47000000000003</ele>
        <time>2017-10-29T17:03:54Z</time>
      </trkpt>
      <trkpt lat="51.108893975615501" lon="8.932941975072026">
        <ele>383.69999999999999</ele>
        <time>2017-10-29T17:04:00Z</time>
      </trkpt>
      <trkpt lat="51.109501998871565" lon="8.932695966213942">
        <ele>379.38</ele>
        <time>2017-10-29T17:04:04Z</time>
      </trkpt>
      <trkpt lat="51.109600989148021" lon="8.932656990364194">
        <ele>377.94</ele>
        <time>2017-10-29T17:04:05Z</time>
      </trkpt>
      <trkpt lat="51.109698973596096" lon="8.932675011456013">
        <ele>377.44999999999999</ele>
        <time>2017-10-29T17:04:06Z</time>
      </trkpt>
      <trkpt lat="51.109837023541331" lon="8.932699989527464">
        <ele>376.49000000000001</ele>
        <time>2017-10-29T17:04:08Z</time>
      </trkpt>
      <trkpt lat="51.10992000438273" lon="8.932854970917106">
        <ele>376.00999999999999</ele>
        <time>2017-10-29T17:04:09Z</time>
      </trkpt>
      <trkpt lat="51.109982030466199" lon="8.932968964800239">
        <ele>375.52999999999997</ele>
        <time>2017-10-29T17:04:10Z</time>
      </trkpt>
      <trkpt lat="51.110045984387398" lon="8.933087987825275">
        <ele>375.05000000000001</ele>
        <time>2017-10-29T17:04:11Z</time>
      </trkpt>
      <trkpt lat="51.110288975760341" lon="8.933538012206554">
        <ele>373.61000000000001</ele>
        <time>2017-10-29T17:04:13Z</time>
      </trkpt>
      <trkpt lat="51.110384026542306" lon="8.933712020516396">
        <ele>372.64999999999998</ele>
        <time>2017-10-29T17:04:14Z</time>
      </trkpt>
      <trkpt lat="51.110476981848478" lon="8.933884017169476">
        <ele>372.17000000000002</ele>
        <time>2017-10-29T17:04:15Z</time>
      </trkpt>
      <trkpt lat="51.110567003488541" lon="8.934051990509033">
        <ele>371.20999999999998</ele>
        <time>2017-10-29T17:04:16Z</time>
      </trkpt>
      <trkpt lat="51.110663982108235" lon="8.934232033789158">
        <ele>370.24000000000001</ele>
        <time>2017-10-29T17:04:17Z</time>
      </trkpt>
      <trkpt lat="51.110766995698214" lon="8.934420961886644">
        <ele>369.75999999999999</ele>
        <time>2017-10-29T17:04:18Z</time>
      </trkpt>
      <trkpt lat="51.111212996765971" lon="8.93524800427258">
        <ele>364.48000000000002</ele>
        <time>2017-10-29T17:04:23Z</time>
      </trkpt>
      <trkpt lat="51.111293965950608" lon="8.935370966792107">
        <ele>364</ele>
        <time>2017-10-29T17:04:24Z</time>
      </trkpt>
      <trkpt lat="51.111390022560954" lon="8.93541899509728">
        <ele>364</ele>
        <time>2017-10-29T17:04:25Z</time>
      </trkpt>
      <trkpt lat="51.111485995352268" lon="8.935467023402453">
        <ele>364</ele>
        <time>2017-10-29T17:04:26Z</time>
      </trkpt>
      <trkpt lat="51.111582973971963" lon="8.93546199426055">
        <ele>363.04000000000002</ele>
        <time>2017-10-29T17:04:28Z</time>
      </trkpt>
      <trkpt lat="51.111772991716862" lon="8.935345988720655">
        <ele>362.55000000000001</ele>
        <time>2017-10-29T17:04:29Z</time>
      </trkpt>
      <trkpt lat="51.111821020022035" lon="8.935211962088943">
        <ele>362.06999999999999</ele>
        <time>2017-10-29T17:04:30Z</time>
      </trkpt>
      <trkpt lat="51.111874999478459" lon="8.935061004012823">
        <ele>361.11000000000001</ele>
        <time>2017-10-29T17:04:31Z</time>
      </trkpt>
      <trkpt lat="51.111874999478459" lon="8.934901999309659">
        <ele>360.63</ele>
        <time>2017-10-29T17:04:32Z</time>
      </trkpt>
      <trkpt lat="51.111854966729879" lon="8.934723967686296">
        <ele>359.67000000000002</ele>
        <time>2017-10-29T17:04:33Z</time>
      </trkpt>
      <trkpt lat="51.111808028072119" lon="8.934536967426539">
        <ele>359.19</ele>
        <time>2017-10-29T17:04:34Z</time>
      </trkpt>
      <trkpt lat="51.111753964796662" lon="8.934322977438569">
        <ele>358.23000000000002</ele>
        <time>2017-10-29T17:04:35Z</time>
      </trkpt>
      <trkpt lat="51.111284997314215" lon="8.932365970686078">
        <ele>354.86000000000001</ele>
        <time>2017-10-29T17:04:42Z</time>
      </trkpt>
      <trkpt lat="51.111216014251113" lon="8.932057013735175">
        <ele>354.38</ele>
        <time>2017-10-29T17:04:43Z</time>
      </trkpt>
      <trkpt lat="51.111024990677834" lon="8.931099968031049">
        <ele>351.98000000000002</ele>
        <time>2017-10-29T17:04:47Z</time>
      </trkpt>
      <trkpt lat="51.111049968749285" lon="8.930924031883478">
        <ele>351.5</ele>
        <time>2017-10-29T17:04:48Z</time>
      </trkpt>
      <trkpt lat="51.111075030639768" lon="8.930750023573637">
        <ele>351.01999999999998</ele>
        <time>2017-10-29T17:04:49Z</time>
      </trkpt>
      <trkpt lat="51.111120041459799" lon="8.930576015263796">
        <ele>350.54000000000002</ele>
        <time>2017-10-29T17:04:50Z</time>
      </trkpt>
      <trkpt lat="51.111191036179662" lon="8.930399995297194">
        <ele>350.06</ele>
        <time>2017-10-29T17:04:51Z</time>
      </trkpt>
      <trkpt lat="51.111292038112879" lon="8.930230010300875">
        <ele>349.10000000000002</ele>
        <time>2017-10-29T17:04:53Z</time>
      </trkpt>
      <trkpt lat="51.112414039671421" lon="8.928686985746026">
        <ele>346.69</ele>
        <time>2017-10-29T17:05:00Z</time>
      </trkpt>
      <trkpt lat="51.112690977752209" lon="8.928216006606817">
        <ele>345.73000000000002</ele>
        <time>2017-10-29T17:05:02Z</time>
      </trkpt>
      <trkpt lat="51.113417018204927" lon="8.926218012347817">
        <ele>341.88999999999999</ele>
        <time>2017-10-29T17:05:09Z</time>
      </trkpt>
      <trkpt lat="51.113721029832959" lon="8.925232971087098">
        <ele>337.07999999999998</ele>
        <time>2017-10-29T17:05:13Z</time>
      </trkpt>
      <trkpt lat="51.113819014281034" lon="8.925021998584271">
        <ele>336.12</ele>
        <time>2017-10-29T17:05:14Z</time>
      </trkpt>
      <trkpt lat="51.113934013992548" lon="8.924833992496133">
        <ele>335.16000000000003</ele>
        <time>2017-10-29T17:05:15Z</time>
      </trkpt>
      <trkpt lat="51.114331986755133" lon="8.924348009750247">
        <ele>332.75</ele>
        <time>2017-10-29T17:05:18Z</time>
      </trkpt>
      <trkpt lat="51.114450003951788" lon="8.924203002825379">
        <ele>332.26999999999998</ele>
        <time>2017-10-29T17:05:19Z</time>
      </trkpt>
      <trkpt lat="51.114566009491682" lon="8.924128990620375">
        <ele>331.79000000000002</ele>
        <time>2017-10-29T17:05:20Z</time>
      </trkpt>
      <trkpt lat="51.114702969789505" lon="8.924050033092499">
        <ele>331.31</ele>
        <time>2017-10-29T17:05:21Z</time>
      </trkpt>
      <trkpt lat="51.114856023341417" lon="8.924022959545255">
        <ele>330.82999999999998</ele>
        <time>2017-10-29T17:05:22Z</time>
      </trkpt>
      <trkpt lat="51.115026008337736" lon="8.923993958160281">
        <ele>330.35000000000002</ele>
        <time>2017-10-29T17:05:23Z</time>
      </trkpt>
      <trkpt lat="51.115912981331348" lon="8.923801006749272">
        <ele>328.43000000000001</ele>
        <time>2017-10-29T17:05:28Z</time>
      </trkpt>
      <trkpt lat="51.116078021004796" lon="8.923714002594352">
        <ele>328.43000000000001</ele>
        <time>2017-10-29T17:05:29Z</time>
      </trkpt>
      <trkpt lat="51.116243982687593" lon="8.923609983175993">
        <ele>327.94999999999999</ele>
        <time>2017-10-29T17:05:30Z</time>
      </trkpt>
      <trkpt lat="51.116396030411124" lon="8.923459025099874">
        <ele>327.94999999999999</ele>
        <time>2017-10-29T17:05:31Z</time>
      </trkpt>
      <trkpt lat="51.116542965173721" lon="8.923295997083187">
        <ele>327.47000000000003</ele>
        <time>2017-10-29T17:05:32Z</time>
      </trkpt>
      <trkpt lat="51.116672968491912" lon="8.923104973509908">
        <ele>326.99000000000001</ele>
        <time>2017-10-29T17:05:33Z</time>
      </trkpt>
      <trkpt lat="51.116799032315612" lon="8.922917973250151">
        <ele>326.5</ele>
        <time>2017-10-29T17:05:34Z</time>
      </trkpt>
      <trkpt lat="51.116918977349997" lon="8.9227410312742">
        <ele>326.01999999999998</ele>
        <time>2017-10-29T17:05:35Z</time>
      </trkpt>
      <trkpt lat="51.11701101064682" lon="8.922536009922624">
        <ele>325.54000000000002</ele>
        <time>2017-10-29T17:05:36Z</time>
      </trkpt>
      <trkpt lat="51.117089968174696" lon="8.922309027984738">
        <ele>324.57999999999998</ele>
        <time>2017-10-29T17:05:37Z</time>
      </trkpt>
      <trkpt lat="51.117172027006745" lon="8.92207601107657">
        <ele>324.57999999999998</ele>
        <time>2017-10-29T17:05:38Z</time>
      </trkpt>
      <trkpt lat="51.117260958999395" lon="8.921821033582091">
        <ele>324.57999999999998</ele>
        <time>2017-10-29T17:05:39Z</time>
      </trkpt>
      <trkpt lat="51.117306975647807" lon="8.921536970883608">
        <ele>324.57999999999998</ele>
        <time>2017-10-29T17:05:40Z</time>
      </trkpt>
      <trkpt lat="51.117520965635777" lon="8.920223023742437">
        <ele>323.13999999999999</ele>
        <time>2017-10-29T17:05:45Z</time>
      </trkpt>
      <trkpt lat="51.11756999976933" lon="8.920070976018906">
        <ele>322.66000000000003</ele>
        <time>2017-10-29T17:05:46Z</time>
      </trkpt>
      <trkpt lat="51.117643006145954" lon="8.919989001005888">
        <ele>322.18000000000001</ele>
        <time>2017-10-29T17:05:47Z</time>
      </trkpt>
      <trkpt lat="51.117711989209056" lon="8.919910965487361">
        <ele>321.69999999999999</ele>
        <time>2017-10-29T17:05:48Z</time>
      </trkpt>
      <trkpt lat="51.117780972272158" lon="8.919932004064322">
        <ele>321.69999999999999</ele>
        <time>2017-10-29T17:05:49Z</time>
      </trkpt>
      <trkpt lat="51.117878034710884" lon="8.919961005449295">
        <ele>321.69999999999999</ele>
        <time>2017-10-29T17:05:50Z</time>
      </trkpt>
      <trkpt lat="51.117996973916888" lon="8.920018002390862">
        <ele>321.22000000000003</ele>
        <time>2017-10-29T17:05:51Z</time>
      </trkpt>
      <trkpt lat="51.118152961134911" lon="8.920111963525415">
        <ele>321.22000000000003</ele>
        <time>2017-10-29T17:05:52Z</time>
      </trkpt>
      <trkpt lat="51.11930999904871" lon="8.920805985108018">
        <ele>319.30000000000001</ele>
        <time>2017-10-29T17:05:57Z</time>
      </trkpt>
      <trkpt lat="51.121869999915361" lon="8.922379016876221">
        <ele>316.41000000000003</ele>
        <time>2017-10-29T17:06:06Z</time>
      </trkpt>
      <trkpt lat="51.123161986470222" lon="8.923173034563661">
        <ele>314.00999999999999</ele>
        <time>2017-10-29T17:06:12Z</time>
      </trkpt>
      <trkpt lat="51.123329037800431" lon="8.923136992380023">
        <ele>313.05000000000001</ele>
        <time>2017-10-29T17:06:13Z</time>
      </trkpt>
      <trkpt lat="51.123493993654847" lon="8.923102039843798">
        <ele>311.60000000000002</ele>
        <time>2017-10-29T17:06:15Z</time>
      </trkpt>
      <trkpt lat="51.124859992414713" lon="8.922804985195398">
        <ele>307.27999999999997</ele>
        <time>2017-10-29T17:06:23Z</time>
      </trkpt>
      <trkpt lat="51.125935977324843" lon="8.92250700853765">
        <ele>304.38999999999999</ele>
        <time>2017-10-29T17:06:31Z</time>
      </trkpt>
      <trkpt lat="51.126166982576251" lon="8.922426961362362">
        <ele>304.38999999999999</ele>
        <time>2017-10-29T17:06:33Z</time>
      </trkpt>
      <trkpt lat="51.126277036964893" lon="8.922348003834486">
        <ele>304.38999999999999</ele>
        <time>2017-10-29T17:06:34Z</time>
      </trkpt>
      <trkpt lat="51.126384995877743" lon="8.922266028821468">
        <ele>304.88</ele>
        <time>2017-10-29T17:06:35Z</time>
      </trkpt>
      <trkpt lat="51.126491026952863" lon="8.922138037160039">
        <ele>304.88</ele>
        <time>2017-10-29T17:06:36Z</time>
      </trkpt>
      <trkpt lat="51.126602003350854" lon="8.922003004699945">
        <ele>304.88</ele>
        <time>2017-10-29T17:06:37Z</time>
      </trkpt>
      <trkpt lat="51.127614034339786" lon="8.920235009863973">
        <ele>304.88</ele>
        <time>2017-10-29T17:06:48Z</time>
      </trkpt>
      <trkpt lat="51.128380978479981" lon="8.91889801248908">
        <ele>301.99000000000001</ele>
        <time>2017-10-29T17:06:59Z</time>
      </trkpt>
      <trkpt lat="51.129350010305643" lon="8.917205035686493">
        <ele>301.50999999999999</ele>
        <time>2017-10-29T17:07:12Z</time>
      </trkpt>
      <trkpt lat="51.129871029406786" lon="8.91629702411592">
        <ele>300.06999999999999</ele>
        <time>2017-10-29T17:07:19Z</time>
      </trkpt>
      <trkpt lat="51.130130030214787" lon="8.915862003341317">
        <ele>299.58999999999997</ele>
        <time>2017-10-29T17:07:25Z</time>
      </trkpt>
      <trkpt lat="51.130368998274207" lon="8.915462018921971">
        <ele>300.06999999999999</ele>
        <time>2017-10-29T17:07:29Z</time>
      </trkpt>
      <trkpt lat="51.130423983559012" lon="8.915368979796767">
        <ele>300.06999999999999</ele>
        <time>2017-10-29T17:07:30Z</time>
      </trkpt>
      <trkpt lat="51.131193023175001" lon="8.914203979074955">
        <ele>300.55000000000001</ele>
        <time>2017-10-29T17:07:40Z</time>
      </trkpt>
      <trkpt lat="51.132164988666773" lon="8.912764973938465">
        <ele>298.14999999999998</ele>
        <time>2017-10-29T17:07:51Z</time>
      </trkpt>
      <trkpt lat="51.133020026609302" lon="8.911309959366918">
        <ele>298.14999999999998</ele>
        <time>2017-10-29T17:07:59Z</time>
      </trkpt>
      <trkpt lat="51.134274965152144" lon="8.909173998981714">
        <ele>297.18000000000001</ele>
        <time>2017-10-29T17:08:09Z</time>
      </trkpt>
      <trkpt lat="51.134405974298716" lon="8.909050030633807">
        <ele>297.18000000000001</ele>
        <time>2017-10-29T17:08:10Z</time>
      </trkpt>
      <trkpt lat="51.134547963738441" lon="8.90894802287221">
        <ele>296.69999999999999</ele>
        <time>2017-10-29T17:08:11Z</time>
      </trkpt>
      <trkpt lat="51.135701984167099" lon="8.908331030979753">
        <ele>295.25999999999999</ele>
        <time>2017-10-29T17:08:17Z</time>
      </trkpt>
      <trkpt lat="51.13714300096035" lon="8.907803976908326">
        <ele>293.33999999999997</ele>
        <time>2017-10-29T17:08:24Z</time>
      </trkpt>
      <trkpt lat="51.138993976637721" lon="8.907357975840569">
        <ele>288.05000000000001</ele>
        <time>2017-10-29T17:08:32Z</time>
      </trkpt>
      <trkpt lat="51.14105399698019" lon="8.906568987295032">
        <ele>281.31999999999999</ele>
        <time>2017-10-29T17:08:42Z</time>
      </trkpt>
      <trkpt lat="51.143520958721638" lon="8.90555502846837">
        <ele>277.48000000000002</ele>
        <time>2017-10-29T17:08:52Z</time>
      </trkpt>
      <trkpt lat="51.145825982093811" lon="8.904606029391289">
        <ele>270.26999999999998</ele>
        <time>2017-10-29T17:09:03Z</time>
      </trkpt>
      <trkpt lat="51.146027985960245" lon="8.904566969722509">
        <ele>270.26999999999998</ele>
        <time>2017-10-29T17:09:04Z</time>
      </trkpt>
      <trkpt lat="51.146214986220002" lon="8.904538974165916">
        <ele>269.79000000000002</ele>
        <time>2017-10-29T17:09:05Z</time>
      </trkpt>
      <trkpt lat="51.146986037492752" lon="8.90465104021132">
        <ele>268.35000000000002</ele>
        <time>2017-10-29T17:09:09Z</time>
      </trkpt>
      <trkpt lat="51.148297972977161" lon="8.905620994046331">
        <ele>266.89999999999998</ele>
        <time>2017-10-29T17:09:16Z</time>
      </trkpt>
      <trkpt lat="51.148954024538398" lon="8.90602801926434">
        <ele>265.45999999999998</ele>
        <time>2017-10-29T17:09:21Z</time>
      </trkpt>
      <trkpt lat="51.149084027856588" lon="8.906000023707748">
        <ele>265.45999999999998</ele>
        <time>2017-10-29T17:09:22Z</time>
      </trkpt>
      <trkpt lat="51.149193998426199" lon="8.905976973474026">
        <ele>264.98000000000002</ele>
        <time>2017-10-29T17:09:23Z</time>
      </trkpt>
      <trkpt lat="51.149290977045894" lon="8.905931040644646">
        <ele>264.5</ele>
        <time>2017-10-29T17:09:25Z</time>
      </trkpt>
      <trkpt lat="51.149573028087616" lon="8.905614959076047">
        <ele>264.5</ele>
        <time>2017-10-29T17:09:27Z</time>
      </trkpt>
      <trkpt lat="51.149653997272253" lon="8.905476992949843">
        <ele>264.5</ele>
        <time>2017-10-29T17:09:28Z</time>
      </trkpt>
      <trkpt lat="51.149716023355722" lon="8.905309019610286">
        <ele>264.98000000000002</ele>
        <time>2017-10-29T17:09:29Z</time>
      </trkpt>
      <trkpt lat="51.149939987808466" lon="8.904702002182603">
        <ele>266.42000000000002</ele>
        <time>2017-10-29T17:09:33Z</time>
      </trkpt>
      <trkpt lat="51.150016011670232" lon="8.904580967500806">
        <ele>265.94</ele>
        <time>2017-10-29T17:09:34Z</time>
      </trkpt>
      <trkpt lat="51.150961993262172" lon="8.903523003682494">
        <ele>263.54000000000002</ele>
        <time>2017-10-29T17:09:43Z</time>
      </trkpt>
      <trkpt lat="51.152267977595329" lon="8.90211601741612">
        <ele>261.62</ele>
        <time>2017-10-29T17:09:55Z</time>
      </trkpt>
      <trkpt lat="51.153115974739194" lon="8.90162399969995">
        <ele>263.06</ele>
        <time>2017-10-29T17:10:02Z</time>
      </trkpt>
      <trkpt lat="51.154122976586223" lon="8.901255028322339">
        <ele>260.64999999999998</ele>
        <time>2017-10-29T17:10:11Z</time>
      </trkpt>
      <trkpt lat="51.154190031811595" lon="8.901229966431856">
        <ele>260.17000000000002</ele>
        <time>2017-10-29T17:10:12Z</time>
      </trkpt>
      <trkpt lat="51.154251974076033" lon="8.901208005845547">
        <ele>259.69</ele>
        <time>2017-10-29T17:10:13Z</time>
      </trkpt>
      <trkpt lat="51.154306037351489" lon="8.901187973096967">
        <ele>259.20999999999998</ele>
        <time>2017-10-29T17:10:14Z</time>
      </trkpt>
      <trkpt lat="51.15450301207602" lon="8.901348989456892">
        <ele>259.20999999999998</ele>
        <time>2017-10-29T17:10:16Z</time>
      </trkpt>
      <trkpt lat="51.154536036774516" lon="8.90147203579545">
        <ele>259.20999999999998</ele>
        <time>2017-10-29T17:10:17Z</time>
      </trkpt>
      <trkpt lat="51.154577024281025" lon="8.901628023013473">
        <ele>259.20999999999998</ele>
        <time>2017-10-29T17:10:18Z</time>
      </trkpt>
      <trkpt lat="51.154626980423927" lon="8.90181896276772">
        <ele>259.69</ele>
        <time>2017-10-29T17:10:19Z</time>
      </trkpt>
      <trkpt lat="51.15512503311038" lon="8.903656024485827">
        <ele>262.10000000000002</ele>
        <time>2017-10-29T17:10:26Z</time>
      </trkpt>
      <trkpt lat="51.155334999784827" lon="8.904236974194646">
        <ele>263.06</ele>
        <time>2017-10-29T17:10:28Z</time>
      </trkpt>
      <trkpt lat="51.156427999958396" lon="8.905977979302406">
        <ele>265.45999999999998</ele>
        <time>2017-10-29T17:10:34Z</time>
      </trkpt>
      <trkpt lat="51.156819015741348" lon="8.906334964558482">
        <ele>265.45999999999998</ele>
        <time>2017-10-29T17:10:37Z</time>
      </trkpt>
      <trkpt lat="51.15721195936203" lon="8.90669303946197">
        <ele>265.94</ele>
        <time>2017-10-29T17:10:39Z</time>
      </trkpt>
      <trkpt lat="51.158876018598676" lon="8.907515974715352">
        <ele>266.89999999999998</ele>
        <time>2017-10-29T17:10:46Z</time>
      </trkpt>
      <trkpt lat="51.160987000912428" lon="8.907570960000157">
        <ele>265.45999999999998</ele>
        <time>2017-10-29T17:10:53Z</time>
      </trkpt>
      <trkpt lat="51.162389041855931" lon="8.906971989199519">
        <ele>265.45999999999998</ele>
        <time>2017-10-29T17:11:00Z</time>
      </trkpt>
      <trkpt lat="51.163037968799472" lon="8.90654400922358">
        <ele>264.98000000000002</ele>
        <time>2017-10-29T17:11:03Z</time>
      </trkpt>
      <trkpt lat="51.163251036778092" lon="8.906380981206894">
        <ele>264.98000000000002</ele>
        <time>2017-10-29T17:11:04Z</time>
      </trkpt>
      <trkpt lat="51.164415031671524" lon="8.904751958325505">
        <ele>264.01999999999998</ele>
        <time>2017-10-29T17:11:11Z</time>
      </trkpt>
      <trkpt lat="51.165400994941592" lon="8.902757987380028">
        <ele>263.54000000000002</ele>
        <time>2017-10-29T17:11:19Z</time>
      </trkpt>
      <trkpt lat="51.166409002617002" lon="8.901223009452224">
        <ele>263.06</ele>
        <time>2017-10-29T17:11:25Z</time>
      </trkpt>
      <trkpt lat="51.16722397506237" lon="8.899622987955809">
        <ele>262.57999999999998</ele>
        <time>2017-10-29T17:11:31Z</time>
      </trkpt>
      <trkpt lat="51.167818000540137" lon="8.897973010316491">
        <ele>261.62</ele>
        <time>2017-10-29T17:11:36Z</time>
      </trkpt>
      <trkpt lat="51.168402973562479" lon="8.896261006593704">
        <ele>260.17000000000002</ele>
        <time>2017-10-29T17:11:46Z</time>
      </trkpt>
      <trkpt lat="51.169115016236901" lon="8.894827030599117">
        <ele>257.29000000000002</ele>
        <time>2017-10-29T17:11:54Z</time>
      </trkpt>
      <trkpt lat="51.170069966465235" lon="8.893878031522036">
        <ele>256.81</ele>
        <time>2017-10-29T17:12:01Z</time>
      </trkpt>
      <trkpt lat="51.171372011303902" lon="8.893371010199189">
        <ele>256.32999999999998</ele>
        <time>2017-10-29T17:12:09Z</time>
      </trkpt>
      <trkpt lat="51.172544974833727" lon="8.893221979960799">
        <ele>254.88999999999999</ele>
        <time>2017-10-29T17:12:15Z</time>
      </trkpt>
      <trkpt lat="51.174057992175221" lon="8.892691992223263">
        <ele>253.44</ele>
        <time>2017-10-29T17:12:23Z</time>
      </trkpt>
      <trkpt lat="51.175545025616884" lon="8.891391037032008">
        <ele>253.44</ele>
        <time>2017-10-29T17:12:32Z</time>
      </trkpt>
      <trkpt lat="51.176724024116993" lon="8.889579037204385">
        <ele>253.44</ele>
        <time>2017-10-29T17:12:41Z</time>
      </trkpt>
      <trkpt lat="51.177622983232141" lon="8.888133997097611">
        <ele>252</ele>
        <time>2017-10-29T17:12:48Z</time>
      </trkpt>
      <trkpt lat="51.177796991541982" lon="8.887922018766403">
        <ele>252</ele>
        <time>2017-10-29T17:12:50Z</time>
      </trkpt>
      <trkpt lat="51.17901898920536" lon="8.886961033567786">
        <ele>252</ele>
        <time>2017-10-29T17:12:56Z</time>
      </trkpt>
      <trkpt lat="51.179847037419677" lon="8.886963967233896">
        <ele>252</ele>
        <time>2017-10-29T17:13:02Z</time>
      </trkpt>
      <trkpt lat="51.181563986465335" lon="8.887769971042872">
        <ele>251.52000000000001</ele>
        <time>2017-10-29T17:13:12Z</time>
      </trkpt>
      <trkpt lat="51.183112040162086" lon="8.889106968417764">
        <ele>251.03999999999999</ele>
        <time>2017-10-29T17:13:21Z</time>
      </trkpt>
      <trkpt lat="51.183603974059224" lon="8.890169961377978">
        <ele>249.59999999999999</ele>
        <time>2017-10-29T17:13:26Z</time>
      </trkpt>
      <trkpt lat="51.183755015954375" lon="8.890610011294484">
        <ele>249.12</ele>
        <time>2017-10-29T17:13:29Z</time>
      </trkpt>
      <trkpt lat="51.184206968173385" lon="8.892441960051656">
        <ele>246.22999999999999</ele>
        <time>2017-10-29T17:13:38Z</time>
      </trkpt>
      <trkpt lat="51.184296989813447" lon="8.89268402941525">
        <ele>246.22999999999999</ele>
        <time>2017-10-29T17:13:39Z</time>
      </trkpt>
      <trkpt lat="51.184337977319956" lon="8.892777990549803">
        <ele>246.22999999999999</ele>
        <time>2017-10-29T17:13:40Z</time>
      </trkpt>
      <trkpt lat="51.184380976483226" lon="8.892874969169498">
        <ele>245.75</ele>
        <time>2017-10-29T17:13:41Z</time>
      </trkpt>
      <trkpt lat="51.184380976483226" lon="8.892874969169498">
        <ele>245.75</ele>
        <time>2017-10-29T17:13:42Z</time>
      </trkpt>
      <trkpt lat="51.184294978156686" lon="8.893240001052618">
        <ele>246.22999999999999</ele>
        <time>2017-10-29T17:13:43Z</time>
      </trkpt>
      <trkpt lat="51.184260025620461" lon="8.893307978287339">
        <ele>246.22999999999999</ele>
        <time>2017-10-29T17:13:44Z</time>
      </trkpt>
      <trkpt lat="51.184190036728978" lon="8.893448961898685">
        <ele>246.22999999999999</ele>
        <time>2017-10-29T17:13:45Z</time>
      </trkpt>
      <trkpt lat="51.183779994025826" lon="8.894377006217837">
        <ele>246.72</ele>
        <time>2017-10-29T17:13:51Z</time>
      </trkpt>
      <trkpt lat="51.183731965720654" lon="8.894538022577763">
        <ele>246.72</ele>
        <time>2017-10-29T17:13:52Z</time>
      </trkpt>
      <trkpt lat="51.183316977694631" lon="8.896392015740275">
        <ele>247.68000000000001</ele>
        <time>2017-10-29T17:14:02Z</time>
      </trkpt>
      <trkpt lat="51.183155961334705" lon="8.897514017298818">
        <ele>246.72</ele>
        <time>2017-10-29T17:14:08Z</time>
      </trkpt>
      <trkpt lat="51.183132994920015" lon="8.897678973153234">
        <ele>246.22999999999999</ele>
        <time>2017-10-29T17:14:09Z</time>
      </trkpt>
      <trkpt lat="51.183110028505325" lon="8.897844012826681">
        <ele>246.22999999999999</ele>
        <time>2017-10-29T17:14:10Z</time>
      </trkpt>
      <trkpt lat="51.183095024898648" lon="8.89799396507442">
        <ele>245.75</ele>
        <time>2017-10-29T17:14:11Z</time>
      </trkpt>
      <trkpt lat="51.183102987706661" lon="8.898140983656049">
        <ele>245.27000000000001</ele>
        <time>2017-10-29T17:14:12Z</time>
      </trkpt>
      <trkpt lat="51.183141963556409" lon="8.898405013605952">
        <ele>245.27000000000001</ele>
        <time>2017-10-29T17:14:14Z</time>
      </trkpt>
      <trkpt lat="51.183209018781781" lon="8.898495035246015">
        <ele>245.27000000000001</ele>
        <time>2017-10-29T17:14:15Z</time>
      </trkpt>
      <trkpt lat="51.183353019878268" lon="8.898688992485404">
        <ele>245.27000000000001</ele>
        <time>2017-10-29T17:14:17Z</time>
      </trkpt>
      <trkpt lat="51.183428037911654" lon="8.898791000247002">
        <ele>245.75</ele>
        <time>2017-10-29T17:14:18Z</time>
      </trkpt>
      <trkpt lat="51.183997001498938" lon="8.900037975981832">
        <ele>251.03999999999999</ele>
        <time>2017-10-29T17:14:26Z</time>
      </trkpt>
      <trkpt lat="51.18441098369658" lon="8.900941964238882">
        <ele>254.41</ele>
        <time>2017-10-29T17:14:30Z</time>
      </trkpt>
      <trkpt lat="51.184533024206758" lon="8.901105998083949">
        <ele>255.84999999999999</ele>
        <time>2017-10-29T17:14:31Z</time>
      </trkpt>
      <trkpt lat="51.185672041028738" lon="8.902303017675877">
        <ele>264.5</ele>
        <time>2017-10-29T17:14:37Z</time>
      </trkpt>
      <trkpt lat="51.188008999451995" lon="8.90463100746274">
        <ele>279.88</ele>
        <time>2017-10-29T17:14:49Z</time>
      </trkpt>
      <trkpt lat="51.188543010503054" lon="8.905149009078741">
        <ele>284.69</ele>
        <time>2017-10-29T17:14:53Z</time>
      </trkpt>
      <trkpt lat="51.188663961365819" lon="8.905188990756869">
        <ele>285.64999999999998</ele>
        <time>2017-10-29T17:14:54Z</time>
      </trkpt>
      <trkpt lat="51.18879396468401" lon="8.905206006020308">
        <ele>286.61000000000001</ele>
        <time>2017-10-29T17:14:55Z</time>
      </trkpt>
      <trkpt lat="51.188931008800864" lon="8.905187984928489">
        <ele>287.56999999999999</ele>
        <time>2017-10-29T17:14:56Z</time>
      </trkpt>
      <trkpt lat="51.189074004068971" lon="8.905169041827321">
        <ele>289.49000000000001</ele>
        <time>2017-10-29T17:14:58Z</time>
      </trkpt>
      <trkpt lat="51.189383966848254" lon="8.90516703017056">
        <ele>289.97000000000003</ele>
        <time>2017-10-29T17:14:59Z</time>
      </trkpt>
      <trkpt lat="51.189767019823194" lon="8.90521296299994">
        <ele>291.42000000000002</ele>
        <time>2017-10-29T17:15:02Z</time>
      </trkpt>
      <trkpt lat="51.189885037019849" lon="8.905141968280077">
        <ele>291.89999999999998</ele>
        <time>2017-10-29T17:15:03Z</time>
      </trkpt>
      <trkpt lat="51.189981009811163" lon="8.90508396551013">
        <ele>292.38</ele>
        <time>2017-10-29T17:15:04Z</time>
      </trkpt>
      <trkpt lat="51.190058039501309" lon="8.904940970242024">
        <ele>292.38</ele>
        <time>2017-10-29T17:15:05Z</time>
      </trkpt>
      <trkpt lat="51.190130962058902" lon="8.904805015772581">
        <ele>292.38</ele>
        <time>2017-10-29T17:15:06Z</time>
      </trkpt>
      <trkpt lat="51.190179996192455" lon="8.904602006077766">
        <ele>292.38</ele>
        <time>2017-10-29T17:15:07Z</time>
      </trkpt>
      <trkpt lat="51.190231963992119" lon="8.904386004433036">
        <ele>292.86000000000001</ele>
        <time>2017-10-29T17:15:08Z</time>
      </trkpt>
      <trkpt lat="51.190280998125672" lon="8.904182994738221">
        <ele>293.33999999999997</ele>
        <time>2017-10-29T17:15:09Z</time>
      </trkpt>
      <trkpt lat="51.190364984795451" lon="8.903834978118539">
        <ele>294.77999999999997</ele>
        <time>2017-10-29T17:15:11Z</time>
      </trkpt>
      <trkpt lat="51.190401026979089" lon="8.903686031699181">
        <ele>296.22000000000003</ele>
        <time>2017-10-29T17:15:13Z</time>
      </trkpt>
      <trkpt lat="51.190544022247195" lon="8.903480004519224">
        <ele>296.69999999999999</ele>
        <time>2017-10-29T17:15:14Z</time>
      </trkpt>
      <trkpt lat="51.190619040280581" lon="8.903431976214051">
        <ele>297.67000000000002</ele>
        <time>2017-10-29T17:15:15Z</time>
      </trkpt>
      <trkpt lat="51.190700009465218" lon="8.903431976214051">
        <ele>298.14999999999998</ele>
        <time>2017-10-29T17:15:16Z</time>
      </trkpt>
      <trkpt lat="51.190773015841842" lon="8.903500959277153">
        <ele>298.63</ele>
        <time>2017-10-29T17:15:17Z</time>
      </trkpt>
      <trkpt lat="51.190846022218466" lon="8.903582012280822">
        <ele>299.58999999999997</ele>
        <time>2017-10-29T17:15:18Z</time>
      </trkpt>
      <trkpt lat="51.190917016938329" lon="8.903690977022052">
        <ele>300.55000000000001</ele>
        <time>2017-10-29T17:15:19Z</time>
      </trkpt>
      <trkpt lat="51.190961021929979" lon="8.903840007260442">
        <ele>301.02999999999997</ele>
        <time>2017-10-29T17:15:20Z</time>
      </trkpt>
      <trkpt lat="51.191394031047821" lon="8.905091006308794">
        <ele>305.36000000000001</ele>
        <time>2017-10-29T17:15:26Z</time>
      </trkpt>
      <trkpt lat="51.191718997433782" lon="8.905767006799579">
        <ele>310.16000000000003</ele>
        <time>2017-10-29T17:15:30Z</time>
      </trkpt>
      <trkpt lat="51.192239010706544" lon="8.906520958989859">
        <ele>314.00999999999999</ele>
        <time>2017-10-29T17:15:33Z</time>
      </trkpt>
      <trkpt lat="51.192378988489509" lon="8.90665297396481">
        <ele>314.97000000000003</ele>
        <time>2017-10-29T17:15:34Z</time>
      </trkpt>
      <trkpt lat="51.192529024556279" lon="8.906785994768143">
        <ele>316.41000000000003</ele>
        <time>2017-10-29T17:15:35Z</time>
      </trkpt>
      <trkpt lat="51.192694986239076" lon="8.906851960346103">
        <ele>317.37</ele>
        <time>2017-10-29T17:15:36Z</time>
      </trkpt>
      <trkpt lat="51.19285399094224" lon="8.906915998086333">
        <ele>318.32999999999998</ele>
        <time>2017-10-29T17:15:37Z</time>
      </trkpt>
      <trkpt lat="51.193006038665771" lon="8.906977018341422">
        <ele>319.77999999999997</ele>
        <time>2017-10-29T17:15:38Z</time>
      </trkpt>
      <trkpt lat="51.193172000348568" lon="8.906980035826564">
        <ele>320.74000000000001</ele>
        <time>2017-10-29T17:15:39Z</time>
      </trkpt>
      <trkpt lat="51.193335028365254" lon="8.906961008906364">
        <ele>322.18000000000001</ele>
        <time>2017-10-29T17:15:40Z</time>
      </trkpt>
      <trkpt lat="51.194176990538836" lon="8.90680099837482">
        <ele>329.38999999999999</ele>
        <time>2017-10-29T17:15:46Z</time>
      </trkpt>
      <trkpt lat="51.194647969678044" lon="8.90680099837482">
        <ele>334.19999999999999</ele>
        <time>2017-10-29T17:15:50Z</time>
      </trkpt>
      <trkpt lat="51.194813009351492" lon="8.90669597312808">
        <ele>334.68000000000001</ele>
        <time>2017-10-29T17:15:51Z</time>
      </trkpt>
      <trkpt lat="51.194865982979536" lon="8.906578039750457">
        <ele>335.63999999999999</ele>
        <time>2017-10-29T17:15:52Z</time>
      </trkpt>
      <trkpt lat="51.194898001849651" lon="8.906421968713403">
        <ele>336.60000000000002</ele>
        <time>2017-10-29T17:15:53Z</time>
      </trkpt>
      <trkpt lat="51.194932032376528" lon="8.906251983717084">
        <ele>337.07999999999998</ele>
        <time>2017-10-29T17:15:54Z</time>
      </trkpt>
      <trkpt lat="51.194965979084373" lon="8.906080992892385">
        <ele>338.04000000000002</ele>
        <time>2017-10-29T17:15:55Z</time>
      </trkpt>
      <trkpt lat="51.195034040138125" lon="8.905915031209588">
        <ele>339</ele>
        <time>2017-10-29T17:15:56Z</time>
      </trkpt>
      <trkpt lat="51.195112997666001" lon="8.905781004577875">
        <ele>339.95999999999998</ele>
        <time>2017-10-29T17:15:57Z</time>
      </trkpt>
      <trkpt lat="51.195224979892373" lon="8.905702969059348">
        <ele>341.88999999999999</ele>
        <time>2017-10-29T17:15:59Z</time>
      </trkpt>
      <trkpt lat="51.195606021210551" lon="8.905514040961862">
        <ele>343.32999999999998</ele>
        <time>2017-10-29T17:16:01Z</time>
      </trkpt>
      <trkpt lat="51.195735018700361" lon="8.905540024861693">
        <ele>343.81</ele>
        <time>2017-10-29T17:16:02Z</time>
      </trkpt>
      <trkpt lat="51.19586200453341" lon="8.905581012368202">
        <ele>344.29000000000002</ele>
        <time>2017-10-29T17:16:03Z</time>
      </trkpt>
      <trkpt lat="51.196127962321043" lon="8.905730964615941">
        <ele>346.20999999999998</ele>
        <time>2017-10-29T17:16:06Z</time>
      </trkpt>
      <trkpt lat="51.196716036647558" lon="8.905729036778212">
        <ele>349.57999999999998</ele>
        <time>2017-10-29T17:16:10Z</time>
      </trkpt>
      <trkpt lat="51.196963973343372" lon="8.905873959884048">
        <ele>350.54000000000002</ele>
        <time>2017-10-29T17:16:11Z</time>
      </trkpt>
      <trkpt lat="51.197073021903634" lon="8.905944032594562">
        <ele>351.01999999999998</ele>
        <time>2017-10-29T17:16:12Z</time>
      </trkpt>
      <trkpt lat="51.19717201218009" lon="8.906013015657663">
        <ele>351.98000000000002</ele>
        <time>2017-10-29T17:16:13Z</time>
      </trkpt>
      <trkpt lat="51.197220040485263" lon="8.906143018975854">
        <ele>353.42000000000002</ele>
        <time>2017-10-29T17:16:15Z</time>
      </trkpt>
      <trkpt lat="51.197296986356378" lon="8.90639497898519">
        <ele>354.38</ele>
        <time>2017-10-29T17:16:16Z</time>
      </trkpt>
      <trkpt lat="51.197292963042855" lon="8.90654400922358">
        <ele>354.86000000000001</ele>
        <time>2017-10-29T17:16:17Z</time>
      </trkpt>
      <trkpt lat="51.197283994406462" lon="8.906857995316386">
        <ele>356.79000000000002</ele>
        <time>2017-10-29T17:16:19Z</time>
      </trkpt>
      <trkpt lat="51.197279971092939" lon="8.90699403360486">
        <ele>357.26999999999998</ele>
        <time>2017-10-29T17:16:20Z</time>
      </trkpt>
      <trkpt lat="51.197286006063223" lon="8.907120013609529">
        <ele>357.75</ele>
        <time>2017-10-29T17:16:21Z</time>
      </trkpt>
      <trkpt lat="51.197336968034506" lon="8.907223027199507">
        <ele>358.70999999999998</ele>
        <time>2017-10-29T17:16:23Z</time>
      </trkpt>
      <trkpt lat="51.197628993541002" lon="8.907463001087308">
        <ele>359.67000000000002</ele>
        <time>2017-10-29T17:16:25Z</time>
      </trkpt>
      <trkpt lat="51.19775203987956" lon="8.907503988593817">
        <ele>359.67000000000002</ele>
        <time>2017-10-29T17:16:27Z</time>
      </trkpt>
      <trkpt lat="51.19796996936202" lon="8.907450009137392">
        <ele>360.14999999999998</ele>
        <time>2017-10-29T17:16:28Z</time>
      </trkpt>
      <trkpt lat="51.198054039850831" lon="8.907387983053923">
        <ele>359.67000000000002</ele>
        <time>2017-10-29T17:16:30Z</time>
      </trkpt>
      <trkpt lat="51.19814096018672" lon="8.907067961990833">
        <ele>359.67000000000002</ele>
        <time>2017-10-29T17:16:32Z</time>
      </trkpt>
      <trkpt lat="51.198229975998402" lon="8.906532023102045">
        <ele>359.67000000000002</ele>
        <time>2017-10-29T17:16:34Z</time>
      </trkpt>
      <trkpt lat="51.19827096350491" lon="8.906381987035275">
        <ele>360.14999999999998</ele>
        <time>2017-10-29T17:16:35Z</time>
      </trkpt>
      <trkpt lat="51.198323015123606" lon="8.906248966231942">
        <ele>360.63</ele>
        <time>2017-10-29T17:16:37Z</time>
      </trkpt>
      <trkpt lat="51.198447989299893" lon="8.906052997335792">
        <ele>361.11000000000001</ele>
        <time>2017-10-29T17:16:38Z</time>
      </trkpt>
      <trkpt lat="51.198500040918589" lon="8.90598502010107">
        <ele>361.11000000000001</ele>
        <time>2017-10-29T17:16:39Z</time>
      </trkpt>
      <trkpt lat="51.198581010103226" lon="8.90596498735249">
        <ele>361.11000000000001</ele>
        <time>2017-10-29T17:16:40Z</time>
      </trkpt>
      <trkpt lat="51.198671031743288" lon="8.905943026766181">
        <ele>361.11000000000001</ele>
        <time>2017-10-29T17:16:41Z</time>
      </trkpt>
      <trkpt lat="51.198735991492867" lon="8.90598502010107">
        <ele>361.11000000000001</ele>
        <time>2017-10-29T17:16:42Z</time>
      </trkpt>
      <trkpt lat="51.198787037283182" lon="8.906054003164172">
        <ele>361.58999999999997</ele>
        <time>2017-10-29T17:16:43Z</time>
      </trkpt>
      <trkpt lat="51.198856020346284" lon="8.906146036460996">
        <ele>362.06999999999999</ele>
        <time>2017-10-29T17:16:44Z</time>
      </trkpt>
      <trkpt lat="51.198931038379669" lon="8.906245026737452">
        <ele>364</ele>
        <time>2017-10-29T17:16:46Z</time>
      </trkpt>
      <trkpt lat="51.19921401143074" lon="8.906521964818239">
        <ele>365.92000000000002</ele>
        <time>2017-10-29T17:16:50Z</time>
      </trkpt>
      <trkpt lat="51.199338985607028" lon="8.906648028641939">
        <ele>366.39999999999998</ele>
        <time>2017-10-29T17:16:51Z</time>
      </trkpt>
      <trkpt lat="51.199352983385324" lon="8.90675900503993">
        <ele>366.88</ele>
        <time>2017-10-29T17:16:52Z</time>
      </trkpt>
      <trkpt lat="51.199369998648763" lon="8.906889008358121">
        <ele>368.80000000000001</ele>
        <time>2017-10-29T17:16:54Z</time>
      </trkpt>
      <trkpt lat="51.199390031397343" lon="8.907043989747763">
        <ele>369.27999999999997</ele>
        <time>2017-10-29T17:16:55Z</time>
      </trkpt>
      <trkpt lat="51.199411991983652" lon="8.907216992229223">
        <ele>370.24000000000001</ele>
        <time>2017-10-29T17:16:56Z</time>
      </trkpt>
      <trkpt lat="51.199480975046754" lon="8.90750901773572">
        <ele>370.73000000000002</ele>
        <time>2017-10-29T17:16:57Z</time>
      </trkpt>
      <trkpt lat="51.199569990858436" lon="8.907613959163427">
        <ele>371.20999999999998</ele>
        <time>2017-10-29T17:16:58Z</time>
      </trkpt>
      <trkpt lat="51.199662024155259" lon="8.907722001895309">
        <ele>371.69</ele>
        <time>2017-10-29T17:16:59Z</time>
      </trkpt>
      <trkpt lat="51.199755985289812" lon="8.907831972464919">
        <ele>373.13</ele>
        <time>2017-10-29T17:17:01Z</time>
      </trkpt>
      <trkpt lat="51.199841983616352" lon="8.907932974398136">
        <ele>373.61000000000001</ele>
        <time>2017-10-29T17:17:02Z</time>
      </trkpt>
      <trkpt lat="51.199972992762923" lon="8.908104971051216">
        <ele>374.56999999999999</ele>
        <time>2017-10-29T17:17:04Z</time>
      </trkpt>
      <trkpt lat="51.200071983039379" lon="8.908347962424159">
        <ele>374.56999999999999</ele>
        <time>2017-10-29T17:17:06Z</time>
      </trkpt>
      <trkpt lat="51.200109031051397" lon="8.908649040386081">
        <ele>374.56999999999999</ele>
        <time>2017-10-29T17:17:07Z</time>
      </trkpt>
      <trkpt lat="51.200064020231366" lon="8.908834028989077">
        <ele>374.56999999999999</ele>
        <time>2017-10-29T17:17:09Z</time>
      </trkpt>
      <trkpt lat="51.200004005804658" lon="8.908985992893577">
        <ele>375.05000000000001</ele>
        <time>2017-10-29T17:17:10Z</time>
      </trkpt>
      <trkpt lat="51.199853969737887" lon="8.909261003136635">
        <ele>375.05000000000001</ele>
        <time>2017-10-29T17:17:11Z</time>
      </trkpt>
      <trkpt lat="51.199482986703515" lon="8.909776993095875">
        <ele>375.05000000000001</ele>
        <time>2017-10-29T17:17:16Z</time>
      </trkpt>
      <trkpt lat="51.199397994205356" lon="8.909899033606052">
        <ele>375.52999999999997</ele>
        <time>2017-10-29T17:17:17Z</time>
      </trkpt>
      <trkpt lat="51.199330016970634" lon="8.910060971975327">
        <ele>375.52999999999997</ele>
        <time>2017-10-29T17:17:18Z</time>
      </trkpt>
      <trkpt lat="51.199186015874147" lon="8.910405971109867">
        <ele>376.49000000000001</ele>
        <time>2017-10-29T17:17:20Z</time>
      </trkpt>
      <trkpt lat="51.199177969247103" lon="8.910602023825049">
        <ele>376.97000000000003</ele>
        <time>2017-10-29T17:17:21Z</time>
      </trkpt>
      <trkpt lat="51.199174029752612" lon="8.911021035164595">
        <ele>377.44999999999999</ele>
        <time>2017-10-29T17:17:22Z</time>
      </trkpt>
      <trkpt lat="51.199403023347259" lon="8.912895983085036">
        <ele>383.22000000000003</ele>
        <time>2017-10-29T17:17:30Z</time>
      </trkpt>
      <trkpt lat="51.19962296448648" lon="8.914508996531367">
        <ele>383.69999999999999</ele>
        <time>2017-10-29T17:17:36Z</time>
      </trkpt>
      <trkpt lat="51.199668981134892" lon="8.914757017046213">
        <ele>383.69999999999999</ele>
        <time>2017-10-29T17:17:37Z</time>
      </trkpt>
      <trkpt lat="51.199736036360264" lon="8.915004031732678">
        <ele>383.22000000000003</ele>
        <time>2017-10-29T17:17:38Z</time>
      </trkpt>
      <trkpt lat="51.19983796030283" lon="8.915213998407126">
        <ele>383.22000000000003</ele>
        <time>2017-10-29T17:17:39Z</time>
      </trkpt>
      <trkpt lat="51.199938962236047" lon="8.915422959253192">
        <ele>383.22000000000003</ele>
        <time>2017-10-29T17:17:40Z</time>
      </trkpt>
      <trkpt lat="51.200043987482786" lon="8.915638960897923">
        <ele>382.74000000000001</ele>
        <time>2017-10-29T17:17:41Z</time>
      </trkpt>
      <trkpt lat="51.200283039361238" lon="8.91599896363914">
        <ele>382.74000000000001</ele>
        <time>2017-10-29T17:17:42Z</time>
      </trkpt>
      <trkpt lat="51.2004179880023" lon="8.916126033291221">
        <ele>382.25999999999999</ele>
        <time>2017-10-29T17:17:44Z</time>
      </trkpt>
      <trkpt lat="51.200550002977252" lon="8.916238015517592">
        <ele>381.77999999999997</ele>
        <time>2017-10-29T17:17:45Z</time>
      </trkpt>
      <trkpt lat="51.201217034831643" lon="8.916514031589031">
        <ele>379.86000000000001</ele>
        <time>2017-10-29T17:17:49Z</time>
      </trkpt>
      <trkpt lat="51.201353995129466" lon="8.916493998840451">
        <ele>378.89999999999998</ele>
        <time>2017-10-29T17:17:51Z</time>
      </trkpt>
      <trkpt lat="51.20196201838553" lon="8.916334994137287">
        <ele>375.52999999999997</ele>
        <time>2017-10-29T17:17:56Z</time>
      </trkpt>
      <trkpt lat="51.202069977298379" lon="8.916310016065836">
        <ele>375.05000000000001</ele>
        <time>2017-10-29T17:17:57Z</time>
      </trkpt>
      <trkpt lat="51.202171985059977" lon="8.916346980258822">
        <ele>374.08999999999997</ele>
        <time>2017-10-29T17:17:58Z</time>
      </trkpt>
      <trkpt lat="51.202266030013561" lon="8.916388973593712">
        <ele>373.61000000000001</ele>
        <time>2017-10-29T17:17:59Z</time>
      </trkpt>
      <trkpt lat="51.202337024733424" lon="8.916458040475845">
        <ele>372.64999999999998</ele>
        <time>2017-10-29T17:18:00Z</time>
      </trkpt>
      <trkpt lat="51.202383963391185" lon="8.916575973853469">
        <ele>371.69</ele>
        <time>2017-10-29T17:18:01Z</time>
      </trkpt>
      <trkpt lat="51.202435009181499" lon="8.916703965514898">
        <ele>371.20999999999998</ele>
        <time>2017-10-29T17:18:02Z</time>
      </trkpt>
      <trkpt lat="51.202448001131415" lon="8.917061034590006">
        <ele>369.27999999999997</ele>
        <time>2017-10-29T17:18:04Z</time>
      </trkpt>
      <trkpt lat="51.202394021674991" lon="8.917747009545565">
        <ele>366.88</ele>
        <time>2017-10-29T17:18:07Z</time>
      </trkpt>
      <trkpt lat="51.202370971441269" lon="8.917974997311831">
        <ele>365.92000000000002</ele>
        <time>2017-10-29T17:18:08Z</time>
      </trkpt>
      <trkpt lat="51.202368959784508" lon="8.918220000341535">
        <ele>364.95999999999998</ele>
        <time>2017-10-29T17:18:09Z</time>
      </trkpt>
      <trkpt lat="51.202381029725075" lon="8.918468020856381">
        <ele>364.48000000000002</ele>
        <time>2017-10-29T17:18:10Z</time>
      </trkpt>
      <trkpt lat="51.202425034716725" lon="8.918732972815633">
        <ele>364</ele>
        <time>2017-10-29T17:18:11Z</time>
      </trkpt>
      <trkpt lat="51.202921997755766" lon="8.921360028907657">
        <ele>356.79000000000002</ele>
        <time>2017-10-29T17:18:19Z</time>
      </trkpt>
      <trkpt lat="51.203733030706644" lon="8.925693975761533">
        <ele>344.76999999999998</ele>
        <time>2017-10-29T17:18:31Z</time>
      </trkpt>
      <trkpt lat="51.204017009586096" lon="8.927278993651271">
        <ele>339.95999999999998</ele>
        <time>2017-10-29T17:18:36Z</time>
      </trkpt>
      <trkpt lat="51.204065959900618" lon="8.927554003894329">
        <ele>339.48000000000002</ele>
        <time>2017-10-29T17:18:37Z</time>
      </trkpt>
      <trkpt lat="51.204099990427494" lon="8.927819961681962">
        <ele>338.51999999999998</ele>
        <time>2017-10-29T17:18:38Z</time>
      </trkpt>
      <trkpt lat="51.204099990427494" lon="8.928063958883286">
        <ele>338.04000000000002</ele>
        <time>2017-10-29T17:18:39Z</time>
      </trkpt>
      <trkpt lat="51.204099990427494" lon="8.928322959691286">
        <ele>337.56</ele>
        <time>2017-10-29T17:18:40Z</time>
      </trkpt>
      <trkpt lat="51.204051040112972" lon="8.928520018234849">
        <ele>336.60000000000002</ele>
        <time>2017-10-29T17:18:41Z</time>
      </trkpt>
      <trkpt lat="51.203893963247538" lon="8.92888898961246">
        <ele>336.12</ele>
        <time>2017-10-29T17:18:42Z</time>
      </trkpt>
      <trkpt lat="51.203803019598126" lon="8.929026033729315">
        <ele>334.19999999999999</ele>
        <time>2017-10-29T17:18:44Z</time>
      </trkpt>
      <trkpt lat="51.203536977991462" lon="8.92938100732863">
        <ele>331.79000000000002</ele>
        <time>2017-10-29T17:18:47Z</time>
      </trkpt>
      <trkpt lat="51.203447040170431" lon="8.929501036182046">
        <ele>330.35000000000002</ele>
        <time>2017-10-29T17:18:48Z</time>
      </trkpt>
      <trkpt lat="51.203375961631536" lon="8.929646965116262">
        <ele>329.38999999999999</ele>
        <time>2017-10-29T17:18:49Z</time>
      </trkpt>
      <trkpt lat="51.203317036852241" lon="8.929808987304568">
        <ele>327.94999999999999</ele>
        <time>2017-10-29T17:18:50Z</time>
      </trkpt>
      <trkpt lat="51.203260961920023" lon="8.929991964250803">
        <ele>326.99000000000001</ele>
        <time>2017-10-29T17:18:51Z</time>
      </trkpt>
      <trkpt lat="51.203246964141726" lon="8.930190028622747">
        <ele>326.01999999999998</ele>
        <time>2017-10-29T17:18:52Z</time>
      </trkpt>
      <trkpt lat="51.203250987455249" lon="8.930412987247109">
        <ele>324.57999999999998</ele>
        <time>2017-10-29T17:18:53Z</time>
      </trkpt>
      <trkpt lat="51.203304966911674" lon="8.931409008800983">
        <ele>321.22000000000003</ele>
        <time>2017-10-29T17:18:57Z</time>
      </trkpt>
      <trkpt lat="51.203280994668603" lon="8.931657029315829">
        <ele>320.25999999999999</ele>
        <time>2017-10-29T17:18:58Z</time>
      </trkpt>
      <trkpt lat="51.203259034082294" lon="8.931900020688772">
        <ele>319.77999999999997</ele>
        <time>2017-10-29T17:18:59Z</time>
      </trkpt>
      <trkpt lat="51.203121989965439" lon="8.93234602175653">
        <ele>318.32999999999998</ele>
        <time>2017-10-29T17:19:01Z</time>
      </trkpt>
      <trkpt lat="51.202950999140739" lon="8.932728990912437">
        <ele>316.88999999999999</ele>
        <time>2017-10-29T17:19:03Z</time>
      </trkpt>
      <trkpt lat="51.202868018299341" lon="8.932913979515433">
        <ele>316.41000000000003</ele>
        <time>2017-10-29T17:19:04Z</time>
      </trkpt>
      <trkpt lat="51.202793000265956" lon="8.933082036674023">
        <ele>315.93000000000001</ele>
        <time>2017-10-29T17:19:05Z</time>
      </trkpt>
      <trkpt lat="51.202766010537744" lon="8.933267025277019">
        <ele>315.44999999999999</ele>
        <time>2017-10-29T17:19:06Z</time>
      </trkpt>
      <trkpt lat="51.202755030244589" lon="8.933453019708395">
        <ele>314.97000000000003</ele>
        <time>2017-10-29T17:19:07Z</time>
      </trkpt>
      <trkpt lat="51.202775985002518" lon="8.933652006089687">
        <ele>314.49000000000001</ele>
        <time>2017-10-29T17:19:08Z</time>
      </trkpt>
      <trkpt lat="51.202810015529394" lon="8.933859961107373">
        <ele>314.00999999999999</ele>
        <time>2017-10-29T17:19:09Z</time>
      </trkpt>
      <trkpt lat="51.202870029956102" lon="8.934075040742755">
        <ele>313.52999999999997</ele>
        <time>2017-10-29T17:19:10Z</time>
      </trkpt>
      <trkpt lat="51.202935995534062" lon="8.934309985488653">
        <ele>313.05000000000001</ele>
        <time>2017-10-29T17:19:11Z</time>
      </trkpt>
      <trkpt lat="51.203545024618506" lon="8.935953006148338">
        <ele>309.19999999999999</ele>
        <time>2017-10-29T17:19:17Z</time>
      </trkpt>
      <trkpt lat="51.203916007652879" lon="8.937055980786681">
        <ele>307.75999999999999</ele>
        <time>2017-10-29T17:19:21Z</time>
      </trkpt>
      <trkpt lat="51.204038970172405" lon="8.937827032059431">
        <ele>306.31999999999999</ele>
        <time>2017-10-29T17:19:24Z</time>
      </trkpt>
      <trkpt lat="51.204040981829166" lon="8.939554039388895">
        <ele>303.91000000000003</ele>
        <time>2017-10-29T17:19:32Z</time>
      </trkpt>
      <trkpt lat="51.204039976000786" lon="8.939919993281364">
        <ele>302.94999999999999</ele>
        <time>2017-10-29T17:19:34Z</time>
      </trkpt>
      <trkpt lat="51.204095967113972" lon="8.940435983240604">
        <ele>302.47000000000003</ele>
        <time>2017-10-29T17:19:36Z</time>
      </trkpt>
      <trkpt lat="51.204125974327326" lon="8.940613009035587">
        <ele>301.99000000000001</ele>
        <time>2017-10-29T17:19:38Z</time>
      </trkpt>
      <trkpt lat="51.20415598154068" lon="8.940791040658951">
        <ele>301.99000000000001</ele>
        <time>2017-10-29T17:19:39Z</time>
      </trkpt>
      <trkpt lat="51.204589996486902" lon="8.942841002717614">
        <ele>301.02999999999997</ele>
        <time>2017-10-29T17:19:50Z</time>
      </trkpt>
      <trkpt lat="51.204675994813442" lon="8.943138979375362">
        <ele>301.02999999999997</ele>
        <time>2017-10-29T17:19:53Z</time>
      </trkpt>
      <trkpt lat="51.204773979261518" lon="8.943377025425434">
        <ele>301.02999999999997</ele>
        <time>2017-10-29T17:19:54Z</time>
      </trkpt>
      <trkpt lat="51.205278988927603" lon="8.944092001765966">
        <ele>300.06999999999999</ele>
        <time>2017-10-29T17:20:02Z</time>
      </trkpt>
      <trkpt lat="51.205369010567665" lon="8.944169031456113">
        <ele>300.06999999999999</ele>
        <time>2017-10-29T17:20:04Z</time>
      </trkpt>
      <trkpt lat="51.20544402860105" lon="8.944150004535914">
        <ele>300.06999999999999</ele>
        <time>2017-10-29T17:20:05Z</time>
      </trkpt>
      <trkpt lat="51.205540001392365" lon="8.944126032292843">
        <ele>300.55000000000001</ele>
        <time>2017-10-29T17:20:06Z</time>
      </trkpt>
      <trkpt lat="51.206674994900823" lon="8.944104993715882">
        <ele>303.91000000000003</ele>
        <time>2017-10-29T17:20:15Z</time>
      </trkpt>
      <trkpt lat="51.206767028197646" lon="8.944137012585998">
        <ele>304.38999999999999</ele>
        <time>2017-10-29T17:20:16Z</time>
      </trkpt>
      <trkpt lat="51.206855038180947" lon="8.944187974557281">
        <ele>304.38999999999999</ele>
        <time>2017-10-29T17:20:17Z</time>
      </trkpt>
      <trkpt lat="51.206941036507487" lon="8.944273972883821">
        <ele>304.88</ele>
        <time>2017-10-29T17:20:18Z</time>
      </trkpt>
      <trkpt lat="51.207030974328518" lon="8.944363994523883">
        <ele>305.83999999999997</ele>
        <time>2017-10-29T17:20:19Z</time>
      </trkpt>
      <trkpt lat="51.207127030938864" lon="8.944460973143578">
        <ele>306.31999999999999</ele>
        <time>2017-10-29T17:20:20Z</time>
      </trkpt>
      <trkpt lat="51.207834966480732" lon="8.945061033591628">
        <ele>308.24000000000001</ele>
        <time>2017-10-29T17:20:28Z</time>
      </trkpt>
      <trkpt lat="51.208074018359184" lon="8.945251973345876">
        <ele>308.72000000000003</ele>
        <time>2017-10-29T17:20:31Z</time>
      </trkpt>
      <trkpt lat="51.208199998363853" lon="8.945449031889439">
        <ele>309.19999999999999</ele>
        <time>2017-10-29T17:20:32Z</time>
      </trkpt>
      <trkpt lat="51.208239980041981" lon="8.945594038814306">
        <ele>309.68000000000001</ele>
        <time>2017-10-29T17:20:33Z</time>
      </trkpt>
      <trkpt lat="51.208380041643977" lon="8.946089996024966">
        <ele>310.16000000000003</ele>
        <time>2017-10-29T17:20:36Z</time>
      </trkpt>
      <trkpt lat="51.208457993343472" lon="8.946209019050002">
        <ele>310.63999999999999</ele>
        <time>2017-10-29T17:20:37Z</time>
      </trkpt>
      <trkpt lat="51.208549020811915" lon="8.946301974356175">
        <ele>310.63999999999999</ele>
        <time>2017-10-29T17:20:38Z</time>
      </trkpt>
      <trkpt lat="51.208655973896384" lon="8.946372969076037">
        <ele>311.12</ele>
        <time>2017-10-29T17:20:39Z</time>
      </trkpt>
      <trkpt lat="51.208765022456646" lon="8.946445975452662">
        <ele>311.60000000000002</ele>
        <time>2017-10-29T17:20:40Z</time>
      </trkpt>
      <trkpt lat="51.208869041875005" lon="8.946514958515763">
        <ele>311.60000000000002</ele>
        <time>2017-10-29T17:20:42Z</time>
      </trkpt>
      <trkpt lat="51.209151009097695" lon="8.946819975972176">
        <ele>311.60000000000002</ele>
        <time>2017-10-29T17:20:44Z</time>
      </trkpt>
      <trkpt lat="51.209226027131081" lon="8.946983003988862">
        <ele>311.60000000000002</ele>
        <time>2017-10-29T17:20:45Z</time>
      </trkpt>
      <trkpt lat="51.209306996315718" lon="8.947160029783845">
        <ele>311.60000000000002</ele>
        <time>2017-10-29T17:20:46Z</time>
      </trkpt>
      <trkpt lat="51.209382014349103" lon="8.947349041700363">
        <ele>311.12</ele>
        <time>2017-10-29T17:20:48Z</time>
      </trkpt>
      <trkpt lat="51.209642020985484" lon="8.948087990283966">
        <ele>312.08999999999997</ele>
        <time>2017-10-29T17:20:51Z</time>
      </trkpt>
      <trkpt lat="51.209725001826882" lon="8.948244983330369">
        <ele>312.08999999999997</ele>
        <time>2017-10-29T17:20:52Z</time>
      </trkpt>
      <trkpt lat="51.209818962961435" lon="8.948366018012166">
        <ele>312.56999999999999</ele>
        <time>2017-10-29T17:20:53Z</time>
      </trkpt>
      <trkpt lat="51.2099330406636" lon="8.948441036045551">
        <ele>312.56999999999999</ele>
        <time>2017-10-29T17:20:54Z</time>
      </trkpt>
      <trkpt lat="51.21006203815341" lon="8.94848101772368">
        <ele>312.08999999999997</ele>
        <time>2017-10-29T17:20:55Z</time>
      </trkpt>
      <trkpt lat="51.210205033421516" lon="8.94852502271533">
        <ele>312.56999999999999</ele>
        <time>2017-10-29T17:20:56Z</time>
      </trkpt>
      <trkpt lat="51.210824958980083" lon="8.948798021301627">
        <ele>313.05000000000001</ele>
        <time>2017-10-29T17:21:00Z</time>
      </trkpt>
      <trkpt lat="51.210957979783416" lon="8.948921989649534">
        <ele>313.05000000000001</ele>
        <time>2017-10-29T17:21:01Z</time>
      </trkpt>
      <trkpt lat="51.21109502390027" lon="8.949061967432499">
        <ele>313.52999999999997</ele>
        <time>2017-10-29T17:21:03Z</time>
      </trkpt>
      <trkpt lat="51.211468018591404" lon="8.949632020667195">
        <ele>314.00999999999999</ele>
        <time>2017-10-29T17:21:06Z</time>
      </trkpt>
      <trkpt lat="51.211591986939311" lon="8.949803011491895">
        <ele>314.49000000000001</ele>
        <time>2017-10-29T17:21:07Z</time>
      </trkpt>
      <trkpt lat="51.211725007742643" lon="8.949933014810085">
        <ele>314.97000000000003</ele>
        <time>2017-10-29T17:21:08Z</time>
      </trkpt>
      <trkpt lat="51.212038993835449" lon="8.950032005086541">
        <ele>315.44999999999999</ele>
        <time>2017-10-29T17:21:09Z</time>
      </trkpt>
      <trkpt lat="51.213259985670447" lon="8.950240965932608">
        <ele>318.32999999999998</ele>
        <time>2017-10-29T17:21:15Z</time>
      </trkpt>
      <trkpt lat="51.215139962732792" lon="8.950568027794361">
        <ele>321.69999999999999</ele>
        <time>2017-10-29T17:21:24Z</time>
      </trkpt>
      <trkpt lat="51.215277006849647" lon="8.950530979782343">
        <ele>322.18000000000001</ele>
        <time>2017-10-29T17:21:25Z</time>
      </trkpt>
      <trkpt lat="51.215408015996218" lon="8.950477000325918">
        <ele>322.18000000000001</ele>
        <time>2017-10-29T17:21:26Z</time>
      </trkpt>
      <trkpt lat="51.215518992394209" lon="8.950360994786024">
        <ele>322.18000000000001</ele>
        <time>2017-10-29T17:21:27Z</time>
      </trkpt>
      <trkpt lat="51.215612031519413" lon="8.950210958719254">
        <ele>322.66000000000003</ele>
        <time>2017-10-29T17:21:28Z</time>
      </trkpt>
      <trkpt lat="51.215711021795869" lon="8.950041979551315">
        <ele>322.66000000000003</ele>
        <time>2017-10-29T17:21:29Z</time>
      </trkpt>
      <trkpt lat="51.215814035385847" lon="8.949865959584713">
        <ele>322.66000000000003</ele>
        <time>2017-10-29T17:21:30Z</time>
      </trkpt>
      <trkpt lat="51.216156017035246" lon="8.949308982118964">
        <ele>323.62</ele>
        <time>2017-10-29T17:21:33Z</time>
      </trkpt>
      <trkpt lat="51.216715006157756" lon="8.94871897995472">
        <ele>326.01999999999998</ele>
        <time>2017-10-29T17:21:37Z</time>
      </trkpt>
      <trkpt lat="51.216848026961088" lon="8.948645973578095">
        <ele>326.5</ele>
        <time>2017-10-29T17:21:38Z</time>
      </trkpt>
      <trkpt lat="51.216983981430531" lon="8.948588976636529">
        <ele>326.99000000000001</ele>
        <time>2017-10-29T17:21:39Z</time>
      </trkpt>
      <trkpt lat="51.217138962820172" lon="8.948555029928684">
        <ele>327.94999999999999</ele>
        <time>2017-10-29T17:21:40Z</time>
      </trkpt>
      <trkpt lat="51.217309031635523" lon="8.948516976088285">
        <ele>328.43000000000001</ele>
        <time>2017-10-29T17:21:41Z</time>
      </trkpt>
      <trkpt lat="51.217808006331325" lon="8.948359983041883">
        <ele>330.35000000000002</ele>
        <time>2017-10-29T17:21:44Z</time>
      </trkpt>
      <trkpt lat="51.217957958579063" lon="8.948259986937046">
        <ele>330.82999999999998</ele>
        <time>2017-10-29T17:21:45Z</time>
      </trkpt>
      <trkpt lat="51.219184985384345" lon="8.947441997006536">
        <ele>333.23000000000002</ele>
        <time>2017-10-29T17:21:53Z</time>
      </trkpt>
      <trkpt lat="51.219469970092177" lon="8.947400003671646">
        <ele>333.70999999999998</ele>
        <time>2017-10-29T17:21:55Z</time>
      </trkpt>
      <trkpt lat="51.219743974506855" lon="8.947359016165137">
        <ele>333.70999999999998</ele>
        <time>2017-10-29T17:21:57Z</time>
      </trkpt>
      <trkpt lat="51.219862997531891" lon="8.94740997813642">
        <ele>334.19999999999999</ele>
        <time>2017-10-29T17:21:58Z</time>
      </trkpt>
      <trkpt lat="51.219971040263772" lon="8.947468986734748">
        <ele>334.19999999999999</ele>
        <time>2017-10-29T17:21:59Z</time>
      </trkpt>
      <trkpt lat="51.22007598169148" lon="8.947526989504695">
        <ele>334.19999999999999</ele>
        <time>2017-10-29T17:22:00Z</time>
      </trkpt>
      <trkpt lat="51.220180001109838" lon="8.947583986446261">
        <ele>334.68000000000001</ele>
        <time>2017-10-29T17:22:01Z</time>
      </trkpt>
      <trkpt lat="51.220265999436378" lon="8.947696974501014">
        <ele>334.68000000000001</ele>
        <time>2017-10-29T17:22:02Z</time>
      </trkpt>
      <trkpt lat="51.22035400941968" lon="8.947823960334063">
        <ele>334.68000000000001</ele>
        <time>2017-10-29T17:22:03Z</time>
      </trkpt>
      <trkpt lat="51.220446964725852" lon="8.947958992794156">
        <ele>335.16000000000003</ele>
        <time>2017-10-29T17:22:04Z</time>
      </trkpt>
      <trkpt lat="51.220546960830688" lon="8.948105005547404">
        <ele>335.63999999999999</ele>
        <time>2017-10-29T17:22:05Z</time>
      </trkpt>
      <trkpt lat="51.221150038763881" lon="8.949200017377734">
        <ele>337.07999999999998</ele>
        <time>2017-10-29T17:22:12Z</time>
      </trkpt>
      <trkpt lat="51.221254980191588" lon="8.949319962412119">
        <ele>337.56</ele>
        <time>2017-10-29T17:22:13Z</time>
      </trkpt>
      <trkpt lat="51.221500989049673" lon="8.949559014290571">
        <ele>338.04000000000002</ele>
        <time>2017-10-29T17:22:15Z</time>
      </trkpt>
      <trkpt lat="51.222436996176839" lon="8.950256975367665">
        <ele>339.95999999999998</ele>
        <time>2017-10-29T17:22:21Z</time>
      </trkpt>
      <trkpt lat="51.222583008930087" lon="8.950372980907559">
        <ele>340.44</ele>
        <time>2017-10-29T17:22:22Z</time>
      </trkpt>
      <trkpt lat="51.222700020298362" lon="8.950561992824078">
        <ele>341.41000000000003</ele>
        <time>2017-10-29T17:22:23Z</time>
      </trkpt>
      <trkpt lat="51.222824994474649" lon="8.950765002518892">
        <ele>341.41000000000003</ele>
        <time>2017-10-29T17:22:24Z</time>
      </trkpt>
      <trkpt lat="51.222952986136079" lon="8.950973963364959">
        <ele>342.37</ele>
        <time>2017-10-29T17:22:25Z</time>
      </trkpt>
      <trkpt lat="51.223170999437571" lon="8.951328014954925">
        <ele>343.32999999999998</ele>
        <time>2017-10-29T17:22:27Z</time>
      </trkpt>
      <trkpt lat="51.223254986107349" lon="8.951463969424367">
        <ele>343.81</ele>
        <time>2017-10-29T17:22:28Z</time>
      </trkpt>
      <trkpt lat="51.223360011354089" lon="8.951519038528204">
        <ele>343.81</ele>
        <time>2017-10-29T17:22:29Z</time>
      </trkpt>
      <trkpt lat="51.22347098775208" lon="8.951562037691474">
        <ele>344.29000000000002</ele>
        <time>2017-10-29T17:22:30Z</time>
      </trkpt>
      <trkpt lat="51.22359998524189" lon="8.951562037691474">
        <ele>344.76999999999998</ele>
        <time>2017-10-29T17:22:31Z</time>
      </trkpt>
      <trkpt lat="51.223738035187125" lon="8.951553991064429">
        <ele>344.76999999999998</ele>
        <time>2017-10-29T17:22:32Z</time>
      </trkpt>
      <trkpt lat="51.223885975778103" lon="8.951508980244398">
        <ele>345.25</ele>
        <time>2017-10-29T17:22:33Z</time>
      </trkpt>
      <trkpt lat="51.225356999784708" lon="8.951063985005021">
        <ele>348.62</ele>
        <time>2017-10-29T17:22:42Z</time>
      </trkpt>
      <trkpt lat="51.226476989686489" lon="8.950776988640428">
        <ele>351.5</ele>
        <time>2017-10-29T17:22:48Z</time>
      </trkpt>
      <trkpt lat="51.22663096524775" lon="8.950768020004034">
        <ele>351.98000000000002</ele>
        <time>2017-10-29T17:22:49Z</time>
      </trkpt>
      <trkpt lat="51.226791981607676" lon="8.950843038037419">
        <ele>352.45999999999998</ele>
        <time>2017-10-29T17:22:50Z</time>
      </trkpt>
      <trkpt lat="51.226946962997317" lon="8.950915960595012">
        <ele>352.94</ele>
        <time>2017-10-29T17:22:51Z</time>
      </trkpt>
      <trkpt lat="51.227091969922185" lon="8.95101604051888">
        <ele>353.42000000000002</ele>
        <time>2017-10-29T17:22:52Z</time>
      </trkpt>
      <trkpt lat="51.227232031524181" lon="8.951128022745252">
        <ele>353.89999999999998</ele>
        <time>2017-10-29T17:22:53Z</time>
      </trkpt>
      <trkpt lat="51.227364968508482" lon="8.951270012184978">
        <ele>355.33999999999997</ele>
        <time>2017-10-29T17:22:55Z</time>
      </trkpt>
      <trkpt lat="51.22748801484704" lon="8.951460029929876">
        <ele>355.82999999999998</ele>
        <time>2017-10-29T17:22:56Z</time>
      </trkpt>
      <trkpt lat="51.228579003363848" lon="8.953631026670337">
        <ele>359.67000000000002</ele>
        <time>2017-10-29T17:23:04Z</time>
      </trkpt>
      <trkpt lat="51.228809002786875" lon="8.954020030796528">
        <ele>360.14999999999998</ele>
        <time>2017-10-29T17:23:06Z</time>
      </trkpt>
      <trkpt lat="51.228947974741459" lon="8.954166965559125">
        <ele>360.14999999999998</ele>
        <time>2017-10-29T17:23:07Z</time>
      </trkpt>
      <trkpt lat="51.229087030515075" lon="8.954312978312373">
        <ele>360.14999999999998</ele>
        <time>2017-10-29T17:23:08Z</time>
      </trkpt>
      <trkpt lat="51.230209032073617" lon="8.955509997904301">
        <ele>354.38</ele>
        <time>2017-10-29T17:23:16Z</time>
      </trkpt>
      <trkpt lat="51.230294024571776" lon="8.955698003992438">
        <ele>353.89999999999998</ele>
        <time>2017-10-29T17:23:17Z</time>
      </trkpt>
      <trkpt lat="51.230370970442891" lon="8.955891961231828">
        <ele>353.42000000000002</ele>
        <time>2017-10-29T17:23:18Z</time>
      </trkpt>
      <trkpt lat="51.230420004576445" lon="8.956105029210448">
        <ele>352.45999999999998</ele>
        <time>2017-10-29T17:23:19Z</time>
      </trkpt>
      <trkpt lat="51.230443976819515" lon="8.956342991441488">
        <ele>351.98000000000002</ele>
        <time>2017-10-29T17:23:20Z</time>
      </trkpt>
      <trkpt lat="51.230469960719347" lon="8.956599980592728">
        <ele>351.01999999999998</ele>
        <time>2017-10-29T17:23:21Z</time>
      </trkpt>
      <trkpt lat="51.230686968192458" lon="8.958639968186617">
        <ele>344.76999999999998</ele>
        <time>2017-10-29T17:23:28Z</time>
      </trkpt>
      <trkpt lat="51.230741031467915" lon="8.958895029500127">
        <ele>344.29000000000002</ele>
        <time>2017-10-29T17:23:29Z</time>
      </trkpt>
      <trkpt lat="51.230829963460565" lon="8.959133997559547">
        <ele>343.32999999999998</ele>
        <time>2017-10-29T17:23:30Z</time>
      </trkpt>
      <trkpt lat="51.230931971222162" lon="8.959377994760871">
        <ele>342.37</ele>
        <time>2017-10-29T17:23:31Z</time>
      </trkpt>
      <trkpt lat="51.231044959276915" lon="8.959627021104097">
        <ele>341.88999999999999</ele>
        <time>2017-10-29T17:23:32Z</time>
      </trkpt>
      <trkpt lat="51.231510993093252" lon="8.960692025721073">
        <ele>337.07999999999998</ele>
        <time>2017-10-29T17:23:37Z</time>
      </trkpt>
      <trkpt lat="51.231553992256522" lon="8.960883971303701">
        <ele>336.60000000000002</ele>
        <time>2017-10-29T17:23:38Z</time>
      </trkpt>
      <trkpt lat="51.231594979763031" lon="8.961068037897348">
        <ele>335.63999999999999</ele>
        <time>2017-10-29T17:23:39Z</time>
      </trkpt>
      <trkpt lat="51.231608977541327" lon="8.961270963773131">
        <ele>335.16000000000003</ele>
        <time>2017-10-29T17:23:40Z</time>
      </trkpt>
      <trkpt lat="51.231581987813115" lon="8.96148101426661">
        <ele>334.19999999999999</ele>
        <time>2017-10-29T17:23:41Z</time>
      </trkpt>
      <trkpt lat="51.231539994478226" lon="8.961690980941057">
        <ele>333.70999999999998</ele>
        <time>2017-10-29T17:23:42Z</time>
      </trkpt>
      <trkpt lat="51.231490960344672" lon="8.961916035041213">
        <ele>332.75</ele>
        <time>2017-10-29T17:23:43Z</time>
      </trkpt>
      <trkpt lat="51.230884026736021" lon="8.963584033772349">
        <ele>326.01999999999998</ele>
        <time>2017-10-29T17:23:50Z</time>
      </trkpt>
      <trkpt lat="51.230171984061599" lon="8.965124040842056">
        <ele>317.85000000000002</ele>
        <time>2017-10-29T17:23:59Z</time>
      </trkpt>
      <trkpt lat="51.229824973270297" lon="8.966651977971196">
        <ele>312.08999999999997</ele>
        <time>2017-10-29T17:24:05Z</time>
      </trkpt>
      <trkpt lat="51.229798989370465" lon="8.966805031523109">
        <ele>310.63999999999999</ele>
        <time>2017-10-29T17:24:07Z</time>
      </trkpt>
      <trkpt lat="51.229784991592169" lon="8.96732303313911">
        <ele>310.16000000000003</ele>
        <time>2017-10-29T17:24:09Z</time>
      </trkpt>
      <trkpt lat="51.229851040989161" lon="8.968092994764447">
        <ele>308.72000000000003</ele>
        <time>2017-10-29T17:24:13Z</time>
      </trkpt>
      <trkpt lat="51.230180030688643" lon="8.970028962939978">
        <ele>306.31999999999999</ele>
        <time>2017-10-29T17:24:21Z</time>
      </trkpt>
      <trkpt lat="51.230508014559746" lon="8.972096024081111">
        <ele>303.43000000000001</ele>
        <time>2017-10-29T17:24:30Z</time>
      </trkpt>
      <trkpt lat="51.230546990409493" lon="8.972211023792625">
        <ele>301.02999999999997</ele>
        <time>2017-10-29T17:24:32Z</time>
      </trkpt>
      <trkpt lat="51.23062502592802" lon="8.972377991303802">
        <ele>299.58999999999997</ele>
        <time>2017-10-29T17:24:33Z</time>
      </trkpt>
      <trkpt lat="51.230683028697968" lon="8.972436999902129">
        <ele>298.14999999999998</ele>
        <time>2017-10-29T17:24:34Z</time>
      </trkpt>
      <trkpt lat="51.230752011761069" lon="8.972468012943864">
        <ele>296.69999999999999</ele>
        <time>2017-10-29T17:24:35Z</time>
      </trkpt>
      <trkpt lat="51.230837004259229" lon="8.97248201072216">
        <ele>295.25999999999999</ele>
        <time>2017-10-29T17:24:36Z</time>
      </trkpt>
      <trkpt lat="51.230938006192446" lon="8.972498020157218">
        <ele>293.81999999999999</ele>
        <time>2017-10-29T17:24:37Z</time>
      </trkpt>
      <trkpt lat="51.231357017531991" lon="8.972622994333506">
        <ele>289.97000000000003</ele>
        <time>2017-10-29T17:24:41Z</time>
      </trkpt>
      <trkpt lat="51.231466988101602" lon="8.97269600071013">
        <ele>289.49000000000001</ele>
        <time>2017-10-29T17:24:42Z</time>
      </trkpt>
      <trkpt lat="51.231572013348341" lon="8.972766995429993">
        <ele>288.52999999999997</ele>
        <time>2017-10-29T17:24:43Z</time>
      </trkpt>
      <trkpt lat="51.231671003624797" lon="8.972855005413294">
        <ele>288.52999999999997</ele>
        <time>2017-10-29T17:24:44Z</time>
      </trkpt>
      <trkpt lat="51.231776028871536" lon="8.972947960719466">
        <ele>288.05000000000001</ele>
        <time>2017-10-29T17:24:45Z</time>
      </trkpt>
      <trkpt lat="51.231889016926289" lon="8.973048040643334">
        <ele>288.05000000000001</ele>
        <time>2017-10-29T17:24:46Z</time>
      </trkpt>
      <trkpt lat="51.232809014618397" lon="8.97357601672411">
        <ele>289.49000000000001</ele>
        <time>2017-10-29T17:24:52Z</time>
      </trkpt>
      <trkpt lat="51.233240012079477" lon="8.973769973963499">
        <ele>289.97000000000003</ele>
        <time>2017-10-29T17:24:55Z</time>
      </trkpt>
      <trkpt lat="51.233386024832726" lon="8.973781038075686">
        <ele>290.45999999999998</ele>
        <time>2017-10-29T17:24:56Z</time>
      </trkpt>
      <trkpt lat="51.233516028150916" lon="8.97379101254046">
        <ele>290.94</ele>
        <time>2017-10-29T17:24:57Z</time>
      </trkpt>
      <trkpt lat="51.23363396152854" lon="8.973746001720429">
        <ele>291.42000000000002</ele>
        <time>2017-10-29T17:24:58Z</time>
      </trkpt>
      <trkpt lat="51.233748961240053" lon="8.973699985072017">
        <ele>291.42000000000002</ele>
        <time>2017-10-29T17:24:59Z</time>
      </trkpt>
      <trkpt lat="51.233862033113837" lon="8.973653968423605">
        <ele>291.42000000000002</ele>
        <time>2017-10-29T17:25:00Z</time>
      </trkpt>
      <trkpt lat="51.233981978148222" lon="8.973582973703742">
        <ele>291.89999999999998</ele>
        <time>2017-10-29T17:25:01Z</time>
      </trkpt>
      <trkpt lat="51.234085997566581" lon="8.97346998564899">
        <ele>291.42000000000002</ele>
        <time>2017-10-29T17:25:02Z</time>
      </trkpt>
      <trkpt lat="51.234192028641701" lon="8.973354985937476">
        <ele>291.42000000000002</ele>
        <time>2017-10-29T17:25:03Z</time>
      </trkpt>
      <trkpt lat="51.234283978119493" lon="8.973210984840989">
        <ele>291.42000000000002</ele>
        <time>2017-10-29T17:25:04Z</time>
      </trkpt>
      <trkpt lat="51.234372993931174" lon="8.973062038421631">
        <ele>291.42000000000002</ele>
        <time>2017-10-29T17:25:05Z</time>
      </trkpt>
      <trkpt lat="51.234452035278082" lon="8.972880989313126">
        <ele>291.42000000000002</ele>
        <time>2017-10-29T17:25:06Z</time>
      </trkpt>
      <trkpt lat="51.234526969492435" lon="8.972687032073736">
        <ele>291.42000000000002</ele>
        <time>2017-10-29T17:25:07Z</time>
      </trkpt>
      <trkpt lat="51.234590001404285" lon="8.972474969923496">
        <ele>291.42000000000002</ele>
        <time>2017-10-29T17:25:08Z</time>
      </trkpt>
      <trkpt lat="51.234646998345852" lon="8.972255028784275">
        <ele>291.89999999999998</ele>
        <time>2017-10-29T17:25:09Z</time>
      </trkpt>
      <trkpt lat="51.234811032190919" lon="8.971623033285141">
        <ele>292.86000000000001</ele>
        <time>2017-10-29T17:25:12Z</time>
      </trkpt>
      <trkpt lat="51.235001971945167" lon="8.971261018887162">
        <ele>292.86000000000001</ele>
        <time>2017-10-29T17:25:14Z</time>
      </trkpt>
      <trkpt lat="51.235101968050003" lon="8.971089022234082">
        <ele>292.86000000000001</ele>
        <time>2017-10-29T17:25:15Z</time>
      </trkpt>
      <trkpt lat="51.235215961933136" lon="8.970947032794356">
        <ele>293.33999999999997</ele>
        <time>2017-10-29T17:25:16Z</time>
      </trkpt>
      <trkpt lat="51.236351039260626" lon="8.969951011240482">
        <ele>293.33999999999997</ele>
        <time>2017-10-29T17:25:25Z</time>
      </trkpt>
      <trkpt lat="51.237703040242195" lon="8.968920959159732">
        <ele>294.77999999999997</ele>
        <time>2017-10-29T17:25:34Z</time>
      </trkpt>
      <trkpt lat="51.23784402385354" lon="8.968883994966745">
        <ele>295.25999999999999</ele>
        <time>2017-10-29T17:25:35Z</time>
      </trkpt>
      <trkpt lat="51.238006968051195" lon="8.968842001631856">
        <ele>295.25999999999999</ele>
        <time>2017-10-29T17:25:36Z</time>
      </trkpt>
      <trkpt lat="51.238671988248825" lon="8.968667993322015">
        <ele>295.25999999999999</ele>
        <time>2017-10-29T17:25:40Z</time>
      </trkpt>
      <trkpt lat="51.238806014880538" lon="8.968546958640218">
        <ele>294.77999999999997</ele>
        <time>2017-10-29T17:25:41Z</time>
      </trkpt>
      <trkpt lat="51.238934006541967" lon="8.968418966978788">
        <ele>294.77999999999997</ele>
        <time>2017-10-29T17:25:42Z</time>
      </trkpt>
      <trkpt lat="51.239586034789681" lon="8.967846985906363">
        <ele>294.77999999999997</ele>
        <time>2017-10-29T17:25:47Z</time>
      </trkpt>
      <trkpt lat="51.239724000915885" lon="8.96779702976346">
        <ele>294.77999999999997</ele>
        <time>2017-10-29T17:25:48Z</time>
      </trkpt>
      <trkpt lat="51.23986498452723" lon="8.967779008671641">
        <ele>294.30000000000001</ele>
        <time>2017-10-29T17:25:49Z</time>
      </trkpt>
      <trkpt lat="51.240623965859413" lon="8.967798035591841">
        <ele>294.30000000000001</ele>
        <time>2017-10-29T17:25:55Z</time>
      </trkpt>
      <trkpt lat="51.24074399471283" lon="8.967827036976814">
        <ele>294.77999999999997</ele>
        <time>2017-10-29T17:25:56Z</time>
      </trkpt>
      <trkpt lat="51.240867041051388" lon="8.967874981462956">
        <ele>295.25999999999999</ele>
        <time>2017-10-29T17:25:58Z</time>
      </trkpt>
      <trkpt lat="51.241179015487432" lon="8.968177987262607">
        <ele>296.22000000000003</ele>
        <time>2017-10-29T17:26:00Z</time>
      </trkpt>
      <trkpt lat="51.241268031299114" lon="8.968330034986138">
        <ele>296.22000000000003</ele>
        <time>2017-10-29T17:26:01Z</time>
      </trkpt>
      <trkpt lat="51.241358974948525" lon="8.96848501637578">
        <ele>296.22000000000003</ele>
        <time>2017-10-29T17:26:02Z</time>
      </trkpt>
      <trkpt lat="51.24162401072681" lon="8.96893797442317">
        <ele>296.69999999999999</ele>
        <time>2017-10-29T17:26:05Z</time>
      </trkpt>
      <trkpt lat="51.241717971861362" lon="8.96906303241849">
        <ele>296.69999999999999</ele>
        <time>2017-10-29T17:26:06Z</time>
      </trkpt>
      <trkpt lat="51.241820985451341" lon="8.969182977452874">
        <ele>296.69999999999999</ele>
        <time>2017-10-29T17:26:07Z</time>
      </trkpt>
      <trkpt lat="51.241928022354841" lon="8.96930099464953">
        <ele>296.69999999999999</ele>
        <time>2017-10-29T17:26:08Z</time>
      </trkpt>
      <trkpt lat="51.242046039551497" lon="8.969397973269224">
        <ele>296.69999999999999</ele>
        <time>2017-10-29T17:26:09Z</time>
      </trkpt>
      <trkpt lat="51.243271976709366" lon="8.970068022608757">
        <ele>297.18000000000001</ele>
        <time>2017-10-29T17:26:17Z</time>
      </trkpt>
      <trkpt lat="51.243460988625884" lon="8.970099035650492">
        <ele>297.67000000000002</ele>
        <time>2017-10-29T17:26:19Z</time>
      </trkpt>
      <trkpt lat="51.243654023855925" lon="8.970091994851828">
        <ele>297.67000000000002</ele>
        <time>2017-10-29T17:26:20Z</time>
      </trkpt>
      <trkpt lat="51.243848986923695" lon="8.970085037872195">
        <ele>297.67000000000002</ele>
        <time>2017-10-29T17:26:21Z</time>
      </trkpt>
      <trkpt lat="51.244045961648226" lon="8.970066010951996">
        <ele>297.67000000000002</ele>
        <time>2017-10-29T17:26:22Z</time>
      </trkpt>
      <trkpt lat="51.244241008535028" lon="8.969991998746991">
        <ele>297.67000000000002</ele>
        <time>2017-10-29T17:26:23Z</time>
      </trkpt>
      <trkpt lat="51.24615996144712" lon="8.969035036861897">
        <ele>297.67000000000002</ele>
        <time>2017-10-29T17:26:33Z</time>
      </trkpt>
      <trkpt lat="51.24742696993053" lon="8.968750974163413">
        <ele>298.63</ele>
        <time>2017-10-29T17:26:40Z</time>
      </trkpt>
      <trkpt lat="51.248356020078063" lon="8.968602027744055">
        <ele>301.02999999999997</ele>
        <time>2017-10-29T17:26:48Z</time>
      </trkpt>
      <trkpt lat="51.248711999505758" lon="8.968545030802488">
        <ele>302.47000000000003</ele>
        <time>2017-10-29T17:26:52Z</time>
      </trkpt>
      <trkpt lat="51.248745024204254" lon="8.968540001660585">
        <ele>302.94999999999999</ele>
        <time>2017-10-29T17:26:53Z</time>
      </trkpt>
      <trkpt lat="51.248745024204254" lon="8.968540001660585">
        <ele>302.94999999999999</ele>
        <time>2017-10-29T17:27:03Z</time>
      </trkpt>
      <trkpt lat="51.248756004497409" lon="8.968537990003824">
        <ele>303.43000000000001</ele>
        <time>2017-10-29T17:27:07Z</time>
      </trkpt>
      <trkpt lat="51.248785005882382" lon="8.968444028869271">
        <ele>304.38999999999999</ele>
        <time>2017-10-29T17:27:09Z</time>
      </trkpt>
      <trkpt lat="51.248832028359175" lon="8.968005990609527">
        <ele>305.36000000000001</ele>
        <time>2017-10-29T17:27:12Z</time>
      </trkpt>
      <trkpt lat="51.248853988945484" lon="8.967805998399854">
        <ele>305.36000000000001</ele>
        <time>2017-10-29T17:27:13Z</time>
      </trkpt>
      <trkpt lat="51.248911991715431" lon="8.967574993148446">
        <ele>304.88</ele>
        <time>2017-10-29T17:27:14Z</time>
      </trkpt>
      <trkpt lat="51.249066973105073" lon="8.967129997909069">
        <ele>304.88</ele>
        <time>2017-10-29T17:27:15Z</time>
      </trkpt>
      <trkpt lat="51.249173004180193" lon="8.966966969892383">
        <ele>304.38999999999999</ele>
        <time>2017-10-29T17:27:16Z</time>
      </trkpt>
      <trkpt lat="51.249411972239614" lon="8.966691959649324">
        <ele>303.43000000000001</ele>
        <time>2017-10-29T17:27:18Z</time>
      </trkpt>
      <trkpt lat="51.249549016356468" lon="8.966607972979546">
        <ele>302.94999999999999</ele>
        <time>2017-10-29T17:27:19Z</time>
      </trkpt>
      <trkpt lat="51.249694023281336" lon="8.966519962996244">
        <ele>301.99000000000001</ele>
        <time>2017-10-29T17:27:21Z</time>
      </trkpt>
      <trkpt lat="51.250364994630218" lon="8.966340003535152">
        <ele>301.50999999999999</ele>
        <time>2017-10-29T17:27:25Z</time>
      </trkpt>
      <trkpt lat="51.250708987936378" lon="8.966230032965541">
        <ele>301.99000000000001</ele>
        <time>2017-10-29T17:27:27Z</time>
      </trkpt>
      <trkpt lat="51.250871010124683" lon="8.966116961091757">
        <ele>302.47000000000003</ele>
        <time>2017-10-29T17:27:28Z</time>
      </trkpt>
      <trkpt lat="51.251984965056181" lon="8.964917007833719">
        <ele>306.31999999999999</ele>
        <time>2017-10-29T17:27:35Z</time>
      </trkpt>
      <trkpt lat="51.252097031101584" lon="8.964844001457095">
        <ele>306.31999999999999</ele>
        <time>2017-10-29T17:27:36Z</time>
      </trkpt>
      <trkpt lat="51.252442030236125" lon="8.964670998975635">
        <ele>306.80000000000001</ele>
        <time>2017-10-29T17:27:40Z</time>
      </trkpt>
      <trkpt lat="51.25277697108686" lon="8.964614002034068">
        <ele>306.31999999999999</ele>
        <time>2017-10-29T17:27:42Z</time>
      </trkpt>
      <trkpt lat="51.252902029082179" lon="8.964627999812365">
        <ele>306.31999999999999</ele>
        <time>2017-10-29T17:27:43Z</time>
      </trkpt>
      <trkpt lat="51.25303597189486" lon="8.964678039774299">
        <ele>305.83999999999997</ele>
        <time>2017-10-29T17:27:44Z</time>
      </trkpt>
      <trkpt lat="51.253179972991347" lon="8.964737970381975">
        <ele>305.83999999999997</ele>
        <time>2017-10-29T17:27:46Z</time>
      </trkpt>
      <trkpt lat="51.25359496101737" lon="8.965037958696485">
        <ele>305.83999999999997</ele>
        <time>2017-10-29T17:27:48Z</time>
      </trkpt>
      <trkpt lat="51.253719013184309" lon="8.96517600864172">
        <ele>305.83999999999997</ele>
        <time>2017-10-29T17:27:49Z</time>
      </trkpt>
      <trkpt lat="51.254722997546196" lon="8.966630017384887">
        <ele>306.80000000000001</ele>
        <time>2017-10-29T17:27:58Z</time>
      </trkpt>
      <trkpt lat="51.255008988082409" lon="8.967051040381193">
        <ele>306.80000000000001</ele>
        <time>2017-10-29T17:28:01Z</time>
      </trkpt>
      <trkpt lat="51.255084006115794" lon="8.967161010950804">
        <ele>306.31999999999999</ele>
        <time>2017-10-29T17:28:03Z</time>
      </trkpt>
      <trkpt lat="51.255270000547171" lon="8.967310041189194">
        <ele>306.31999999999999</ele>
        <time>2017-10-29T17:28:04Z</time>
      </trkpt>
      <trkpt lat="51.255376031622291" lon="8.967316998168826">
        <ele>305.83999999999997</ele>
        <time>2017-10-29T17:28:05Z</time>
      </trkpt>
      <trkpt lat="51.255474016070366" lon="8.967297971248627">
        <ele>305.36000000000001</ele>
        <time>2017-10-29T17:28:06Z</time>
      </trkpt>
      <trkpt lat="51.255559008568525" lon="8.967242985963821">
        <ele>304.88</ele>
        <time>2017-10-29T17:28:07Z</time>
      </trkpt>
      <trkpt lat="51.255634026601911" lon="8.967168973758817">
        <ele>304.38999999999999</ele>
        <time>2017-10-29T17:28:08Z</time>
      </trkpt>
      <trkpt lat="51.255708960816264" lon="8.967094039544463">
        <ele>303.91000000000003</ele>
        <time>2017-10-29T17:28:09Z</time>
      </trkpt>
      <trkpt lat="51.255769981071353" lon="8.966985996812582">
        <ele>303.43000000000001</ele>
        <time>2017-10-29T17:28:11Z</time>
      </trkpt>
      <trkpt lat="51.255837036296725" lon="8.966774018481374">
        <ele>302.94999999999999</ele>
        <time>2017-10-29T17:28:12Z</time>
      </trkpt>
      <trkpt lat="51.255864026024938" lon="8.966690031811595">
        <ele>302.47000000000003</ele>
        <time>2017-10-29T17:28:13Z</time>
      </trkpt>
      <trkpt lat="51.255878023803234" lon="8.966476041823626">
        <ele>302.47000000000003</ele>
        <time>2017-10-29T17:28:15Z</time>
      </trkpt>
      <trkpt lat="51.25587098300457" lon="8.966335980221629">
        <ele>302.47000000000003</ele>
        <time>2017-10-29T17:28:16Z</time>
      </trkpt>
      <trkpt lat="51.255840975791216" lon="8.965967008844018">
        <ele>302.47000000000003</ele>
        <time>2017-10-29T17:28:19Z</time>
      </trkpt>
      <trkpt lat="51.255657998844981" lon="8.964759008958936">
        <ele>303.91000000000003</ele>
        <time>2017-10-29T17:28:24Z</time>
      </trkpt>
      <trkpt lat="51.255662022158504" lon="8.963465010747314">
        <ele>305.36000000000001</ele>
        <time>2017-10-29T17:28:28Z</time>
      </trkpt>
      <trkpt lat="51.256126966327429" lon="8.961657034233213">
        <ele>308.72000000000003</ele>
        <time>2017-10-29T17:28:35Z</time>
      </trkpt>
      <trkpt lat="51.257035983726382" lon="8.959265006706119">
        <ele>314.00999999999999</ele>
        <time>2017-10-29T17:28:44Z</time>
      </trkpt>
      <trkpt lat="51.257189959287643" lon="8.959070965647697">
        <ele>314.97000000000003</ele>
        <time>2017-10-29T17:28:46Z</time>
      </trkpt>
      <trkpt lat="51.257862020283937" lon="8.958161026239395">
        <ele>315.93000000000001</ele>
        <time>2017-10-29T17:28:50Z</time>
      </trkpt>
      <trkpt lat="51.257962016388774" lon="8.957947036251426">
        <ele>316.41000000000003</ele>
        <time>2017-10-29T17:28:51Z</time>
      </trkpt>
      <trkpt lat="51.258060000836849" lon="8.957734974101186">
        <ele>316.88999999999999</ele>
        <time>2017-10-29T17:28:52Z</time>
      </trkpt>
      <trkpt lat="51.258132001385093" lon="8.957500029355288">
        <ele>316.88999999999999</ele>
        <time>2017-10-29T17:28:53Z</time>
      </trkpt>
      <trkpt lat="51.258185980841517" lon="8.957232981920242">
        <ele>317.37</ele>
        <time>2017-10-29T17:28:54Z</time>
      </trkpt>
      <trkpt lat="51.258221017196774" lon="8.956944979727268">
        <ele>317.37</ele>
        <time>2017-10-29T17:28:55Z</time>
      </trkpt>
      <trkpt lat="51.25825697556138" lon="8.956653038039804">
        <ele>317.85000000000002</ele>
        <time>2017-10-29T17:28:56Z</time>
      </trkpt>
      <trkpt lat="51.25827600248158" lon="8.956361012533307">
        <ele>317.85000000000002</ele>
        <time>2017-10-29T17:28:57Z</time>
      </trkpt>
      <trkpt lat="51.258259993046522" lon="8.956070998683572">
        <ele>317.85000000000002</ele>
        <time>2017-10-29T17:28:58Z</time>
      </trkpt>
      <trkpt lat="51.258243983611465" lon="8.955778973177075">
        <ele>317.85000000000002</ele>
        <time>2017-10-29T17:28:59Z</time>
      </trkpt>
      <trkpt lat="51.257980959489942" lon="8.954059006646276">
        <ele>319.30000000000001</ele>
        <time>2017-10-29T17:29:05Z</time>
      </trkpt>
      <trkpt lat="51.257903007790446" lon="8.953782990574837">
        <ele>319.30000000000001</ele>
        <time>2017-10-29T17:29:06Z</time>
      </trkpt>
      <trkpt lat="51.25690296292305" lon="8.951008999720216">
        <ele>321.22000000000003</ele>
        <time>2017-10-29T17:29:16Z</time>
      </trkpt>
      <trkpt lat="51.255909958854318" lon="8.948300974443555">
        <ele>322.66000000000003</ele>
        <time>2017-10-29T17:29:27Z</time>
      </trkpt>
      <trkpt lat="51.255273018032312" lon="8.946345979347825">
        <ele>322.18000000000001</ele>
        <time>2017-10-29T17:29:38Z</time>
      </trkpt>
      <trkpt lat="51.255194982513785" lon="8.945986982434988">
        <ele>323.13999999999999</ele>
        <time>2017-10-29T17:29:41Z</time>
      </trkpt>
      <trkpt lat="51.255157012492418" lon="8.945810040459037">
        <ele>323.13999999999999</ele>
        <time>2017-10-29T17:29:42Z</time>
      </trkpt>
      <trkpt lat="51.255087023600936" lon="8.944602962583304">
        <ele>324.10000000000002</ele>
        <time>2017-10-29T17:29:49Z</time>
      </trkpt>
      <trkpt lat="51.255093980580568" lon="8.944502966478467">
        <ele>324.57999999999998</ele>
        <time>2017-10-29T17:29:50Z</time>
      </trkpt>
      <trkpt lat="51.255100015550852" lon="8.944427026435733">
        <ele>324.57999999999998</ele>
        <time>2017-10-29T17:29:51Z</time>
      </trkpt>
      <trkpt lat="51.255171010270715" lon="8.944352008402348">
        <ele>324.57999999999998</ele>
        <time>2017-10-29T17:29:52Z</time>
      </trkpt>
      <trkpt lat="51.255220966413617" lon="8.944352008402348">
        <ele>325.06</ele>
        <time>2017-10-29T17:29:53Z</time>
      </trkpt>
      <trkpt lat="51.255287015810609" lon="8.944352008402348">
        <ele>325.06</ele>
        <time>2017-10-29T17:29:54Z</time>
      </trkpt>
      <trkpt lat="51.255363039672375" lon="8.944352008402348">
        <ele>325.54000000000002</ele>
        <time>2017-10-29T17:29:55Z</time>
      </trkpt>
      <trkpt lat="51.255450965836644" lon="8.944322001188994">
        <ele>325.54000000000002</ele>
        <time>2017-10-29T17:29:56Z</time>
      </trkpt>
      <trkpt lat="51.255534030497074" lon="8.944266010075808">
        <ele>325.54000000000002</ele>
        <time>2017-10-29T17:29:57Z</time>
      </trkpt>
      <trkpt lat="51.255618017166853" lon="8.944197027012706">
        <ele>326.01999999999998</ele>
        <time>2017-10-29T17:29:58Z</time>
      </trkpt>
      <trkpt lat="51.255688006058335" lon="8.94409803673625">
        <ele>326.01999999999998</ele>
        <time>2017-10-29T17:29:59Z</time>
      </trkpt>
      <trkpt lat="51.255832007154822" lon="8.943882035091519">
        <ele>326.01999999999998</ele>
        <time>2017-10-29T17:30:00Z</time>
      </trkpt>
      <trkpt lat="51.255832007154822" lon="8.943882035091519">
        <ele>326.5</ele>
        <time>2017-10-29T17:30:01Z</time>
      </trkpt>
      <trkpt lat="51.255894033238292" lon="8.943747002631426">
        <ele>326.01999999999998</ele>
        <time>2017-10-29T17:30:02Z</time>
      </trkpt>
      <trkpt lat="51.255954969674349" lon="8.943604007363319">
        <ele>326.01999999999998</ele>
        <time>2017-10-29T17:30:03Z</time>
      </trkpt>
      <trkpt lat="51.256177006289363" lon="8.942945022135973">
        <ele>326.5</ele>
        <time>2017-10-29T17:30:06Z</time>
      </trkpt>
      <trkpt lat="51.256815958768129" lon="8.941269982606173">
        <ele>327.47000000000003</ele>
        <time>2017-10-29T17:30:16Z</time>
      </trkpt>
      <trkpt lat="51.257131034508348" lon="8.940665982663631">
        <ele>326.5</ele>
        <time>2017-10-29T17:30:21Z</time>
      </trkpt>
      <trkpt lat="51.257557002827525" lon="8.939851010218263">
        <ele>327.94999999999999</ele>
        <time>2017-10-29T17:30:27Z</time>
      </trkpt>
      <trkpt lat="51.258452022448182" lon="8.938787011429668">
        <ele>332.26999999999998</ele>
        <time>2017-10-29T17:30:34Z</time>
      </trkpt>
      <trkpt lat="51.258681016042829" lon="8.938562963157892">
        <ele>333.23000000000002</ele>
        <time>2017-10-29T17:30:36Z</time>
      </trkpt>
      <trkpt lat="51.258788974955678" lon="8.93851401284337">
        <ele>333.70999999999998</ele>
        <time>2017-10-29T17:30:37Z</time>
      </trkpt>
      <trkpt lat="51.258896011859179" lon="8.938474031165242">
        <ele>334.19999999999999</ele>
        <time>2017-10-29T17:30:38Z</time>
      </trkpt>
      <trkpt lat="51.259000031277537" lon="8.938482999801636">
        <ele>334.68000000000001</ele>
        <time>2017-10-29T17:30:39Z</time>
      </trkpt>
      <trkpt lat="51.259117964655161" lon="8.938493980094791">
        <ele>335.16000000000003</ele>
        <time>2017-10-29T17:30:40Z</time>
      </trkpt>
      <trkpt lat="51.259208992123604" lon="8.938597999513149">
        <ele>335.16000000000003</ele>
        <time>2017-10-29T17:30:41Z</time>
      </trkpt>
      <trkpt lat="51.259315023198724" lon="8.938720040023327">
        <ele>336.12</ele>
        <time>2017-10-29T17:30:42Z</time>
      </trkpt>
      <trkpt lat="51.259430022910237" lon="8.938849959522486">
        <ele>337.07999999999998</ele>
        <time>2017-10-29T17:30:44Z</time>
      </trkpt>
      <trkpt lat="51.25962900929153" lon="8.939077025279403">
        <ele>338.04000000000002</ele>
        <time>2017-10-29T17:30:46Z</time>
      </trkpt>
      <trkpt lat="51.259858002886176" lon="8.939379025250673">
        <ele>339.48000000000002</ele>
        <time>2017-10-29T17:30:50Z</time>
      </trkpt>
      <trkpt lat="51.259923968464136" lon="8.939478015527129">
        <ele>339.48000000000002</ele>
        <time>2017-10-29T17:30:51Z</time>
      </trkpt>
      <trkpt lat="51.260002003982663" lon="8.939594021067023">
        <ele>339</ele>
        <time>2017-10-29T17:30:52Z</time>
      </trkpt>
      <trkpt lat="51.260096970945597" lon="8.939723018556833">
        <ele>339</ele>
        <time>2017-10-29T17:30:53Z</time>
      </trkpt>
      <trkpt lat="51.260367035865784" lon="8.939829971641302">
        <ele>338.04000000000002</ele>
        <time>2017-10-29T17:30:55Z</time>
      </trkpt>
      <trkpt lat="51.261850968003273" lon="8.939895015209913">
        <ele>333.70999999999998</ele>
        <time>2017-10-29T17:31:02Z</time>
      </trkpt>
      <trkpt lat="51.263022003695369" lon="8.939614975824952">
        <ele>328.91000000000003</ele>
        <time>2017-10-29T17:31:08Z</time>
      </trkpt>
      <trkpt lat="51.263201041147113" lon="8.939491007477045">
        <ele>328.43000000000001</ele>
        <time>2017-10-29T17:31:09Z</time>
      </trkpt>
      <trkpt lat="51.263733962550759" lon="8.939046012237668">
        <ele>326.99000000000001</ele>
        <time>2017-10-29T17:31:13Z</time>
      </trkpt>
      <trkpt lat="51.26450601965189" lon="8.938158033415675">
        <ele>328.43000000000001</ele>
        <time>2017-10-29T17:31:18Z</time>
      </trkpt>
      <trkpt lat="51.264640968292952" lon="8.938096007332206">
        <ele>328.91000000000003</ele>
        <time>2017-10-29T17:31:19Z</time>
      </trkpt>
      <trkpt lat="51.264763008803129" lon="8.938052002340555">
        <ele>328.91000000000003</ele>
        <time>2017-10-29T17:31:20Z</time>
      </trkpt>
      <trkpt lat="51.264880020171404" lon="8.938021995127201">
        <ele>329.38999999999999</ele>
        <time>2017-10-29T17:31:21Z</time>
      </trkpt>
      <trkpt lat="51.264998037368059" lon="8.938021995127201">
        <ele>329.87</ele>
        <time>2017-10-29T17:31:22Z</time>
      </trkpt>
      <trkpt lat="51.265122005715966" lon="8.938021995127201">
        <ele>330.35000000000002</ele>
        <time>2017-10-29T17:31:23Z</time>
      </trkpt>
      <trkpt lat="51.265258966013789" lon="8.938044961541891">
        <ele>330.35000000000002</ele>
        <time>2017-10-29T17:31:24Z</time>
      </trkpt>
      <trkpt lat="51.265400033444166" lon="8.938093995675445">
        <ele>330.82999999999998</ele>
        <time>2017-10-29T17:31:25Z</time>
      </trkpt>
      <trkpt lat="51.266705011948943" lon="8.938410999253392">
        <ele>331.31</ele>
        <time>2017-10-29T17:31:34Z</time>
      </trkpt>
      <trkpt lat="51.267188983038068" lon="8.938495991751552">
        <ele>332.75</ele>
        <time>2017-10-29T17:31:37Z</time>
      </trkpt>
      <trkpt lat="51.267325021326542" lon="8.938592970371246">
        <ele>333.23000000000002</ele>
        <time>2017-10-29T17:31:38Z</time>
      </trkpt>
      <trkpt lat="51.267468016594648" lon="8.938694978132844">
        <ele>333.70999999999998</ele>
        <time>2017-10-29T17:31:39Z</time>
      </trkpt>
      <trkpt lat="51.267604976892471" lon="8.938850965350866">
        <ele>334.19999999999999</ele>
        <time>2017-10-29T17:31:40Z</time>
      </trkpt>
      <trkpt lat="51.267743026837707" lon="8.939017010852695">
        <ele>334.68000000000001</ele>
        <time>2017-10-29T17:31:41Z</time>
      </trkpt>
      <trkpt lat="51.269068960100412" lon="8.940317966043949">
        <ele>339</ele>
        <time>2017-10-29T17:31:49Z</time>
      </trkpt>
      <trkpt lat="51.269977977499366" lon="8.94070596434176">
        <ele>344.29000000000002</ele>
        <time>2017-10-29T17:31:55Z</time>
      </trkpt>
      <trkpt lat="51.271622003987432" lon="8.941293032839894">
        <ele>340.92000000000002</ele>
        <time>2017-10-29T17:32:04Z</time>
      </trkpt>
      <trkpt lat="51.273494018241763" lon="8.94190801307559">
        <ele>331.79000000000002</ele>
        <time>2017-10-29T17:32:13Z</time>
      </trkpt>
      <trkpt lat="51.27439197152853" lon="8.94193097949028">
        <ele>329.87</ele>
        <time>2017-10-29T17:32:19Z</time>
      </trkpt>
      <trkpt lat="51.274767983704805" lon="8.941772980615497">
        <ele>329.38999999999999</ele>
        <time>2017-10-29T17:32:22Z</time>
      </trkpt>
      <trkpt lat="51.274901004508138" lon="8.941656975075603">
        <ele>329.38999999999999</ele>
        <time>2017-10-29T17:32:23Z</time>
      </trkpt>
      <trkpt lat="51.27503695897758" lon="8.941539041697979">
        <ele>329.38999999999999</ele>
        <time>2017-10-29T17:32:24Z</time>
      </trkpt>
      <trkpt lat="51.275167968124151" lon="8.941423958167434">
        <ele>329.38999999999999</ele>
        <time>2017-10-29T17:32:25Z</time>
      </trkpt>
      <trkpt lat="51.275295959785581" lon="8.941311975941062">
        <ele>329.38999999999999</ele>
        <time>2017-10-29T17:32:26Z</time>
      </trkpt>
      <trkpt lat="51.275419006124139" lon="8.941205022856593">
        <ele>329.38999999999999</ele>
        <time>2017-10-29T17:32:27Z</time>
      </trkpt>
      <trkpt lat="51.275543980300426" lon="8.941096980124712">
        <ele>329.87</ele>
        <time>2017-10-29T17:32:28Z</time>
      </trkpt>
      <trkpt lat="51.275684041902423" lon="8.941018022596836">
        <ele>329.87</ele>
        <time>2017-10-29T17:32:29Z</time>
      </trkpt>
      <trkpt lat="51.275834999978542" lon="8.940946022048593">
        <ele>330.35000000000002</ele>
        <time>2017-10-29T17:32:30Z</time>
      </trkpt>
      <trkpt lat="51.277138972654939" lon="8.940430032089353">
        <ele>331.79000000000002</ele>
        <time>2017-10-29T17:32:38Z</time>
      </trkpt>
      <trkpt lat="51.277298983186483" lon="8.94044503569603">
        <ele>331.79000000000002</ele>
        <time>2017-10-29T17:32:39Z</time>
      </trkpt>
      <trkpt lat="51.277459999546409" lon="8.940507983788848">
        <ele>331.79000000000002</ele>
        <time>2017-10-29T17:32:40Z</time>
      </trkpt>
      <trkpt lat="51.277628978714347" lon="8.940578978508711">
        <ele>332.26999999999998</ele>
        <time>2017-10-29T17:32:41Z</time>
      </trkpt>
      <trkpt lat="51.277803992852569" lon="8.940651984885335">
        <ele>332.26999999999998</ele>
        <time>2017-10-29T17:32:42Z</time>
      </trkpt>
      <trkpt lat="51.278418973088264" lon="8.940883995965123">
        <ele>333.70999999999998</ele>
        <time>2017-10-29T17:32:46Z</time>
      </trkpt>
      <trkpt lat="51.278545958921313" lon="8.940831022337079">
        <ele>333.70999999999998</ele>
        <time>2017-10-29T17:32:47Z</time>
      </trkpt>
      <trkpt lat="51.278675040230155" lon="8.940765978768468">
        <ele>334.19999999999999</ele>
        <time>2017-10-29T17:32:48Z</time>
      </trkpt>
      <trkpt lat="51.278804959729314" lon="8.940665982663631">
        <ele>334.19999999999999</ele>
        <time>2017-10-29T17:32:49Z</time>
      </trkpt>
      <trkpt lat="51.278940998017788" lon="8.940560035407543">
        <ele>334.68000000000001</ele>
        <time>2017-10-29T17:32:50Z</time>
      </trkpt>
      <trkpt lat="51.279222965240479" lon="8.940343027934432">
        <ele>334.68000000000001</ele>
        <time>2017-10-29T17:32:52Z</time>
      </trkpt>
      <trkpt lat="51.280301967635751" lon="8.939798036590219">
        <ele>335.16000000000003</ele>
        <time>2017-10-29T17:33:00Z</time>
      </trkpt>
      <trkpt lat="51.280498020350933" lon="8.939800970256329">
        <ele>336.12</ele>
        <time>2017-10-29T17:33:03Z</time>
      </trkpt>
      <trkpt lat="51.280842013657093" lon="8.939865007996559">
        <ele>338.04000000000002</ele>
        <time>2017-10-29T17:33:09Z</time>
      </trkpt>
      <trkpt lat="51.280907979235053" lon="8.939813962206245">
        <ele>338.04000000000002</ele>
        <time>2017-10-29T17:33:10Z</time>
      </trkpt>
      <trkpt lat="51.281632008031011" lon="8.939213985577226">
        <ele>337.56</ele>
        <time>2017-10-29T17:33:18Z</time>
      </trkpt>
      <trkpt lat="51.281711971387267" lon="8.939096974208951">
        <ele>337.56</ele>
        <time>2017-10-29T17:33:20Z</time>
      </trkpt>
      <trkpt lat="51.282334998250008" lon="8.937886962667108">
        <ele>339</ele>
        <time>2017-10-29T17:33:29Z</time>
      </trkpt>
      <trkpt lat="51.282376991584897" lon="8.937806999310851">
        <ele>339.48000000000002</ele>
        <time>2017-10-29T17:33:30Z</time>
      </trkpt>
      <trkpt lat="51.282457960769534" lon="8.937721000984311">
        <ele>340.44</ele>
        <time>2017-10-29T17:33:32Z</time>
      </trkpt>
      <trkpt lat="51.282783010974526" lon="8.937721000984311">
        <ele>340.92000000000002</ele>
        <time>2017-10-29T17:33:36Z</time>
      </trkpt>
      <trkpt lat="51.282857023179531" lon="8.937811022624373">
        <ele>341.41000000000003</ele>
        <time>2017-10-29T17:33:37Z</time>
      </trkpt>
      <trkpt lat="51.282873032614589" lon="8.937836000695825">
        <ele>341.41000000000003</ele>
        <time>2017-10-29T17:33:38Z</time>
      </trkpt>
      <trkpt lat="51.282892981544137" lon="8.937917975708842">
        <ele>341.41000000000003</ele>
        <time>2017-10-29T17:33:39Z</time>
      </trkpt>
      <trkpt lat="51.282916031777859" lon="8.938016965985298">
        <ele>341.41000000000003</ele>
        <time>2017-10-29T17:33:40Z</time>
      </trkpt>
      <trkpt lat="51.282944027334452" lon="8.938131965696812">
        <ele>341.41000000000003</ele>
        <time>2017-10-29T17:33:41Z</time>
      </trkpt>
      <trkpt lat="51.282977974042296" lon="8.938276972621679">
        <ele>341.41000000000003</ele>
        <time>2017-10-29T17:33:42Z</time>
      </trkpt>
      <trkpt lat="51.283040000125766" lon="8.938424997031689">
        <ele>341.41000000000003</ele>
        <time>2017-10-29T17:33:43Z</time>
      </trkpt>
      <trkpt lat="51.283104959875345" lon="8.938579978421331">
        <ele>341.88999999999999</ele>
        <time>2017-10-29T17:33:44Z</time>
      </trkpt>
      <trkpt lat="51.283182995393872" lon="8.938734037801623">
        <ele>341.88999999999999</ele>
        <time>2017-10-29T17:33:45Z</time>
      </trkpt>
      <trkpt lat="51.283275028690696" lon="8.938866974785924">
        <ele>342.37</ele>
        <time>2017-10-29T17:33:46Z</time>
      </trkpt>
      <trkpt lat="51.283275028690696" lon="8.938866974785924">
        <ele>342.37</ele>
        <time>2017-10-29T17:33:47Z</time>
      </trkpt>
      <trkpt lat="51.283774003386497" lon="8.939641965553165">
        <ele>343.32999999999998</ele>
        <time>2017-10-29T17:33:53Z</time>
      </trkpt>
      <trkpt lat="51.283870982006192" lon="8.939809016883373">
        <ele>344.29000000000002</ele>
        <time>2017-10-29T17:33:55Z</time>
      </trkpt>
      <trkpt lat="51.283923033624887" lon="8.939839024096727">
        <ele>344.76999999999998</ele>
        <time>2017-10-29T17:33:56Z</time>
      </trkpt>
      <trkpt lat="51.283981036394835" lon="8.939815973863006">
        <ele>345.73000000000002</ele>
        <time>2017-10-29T17:33:58Z</time>
      </trkpt>
      <trkpt lat="51.284116990864277" lon="8.939703991636634">
        <ele>346.20999999999998</ele>
        <time>2017-10-29T17:33:59Z</time>
      </trkpt>
      <trkpt lat="51.284745968878269" lon="8.938784999772906">
        <ele>347.64999999999998</ele>
        <time>2017-10-29T17:34:05Z</time>
      </trkpt>
      <trkpt lat="51.286230990663171" lon="8.936569998040795">
        <ele>351.5</ele>
        <time>2017-10-29T17:34:15Z</time>
      </trkpt>
      <trkpt lat="51.286905985325575" lon="8.935564002022147">
        <ele>355.33999999999997</ele>
        <time>2017-10-29T17:34:21Z</time>
      </trkpt>
      <trkpt lat="51.287635965272784" lon="8.934075962752104">
        <ele>363.51999999999998</ele>
        <time>2017-10-29T17:34:28Z</time>
      </trkpt>
      <trkpt lat="51.288756961002946" lon="8.931731963530183">
        <ele>372.17000000000002</ele>
        <time>2017-10-29T17:34:37Z</time>
      </trkpt>
      <trkpt lat="51.28925702534616" lon="8.930687997490168">
        <ele>376.49000000000001</ele>
        <time>2017-10-29T17:34:43Z</time>
      </trkpt>
      <trkpt lat="51.289499010890722" lon="8.930181981995702">
        <ele>376.97000000000003</ele>
        <time>2017-10-29T17:34:48Z</time>
      </trkpt>
      <trkpt lat="51.289528012275696" lon="8.930121967568994">
        <ele>376.97000000000003</ele>
        <time>2017-10-29T17:34:49Z</time>
      </trkpt>
      <trkpt lat="51.289550978690386" lon="8.930074023082852">
        <ele>376.97000000000003</ele>
        <time>2017-10-29T17:34:50Z</time>
      </trkpt>
      <trkpt lat="51.289565982297063" lon="8.930042004212737">
        <ele>376.97000000000003</ele>
        <time>2017-10-29T17:34:51Z</time>
      </trkpt>
      <trkpt lat="51.289624990895391" lon="8.930147029459477">
        <ele>376.49000000000001</ele>
        <time>2017-10-29T17:34:53Z</time>
      </trkpt>
      <trkpt lat="51.28964401781559" lon="8.930222969502211">
        <ele>376.49000000000001</ele>
        <time>2017-10-29T17:34:54Z</time>
      </trkpt>
      <trkpt lat="51.289901006966829" lon="8.93131404183805">
        <ele>372.17000000000002</ele>
        <time>2017-10-29T17:35:00Z</time>
      </trkpt>
      <trkpt lat="51.290565021336079" lon="8.933972027152777">
        <ele>369.75999999999999</ele>
        <time>2017-10-29T17:35:08Z</time>
      </trkpt>
      <trkpt lat="51.29114999435842" lon="8.935987958684564">
        <ele>370.73000000000002</ele>
        <time>2017-10-29T17:35:15Z</time>
      </trkpt>
      <trkpt lat="51.291232975199819" lon="8.936242014169693">
        <ele>370.73000000000002</ele>
        <time>2017-10-29T17:35:16Z</time>
      </trkpt>
      <trkpt lat="51.291474038735032" lon="8.936611991375685">
        <ele>371.20999999999998</ele>
        <time>2017-10-29T17:35:18Z</time>
      </trkpt>
      <trkpt lat="51.292219022288918" lon="8.937429981306195">
        <ele>372.17000000000002</ele>
        <time>2017-10-29T17:35:23Z</time>
      </trkpt>
      <trkpt lat="51.292827967554331" lon="8.938059965148568">
        <ele>374.08999999999997</ele>
        <time>2017-10-29T17:35:27Z</time>
      </trkpt>
      <trkpt lat="51.292981021106243" lon="8.938120985403657">
        <ele>374.56999999999999</ele>
        <time>2017-10-29T17:35:28Z</time>
      </trkpt>
      <trkpt lat="51.293263994157314" lon="8.93823497928679">
        <ele>376.49000000000001</ele>
        <time>2017-10-29T17:35:30Z</time>
      </trkpt>
      <trkpt lat="51.293366001918912" lon="8.938332041725516">
        <ele>377.44999999999999</ele>
        <time>2017-10-29T17:35:31Z</time>
      </trkpt>
      <trkpt lat="51.293453006073833" lon="8.938476964831352">
        <ele>378.42000000000002</ele>
        <time>2017-10-29T17:35:32Z</time>
      </trkpt>
      <trkpt lat="51.293524000793695" lon="8.938633035868406">
        <ele>378.89999999999998</ele>
        <time>2017-10-29T17:35:33Z</time>
      </trkpt>
      <trkpt lat="51.293561970815063" lon="8.93883403390646">
        <ele>379.86000000000001</ele>
        <time>2017-10-29T17:35:34Z</time>
      </trkpt>
      <trkpt lat="51.293602958321571" lon="8.9390529692173">
        <ele>380.81999999999999</ele>
        <time>2017-10-29T17:35:35Z</time>
      </trkpt>
      <trkpt lat="51.293693985790014" lon="8.939534006640315">
        <ele>381.77999999999997</ele>
        <time>2017-10-29T17:35:37Z</time>
      </trkpt>
      <trkpt lat="51.293776966631413" lon="8.93997598439455">
        <ele>383.22000000000003</ele>
        <time>2017-10-29T17:35:39Z</time>
      </trkpt>
      <trkpt lat="51.293798005208373" lon="8.940186034888029">
        <ele>384.18000000000001</ele>
        <time>2017-10-29T17:35:40Z</time>
      </trkpt>
      <trkpt lat="51.293804962188005" lon="8.940419973805547">
        <ele>385.14999999999998</ele>
        <time>2017-10-29T17:35:41Z</time>
      </trkpt>
      <trkpt lat="51.293814014643431" lon="8.940676962956786">
        <ele>385.63</ele>
        <time>2017-10-29T17:35:42Z</time>
      </trkpt>
      <trkpt lat="51.293822983279824" lon="8.940958008170128">
        <ele>387.06999999999999</ele>
        <time>2017-10-29T17:35:43Z</time>
      </trkpt>
      <trkpt lat="51.29383203573525" lon="8.941226983442903">
        <ele>388.02999999999997</ele>
        <time>2017-10-29T17:35:44Z</time>
      </trkpt>
      <trkpt lat="51.293858019635081" lon="8.94147802144289">
        <ele>388.99000000000001</ele>
        <time>2017-10-29T17:35:45Z</time>
      </trkpt>
      <trkpt lat="51.293895989656448" lon="8.941703997552395">
        <ele>390.43000000000001</ele>
        <time>2017-10-29T17:35:46Z</time>
      </trkpt>
      <trkpt lat="51.29396497271955" lon="8.942119991406798">
        <ele>392.36000000000001</ele>
        <time>2017-10-29T17:35:48Z</time>
      </trkpt>
      <trkpt lat="51.293976958841085" lon="8.94235703162849">
        <ele>393.80000000000001</ele>
        <time>2017-10-29T17:35:49Z</time>
      </trkpt>
      <trkpt lat="51.29389800131321" lon="8.944002985954285">
        <ele>401.97000000000003</ele>
        <time>2017-10-29T17:35:56Z</time>
      </trkpt>
      <trkpt lat="51.293934965506196" lon="8.944199038669467">
        <ele>402.44999999999999</ele>
        <time>2017-10-29T17:35:57Z</time>
      </trkpt>
      <trkpt lat="51.293978970497847" lon="8.944389978423715">
        <ele>403.41000000000003</ele>
        <time>2017-10-29T17:35:58Z</time>
      </trkpt>
      <trkpt lat="51.294024987146258" lon="8.944588964805007">
        <ele>403.41000000000003</ele>
        <time>2017-10-29T17:35:59Z</time>
      </trkpt>
      <trkpt lat="51.294074021279812" lon="8.944801026955247">
        <ele>403.88999999999999</ele>
        <time>2017-10-29T17:36:00Z</time>
      </trkpt>
      <trkpt lat="51.294161025434732" lon="8.945011999458075">
        <ele>403.88999999999999</ele>
        <time>2017-10-29T17:36:01Z</time>
      </trkpt>
      <trkpt lat="51.294268984347582" lon="8.945211991667748">
        <ele>403.88999999999999</ele>
        <time>2017-10-29T17:36:02Z</time>
      </trkpt>
      <trkpt lat="51.295217983424664" lon="8.946601962670684">
        <ele>401.97000000000003</ele>
        <time>2017-10-29T17:36:09Z</time>
      </trkpt>
      <trkpt lat="51.295680999755859" lon="8.947546016424894">
        <ele>399.56999999999999</ele>
        <time>2017-10-29T17:36:15Z</time>
      </trkpt>
      <trkpt lat="51.295754006132483" lon="8.947863020002842">
        <ele>399.07999999999998</ele>
        <time>2017-10-29T17:36:16Z</time>
      </trkpt>
      <trkpt lat="51.295760041102767" lon="8.94800903275609">
        <ele>398.60000000000002</ele>
        <time>2017-10-29T17:36:17Z</time>
      </trkpt>
      <trkpt lat="51.295756017789245" lon="8.948200978338718">
        <ele>398.60000000000002</ele>
        <time>2017-10-29T17:36:18Z</time>
      </trkpt>
      <trkpt lat="51.295700026676059" lon="8.948341039940715">
        <ele>398.60000000000002</ele>
        <time>2017-10-29T17:36:19Z</time>
      </trkpt>
      <trkpt lat="51.295634983107448" lon="8.948507001623511">
        <ele>398.60000000000002</ele>
        <time>2017-10-29T17:36:20Z</time>
      </trkpt>
      <trkpt lat="51.295560970902443" lon="8.948694001883268">
        <ele>398.60000000000002</ele>
        <time>2017-10-29T17:36:21Z</time>
      </trkpt>
      <trkpt lat="51.295483019202948" lon="8.948889970779419">
        <ele>398.12</ele>
        <time>2017-10-29T17:36:22Z</time>
      </trkpt>
      <trkpt lat="51.295405989512801" lon="8.949086023494601">
        <ele>397.63999999999999</ele>
        <time>2017-10-29T17:36:23Z</time>
      </trkpt>
      <trkpt lat="51.295280009508133" lon="8.949432028457522">
        <ele>396.68000000000001</ele>
        <time>2017-10-29T17:36:25Z</time>
      </trkpt>
      <trkpt lat="51.295166015625" lon="8.949744002893567">
        <ele>394.27999999999997</ele>
        <time>2017-10-29T17:36:28Z</time>
      </trkpt>
      <trkpt lat="51.295144977048039" lon="8.950092019513249">
        <ele>393.31999999999999</ele>
        <time>2017-10-29T17:36:29Z</time>
      </trkpt>
      <trkpt lat="51.295147994533181" lon="8.950282037258148">
        <ele>392.36000000000001</ele>
        <time>2017-10-29T17:36:30Z</time>
      </trkpt>
      <trkpt lat="51.29520901478827" lon="8.950467025861144">
        <ele>391.38999999999999</ele>
        <time>2017-10-29T17:36:31Z</time>
      </trkpt>
      <trkpt lat="51.29527498036623" lon="8.950664000585675">
        <ele>389.94999999999999</ele>
        <time>2017-10-29T17:36:32Z</time>
      </trkpt>
      <trkpt lat="51.295342035591602" lon="8.950859969481826">
        <ele>388.99000000000001</ele>
        <time>2017-10-29T17:36:33Z</time>
      </trkpt>
      <trkpt lat="51.295447982847691" lon="8.951040012761951">
        <ele>388.02999999999997</ele>
        <time>2017-10-29T17:36:34Z</time>
      </trkpt>
      <trkpt lat="51.296364041045308" lon="8.952595023438335">
        <ele>378.89999999999998</ele>
        <time>2017-10-29T17:36:41Z</time>
      </trkpt>
      <trkpt lat="51.297247996553779" lon="8.953900001943111">
        <ele>368.80000000000001</ele>
        <time>2017-10-29T17:36:47Z</time>
      </trkpt>
      <trkpt lat="51.297374982386827" lon="8.954063029959798">
        <ele>367.36000000000001</ele>
        <time>2017-10-29T17:36:48Z</time>
      </trkpt>
      <trkpt lat="51.297498028725386" lon="8.95421901717782">
        <ele>365.44</ele>
        <time>2017-10-29T17:36:49Z</time>
      </trkpt>
      <trkpt lat="51.298105968162417" lon="8.9549919962883">
        <ele>357.26999999999998</ele>
        <time>2017-10-29T17:36:54Z</time>
      </trkpt>
      <trkpt lat="51.299081034958363" lon="8.956666029989719">
        <ele>343.32999999999998</ele>
        <time>2017-10-29T17:37:01Z</time>
      </trkpt>
      <trkpt lat="51.30051601678133" lon="8.958984967321158">
        <ele>328.91000000000003</ele>
        <time>2017-10-29T17:37:10Z</time>
      </trkpt>
      <trkpt lat="51.301485970616341" lon="8.960348032414913">
        <ele>324.57999999999998</ele>
        <time>2017-10-29T17:37:16Z</time>
      </trkpt>
      <trkpt lat="51.301595019176602" lon="8.960594041272998">
        <ele>324.10000000000002</ele>
        <time>2017-10-29T17:37:17Z</time>
      </trkpt>
      <trkpt lat="51.302293986082077" lon="8.96289998665452">
        <ele>320.74000000000001</ele>
        <time>2017-10-29T17:37:25Z</time>
      </trkpt>
      <trkpt lat="51.302872002124786" lon="8.964766971766949">
        <ele>318.32999999999998</ele>
        <time>2017-10-29T17:37:31Z</time>
      </trkpt>
      <trkpt lat="51.303334012627602" lon="8.96642298437655">
        <ele>316.41000000000003</ele>
        <time>2017-10-29T17:37:41Z</time>
      </trkpt>
      <trkpt lat="51.303393021225929" lon="8.96676798351109">
        <ele>316.41000000000003</ele>
        <time>2017-10-29T17:37:43Z</time>
      </trkpt>
      <trkpt lat="51.303423028439283" lon="8.966944003477693">
        <ele>317.37</ele>
        <time>2017-10-29T17:37:44Z</time>
      </trkpt>
      <trkpt lat="51.303453035652637" lon="8.967121029272676">
        <ele>318.32999999999998</ele>
        <time>2017-10-29T17:37:45Z</time>
      </trkpt>
      <trkpt lat="51.303515983745456" lon="8.967652022838593">
        <ele>319.77999999999997</ele>
        <time>2017-10-29T17:37:48Z</time>
      </trkpt>
      <trkpt lat="51.303612040355802" lon="8.968361970037222">
        <ele>319.77999999999997</ele>
        <time>2017-10-29T17:37:52Z</time>
      </trkpt>
      <trkpt lat="51.303641963750124" lon="8.968537990003824">
        <ele>319.77999999999997</ele>
        <time>2017-10-29T17:37:53Z</time>
      </trkpt>
      <trkpt lat="51.303679011762142" lon="8.968705041334033">
        <ele>319.77999999999997</ele>
        <time>2017-10-29T17:37:54Z</time>
      </trkpt>
      <trkpt lat="51.303735002875328" lon="8.968862034380436">
        <ele>319.77999999999997</ele>
        <time>2017-10-29T17:37:55Z</time>
      </trkpt>
      <trkpt lat="51.303790993988514" lon="8.969017015770078">
        <ele>320.25999999999999</ele>
        <time>2017-10-29T17:37:56Z</time>
      </trkpt>
      <trkpt lat="51.304417960345745" lon="8.970552999526262">
        <ele>319.30000000000001</ele>
        <time>2017-10-29T17:38:06Z</time>
      </trkpt>
      <trkpt lat="51.30446900613606" lon="8.970751985907555">
        <ele>319.30000000000001</ele>
        <time>2017-10-29T17:38:07Z</time>
      </trkpt>
      <trkpt lat="51.304650977253914" lon="8.972571026533842">
        <ele>316.88999999999999</ele>
        <time>2017-10-29T17:38:14Z</time>
      </trkpt>
      <trkpt lat="51.304524997249246" lon="8.974702963605523">
        <ele>314.97000000000003</ele>
        <time>2017-10-29T17:38:21Z</time>
      </trkpt>
      <trkpt lat="51.304042031988502" lon="8.977043023332954">
        <ele>313.05000000000001</ele>
        <time>2017-10-29T17:38:28Z</time>
      </trkpt>
      <trkpt lat="51.303565017879009" lon="8.980318000540137">
        <ele>309.68000000000001</ele>
        <time>2017-10-29T17:38:37Z</time>
      </trkpt>
      <trkpt lat="51.303384974598885" lon="8.984918994829059">
        <ele>308.72000000000003</ele>
        <time>2017-10-29T17:38:49Z</time>
      </trkpt>
      <trkpt lat="51.303329989314079" lon="8.987751994282007">
        <ele>308.72000000000003</ele>
        <time>2017-10-29T17:38:57Z</time>
      </trkpt>
      <trkpt lat="51.303356979042292" lon="8.988038990646601">
        <ele>308.72000000000003</ele>
        <time>2017-10-29T17:38:58Z</time>
      </trkpt>
      <trkpt lat="51.303766015917063" lon="8.990075960755348">
        <ele>304.38999999999999</ele>
        <time>2017-10-29T17:39:05Z</time>
      </trkpt>
      <trkpt lat="51.30429801531136" lon="8.992856992408633">
        <ele>294.77999999999997</ele>
        <time>2017-10-29T17:39:13Z</time>
      </trkpt>
      <trkpt lat="51.304339002817869" lon="8.993182964622974">
        <ele>289.97000000000003</ele>
        <time>2017-10-29T17:39:15Z</time>
      </trkpt>
      <trkpt lat="51.304402034729719" lon="8.995508020743728">
        <ele>277</ele>
        <time>2017-10-29T17:39:21Z</time>
      </trkpt>
      <trkpt lat="51.304438998922706" lon="8.995808009058237">
        <ele>275.56</ele>
        <time>2017-10-29T17:39:23Z</time>
      </trkpt>
      <trkpt lat="51.304493984207511" lon="8.996103974059224">
        <ele>274.58999999999997</ele>
        <time>2017-10-29T17:39:24Z</time>
      </trkpt>
      <trkpt lat="51.304586017504334" lon="8.996384013444185">
        <ele>274.11000000000001</ele>
        <time>2017-10-29T17:39:25Z</time>
      </trkpt>
      <trkpt lat="51.304822973906994" lon="8.996843006461859">
        <ele>273.63</ele>
        <time>2017-10-29T17:39:26Z</time>
      </trkpt>
      <trkpt lat="51.304955994710326" lon="8.997066970914602">
        <ele>273.14999999999998</ele>
        <time>2017-10-29T17:39:27Z</time>
      </trkpt>
      <trkpt lat="51.305941035971045" lon="8.99834998883307">
        <ele>271.23000000000002</ele>
        <time>2017-10-29T17:39:34Z</time>
      </trkpt>
      <trkpt lat="51.306067015975714" lon="8.998531959950924">
        <ele>270.75</ele>
        <time>2017-10-29T17:39:35Z</time>
      </trkpt>
      <trkpt lat="51.30616600625217" lon="8.998824991285801">
        <ele>270.26999999999998</ele>
        <time>2017-10-29T17:39:36Z</time>
      </trkpt>
      <trkpt lat="51.306261979043484" lon="8.999107964336872">
        <ele>269.79000000000002</ele>
        <time>2017-10-29T17:39:37Z</time>
      </trkpt>
      <trkpt lat="51.30636197514832" lon="8.99940300732851">
        <ele>269.79000000000002</ele>
        <time>2017-10-29T17:39:38Z</time>
      </trkpt>
      <trkpt lat="51.306885005906224" lon="9.001393038779497">
        <ele>267.86000000000001</ele>
        <time>2017-10-29T17:39:46Z</time>
      </trkpt>
      <trkpt lat="51.30706898868084" lon="9.003593036904931">
        <ele>267.86000000000001</ele>
        <time>2017-10-29T17:39:55Z</time>
      </trkpt>
      <trkpt lat="51.307180970907211" lon="9.005535962060094">
        <ele>267.86000000000001</ele>
        <time>2017-10-29T17:40:05Z</time>
      </trkpt>
      <trkpt lat="51.307161021977663" lon="9.006187990307808">
        <ele>267.86000000000001</ele>
        <time>2017-10-29T17:40:10Z</time>
      </trkpt>
      <trkpt lat="51.307161021977663" lon="9.006359986960888">
        <ele>267.38</ele>
        <time>2017-10-29T17:40:11Z</time>
      </trkpt>
      <trkpt lat="51.307295970618725" lon="9.007543008774519">
        <ele>264.98000000000002</ele>
        <time>2017-10-29T17:40:17Z</time>
      </trkpt>
      <trkpt lat="51.307302005589008" lon="9.007706958800554">
        <ele>264.98000000000002</ele>
        <time>2017-10-29T17:40:18Z</time>
      </trkpt>
      <trkpt lat="51.307302005589008" lon="9.007706958800554">
        <ele>264.5</ele>
        <time>2017-10-29T17:40:19Z</time>
      </trkpt>
      <trkpt lat="51.307293958961964" lon="9.008024968206883">
        <ele>264.01999999999998</ele>
        <time>2017-10-29T17:40:20Z</time>
      </trkpt>
      <trkpt lat="51.307255988940597" lon="9.008133010938764">
        <ele>264.01999999999998</ele>
        <time>2017-10-29T17:40:21Z</time>
      </trkpt>
      <trkpt lat="51.307223970070481" lon="9.008224960416555">
        <ele>263.54000000000002</ele>
        <time>2017-10-29T17:40:22Z</time>
      </trkpt>
      <trkpt lat="51.30719798617065" lon="9.00829897262156">
        <ele>263.06</ele>
        <time>2017-10-29T17:40:23Z</time>
      </trkpt>
      <trkpt lat="51.307168984785676" lon="9.008529977872968">
        <ele>262.10000000000002</ele>
        <time>2017-10-29T17:40:26Z</time>
      </trkpt>
      <trkpt lat="51.307217013090849" lon="9.00859703309834">
        <ele>262.10000000000002</ele>
        <time>2017-10-29T17:40:27Z</time>
      </trkpt>
      <trkpt lat="51.307277027517557" lon="9.008681019768119">
        <ele>262.10000000000002</ele>
        <time>2017-10-29T17:40:28Z</time>
      </trkpt>
      <trkpt lat="51.307277027517557" lon="9.008681019768119">
        <ele>261.62</ele>
        <time>2017-10-29T17:40:29Z</time>
      </trkpt>
      <trkpt lat="51.307342993095517" lon="9.008772969245911">
        <ele>261.13999999999999</ele>
        <time>2017-10-29T17:40:30Z</time>
      </trkpt>
      <trkpt lat="51.307710036635399" lon="9.009289965033531">
        <ele>260.17000000000002</ele>
        <time>2017-10-29T17:40:34Z</time>
      </trkpt>
      <trkpt lat="51.307710036635399" lon="9.009289965033531">
        <ele>260.64999999999998</ele>
        <time>2017-10-29T17:40:35Z</time>
      </trkpt>
      <trkpt lat="51.307786982506514" lon="9.009399013593793">
        <ele>260.64999999999998</ele>
        <time>2017-10-29T17:40:36Z</time>
      </trkpt>
      <trkpt lat="51.30788697861135" lon="9.009466990828514">
        <ele>260.64999999999998</ele>
        <time>2017-10-29T17:40:37Z</time>
      </trkpt>
      <trkpt lat="51.309117022901773" lon="9.009787011891604">
        <ele>264.01999999999998</ele>
        <time>2017-10-29T17:40:46Z</time>
      </trkpt>
      <trkpt lat="51.310411021113396" lon="9.009972000494599">
        <ele>263.54000000000002</ele>
        <time>2017-10-29T17:40:53Z</time>
      </trkpt>
      <trkpt lat="51.311705019325018" lon="9.009499009698629">
        <ele>260.64999999999998</ele>
        <time>2017-10-29T17:41:00Z</time>
      </trkpt>
      <trkpt lat="51.314164018258452" lon="9.007885996252298">
        <ele>256.81</ele>
        <time>2017-10-29T17:41:13Z</time>
      </trkpt>
      <trkpt lat="51.314814034849405" lon="9.007712993770838">
        <ele>256.32999999999998</ele>
        <time>2017-10-29T17:41:16Z</time>
      </trkpt>
      <trkpt lat="51.316586975008249" lon="9.008035026490688">
        <ele>253.93000000000001</ele>
        <time>2017-10-29T17:41:23Z</time>
      </trkpt>
      <trkpt lat="51.317892959341407" lon="9.008841030299664">
        <ele>250.56</ele>
        <time>2017-10-29T17:41:31Z</time>
      </trkpt>
      <trkpt lat="51.318716984242201" lon="9.009384009987116">
        <ele>249.12</ele>
        <time>2017-10-29T17:41:38Z</time>
      </trkpt>
      <trkpt lat="51.31998298689723" lon="9.009734960272908">
        <ele>248.63999999999999</ele>
        <time>2017-10-29T17:41:47Z</time>
      </trkpt>
      <trkpt lat="51.320202006027102" lon="9.009748036041856">
        <ele>247.68000000000001</ele>
        <time>2017-10-29T17:41:50Z</time>
      </trkpt>
      <trkpt lat="51.321412017568946" lon="9.009331958368421">
        <ele>247.19999999999999</ele>
        <time>2017-10-29T17:42:00Z</time>
      </trkpt>
      <trkpt lat="51.322492025792599" lon="9.008307019248605">
        <ele>244.31</ele>
        <time>2017-10-29T17:42:12Z</time>
      </trkpt>
      <trkpt lat="51.322683971375227" lon="9.008118007332087">
        <ele>244.31</ele>
        <time>2017-10-29T17:42:13Z</time>
      </trkpt>
      <trkpt lat="51.322786984965205" lon="9.008045000955463">
        <ele>243.83000000000001</ele>
        <time>2017-10-29T17:42:15Z</time>
      </trkpt>
      <trkpt lat="51.322892010211945" lon="9.007970988750458">
        <ele>243.83000000000001</ele>
        <time>2017-10-29T17:42:16Z</time>
      </trkpt>
      <trkpt lat="51.323981992900372" lon="9.007591959089041">
        <ele>243.83000000000001</ele>
        <time>2017-10-29T17:42:24Z</time>
      </trkpt>
      <trkpt lat="51.325500961393118" lon="9.007291970774531">
        <ele>242.38999999999999</ele>
        <time>2017-10-29T17:42:32Z</time>
      </trkpt>
      <trkpt lat="51.327180024236441" lon="9.007563963532448">
        <ele>240.47</ele>
        <time>2017-10-29T17:42:41Z</time>
      </trkpt>
      <trkpt lat="51.328799994662404" lon="9.008367033675313">
        <ele>239.02000000000001</ele>
        <time>2017-10-29T17:42:49Z</time>
      </trkpt>
      <trkpt lat="51.329711023718119" lon="9.009025013074279">
        <ele>239.02000000000001</ele>
        <time>2017-10-29T17:42:55Z</time>
      </trkpt>
      <trkpt lat="51.32984303869307" lon="9.009117968380451">
        <ele>239.02000000000001</ele>
        <time>2017-10-29T17:42:56Z</time>
      </trkpt>
      <trkpt lat="51.329979998990893" lon="9.009140012785792">
        <ele>239.50999999999999</ele>
        <time>2017-10-29T17:42:57Z</time>
      </trkpt>
      <trkpt lat="51.330116959288716" lon="9.009148981422186">
        <ele>239.50999999999999</ele>
        <time>2017-10-29T17:42:58Z</time>
      </trkpt>
      <trkpt lat="51.330246040597558" lon="9.009124003350735">
        <ele>239.50999999999999</ele>
        <time>2017-10-29T17:42:59Z</time>
      </trkpt>
      <trkpt lat="51.330375960096717" lon="9.009058959782124">
        <ele>239.50999999999999</ele>
        <time>2017-10-29T17:43:00Z</time>
      </trkpt>
      <trkpt lat="51.330506969243288" lon="9.008992994204164">
        <ele>239.50999999999999</ele>
        <time>2017-10-29T17:43:01Z</time>
      </trkpt>
      <trkpt lat="51.330658011138439" lon="9.008917976170778">
        <ele>239.50999999999999</ele>
        <time>2017-10-29T17:43:02Z</time>
      </trkpt>
      <trkpt lat="51.330777034163475" lon="9.00879099033773">
        <ele>239.50999999999999</ele>
        <time>2017-10-29T17:43:03Z</time>
      </trkpt>
      <trkpt lat="51.331801973283291" lon="9.007700001820922">
        <ele>238.06</ele>
        <time>2017-10-29T17:43:10Z</time>
      </trkpt>
      <trkpt lat="51.334276981651783" lon="9.005064982920885">
        <ele>235.18000000000001</ele>
        <time>2017-10-29T17:43:22Z</time>
      </trkpt>
      <trkpt lat="51.335441982373595" lon="9.003780959174037">
        <ele>236.13999999999999</ele>
        <time>2017-10-29T17:43:28Z</time>
      </trkpt>
      <trkpt lat="51.3356679584831" lon="9.003511983901262">
        <ele>236.13999999999999</ele>
        <time>2017-10-29T17:43:30Z</time>
      </trkpt>
      <trkpt lat="51.335821012035012" lon="9.00320403277874">
        <ele>237.09999999999999</ele>
        <time>2017-10-29T17:43:32Z</time>
      </trkpt>
      <trkpt lat="51.335896030068398" lon="9.003053996711969">
        <ele>237.58000000000001</ele>
        <time>2017-10-29T17:43:33Z</time>
      </trkpt>
      <trkpt lat="51.335955038666725" lon="9.002882000058889">
        <ele>237.58000000000001</ele>
        <time>2017-10-29T17:43:34Z</time>
      </trkpt>
      <trkpt lat="51.335994014516473" lon="9.002683013677597">
        <ele>237.58000000000001</ele>
        <time>2017-10-29T17:43:35Z</time>
      </trkpt>
      <trkpt lat="51.335985967889428" lon="9.002472963184118">
        <ele>238.06</ele>
        <time>2017-10-29T17:43:37Z</time>
      </trkpt>
      <trkpt lat="51.335941040888429" lon="9.002043977379799">
        <ele>238.06</ele>
        <time>2017-10-29T17:43:38Z</time>
      </trkpt>
      <trkpt lat="51.335888989269733" lon="9.001818001270294">
        <ele>237.58000000000001</ele>
        <time>2017-10-29T17:43:39Z</time>
      </trkpt>
      <trkpt lat="51.335834003984928" lon="9.001580961048603">
        <ele>237.58000000000001</ele>
        <time>2017-10-29T17:43:40Z</time>
      </trkpt>
      <trkpt lat="51.335739959031343" lon="9.001373006030917">
        <ele>237.09999999999999</ele>
        <time>2017-10-29T17:43:41Z</time>
      </trkpt>
      <trkpt lat="51.335630994290113" lon="9.001146024093032">
        <ele>237.58000000000001</ele>
        <time>2017-10-29T17:43:42Z</time>
      </trkpt>
      <trkpt lat="51.334371026605368" lon="8.998577976599336">
        <ele>237.58000000000001</ele>
        <time>2017-10-29T17:43:52Z</time>
      </trkpt>
      <trkpt lat="51.333547001704574" lon="8.996253004297614">
        <ele>238.06</ele>
        <time>2017-10-29T17:44:00Z</time>
      </trkpt>
      <trkpt lat="51.33330199867487" lon="8.994248975068331">
        <ele>237.58000000000001</ele>
        <time>2017-10-29T17:44:07Z</time>
      </trkpt>
      <trkpt lat="51.333309961482882" lon="8.993972958996892">
        <ele>237.58000000000001</ele>
        <time>2017-10-29T17:44:08Z</time>
      </trkpt>
      <trkpt lat="51.333348015323281" lon="8.993694009259343">
        <ele>238.06</ele>
        <time>2017-10-29T17:44:09Z</time>
      </trkpt>
      <trkpt lat="51.333596035838127" lon="8.99224896915257">
        <ele>238.06</ele>
        <time>2017-10-29T17:44:15Z</time>
      </trkpt>
      <trkpt lat="51.333662001416087" lon="8.992051994428039">
        <ele>238.06</ele>
        <time>2017-10-29T17:44:16Z</time>
      </trkpt>
      <trkpt lat="51.333730984479189" lon="8.991983011364937">
        <ele>238.06</ele>
        <time>2017-10-29T17:44:17Z</time>
      </trkpt>
      <trkpt lat="51.333853024989367" lon="8.991916961967945">
        <ele>237.58000000000001</ele>
        <time>2017-10-29T17:44:18Z</time>
      </trkpt>
      <trkpt lat="51.333995014429092" lon="8.991872034966946">
        <ele>237.58000000000001</ele>
        <time>2017-10-29T17:44:19Z</time>
      </trkpt>
      <trkpt lat="51.334157036617398" lon="8.991830041632056">
        <ele>237.58000000000001</ele>
        <time>2017-10-29T17:44:20Z</time>
      </trkpt>
      <trkpt lat="51.335441982373595" lon="8.991488981992006">
        <ele>239.50999999999999</ele>
        <time>2017-10-29T17:44:26Z</time>
      </trkpt>
      <trkpt lat="51.336707985028625" lon="8.99119502864778">
        <ele>243.34999999999999</ele>
        <time>2017-10-29T17:44:32Z</time>
      </trkpt>
      <trkpt lat="51.33689297363162" lon="8.991168038919568">
        <ele>243.83000000000001</ele>
        <time>2017-10-29T17:44:33Z</time>
      </trkpt>
      <trkpt lat="51.337088020518422" lon="8.991171978414059">
        <ele>244.31</ele>
        <time>2017-10-29T17:44:34Z</time>
      </trkpt>
      <trkpt lat="51.338228965178132" lon="8.991262000054121">
        <ele>249.12</ele>
        <time>2017-10-29T17:44:40Z</time>
      </trkpt>
      <trkpt lat="51.338592991232872" lon="8.991116993129253">
        <ele>251.03999999999999</ele>
        <time>2017-10-29T17:44:42Z</time>
      </trkpt>
      <trkpt lat="51.338774962350726" lon="8.99102202616632">
        <ele>252.47999999999999</ele>
        <time>2017-10-29T17:44:43Z</time>
      </trkpt>
      <trkpt lat="51.339449035003781" lon="8.990518022328615">
        <ele>257.29000000000002</ele>
        <time>2017-10-29T17:44:47Z</time>
      </trkpt>
      <trkpt lat="51.339603010565042" lon="8.990457002073526">
        <ele>258.73000000000002</ele>
        <time>2017-10-29T17:44:48Z</time>
      </trkpt>
      <trkpt lat="51.339760003611445" lon="8.990447027608752">
        <ele>259.69</ele>
        <time>2017-10-29T17:44:49Z</time>
      </trkpt>
      <trkpt lat="51.339910039678216" lon="8.990503018721938">
        <ele>261.13999999999999</ele>
        <time>2017-10-29T17:44:50Z</time>
      </trkpt>
      <trkpt lat="51.34004800580442" lon="8.990561021491885">
        <ele>263.06</ele>
        <time>2017-10-29T17:44:52Z</time>
      </trkpt>
      <trkpt lat="51.340308012440801" lon="8.990800995379686">
        <ele>264.98000000000002</ele>
        <time>2017-10-29T17:44:54Z</time>
      </trkpt>
      <trkpt lat="51.340741021558642" lon="8.991378005594015">
        <ele>268.82999999999998</ele>
        <time>2017-10-29T17:44:58Z</time>
      </trkpt>
      <trkpt lat="51.3409089948982" lon="8.991419998928905">
        <ele>269.79000000000002</ele>
        <time>2017-10-29T17:44:59Z</time>
      </trkpt>
      <trkpt lat="51.340988958254457" lon="8.991427039727569">
        <ele>271.23000000000002</ele>
        <time>2017-10-29T17:45:00Z</time>
      </trkpt>
      <trkpt lat="51.341061964631081" lon="8.991383034735918">
        <ele>271.70999999999998</ele>
        <time>2017-10-29T17:45:01Z</time>
      </trkpt>
      <trkpt lat="51.341130025684834" lon="8.99130298756063">
        <ele>272.19</ele>
        <time>2017-10-29T17:45:02Z</time>
      </trkpt>
      <trkpt lat="51.341193979606032" lon="8.991228975355625">
        <ele>272.67000000000002</ele>
        <time>2017-10-29T17:45:03Z</time>
      </trkpt>
      <trkpt lat="51.341256005689502" lon="8.991156974807382">
        <ele>273.14999999999998</ele>
        <time>2017-10-29T17:45:04Z</time>
      </trkpt>
      <trkpt lat="51.341289030387998" lon="8.991081034764648">
        <ele>274.11000000000001</ele>
        <time>2017-10-29T17:45:05Z</time>
      </trkpt>
      <trkpt lat="51.341311996802688" lon="8.990965029224753">
        <ele>274.11000000000001</ele>
        <time>2017-10-29T17:45:06Z</time>
      </trkpt>
      <trkpt lat="51.341331023722887" lon="8.990871990099549">
        <ele>274.11000000000001</ele>
        <time>2017-10-29T17:45:08Z</time>
      </trkpt>
      <trkpt lat="51.341465972363949" lon="8.990708040073514">
        <ele>273.63</ele>
        <time>2017-10-29T17:45:10Z</time>
      </trkpt>
      <trkpt lat="51.342079024761915" lon="8.990704016759992">
        <ele>274.58999999999997</ele>
        <time>2017-10-29T17:45:16Z</time>
      </trkpt>
      <trkpt lat="51.34325198829174" lon="8.990165982395411">
        <ele>275.56</ele>
        <time>2017-10-29T17:45:22Z</time>
      </trkpt>
      <trkpt lat="51.344852009788156" lon="8.988815993070602">
        <ele>278.92000000000002</ele>
        <time>2017-10-29T17:45:30Z</time>
      </trkpt>
      <trkpt lat="51.346928039565682" lon="8.987431973218918">
        <ele>282.76999999999998</ele>
        <time>2017-10-29T17:45:39Z</time>
      </trkpt>
      <trkpt lat="51.34862101636827" lon="8.98726399987936">
        <ele>284.20999999999998</ele>
        <time>2017-10-29T17:45:46Z</time>
      </trkpt>
      <trkpt lat="51.351061994209886" lon="8.987941006198525">
        <ele>286.13</ele>
        <time>2017-10-29T17:45:56Z</time>
      </trkpt>
      <trkpt lat="51.353544965386391" lon="8.989134002476931">
        <ele>290.94</ele>
        <time>2017-10-29T17:46:06Z</time>
      </trkpt>
      <trkpt lat="51.355877984315157" lon="8.990722037851811">
        <ele>296.69999999999999</ele>
        <time>2017-10-29T17:46:16Z</time>
      </trkpt>
      <trkpt lat="51.358002964407206" lon="8.992620036005974">
        <ele>299.58999999999997</ele>
        <time>2017-10-29T17:46:26Z</time>
      </trkpt>
      <trkpt lat="51.360271023586392" lon="8.99454602971673">
        <ele>300.55000000000001</ele>
        <time>2017-10-29T17:46:36Z</time>
      </trkpt>
      <trkpt lat="51.362227024510503" lon="8.995592007413507">
        <ele>300.06999999999999</ele>
        <time>2017-10-29T17:46:44Z</time>
      </trkpt>
      <trkpt lat="51.3644789904356" lon="8.996238000690937">
        <ele>296.22000000000003</ele>
        <time>2017-10-29T17:46:53Z</time>
      </trkpt>
      <trkpt lat="51.366794994100928" lon="8.996816016733646">
        <ele>290.45999999999998</ele>
        <time>2017-10-29T17:47:03Z</time>
      </trkpt>
      <trkpt lat="51.368164010345936" lon="8.996922969818115">
        <ele>289.49000000000001</ele>
        <time>2017-10-29T17:47:10Z</time>
      </trkpt>
      <trkpt lat="51.368357967585325" lon="8.996879970654845">
        <ele>289.49000000000001</ele>
        <time>2017-10-29T17:47:11Z</time>
      </trkpt>
      <trkpt lat="51.369838966056705" lon="8.996457019820809">
        <ele>290.45999999999998</ele>
        <time>2017-10-29T17:47:19Z</time>
      </trkpt>
      <trkpt lat="51.371074039489031" lon="8.996317964047194">
        <ele>291.42000000000002</ele>
        <time>2017-10-29T17:47:26Z</time>
      </trkpt>
      <trkpt lat="51.37285896576941" lon="8.996821967884898">
        <ele>290.45999999999998</ele>
        <time>2017-10-29T17:47:34Z</time>
      </trkpt>
      <trkpt lat="51.374224964529276" lon="8.996605966240168">
        <ele>288.52999999999997</ele>
        <time>2017-10-29T17:47:41Z</time>
      </trkpt>
      <trkpt lat="51.375753991305828" lon="8.995636012405157">
        <ele>286.13</ele>
        <time>2017-10-29T17:47:49Z</time>
      </trkpt>
      <trkpt lat="51.377127030864358" lon="8.995129996910691">
        <ele>289.49000000000001</ele>
        <time>2017-10-29T17:47:55Z</time>
      </trkpt>
      <trkpt lat="51.378654967993498" lon="8.994465982541442">
        <ele>294.30000000000001</ele>
        <time>2017-10-29T17:48:02Z</time>
      </trkpt>
      <trkpt lat="51.380257001146674" lon="8.99441602639854">
        <ele>296.22000000000003</ele>
        <time>2017-10-29T17:48:09Z</time>
      </trkpt>
      <trkpt lat="51.382240997627378" lon="8.994626998901367">
        <ele>294.30000000000001</ele>
        <time>2017-10-29T17:48:18Z</time>
      </trkpt>
      <trkpt lat="51.38291398063302" lon="8.994461037218571">
        <ele>291.89999999999998</ele>
        <time>2017-10-29T17:48:21Z</time>
      </trkpt>
      <trkpt lat="51.384699996560812" lon="8.993728961795569">
        <ele>291.89999999999998</ele>
        <time>2017-10-29T17:48:29Z</time>
      </trkpt>
      <trkpt lat="51.385150020942092" lon="8.993690991774201">
        <ele>291.89999999999998</ele>
        <time>2017-10-29T17:48:31Z</time>
      </trkpt>
      <trkpt lat="51.385374991223216" lon="8.993743965402246">
        <ele>291.89999999999998</ele>
        <time>2017-10-29T17:48:32Z</time>
      </trkpt>
      <trkpt lat="51.38559602200985" lon="8.993796017020941">
        <ele>291.42000000000002</ele>
        <time>2017-10-29T17:48:33Z</time>
      </trkpt>
      <trkpt lat="51.385815041139722" lon="8.993847984820604">
        <ele>291.42000000000002</ele>
        <time>2017-10-29T17:48:34Z</time>
      </trkpt>
      <trkpt lat="51.386025007814169" lon="8.993933983147144">
        <ele>290.94</ele>
        <time>2017-10-29T17:48:35Z</time>
      </trkpt>
      <trkpt lat="51.387206017971039" lon="8.994960011914372">
        <ele>288.52999999999997</ele>
        <time>2017-10-29T17:48:41Z</time>
      </trkpt>
      <trkpt lat="51.388056026771665" lon="8.996761031448841">
        <ele>287.08999999999997</ele>
        <time>2017-10-29T17:48:47Z</time>
      </trkpt>
      <trkpt lat="51.389010976999998" lon="8.999277027323842">
        <ele>285.64999999999998</ele>
        <time>2017-10-29T17:48:54Z</time>
      </trkpt>
      <trkpt lat="51.389577006921172" lon="9.000156037509441">
        <ele>285.64999999999998</ele>
        <time>2017-10-29T17:48:58Z</time>
      </trkpt>
      <trkpt lat="51.391427982598543" lon="9.002202982082963">
        <ele>291.42000000000002</ele>
        <time>2017-10-29T17:49:06Z</time>
      </trkpt>
      <trkpt lat="51.392168020829558" lon="9.003283996134996">
        <ele>294.30000000000001</ele>
        <time>2017-10-29T17:49:11Z</time>
      </trkpt>
      <trkpt lat="51.393567966297269" lon="9.00625797919929">
        <ele>294.30000000000001</ele>
        <time>2017-10-29T17:49:19Z</time>
      </trkpt>
      <trkpt lat="51.393732000142336" lon="9.00657800026238">
        <ele>293.33999999999997</ele>
        <time>2017-10-29T17:49:21Z</time>
      </trkpt>
      <trkpt lat="51.395294973626733" lon="9.008540036156774">
        <ele>290.45999999999998</ele>
        <time>2017-10-29T17:49:28Z</time>
      </trkpt>
      <trkpt lat="51.398240961134434" lon="9.011264992877841">
        <ele>293.33999999999997</ele>
        <time>2017-10-29T17:49:41Z</time>
      </trkpt>
      <trkpt lat="51.401054011657834" lon="9.013902023434639">
        <ele>298.14999999999998</ele>
        <time>2017-10-29T17:49:53Z</time>
      </trkpt>
      <trkpt lat="51.403804030269384" lon="9.016452971845865">
        <ele>290.94</ele>
        <time>2017-10-29T17:50:04Z</time>
      </trkpt>
      <trkpt lat="51.405440010130405" lon="9.017586959525943">
        <ele>284.20999999999998</ele>
        <time>2017-10-29T17:50:11Z</time>
      </trkpt>
      <trkpt lat="51.406951015815139" lon="9.017963977530599">
        <ele>281.80000000000001</ele>
        <time>2017-10-29T17:50:17Z</time>
      </trkpt>
      <trkpt lat="51.408770978450775" lon="9.017594000324607">
        <ele>278.92000000000002</ele>
        <time>2017-10-29T17:50:24Z</time>
      </trkpt>
      <trkpt lat="51.410582978278399" lon="9.017428960651159">
        <ele>274.58999999999997</ele>
        <time>2017-10-29T17:50:31Z</time>
      </trkpt>
      <trkpt lat="51.412635035812855" lon="9.017961965873838">
        <ele>269.31</ele>
        <time>2017-10-29T17:50:39Z</time>
      </trkpt>
      <trkpt lat="51.415064027532935" lon="9.018526989966631">
        <ele>261.62</ele>
        <time>2017-10-29T17:50:48Z</time>
      </trkpt>
      <trkpt lat="51.417668033391237" lon="9.018808035179973">
        <ele>261.62</ele>
        <time>2017-10-29T17:50:58Z</time>
      </trkpt>
      <trkpt lat="51.419034032151103" lon="9.01884600520134">
        <ele>263.54000000000002</ele>
        <time>2017-10-29T17:51:04Z</time>
      </trkpt>
      <trkpt lat="51.419980013743043" lon="9.018655987456441">
        <ele>264.5</ele>
        <time>2017-10-29T17:51:09Z</time>
      </trkpt>
      <trkpt lat="51.42100503668189" lon="9.017973029986024">
        <ele>264.5</ele>
        <time>2017-10-29T17:51:14Z</time>
      </trkpt>
      <trkpt lat="51.422397019341588" lon="9.016565037891269">
        <ele>260.64999999999998</ele>
        <time>2017-10-29T17:51:21Z</time>
      </trkpt>
      <trkpt lat="51.423058016225696" lon="9.016023986041546">
        <ele>257.76999999999998</ele>
        <time>2017-10-29T17:51:24Z</time>
      </trkpt>
      <trkpt lat="51.42448796890676" lon="9.015478994697332">
        <ele>250.08000000000001</ele>
        <time>2017-10-29T17:51:30Z</time>
      </trkpt>
      <trkpt lat="51.425458006560802" lon="9.015573039650917">
        <ele>245.75</ele>
        <time>2017-10-29T17:51:34Z</time>
      </trkpt>
      <trkpt lat="51.425702003762126" lon="9.015660965815187">
        <ele>244.78999999999999</ele>
        <time>2017-10-29T17:51:35Z</time>
      </trkpt>
      <trkpt lat="51.426191003993154" lon="9.015844026580453">
        <ele>243.83000000000001</ele>
        <time>2017-10-29T17:51:37Z</time>
      </trkpt>
      <trkpt lat="51.426424020901322" lon="9.015999007970095">
        <ele>243.83000000000001</ele>
        <time>2017-10-29T17:51:38Z</time>
      </trkpt>
      <trkpt lat="51.42794600687921" lon="9.017529962584376">
        <ele>243.83000000000001</ele>
        <time>2017-10-29T17:51:44Z</time>
      </trkpt>
      <trkpt lat="51.430133013054729" lon="9.020374026149511">
        <ele>243.83000000000001</ele>
        <time>2017-10-29T17:51:55Z</time>
      </trkpt>
      <trkpt lat="51.430591000244021" lon="9.020770993083715">
        <ele>243.83000000000001</ele>
        <time>2017-10-29T17:51:58Z</time>
      </trkpt>
      <trkpt lat="51.432684967294335" lon="9.021849995478988">
        <ele>247.19999999999999</ele>
        <time>2017-10-29T17:52:06Z</time>
      </trkpt>
      <trkpt lat="51.434346009045839" lon="9.021881008520722">
        <ele>248.16</ele>
        <time>2017-10-29T17:52:13Z</time>
      </trkpt>
      <trkpt lat="51.436734013259411" lon="9.021173994988203">
        <ele>246.72</ele>
        <time>2017-10-29T17:52:24Z</time>
      </trkpt>
      <trkpt lat="51.440397994592786" lon="9.01985501870513">
        <ele>249.59999999999999</ele>
        <time>2017-10-29T17:52:38Z</time>
      </trkpt>
      <trkpt lat="51.443179026246071" lon="9.018354993313551">
        <ele>256.32999999999998</ele>
        <time>2017-10-29T17:52:50Z</time>
      </trkpt>
      <trkpt lat="51.446591969579458" lon="9.016206962987781">
        <ele>266.89999999999998</ele>
        <time>2017-10-29T17:53:03Z</time>
      </trkpt>
      <trkpt lat="51.447837017476559" lon="9.015383021906018">
        <ele>265.45999999999998</ele>
        <time>2017-10-29T17:53:10Z</time>
      </trkpt>
      <trkpt lat="51.449739038944244" lon="9.01435699313879">
        <ele>266.42000000000002</ele>
        <time>2017-10-29T17:53:20Z</time>
      </trkpt>
      <trkpt lat="51.45123403519392" lon="9.013760033994913">
        <ele>266.89999999999998</ele>
        <time>2017-10-29T17:53:27Z</time>
      </trkpt>
      <trkpt lat="51.451485995203257" lon="9.013660959899426">
        <ele>267.38</ele>
        <time>2017-10-29T17:53:28Z</time>
      </trkpt>
      <trkpt lat="51.454137023538351" lon="9.012606013566256">
        <ele>275.56</ele>
        <time>2017-10-29T17:53:38Z</time>
      </trkpt>
      <trkpt lat="51.454592999070883" lon="9.012265959754586">
        <ele>278.44</ele>
        <time>2017-10-29T17:53:41Z</time>
      </trkpt>
      <trkpt lat="51.454801959916949" lon="9.012019028887153">
        <ele>279.88</ele>
        <time>2017-10-29T17:53:42Z</time>
      </trkpt>
      <trkpt lat="51.456224033609033" lon="9.010344995185733">
        <ele>286.61000000000001</ele>
        <time>2017-10-29T17:53:48Z</time>
      </trkpt>
      <trkpt lat="51.456439029425383" lon="9.010190013796091">
        <ele>287.56999999999999</ele>
        <time>2017-10-29T17:53:49Z</time>
      </trkpt>
      <trkpt lat="51.456661988049746" lon="9.010032014921308">
        <ele>288.52999999999997</ele>
        <time>2017-10-29T17:53:50Z</time>
      </trkpt>
      <trkpt lat="51.456897016614676" lon="9.009962026029825">
        <ele>289.49000000000001</ele>
        <time>2017-10-29T17:53:51Z</time>
      </trkpt>
      <trkpt lat="51.457117041572928" lon="9.009902011603117">
        <ele>290.45999999999998</ele>
        <time>2017-10-29T17:53:52Z</time>
      </trkpt>
      <trkpt lat="51.457333965227008" lon="9.009881978854537">
        <ele>291.42000000000002</ele>
        <time>2017-10-29T17:53:53Z</time>
      </trkpt>
      <trkpt lat="51.457558013498783" lon="9.009862029924989">
        <ele>292.38</ele>
        <time>2017-10-29T17:53:54Z</time>
      </trkpt>
      <trkpt lat="51.457760017365217" lon="9.009905029088259">
        <ele>293.81999999999999</ele>
        <time>2017-10-29T17:53:55Z</time>
      </trkpt>
      <trkpt lat="51.457978030666709" lon="9.009951967746019">
        <ele>294.77999999999997</ele>
        <time>2017-10-29T17:53:56Z</time>
      </trkpt>
      <trkpt lat="51.458205012604594" lon="9.010018017143011">
        <ele>295.74000000000001</ele>
        <time>2017-10-29T17:53:57Z</time>
      </trkpt>
      <trkpt lat="51.458428977057338" lon="9.010152965784073">
        <ele>297.18000000000001</ele>
        <time>2017-10-29T17:53:58Z</time>
      </trkpt>
      <trkpt lat="51.458655958995223" lon="9.010301996022463">
        <ele>299.11000000000001</ele>
        <time>2017-10-29T17:53:59Z</time>
      </trkpt>
      <trkpt lat="51.458882018923759" lon="9.010482961311936">
        <ele>300.55000000000001</ele>
        <time>2017-10-29T17:54:00Z</time>
      </trkpt>
      <trkpt lat="51.459106989204884" lon="9.010684965178371">
        <ele>302.94999999999999</ele>
        <time>2017-10-29T17:54:02Z</time>
      </trkpt>
      <trkpt lat="51.459331037476659" lon="9.01091898791492">
        <ele>304.38999999999999</ele>
        <time>2017-10-29T17:54:03Z</time>
      </trkpt>
      <trkpt lat="51.460675997659564" lon="9.012191025540233">
        <ele>311.12</ele>
        <time>2017-10-29T17:54:09Z</time>
      </trkpt>
      <trkpt lat="51.461899001151323" lon="9.012897033244371">
        <ele>313.05000000000001</ele>
        <time>2017-10-29T17:54:14Z</time>
      </trkpt>
      <trkpt lat="51.463370025157928" lon="9.014317011460662">
        <ele>307.27999999999997</ele>
        <time>2017-10-29T17:54:21Z</time>
      </trkpt>
      <trkpt lat="51.463559037074447" lon="9.014580035582185">
        <ele>305.83999999999997</ele>
        <time>2017-10-29T17:54:22Z</time>
      </trkpt>
      <trkpt lat="51.464087013155222" lon="9.015498021617532">
        <ele>302.47000000000003</ele>
        <time>2017-10-29T17:54:25Z</time>
      </trkpt>
      <trkpt lat="51.465314961969852" lon="9.018705021589994">
        <ele>293.81999999999999</ele>
        <time>2017-10-29T17:54:33Z</time>
      </trkpt>
      <trkpt lat="51.466273013502359" lon="9.020713996142149">
        <ele>287.08999999999997</ele>
        <time>2017-10-29T17:54:40Z</time>
      </trkpt>
      <trkpt lat="51.46752200089395" lon="9.022453995421529">
        <ele>280.83999999999997</ele>
        <time>2017-10-29T17:54:47Z</time>
      </trkpt>
      <trkpt lat="51.469095032662153" lon="9.023764003068209">
        <ele>275.06999999999999</ele>
        <time>2017-10-29T17:54:54Z</time>
      </trkpt>
      <trkpt lat="51.47084902971983" lon="9.02443396858871">
        <ele>268.82999999999998</ele>
        <time>2017-10-29T17:55:01Z</time>
      </trkpt>
      <trkpt lat="51.472677038982511" lon="9.024422988295555">
        <ele>262.57999999999998</ele>
        <time>2017-10-29T17:55:08Z</time>
      </trkpt>
      <trkpt lat="51.474627004936337" lon="9.023575996980071">
        <ele>258.25</ele>
        <time>2017-10-29T17:55:16Z</time>
      </trkpt>
      <trkpt lat="51.476076990365982" lon="9.022254003211856">
        <ele>258.73000000000002</ele>
        <time>2017-10-29T17:55:23Z</time>
      </trkpt>
      <trkpt lat="51.477384986355901" lon="9.02030797675252">
        <ele>260.17000000000002</ele>
        <time>2017-10-29T17:55:31Z</time>
      </trkpt>
      <trkpt lat="51.479247026145458" lon="9.017454022541642">
        <ele>260.64999999999998</ele>
        <time>2017-10-29T17:55:40Z</time>
      </trkpt>
      <trkpt lat="51.480740010738373" lon="9.016059022396803">
        <ele>254.88999999999999</ele>
        <time>2017-10-29T17:55:47Z</time>
      </trkpt>
      <trkpt lat="51.481901993975043" lon="9.014922017231584">
        <ele>249.12</ele>
        <time>2017-10-29T17:55:54Z</time>
      </trkpt>
      <trkpt lat="51.482964986935258" lon="9.012904996052384">
        <ele>248.63999999999999</ele>
        <time>2017-10-29T17:56:00Z</time>
      </trkpt>
      <trkpt lat="51.483635036274791" lon="9.011253006756306">
        <ele>251.52000000000001</ele>
        <time>2017-10-29T17:56:06Z</time>
      </trkpt>
      <trkpt lat="51.484441040083766" lon="9.009908968582749">
        <ele>252.47999999999999</ele>
        <time>2017-10-29T17:56:13Z</time>
      </trkpt>
      <trkpt lat="51.484880000352859" lon="9.009448969736695">
        <ele>252.47999999999999</ele>
        <time>2017-10-29T17:56:16Z</time>
      </trkpt>
      <trkpt lat="51.485040010884404" lon="9.009304968640208">
        <ele>252.47999999999999</ele>
        <time>2017-10-29T17:56:17Z</time>
      </trkpt>
      <trkpt lat="51.485212007537484" lon="9.009192986413837">
        <ele>252</ele>
        <time>2017-10-29T17:56:18Z</time>
      </trkpt>
      <trkpt lat="51.486487984657288" lon="9.00872795842588">
        <ele>249.12</ele>
        <time>2017-10-29T17:56:25Z</time>
      </trkpt>
      <trkpt lat="51.48760998621583" lon="9.008960975334048">
        <ele>242.87</ele>
        <time>2017-10-29T17:56:32Z</time>
      </trkpt>
      <trkpt lat="51.488667028024793" lon="9.009749963879585">
        <ele>236.62</ele>
        <time>2017-10-29T17:56:38Z</time>
      </trkpt>
      <trkpt lat="51.490068985149264" lon="9.011558024212718">
        <ele>230.37</ele>
        <time>2017-10-29T17:56:48Z</time>
      </trkpt>
      <trkpt lat="51.490839030593634" lon="9.012629985809326">
        <ele>227.49000000000001</ele>
        <time>2017-10-29T17:56:52Z</time>
      </trkpt>
      <trkpt lat="51.490955036133528" lon="9.012770969420672">
        <ele>227.00999999999999</ele>
        <time>2017-10-29T17:56:53Z</time>
      </trkpt>
      <trkpt lat="51.49248699657619" lon="9.014546005055308">
        <ele>220.75999999999999</ele>
        <time>2017-10-29T17:57:02Z</time>
      </trkpt>
      <trkpt lat="51.494490019977093" lon="9.016206962987781">
        <ele>220.75999999999999</ele>
        <time>2017-10-29T17:57:12Z</time>
      </trkpt>
      <trkpt lat="51.4970419742167" lon="9.017601041123271">
        <ele>227.49000000000001</ele>
        <time>2017-10-29T17:57:23Z</time>
      </trkpt>
      <trkpt lat="51.499467026442289" lon="9.018104961141944">
        <ele>235.18000000000001</ele>
        <time>2017-10-29T17:57:32Z</time>
      </trkpt>
      <trkpt lat="51.501923007890582" lon="9.017874961718917">
        <ele>241.43000000000001</ele>
        <time>2017-10-29T17:57:42Z</time>
      </trkpt>
      <trkpt lat="51.503921002149582" lon="9.017082033678889">
        <ele>240.47</ele>
        <time>2017-10-29T17:57:50Z</time>
      </trkpt>
      <trkpt lat="51.506110019981861" lon="9.015588965266943">
        <ele>229.41</ele>
        <time>2017-10-29T17:57:58Z</time>
      </trkpt>
      <trkpt lat="51.508973026648164" lon="9.013285031542182">
        <ele>214.99000000000001</ele>
        <time>2017-10-29T17:58:09Z</time>
      </trkpt>
      <trkpt lat="51.510935984551907" lon="9.012132016941905">
        <ele>209.22</ele>
        <time>2017-10-29T17:58:17Z</time>
      </trkpt>
      <trkpt lat="51.513040009886026" lon="9.01173597201705">
        <ele>204.90000000000001</ele>
        <time>2017-10-29T17:58:25Z</time>
      </trkpt>
      <trkpt lat="51.515161972492933" lon="9.012093041092157">
        <ele>203.46000000000001</ele>
        <time>2017-10-29T17:58:33Z</time>
      </trkpt>
      <trkpt lat="51.517489962279797" lon="9.012578018009663">
        <ele>207.78</ele>
        <time>2017-10-29T17:58:42Z</time>
      </trkpt>
      <trkpt lat="51.519339010119438" lon="9.012323962524533">
        <ele>209.22</ele>
        <time>2017-10-29T17:58:49Z</time>
      </trkpt>
      <trkpt lat="51.521834973245859" lon="9.011974018067122">
        <ele>213.55000000000001</ele>
        <time>2017-10-29T17:59:00Z</time>
      </trkpt>
      <trkpt lat="51.523604979738593" lon="9.012528983876109">
        <ele>218.36000000000001</ele>
        <time>2017-10-29T17:59:07Z</time>
      </trkpt>
      <trkpt lat="51.523826010525227" lon="9.012642977759242">
        <ele>219.80000000000001</ele>
        <time>2017-10-29T17:59:09Z</time>
      </trkpt>
      <trkpt lat="51.525599034503102" lon="9.014194970950484">
        <ele>226.53</ele>
        <time>2017-10-29T17:59:17Z</time>
      </trkpt>
      <trkpt lat="51.527109034359455" lon="9.01613999158144">
        <ele>238.53999999999999</ele>
        <time>2017-10-29T17:59:27Z</time>
      </trkpt>
      <trkpt lat="51.52886001393199" lon="9.017969006672502">
        <ele>247.68000000000001</ele>
        <time>2017-10-29T17:59:35Z</time>
      </trkpt>
      <trkpt lat="51.530259037390351" lon="9.01876101270318">
        <ele>254.88999999999999</ele>
        <time>2017-10-29T17:59:42Z</time>
      </trkpt>
      <trkpt lat="51.531580025330186" lon="9.019068963825703">
        <ele>258.25</ele>
        <time>2017-10-29T17:59:50Z</time>
      </trkpt>
      <trkpt lat="51.533412979915738" lon="9.019114980474114">
        <ele>257.76999999999998</ele>
        <time>2017-10-29T18:00:00Z</time>
      </trkpt>
      <trkpt lat="51.534880986437201" lon="9.019338022917509">
        <ele>258.25</ele>
        <time>2017-10-29T18:00:08Z</time>
      </trkpt>
      <trkpt lat="51.536372965201735" lon="9.020127011463046">
        <ele>258.73000000000002</ele>
        <time>2017-10-29T18:00:15Z</time>
      </trkpt>
      <trkpt lat="51.537974998354912" lon="9.021848989650607">
        <ele>259.20999999999998</ele>
        <time>2017-10-29T18:00:23Z</time>
      </trkpt>
      <trkpt lat="51.538816038519144" lon="9.023311967030168">
        <ele>259.69</ele>
        <time>2017-10-29T18:00:29Z</time>
      </trkpt>
      <trkpt lat="51.539937034249306" lon="9.026338001713157">
        <ele>260.17000000000002</ele>
        <time>2017-10-29T18:00:36Z</time>
      </trkpt>
      <trkpt lat="51.54095602221787" lon="9.029682967811823">
        <ele>259.69</ele>
        <time>2017-10-29T18:00:44Z</time>
      </trkpt>
      <trkpt lat="51.542222024872899" lon="9.032846968621016">
        <ele>261.13999999999999</ele>
        <time>2017-10-29T18:00:52Z</time>
      </trkpt>
      <trkpt lat="51.543827997520566" lon="9.035641998052597">
        <ele>267.86000000000001</ele>
        <time>2017-10-29T18:01:00Z</time>
      </trkpt>
      <trkpt lat="51.546217007562518" lon="9.038944970816374">
        <ele>281.31999999999999</ele>
        <time>2017-10-29T18:01:11Z</time>
      </trkpt>
      <trkpt lat="51.547493990510702" lon="9.04011600650847">
        <ele>288.05000000000001</ele>
        <time>2017-10-29T18:01:17Z</time>
      </trkpt>
      <trkpt lat="51.548773990944028" lon="9.041660958901048">
        <ele>293.33999999999997</ele>
        <time>2017-10-29T18:01:24Z</time>
      </trkpt>
      <trkpt lat="51.549372961744666" lon="9.042047029361129">
        <ele>294.77999999999997</ele>
        <time>2017-10-29T18:01:28Z</time>
      </trkpt>
      <trkpt lat="51.549578988924623" lon="9.042141996324062">
        <ele>294.77999999999997</ele>
        <time>2017-10-29T18:01:29Z</time>
      </trkpt>
      <trkpt lat="51.549789039418101" lon="9.042206034064293">
        <ele>294.77999999999997</ele>
        <time>2017-10-29T18:01:30Z</time>
      </trkpt>
      <trkpt lat="51.551469024270773" lon="9.041978968307376">
        <ele>293.33999999999997</ele>
        <time>2017-10-29T18:01:37Z</time>
      </trkpt>
      <trkpt lat="51.554019972681999" lon="9.041444035246968">
        <ele>290.94</ele>
        <time>2017-10-29T18:01:47Z</time>
      </trkpt>
      <trkpt lat="51.557239964604378" lon="9.041387038305402">
        <ele>279.88</ele>
        <time>2017-10-29T18:01:59Z</time>
      </trkpt>
      <trkpt lat="51.560699008405209" lon="9.042011993005872">
        <ele>276.04000000000002</ele>
        <time>2017-10-29T18:02:10Z</time>
      </trkpt>
      <trkpt lat="51.563837025314569" lon="9.042979013174772">
        <ele>274.58999999999997</ele>
        <time>2017-10-29T18:02:21Z</time>
      </trkpt>
      <trkpt lat="51.56714997254312" lon="9.043734977021813">
        <ele>274.58999999999997</ele>
        <time>2017-10-29T18:02:33Z</time>
      </trkpt>
      <trkpt lat="51.571092987433076" lon="9.044253984466195">
        <ele>274.11000000000001</ele>
        <time>2017-10-29T18:02:46Z</time>
      </trkpt>
      <trkpt lat="51.573126018047333" lon="9.044312993064523">
        <ele>274.11000000000001</ele>
        <time>2017-10-29T18:02:53Z</time>
      </trkpt>
      <trkpt lat="51.57567797228694" lon="9.0441570058465">
        <ele>271.23000000000002</ele>
        <time>2017-10-29T18:03:02Z</time>
      </trkpt>
      <trkpt lat="51.578830992802978" lon="9.043420990929008">
        <ele>264.98000000000002</ele>
        <time>2017-10-29T18:03:12Z</time>
      </trkpt>
      <trkpt lat="51.581302983686328" lon="9.042351040989161">
        <ele>261.13999999999999</ele>
        <time>2017-10-29T18:03:22Z</time>
      </trkpt>
      <trkpt lat="51.583656035363674" lon="9.040528982877731">
        <ele>259.69</ele>
        <time>2017-10-29T18:03:31Z</time>
      </trkpt>
      <trkpt lat="51.586283007636666" lon="9.0383340138942">
        <ele>257.76999999999998</ele>
        <time>2017-10-29T18:03:41Z</time>
      </trkpt>
      <trkpt lat="51.588602028787136" lon="9.036871958523989">
        <ele>256.81</ele>
        <time>2017-10-29T18:03:50Z</time>
      </trkpt>
      <trkpt lat="51.590999001637101" lon="9.035467989742756">
        <ele>255.84999999999999</ele>
        <time>2017-10-29T18:03:59Z</time>
      </trkpt>
      <trkpt lat="51.594553012400866" lon="9.033687002956867">
        <ele>260.17000000000002</ele>
        <time>2017-10-29T18:04:11Z</time>
      </trkpt>
      <trkpt lat="51.598315984010696" lon="9.032592996954918">
        <ele>266.42000000000002</ele>
        <time>2017-10-29T18:04:25Z</time>
      </trkpt>
      <trkpt lat="51.601037001237273" lon="9.031907021999359">
        <ele>262.57999999999998</ele>
        <time>2017-10-29T18:04:35Z</time>
      </trkpt>
      <trkpt lat="51.60313599742949" lon="9.032002994790673">
        <ele>255.84999999999999</ele>
        <time>2017-10-29T18:04:43Z</time>
      </trkpt>
      <trkpt lat="51.605339013040066" lon="9.033075962215662">
        <ele>247.68000000000001</ele>
        <time>2017-10-29T18:04:52Z</time>
      </trkpt>
      <trkpt lat="51.607187977060676" lon="9.034512033686042">
        <ele>242.38999999999999</ele>
        <time>2017-10-29T18:05:00Z</time>
      </trkpt>
      <trkpt lat="51.609328966587782" lon="9.035761021077633">
        <ele>239.99000000000001</ele>
        <time>2017-10-29T18:05:09Z</time>
      </trkpt>
      <trkpt lat="51.611287984997034" lon="9.036108031868935">
        <ele>238.53999999999999</ele>
        <time>2017-10-29T18:05:17Z</time>
      </trkpt>
      <trkpt lat="51.61329897120595" lon="9.035638980567455">
        <ele>238.06</ele>
        <time>2017-10-29T18:05:25Z</time>
      </trkpt>
      <trkpt lat="51.615142989903688" lon="9.034410025924444">
        <ele>238.06</ele>
        <time>2017-10-29T18:05:32Z</time>
      </trkpt>
      <trkpt lat="51.61753099411726" lon="9.032156970351934">
        <ele>236.62</ele>
        <time>2017-10-29T18:05:42Z</time>
      </trkpt>
      <trkpt lat="51.619336036965251" lon="9.030128968879581">
        <ele>234.69999999999999</ele>
        <time>2017-10-29T18:05:51Z</time>
      </trkpt>
      <trkpt lat="51.621059020981193" lon="9.027583971619606">
        <ele>232.78</ele>
        <time>2017-10-29T18:06:00Z</time>
      </trkpt>
      <trkpt lat="51.62277496419847" lon="9.025458991527557">
        <ele>229.41</ele>
        <time>2017-10-29T18:06:10Z</time>
      </trkpt>
      <trkpt lat="51.62403903901577" lon="9.024533964693546">
        <ele>229.88999999999999</ele>
        <time>2017-10-29T18:06:15Z</time>
      </trkpt>
      <trkpt lat="51.625720029696822" lon="9.024163987487555">
        <ele>230.37</ele>
        <time>2017-10-29T18:06:22Z</time>
      </trkpt>
      <trkpt lat="51.627323990687728" lon="9.024578975513578">
        <ele>229.88999999999999</ele>
        <time>2017-10-29T18:06:30Z</time>
      </trkpt>
      <trkpt lat="51.629331959411502" lon="9.025482963770628">
        <ele>228.93000000000001</ele>
        <time>2017-10-29T18:06:38Z</time>
      </trkpt>
      <trkpt lat="51.631535980850458" lon="9.025934999808669">
        <ele>229.41</ele>
        <time>2017-10-29T18:06:47Z</time>
      </trkpt>
      <trkpt lat="51.63355995900929" lon="9.025573991239071">
        <ele>229.41</ele>
        <time>2017-10-29T18:06:55Z</time>
      </trkpt>
      <trkpt lat="51.635394003242254" lon="9.024515021592379">
        <ele>230.37</ele>
        <time>2017-10-29T18:07:03Z</time>
      </trkpt>
      <trkpt lat="51.637307005003095" lon="9.022550974041224">
        <ele>231.81</ele>
        <time>2017-10-29T18:07:12Z</time>
      </trkpt>
      <trkpt lat="51.639723004773259" lon="9.020150983706117">
        <ele>233.74000000000001</ele>
        <time>2017-10-29T18:07:23Z</time>
      </trkpt>
      <trkpt lat="51.641699960455298" lon="9.019091008231044">
        <ele>236.13999999999999</ele>
        <time>2017-10-29T18:07:32Z</time>
      </trkpt>
      <trkpt lat="51.642148979008198" lon="9.018769981339574">
        <ele>237.09999999999999</ele>
        <time>2017-10-29T18:07:34Z</time>
      </trkpt>
      <trkpt lat="51.643810020759702" lon="9.016847005113959">
        <ele>241.43000000000001</ele>
        <time>2017-10-29T18:07:41Z</time>
      </trkpt>
      <trkpt lat="51.646273965016007" lon="9.013587031513453">
        <ele>250.08000000000001</ele>
        <time>2017-10-29T18:07:54Z</time>
      </trkpt>
      <trkpt lat="51.648004995658994" lon="9.011682998389006">
        <ele>256.81</ele>
        <time>2017-10-29T18:08:02Z</time>
      </trkpt>
      <trkpt lat="51.649967031553388" lon="9.010653030127287">
        <ele>261.62</ele>
        <time>2017-10-29T18:08:09Z</time>
      </trkpt>
      <trkpt lat="51.653266986832023" lon="9.009705958887935">
        <ele>267.38</ele>
        <time>2017-10-29T18:08:22Z</time>
      </trkpt>
      <trkpt lat="51.656066039577127" lon="9.008904984220862">
        <ele>272.67000000000002</ele>
        <time>2017-10-29T18:08:32Z</time>
      </trkpt>
      <trkpt lat="51.659396002069116" lon="9.007940981537104">
        <ele>284.69</ele>
        <time>2017-10-29T18:08:45Z</time>
      </trkpt>
      <trkpt lat="51.662412984296679" lon="9.007068006321788">
        <ele>295.25999999999999</ele>
        <time>2017-10-29T18:08:57Z</time>
      </trkpt>
      <trkpt lat="51.664814986288548" lon="9.006009036675096">
        <ele>299.58999999999997</ele>
        <time>2017-10-29T18:09:07Z</time>
      </trkpt>
      <trkpt lat="51.666185008361936" lon="9.004785027354956">
        <ele>299.58999999999997</ele>
        <time>2017-10-29T18:09:14Z</time>
      </trkpt>
      <trkpt lat="51.66731002740562" lon="9.003291958943009">
        <ele>297.18000000000001</ele>
        <time>2017-10-29T18:09:21Z</time>
      </trkpt>
      <trkpt lat="51.66795602068305" lon="9.002253022044897">
        <ele>293.33999999999997</ele>
        <time>2017-10-29T18:09:30Z</time>
      </trkpt>
      <trkpt lat="51.668007988482714" lon="9.002156965434551">
        <ele>292.86000000000001</ele>
        <time>2017-10-29T18:09:31Z</time>
      </trkpt>
      <trkpt lat="51.668046964332461" lon="9.002083037048578">
        <ele>292.86000000000001</ele>
        <time>2017-10-29T18:09:32Z</time>
      </trkpt>
      <trkpt lat="51.668080994859338" lon="9.002018999308348">
        <ele>291.89999999999998</ele>
        <time>2017-10-29T18:09:33Z</time>
      </trkpt>
      <trkpt lat="51.668238993734121" lon="9.002037020400167">
        <ele>291.89999999999998</ele>
        <time>2017-10-29T18:09:34Z</time>
      </trkpt>
      <trkpt lat="51.668288027867675" lon="9.002106003463268">
        <ele>291.89999999999998</ele>
        <time>2017-10-29T18:09:35Z</time>
      </trkpt>
      <trkpt lat="51.668349970132113" lon="9.00219501927495">
        <ele>291.89999999999998</ele>
        <time>2017-10-29T18:09:36Z</time>
      </trkpt>
      <trkpt lat="51.668430017307401" lon="9.002308007329702">
        <ele>292.38</ele>
        <time>2017-10-29T18:09:37Z</time>
      </trkpt>
      <trkpt lat="51.669182041659951" lon="9.003256000578404">
        <ele>293.33999999999997</ele>
        <time>2017-10-29T18:09:43Z</time>
      </trkpt>
      <trkpt lat="51.670332960784435" lon="9.003966031596065">
        <ele>292.86000000000001</ele>
        <time>2017-10-29T18:09:51Z</time>
      </trkpt>
      <trkpt lat="51.671525035053492" lon="9.004177004098892">
        <ele>287.56999999999999</ele>
        <time>2017-10-29T18:10:00Z</time>
      </trkpt>
      <trkpt lat="51.67221000418067" lon="9.00438797660172">
        <ele>284.20999999999998</ele>
        <time>2017-10-29T18:10:08Z</time>
      </trkpt>
      <trkpt lat="51.672288961708546" lon="9.004437010735273">
        <ele>284.20999999999998</ele>
        <time>2017-10-29T18:10:09Z</time>
      </trkpt>
      <trkpt lat="51.672364985570312" lon="9.004483027383685">
        <ele>284.20999999999998</ele>
        <time>2017-10-29T18:10:10Z</time>
      </trkpt>
      <trkpt lat="51.672435980290174" lon="9.004527032375336">
        <ele>284.20999999999998</ele>
        <time>2017-10-29T18:10:11Z</time>
      </trkpt>
      <trkpt lat="51.672502029687166" lon="9.004567014053464">
        <ele>283.73000000000002</ele>
        <time>2017-10-29T18:10:12Z</time>
      </trkpt>
      <trkpt lat="51.672559026628733" lon="9.004600960761309">
        <ele>283.73000000000002</ele>
        <time>2017-10-29T18:10:13Z</time>
      </trkpt>
      <trkpt lat="51.672571012750268" lon="9.004803970456123">
        <ele>283.73000000000002</ele>
        <time>2017-10-29T18:10:14Z</time>
      </trkpt>
      <trkpt lat="51.673097983002663" lon="9.005520958453417">
        <ele>282.27999999999997</ele>
        <time>2017-10-29T18:10:22Z</time>
      </trkpt>
      <trkpt lat="51.674233982339501" lon="9.007579972967506">
        <ele>278.92000000000002</ele>
        <time>2017-10-29T18:10:35Z</time>
      </trkpt>
      <trkpt lat="51.675191028043628" lon="9.008856033906341">
        <ele>277.48000000000002</ele>
        <time>2017-10-29T18:10:42Z</time>
      </trkpt>
      <trkpt lat="51.676875036209822" lon="9.010630985721946">
        <ele>274.11000000000001</ele>
        <time>2017-10-29T18:10:51Z</time>
      </trkpt>
      <trkpt lat="51.677980022504926" lon="9.012897033244371">
        <ele>271.70999999999998</ele>
        <time>2017-10-29T18:10:59Z</time>
      </trkpt>
      <trkpt lat="51.678918963298202" lon="9.014681959524751">
        <ele>271.70999999999998</ele>
        <time>2017-10-29T18:11:06Z</time>
      </trkpt>
      <trkpt lat="51.680114977061749" lon="9.015763979405165">
        <ele>271.70999999999998</ele>
        <time>2017-10-29T18:11:12Z</time>
      </trkpt>
      <trkpt lat="51.681648027151823" lon="9.016169998794794">
        <ele>272.19</ele>
        <time>2017-10-29T18:11:18Z</time>
      </trkpt>
      <trkpt lat="51.683938968926668" lon="9.015717040747404">
        <ele>275.06999999999999</ele>
        <time>2017-10-29T18:11:27Z</time>
      </trkpt>
      <trkpt lat="51.686149025335908" lon="9.015400037169457">
        <ele>280.36000000000001</ele>
        <time>2017-10-29T18:11:36Z</time>
      </trkpt>
      <trkpt lat="51.687590964138508" lon="9.015803961083293">
        <ele>284.20999999999998</ele>
        <time>2017-10-29T18:11:42Z</time>
      </trkpt>
      <trkpt lat="51.689202971756458" lon="9.017003998160362">
        <ele>288.05000000000001</ele>
        <time>2017-10-29T18:11:49Z</time>
      </trkpt>
      <trkpt lat="51.691302973777056" lon="9.019029987975955">
        <ele>289.97000000000003</ele>
        <time>2017-10-29T18:11:59Z</time>
      </trkpt>
      <trkpt lat="51.693260986357927" lon="9.02092999778688">
        <ele>289.49000000000001</ele>
        <time>2017-10-29T18:12:08Z</time>
      </trkpt>
      <trkpt lat="51.695711016654968" lon="9.023308027535677">
        <ele>282.76999999999998</ele>
        <time>2017-10-29T18:12:18Z</time>
      </trkpt>
      <trkpt lat="51.697611026465893" lon="9.025151962414384">
        <ele>275.56</ele>
        <time>2017-10-29T18:12:25Z</time>
      </trkpt>
      <trkpt lat="51.69825199060142" lon="9.025750011205673">
        <ele>271.70999999999998</ele>
        <time>2017-10-29T18:12:29Z</time>
      </trkpt>
      <trkpt lat="51.699866009876132" lon="9.026878969743848">
        <ele>264.98000000000002</ele>
        <time>2017-10-29T18:12:36Z</time>
      </trkpt>
      <trkpt lat="51.701569966971874" lon="9.027450028806925">
        <ele>258.25</ele>
        <time>2017-10-29T18:12:43Z</time>
      </trkpt>
      <trkpt lat="51.70362101867795" lon="9.027457991614938">
        <ele>251.03999999999999</ele>
        <time>2017-10-29T18:12:51Z</time>
      </trkpt>
      <trkpt lat="51.705336961895227" lon="9.026874024420977">
        <ele>246.72</ele>
        <time>2017-10-29T18:12:58Z</time>
      </trkpt>
      <trkpt lat="51.707473006099463" lon="9.026155024766922">
        <ele>243.34999999999999</ele>
        <time>2017-10-29T18:13:06Z</time>
      </trkpt>
      <trkpt lat="51.709417020902038" lon="9.025778006762266">
        <ele>240.94999999999999</ele>
        <time>2017-10-29T18:13:13Z</time>
      </trkpt>
      <trkpt lat="51.710921991616488" lon="9.025134025141597">
        <ele>237.58000000000001</ele>
        <time>2017-10-29T18:13:19Z</time>
      </trkpt>
      <trkpt lat="51.711767977103591" lon="9.024334978312254">
        <ele>236.13999999999999</ele>
        <time>2017-10-29T18:13:23Z</time>
      </trkpt>
      <trkpt lat="51.711946008726954" lon="9.02406700886786">
        <ele>235.66</ele>
        <time>2017-10-29T18:13:24Z</time>
      </trkpt>
      <trkpt lat="51.712119011208415" lon="9.023808008059859">
        <ele>234.69999999999999</ele>
        <time>2017-10-29T18:13:25Z</time>
      </trkpt>
      <trkpt lat="51.712416987866163" lon="9.02320702560246">
        <ele>234.22</ele>
        <time>2017-10-29T18:13:27Z</time>
      </trkpt>
      <trkpt lat="51.712547997012734" lon="9.022875018417835">
        <ele>233.74000000000001</ele>
        <time>2017-10-29T18:13:28Z</time>
      </trkpt>
      <trkpt lat="51.712656039744616" lon="9.022532030940056">
        <ele>233.25999999999999</ele>
        <time>2017-10-29T18:13:29Z</time>
      </trkpt>
      <trkpt lat="51.712758969515562" lon="9.022203963249922">
        <ele>233.25999999999999</ele>
        <time>2017-10-29T18:13:30Z</time>
      </trkpt>
      <trkpt lat="51.71286198310554" lon="9.021877991035581">
        <ele>232.78</ele>
        <time>2017-10-29T18:13:31Z</time>
      </trkpt>
      <trkpt lat="51.712927026674151" lon="9.021523017436266">
        <ele>232.30000000000001</ele>
        <time>2017-10-29T18:13:32Z</time>
      </trkpt>
      <trkpt lat="51.71337797306478" lon="9.018560014665127">
        <ele>229.88999999999999</ele>
        <time>2017-10-29T18:13:40Z</time>
      </trkpt>
      <trkpt lat="51.714021032676101" lon="9.016781039535999">
        <ele>227.00999999999999</ele>
        <time>2017-10-29T18:13:46Z</time>
      </trkpt>
      <trkpt lat="51.715143034234643" lon="9.015330970287323">
        <ele>224.12</ele>
        <time>2017-10-29T18:13:53Z</time>
      </trkpt>
      <trkpt lat="51.716455975547433" lon="9.014691011980176">
        <ele>220.75999999999999</ele>
        <time>2017-10-29T18:14:00Z</time>
      </trkpt>
      <trkpt lat="51.717645032331347" lon="9.014830989763141">
        <ele>218.36000000000001</ele>
        <time>2017-10-29T18:14:07Z</time>
      </trkpt>
      <trkpt lat="51.718979012221098" lon="9.015403976663947">
        <ele>216.43000000000001</ele>
        <time>2017-10-29T18:14:16Z</time>
      </trkpt>
      <trkpt lat="51.720307040959597" lon="9.015970006585121">
        <ele>214.50999999999999</ele>
        <time>2017-10-29T18:14:26Z</time>
      </trkpt>
      <trkpt lat="51.721615958958864" lon="9.016533019021154">
        <ele>212.11000000000001</ele>
        <time>2017-10-29T18:14:36Z</time>
      </trkpt>
      <trkpt lat="51.722797974944115" lon="9.017028976231813">
        <ele>212.59</ele>
        <time>2017-10-29T18:14:45Z</time>
      </trkpt>
      <trkpt lat="51.723111039027572" lon="9.017156967893243">
        <ele>212.59</ele>
        <time>2017-10-29T18:14:49Z</time>
      </trkpt>
      <trkpt lat="51.723185973241925" lon="9.017187980934978">
        <ele>212.59</ele>
        <time>2017-10-29T18:14:50Z</time>
      </trkpt>
      <trkpt lat="51.723289992660284" lon="9.017394008114934">
        <ele>213.06999999999999</ele>
        <time>2017-10-29T18:14:51Z</time>
      </trkpt>
      <trkpt lat="51.723344977945089" lon="9.017437007278204">
        <ele>213.06999999999999</ele>
        <time>2017-10-29T18:14:52Z</time>
      </trkpt>
      <trkpt lat="51.72334598377347" lon="9.017437007278204">
        <ele>213.06999999999999</ele>
        <time>2017-10-29T18:14:53Z</time>
      </trkpt>
      <trkpt lat="51.723502976819873" lon="9.017347991466522">
        <ele>213.06999999999999</ele>
        <time>2017-10-29T18:14:54Z</time>
      </trkpt>
      <trkpt lat="51.723596015945077" lon="9.017389984801412">
        <ele>213.06999999999999</ele>
        <time>2017-10-29T18:14:55Z</time>
      </trkpt>
      <trkpt lat="51.723596015945077" lon="9.017389984801412">
        <ele>213.06999999999999</ele>
        <time>2017-10-29T18:14:56Z</time>
      </trkpt>
      <trkpt lat="51.724646016955376" lon="9.017826011404395">
        <ele>212.11000000000001</ele>
        <time>2017-10-29T18:15:04Z</time>
      </trkpt>
      <trkpt lat="51.725783022120595" lon="9.018053999170661">
        <ele>213.06999999999999</ele>
        <time>2017-10-29T18:15:14Z</time>
      </trkpt>
      <trkpt lat="51.727336021140218" lon="9.017663989216089">
        <ele>215.94999999999999</ele>
        <time>2017-10-29T18:15:28Z</time>
      </trkpt>
      <trkpt lat="51.728126015514135" lon="9.017486963421106">
        <ele>219.80000000000001</ele>
        <time>2017-10-29T18:15:35Z</time>
      </trkpt>
      <trkpt lat="51.729020029306412" lon="9.017633982002735">
        <ele>222.68000000000001</ele>
        <time>2017-10-29T18:15:43Z</time>
      </trkpt>
      <trkpt lat="51.729344995692372" lon="9.017890971153975">
        <ele>221.72</ele>
        <time>2017-10-29T18:15:46Z</time>
      </trkpt>
      <trkpt lat="51.729443985968828" lon="9.01798996143043">
        <ele>221.24000000000001</ele>
        <time>2017-10-29T18:15:47Z</time>
      </trkpt>
      <trkpt lat="51.729697035625577" lon="9.018364967778325">
        <ele>220.28</ele>
        <time>2017-10-29T18:15:50Z</time>
      </trkpt>
      <trkpt lat="51.730385022237897" lon="9.020073032006621">
        <ele>218.84</ele>
        <time>2017-10-29T18:16:01Z</time>
      </trkpt>
      <trkpt lat="51.73112497664988" lon="9.021396031603217">
        <ele>216.43000000000001</ele>
        <time>2017-10-29T18:16:09Z</time>
      </trkpt>
      <trkpt lat="51.731565026566386" lon="9.021763997152448">
        <ele>214.50999999999999</ele>
        <time>2017-10-29T18:16:13Z</time>
      </trkpt>
      <trkpt lat="51.732771014794707" lon="9.022804023697972">
        <ele>212.59</ele>
        <time>2017-10-29T18:16:24Z</time>
      </trkpt>
      <trkpt lat="51.733309971168637" lon="9.023281037807465">
        <ele>212.59</ele>
        <time>2017-10-29T18:16:29Z</time>
      </trkpt>
      <trkpt lat="51.733417008072138" lon="9.023367036134005">
        <ele>212.59</ele>
        <time>2017-10-29T18:16:30Z</time>
      </trkpt>
      <trkpt lat="51.733640972524881" lon="9.02346502058208">
        <ele>213.06999999999999</ele>
        <time>2017-10-29T18:16:33Z</time>
      </trkpt>
      <trkpt lat="51.733854962512851" lon="9.02353098616004">
        <ele>214.03</ele>
        <time>2017-10-29T18:16:34Z</time>
      </trkpt>
      <trkpt lat="51.73398002050817" lon="9.02353098616004">
        <ele>214.50999999999999</ele>
        <time>2017-10-29T18:16:35Z</time>
      </trkpt>
      <trkpt lat="51.734092002734542" lon="9.023527968674898">
        <ele>214.99000000000001</ele>
        <time>2017-10-29T18:16:36Z</time>
      </trkpt>
      <trkpt lat="51.734214965254068" lon="9.023492010310292">
        <ele>215.47</ele>
        <time>2017-10-29T18:16:37Z</time>
      </trkpt>
      <trkpt lat="51.734334994107485" lon="9.023456973955035">
        <ele>215.94999999999999</ele>
        <time>2017-10-29T18:16:38Z</time>
      </trkpt>
      <trkpt lat="51.734447982162237" lon="9.023423027247191">
        <ele>216.43000000000001</ele>
        <time>2017-10-29T18:16:39Z</time>
      </trkpt>
      <trkpt lat="51.734557030722499" lon="9.023330993950367">
        <ele>216.43000000000001</ele>
        <time>2017-10-29T18:16:41Z</time>
      </trkpt>
      <trkpt lat="51.735080983489752" lon="9.022823972627521">
        <ele>219.31999999999999</ele>
        <time>2017-10-29T18:16:45Z</time>
      </trkpt>
      <trkpt lat="51.735177040100098" lon="9.022697992622852">
        <ele>219.31999999999999</ele>
        <time>2017-10-29T18:16:46Z</time>
      </trkpt>
      <trkpt lat="51.735272007063031" lon="9.022571006789804">
        <ele>219.80000000000001</ele>
        <time>2017-10-29T18:16:47Z</time>
      </trkpt>
      <trkpt lat="51.736218994483352" lon="9.021296035498381">
        <ele>225.56999999999999</ele>
        <time>2017-10-29T18:16:58Z</time>
      </trkpt>
      <trkpt lat="51.736309016123414" lon="9.021156979724765">
        <ele>226.05000000000001</ele>
        <time>2017-10-29T18:16:59Z</time>
      </trkpt>
      <trkpt lat="51.736399959772825" lon="9.021018007770181">
        <ele>226.05000000000001</ele>
        <time>2017-10-29T18:17:00Z</time>
      </trkpt>
      <trkpt lat="51.737176962196827" lon="9.019472971558571">
        <ele>228.44999999999999</ele>
        <time>2017-10-29T18:17:10Z</time>
      </trkpt>
      <trkpt lat="51.737593961879611" lon="9.01790102943778">
        <ele>230.84999999999999</ele>
        <time>2017-10-29T18:17:19Z</time>
      </trkpt>
      <trkpt lat="51.737641990184784" lon="9.017697013914585">
        <ele>230.37</ele>
        <time>2017-10-29T18:17:21Z</time>
      </trkpt>
      <trkpt lat="51.737657999619842" lon="9.017629958689213">
        <ele>230.37</ele>
        <time>2017-10-29T18:17:22Z</time>
      </trkpt>
      <trkpt lat="51.737670991569757" lon="9.017572961747646">
        <ele>230.37</ele>
        <time>2017-10-29T18:17:23Z</time>
      </trkpt>
      <trkpt lat="51.73778397962451" lon="9.017504984512925">
        <ele>230.37</ele>
        <time>2017-10-29T18:17:24Z</time>
      </trkpt>
      <trkpt lat="51.737860003486276" lon="9.017508001998067">
        <ele>230.37</ele>
        <time>2017-10-29T18:17:25Z</time>
      </trkpt>
      <trkpt lat="51.737958993762732" lon="9.017512025311589">
        <ele>230.37</ele>
        <time>2017-10-29T18:17:26Z</time>
      </trkpt>
      <trkpt lat="51.738072987645864" lon="9.01751596480608">
        <ele>230.37</ele>
        <time>2017-10-29T18:17:27Z</time>
      </trkpt>
      <trkpt lat="51.739190965890884" lon="9.017615960910916">
        <ele>231.81</ele>
        <time>2017-10-29T18:17:36Z</time>
      </trkpt>
      <trkpt lat="51.739427000284195" lon="9.017690978944302">
        <ele>232.78</ele>
        <time>2017-10-29T18:17:38Z</time>
      </trkpt>
      <trkpt lat="51.739541999995708" lon="9.017740013077855">
        <ele>233.25999999999999</ele>
        <time>2017-10-29T18:17:39Z</time>
      </trkpt>
      <trkpt lat="51.740677999332547" lon="9.018551968038082">
        <ele>236.13999999999999</ele>
        <time>2017-10-29T18:17:49Z</time>
      </trkpt>
      <trkpt lat="51.742137037217617" lon="9.019761979579926">
        <ele>239.50999999999999</ele>
        <time>2017-10-29T18:18:01Z</time>
      </trkpt>
      <trkpt lat="51.743537988513708" lon="9.02082203887403">
        <ele>239.50999999999999</ele>
        <time>2017-10-29T18:18:13Z</time>
      </trkpt>
      <trkpt lat="51.744991997256875" lon="9.021798027679324">
        <ele>240.47</ele>
        <time>2017-10-29T18:18:21Z</time>
      </trkpt>
      <trkpt lat="51.746794022619724" lon="9.023089008405805">
        <ele>240.94999999999999</ele>
        <time>2017-10-29T18:18:30Z</time>
      </trkpt>
      <trkpt lat="51.747837988659739" lon="9.024084024131298">
        <ele>243.83000000000001</ele>
        <time>2017-10-29T18:18:36Z</time>
      </trkpt>
      <trkpt lat="51.748005961999297" lon="9.024202963337302">
        <ele>244.78999999999999</ele>
        <time>2017-10-29T18:18:37Z</time>
      </trkpt>
      <trkpt lat="51.748189022764564" lon="9.02423900552094">
        <ele>245.27000000000001</ele>
        <time>2017-10-29T18:18:38Z</time>
      </trkpt>
      <trkpt lat="51.748378034681082" lon="9.024275969713926">
        <ele>245.75</ele>
        <time>2017-10-29T18:18:39Z</time>
      </trkpt>
      <trkpt lat="51.748563023284078" lon="9.024312011897564">
        <ele>246.72</ele>
        <time>2017-10-29T18:18:40Z</time>
      </trkpt>
      <trkpt lat="51.749073984101415" lon="9.024446038529277">
        <ele>247.68000000000001</ele>
        <time>2017-10-29T18:18:43Z</time>
      </trkpt>
      <trkpt lat="51.749240029603243" lon="9.024524996057153">
        <ele>247.68000000000001</ele>
        <time>2017-10-29T18:18:44Z</time>
      </trkpt>
      <trkpt lat="51.750494968146086" lon="9.025501990690827">
        <ele>248.63999999999999</ele>
        <time>2017-10-29T18:18:53Z</time>
      </trkpt>
      <trkpt lat="51.750622959807515" lon="9.025612967088819">
        <ele>248.63999999999999</ele>
        <time>2017-10-29T18:18:54Z</time>
      </trkpt>
      <trkpt lat="51.750721028074622" lon="9.025751017034054">
        <ele>249.12</ele>
        <time>2017-10-29T18:18:55Z</time>
      </trkpt>
      <trkpt lat="51.750800991430879" lon="9.025901975110173">
        <ele>249.12</ele>
        <time>2017-10-29T18:18:56Z</time>
      </trkpt>
      <trkpt lat="51.7508689686656" lon="9.026040025055409">
        <ele>249.59999999999999</ele>
        <time>2017-10-29T18:18:57Z</time>
      </trkpt>
      <trkpt lat="51.750914985314012" lon="9.026200035586953">
        <ele>250.08000000000001</ele>
        <time>2017-10-29T18:18:58Z</time>
      </trkpt>
      <trkpt lat="51.750963013619184" lon="9.026368008926511">
        <ele>250.56</ele>
        <time>2017-10-29T18:18:59Z</time>
      </trkpt>
      <trkpt lat="51.751209022477269" lon="9.028059979900718">
        <ele>254.88999999999999</ele>
        <time>2017-10-29T18:19:07Z</time>
      </trkpt>
      <trkpt lat="51.751261996105313" lon="9.028188977390528">
        <ele>255.84999999999999</ele>
        <time>2017-10-29T18:19:08Z</time>
      </trkpt>
      <trkpt lat="51.751379007473588" lon="9.028380000963807">
        <ele>256.81</ele>
        <time>2017-10-29T18:19:10Z</time>
      </trkpt>
      <trkpt lat="51.751543963328004" lon="9.028391987085342">
        <ele>257.29000000000002</ele>
        <time>2017-10-29T18:19:12Z</time>
      </trkpt>
      <trkpt lat="51.751731969416142" lon="9.028369020670652">
        <ele>257.76999999999998</ele>
        <time>2017-10-29T18:19:13Z</time>
      </trkpt>
      <trkpt lat="51.751933973282576" lon="9.028167016804218">
        <ele>257.76999999999998</ele>
        <time>2017-10-29T18:19:16Z</time>
      </trkpt>
      <trkpt lat="51.752109993249178" lon="9.027854958549142">
        <ele>257.29000000000002</ele>
        <time>2017-10-29T18:19:17Z</time>
      </trkpt>
      <trkpt lat="51.752874003723264" lon="9.025997025892139">
        <ele>252</ele>
        <time>2017-10-29T18:19:25Z</time>
      </trkpt>
      <trkpt lat="51.753723006695509" lon="9.023733995854855">
        <ele>245.27000000000001</ele>
        <time>2017-10-29T18:19:34Z</time>
      </trkpt>
      <trkpt lat="51.753967003896832" lon="9.023129995912314">
        <ele>243.83000000000001</ele>
        <time>2017-10-29T18:19:37Z</time>
      </trkpt>
      <trkpt lat="51.754040010273457" lon="9.023003010079265">
        <ele>242.87</ele>
        <time>2017-10-29T18:19:39Z</time>
      </trkpt>
      <trkpt lat="51.754202032461762" lon="9.022830007597804">
        <ele>242.38999999999999</ele>
        <time>2017-10-29T18:19:40Z</time>
      </trkpt>
      <trkpt lat="51.75430596806109" lon="9.022821960970759">
        <ele>242.38999999999999</ele>
        <time>2017-10-29T18:19:41Z</time>
      </trkpt>
      <trkpt lat="51.754419039934874" lon="9.022821960970759">
        <ele>242.38999999999999</ele>
        <time>2017-10-29T18:19:42Z</time>
      </trkpt>
      <trkpt lat="51.754540996626019" lon="9.022861020639539">
        <ele>241.91</ele>
        <time>2017-10-29T18:19:43Z</time>
      </trkpt>
      <trkpt lat="51.754666976630688" lon="9.022926986217499">
        <ele>241.91</ele>
        <time>2017-10-29T18:19:44Z</time>
      </trkpt>
      <trkpt lat="51.754797985777259" lon="9.02299496345222">
        <ele>241.91</ele>
        <time>2017-10-29T18:19:45Z</time>
      </trkpt>
      <trkpt lat="51.754923965781927" lon="9.023064030334353">
        <ele>241.43000000000001</ele>
        <time>2017-10-29T18:19:46Z</time>
      </trkpt>
      <trkpt lat="51.755034020170569" lon="9.023172995075584">
        <ele>240.94999999999999</ele>
        <time>2017-10-29T18:19:47Z</time>
      </trkpt>
      <trkpt lat="51.755141979083419" lon="9.023281959816814">
        <ele>240.94999999999999</ele>
        <time>2017-10-29T18:19:48Z</time>
      </trkpt>
      <trkpt lat="51.755540035665035" lon="9.023726033046842">
        <ele>238.53999999999999</ele>
        <time>2017-10-29T18:19:53Z</time>
      </trkpt>
      <trkpt lat="51.755672972649336" lon="9.023930970579386">
        <ele>237.58000000000001</ele>
        <time>2017-10-29T18:19:54Z</time>
      </trkpt>
      <trkpt lat="51.755860978737473" lon="9.024504963308573">
        <ele>235.66</ele>
        <time>2017-10-29T18:19:58Z</time>
      </trkpt>
      <trkpt lat="51.755901966243982" lon="9.024641001597047">
        <ele>235.18000000000001</ele>
        <time>2017-10-29T18:20:00Z</time>
      </trkpt>
      <trkpt lat="51.756059965118766" lon="9.025069987401366">
        <ele>234.69999999999999</ele>
        <time>2017-10-29T18:20:06Z</time>
      </trkpt>
      <trkpt lat="51.756075974553823" lon="9.025108041241765">
        <ele>234.69999999999999</ele>
        <time>2017-10-29T18:20:08Z</time>
      </trkpt>
      <trkpt lat="51.756090978160501" lon="9.025143999606371">
        <ele>234.22</ele>
        <time>2017-10-29T18:20:09Z</time>
      </trkpt>
      <trkpt lat="51.756131965667009" lon="9.025137964636087">
        <ele>234.22</ele>
        <time>2017-10-29T18:20:10Z</time>
      </trkpt>
      <trkpt lat="51.756191980093718" lon="9.025096977129579">
        <ele>234.22</ele>
        <time>2017-10-29T18:20:11Z</time>
      </trkpt>
      <trkpt lat="51.756273033097386" lon="9.025041991844773">
        <ele>234.22</ele>
        <time>2017-10-29T18:20:12Z</time>
      </trkpt>
      <trkpt lat="51.7563690058887" lon="9.024976026266813">
        <ele>234.69999999999999</ele>
        <time>2017-10-29T18:20:13Z</time>
      </trkpt>
      <trkpt lat="51.757221026346087" lon="9.024427011609078">
        <ele>239.02000000000001</ele>
        <time>2017-10-29T18:20:21Z</time>
      </trkpt>
      <trkpt lat="51.757320016622543" lon="9.024383006617427">
        <ele>239.50999999999999</ele>
        <time>2017-10-29T18:20:22Z</time>
      </trkpt>
      <trkpt lat="51.757451025769114" lon="9.02432500384748">
        <ele>239.50999999999999</ele>
        <time>2017-10-29T18:20:23Z</time>
      </trkpt>
      <trkpt lat="51.757543981075287" lon="9.024317041039467">
        <ele>240.47</ele>
        <time>2017-10-29T18:20:24Z</time>
      </trkpt>
      <trkpt lat="51.757673984393477" lon="9.0243049710989">
        <ele>241.43000000000001</ele>
        <time>2017-10-29T18:20:25Z</time>
      </trkpt>
      <trkpt lat="51.757803987711668" lon="9.024293990805745">
        <ele>242.38999999999999</ele>
        <time>2017-10-29T18:20:26Z</time>
      </trkpt>
      <trkpt lat="51.758048990741372" lon="9.024273036047816">
        <ele>242.38999999999999</ele>
        <time>2017-10-29T18:20:28Z</time>
      </trkpt>
      <trkpt lat="51.758299022912979" lon="9.024212015792728">
        <ele>241.43000000000001</ele>
        <time>2017-10-29T18:20:30Z</time>
      </trkpt>
      <trkpt lat="51.758921965956688" lon="9.023906998336315">
        <ele>239.50999999999999</ele>
        <time>2017-10-29T18:20:35Z</time>
      </trkpt>
      <trkpt lat="51.760268015787005" lon="9.023644980043173">
        <ele>238.06</ele>
        <time>2017-10-29T18:20:44Z</time>
      </trkpt>
      <trkpt lat="51.761565031483769" lon="9.023628970608115">
        <ele>234.22</ele>
        <time>2017-10-29T18:20:51Z</time>
      </trkpt>
      <trkpt lat="51.763690011575818" lon="9.023827034980059">
        <ele>228.44999999999999</ele>
        <time>2017-10-29T18:21:00Z</time>
      </trkpt>
      <trkpt lat="51.766427960246801" lon="9.024114031344652">
        <ele>227.49000000000001</ele>
        <time>2017-10-29T18:21:11Z</time>
      </trkpt>
      <trkpt lat="51.768554029986262" lon="9.024986000731587">
        <ele>231.33000000000001</ele>
        <time>2017-10-29T18:21:20Z</time>
      </trkpt>
      <trkpt lat="51.769922962412238" lon="9.025605004280806">
        <ele>237.09999999999999</ele>
        <time>2017-10-29T18:21:27Z</time>
      </trkpt>
      <trkpt lat="51.770324958488345" lon="9.025957966223359">
        <ele>239.02000000000001</ele>
        <time>2017-10-29T18:21:29Z</time>
      </trkpt>
      <trkpt lat="51.772454967722297" lon="9.028081018477678">
        <ele>247.19999999999999</ele>
        <time>2017-10-29T18:21:38Z</time>
      </trkpt>
      <trkpt lat="51.773052010685205" lon="9.028585022315383">
        <ele>251.03999999999999</ele>
        <time>2017-10-29T18:21:42Z</time>
      </trkpt>
      <trkpt lat="51.77342601120472" lon="9.028819967061281">
        <ele>252.96000000000001</ele>
        <time>2017-10-29T18:21:44Z</time>
      </trkpt>
      <trkpt lat="51.773768998682499" lon="9.028948964551091">
        <ele>254.88999999999999</ele>
        <time>2017-10-29T18:21:46Z</time>
      </trkpt>
      <trkpt lat="51.773947030305862" lon="9.028991041705012">
        <ele>256.32999999999998</ele>
        <time>2017-10-29T18:21:47Z</time>
      </trkpt>
      <trkpt lat="51.774132018908858" lon="9.028978971764445">
        <ele>257.29000000000002</ele>
        <time>2017-10-29T18:21:48Z</time>
      </trkpt>
      <trkpt lat="51.774314995855093" lon="9.028947036713362">
        <ele>257.76999999999998</ele>
        <time>2017-10-29T18:21:49Z</time>
      </trkpt>
      <trkpt lat="51.774498978629708" lon="9.028915017843247">
        <ele>258.25</ele>
        <time>2017-10-29T18:21:50Z</time>
      </trkpt>
      <trkpt lat="51.774682039394975" lon="9.028864977881312">
        <ele>259.20999999999998</ele>
        <time>2017-10-29T18:21:51Z</time>
      </trkpt>
      <trkpt lat="51.77486602216959" lon="9.028777973726392">
        <ele>259.69</ele>
        <time>2017-10-29T18:21:52Z</time>
      </trkpt>
      <trkpt lat="51.776160020381212" lon="9.028251003473997">
        <ele>259.69</ele>
        <time>2017-10-29T18:21:58Z</time>
      </trkpt>
      <trkpt lat="51.776330005377531" lon="9.028251003473997">
        <ele>259.20999999999998</ele>
        <time>2017-10-29T18:21:59Z</time>
      </trkpt>
      <trkpt lat="51.776504013687372" lon="9.028251003473997">
        <ele>259.20999999999998</ele>
        <time>2017-10-29T18:22:01Z</time>
      </trkpt>
      <trkpt lat="51.776684978976846" lon="9.028335995972157">
        <ele>258.73000000000002</ele>
        <time>2017-10-29T18:22:02Z</time>
      </trkpt>
      <trkpt lat="51.778531009331346" lon="9.029447017237544">
        <ele>255.84999999999999</ele>
        <time>2017-10-29T18:22:10Z</time>
      </trkpt>
      <trkpt lat="51.779242968186736" lon="9.029981028288603">
        <ele>253.93000000000001</ele>
        <time>2017-10-29T18:22:14Z</time>
      </trkpt>
      <trkpt lat="51.779380012303591" lon="9.030173979699612">
        <ele>253.44</ele>
        <time>2017-10-29T18:22:15Z</time>
      </trkpt>
      <trkpt lat="51.77950699813664" lon="9.030356034636498">
        <ele>252.96000000000001</ele>
        <time>2017-10-29T18:22:16Z</time>
      </trkpt>
      <trkpt lat="51.779624009504914" lon="9.030547980219126">
        <ele>252.47999999999999</ele>
        <time>2017-10-29T18:22:17Z</time>
      </trkpt>
      <trkpt lat="51.779716964811087" lon="9.030757024884224">
        <ele>252</ele>
        <time>2017-10-29T18:22:18Z</time>
      </trkpt>
      <trkpt lat="51.779839005321264" lon="9.031239990144968">
        <ele>251.52000000000001</ele>
        <time>2017-10-29T18:22:20Z</time>
      </trkpt>
      <trkpt lat="51.779888039454818" lon="9.031484993174672">
        <ele>251.52000000000001</ele>
        <time>2017-10-29T18:22:21Z</time>
      </trkpt>
      <trkpt lat="51.780117033049464" lon="9.032656028866768">
        <ele>249.12</ele>
        <time>2017-10-29T18:22:26Z</time>
      </trkpt>
      <trkpt lat="51.780160032212734" lon="9.03287798166275">
        <ele>248.16</ele>
        <time>2017-10-29T18:22:27Z</time>
      </trkpt>
      <trkpt lat="51.780219962820411" lon="9.033078979700804">
        <ele>247.68000000000001</ele>
        <time>2017-10-29T18:22:28Z</time>
      </trkpt>
      <trkpt lat="51.780294980853796" lon="9.033272014930844">
        <ele>247.19999999999999</ele>
        <time>2017-10-29T18:22:29Z</time>
      </trkpt>
      <trkpt lat="51.780393971130252" lon="9.033430013805628">
        <ele>246.72</ele>
        <time>2017-10-29T18:22:30Z</time>
      </trkpt>
      <trkpt lat="51.780492039397359" lon="9.033588012680411">
        <ele>246.22999999999999</ele>
        <time>2017-10-29T18:22:31Z</time>
      </trkpt>
      <trkpt lat="51.780593041330576" lon="9.033749029040337">
        <ele>245.75</ele>
        <time>2017-10-29T18:22:32Z</time>
      </trkpt>
      <trkpt lat="51.78073201328516" lon="9.033874003216624">
        <ele>243.83000000000001</ele>
        <time>2017-10-29T18:22:34Z</time>
      </trkpt>
      <trkpt lat="51.781010963022709" lon="9.034109031781554">
        <ele>242.87</ele>
        <time>2017-10-29T18:22:35Z</time>
      </trkpt>
      <trkpt lat="51.781181031838059" lon="9.034160999581218">
        <ele>240.94999999999999</ele>
        <time>2017-10-29T18:22:37Z</time>
      </trkpt>
      <trkpt lat="51.781339030712843" lon="9.034210033714771">
        <ele>239.99000000000001</ele>
        <time>2017-10-29T18:22:38Z</time>
      </trkpt>
      <trkpt lat="51.781659973785281" lon="9.034256972372532">
        <ele>239.02000000000001</ele>
        <time>2017-10-29T18:22:39Z</time>
      </trkpt>
      <trkpt lat="51.78182702511549" lon="9.034213973209262">
        <ele>238.53999999999999</ele>
        <time>2017-10-29T18:22:40Z</time>
      </trkpt>
      <trkpt lat="51.782002961263061" lon="9.034168040379882">
        <ele>238.53999999999999</ele>
        <time>2017-10-29T18:22:41Z</time>
      </trkpt>
      <trkpt lat="51.783728962764144" lon="9.033318031579256">
        <ele>237.09999999999999</ele>
        <time>2017-10-29T18:22:50Z</time>
      </trkpt>
      <trkpt lat="51.785815972834826" lon="9.032063009217382">
        <ele>233.25999999999999</ele>
        <time>2017-10-29T18:23:01Z</time>
      </trkpt>
      <trkpt lat="51.787706008180976" lon="9.030651999637485">
        <ele>224.61000000000001</ele>
        <time>2017-10-29T18:23:11Z</time>
      </trkpt>
      <trkpt lat="51.789313992485404" lon="9.029451040551066">
        <ele>217.88</ele>
        <time>2017-10-29T18:23:19Z</time>
      </trkpt>
      <trkpt lat="51.790827009826899" lon="9.028176991268992">
        <ele>211.15000000000001</ele>
        <time>2017-10-29T18:23:27Z</time>
      </trkpt>
      <trkpt lat="51.792115978896618" lon="9.02660203166306">
        <ele>207.30000000000001</ele>
        <time>2017-10-29T18:23:35Z</time>
      </trkpt>
      <trkpt lat="51.792659964412451" lon="9.025970958173275">
        <ele>205.86000000000001</ele>
        <time>2017-10-29T18:23:39Z</time>
      </trkpt>
      <trkpt lat="51.792778987437487" lon="9.025840032845736">
        <ele>205.38</ele>
        <time>2017-10-29T18:23:40Z</time>
      </trkpt>
      <trkpt lat="51.793612986803055" lon="9.025392020121217">
        <ele>203.46000000000001</ele>
        <time>2017-10-29T18:23:47Z</time>
      </trkpt>
      <trkpt lat="51.793703008443117" lon="9.025370981544256">
        <ele>203.46000000000001</ele>
        <time>2017-10-29T18:23:48Z</time>
      </trkpt>
      <trkpt lat="51.793799987062812" lon="9.025348015129566">
        <ele>203.46000000000001</ele>
        <time>2017-10-29T18:23:50Z</time>
      </trkpt>
      <trkpt lat="51.794328968971968" lon="9.02531398460269">
        <ele>202.00999999999999</ele>
        <time>2017-10-29T18:23:55Z</time>
      </trkpt>
      <trkpt lat="51.794770024716854" lon="9.025203008204699">
        <ele>200.56999999999999</ele>
        <time>2017-10-29T18:23:58Z</time>
      </trkpt>
      <trkpt lat="51.794885024428368" lon="9.025193033739924">
        <ele>200.09</ele>
        <time>2017-10-29T18:23:59Z</time>
      </trkpt>
      <trkpt lat="51.794996000826359" lon="9.025225974619389">
        <ele>199.61000000000001</ele>
        <time>2017-10-29T18:24:00Z</time>
      </trkpt>
      <trkpt lat="51.79510697722435" lon="9.025288000702858">
        <ele>198.65000000000001</ele>
        <time>2017-10-29T18:24:02Z</time>
      </trkpt>
      <trkpt lat="51.795313004404306" lon="9.025494027882814">
        <ele>198.16999999999999</ele>
        <time>2017-10-29T18:24:03Z</time>
      </trkpt>
      <trkpt lat="51.795416017994285" lon="9.025597041472793">
        <ele>197.69</ele>
        <time>2017-10-29T18:24:04Z</time>
      </trkpt>
      <trkpt lat="51.79598699323833" lon="9.026204980909824">
        <ele>196.72999999999999</ele>
        <time>2017-10-29T18:24:10Z</time>
      </trkpt>
      <trkpt lat="51.796085983514786" lon="9.026311011984944">
        <ele>196.72999999999999</ele>
        <time>2017-10-29T18:24:11Z</time>
      </trkpt>
      <trkpt lat="51.796188997104764" lon="9.026425005868077">
        <ele>196.72999999999999</ele>
        <time>2017-10-29T18:24:13Z</time>
      </trkpt>
      <trkpt lat="51.797460028901696" lon="9.027715986594558">
        <ele>193.36000000000001</ele>
        <time>2017-10-29T18:24:24Z</time>
      </trkpt>
      <trkpt lat="51.797557007521391" lon="9.027779018506408">
        <ele>192.88</ele>
        <time>2017-10-29T18:24:25Z</time>
      </trkpt>
      <trkpt lat="51.79766496643424" lon="9.02778304181993">
        <ele>192.88</ele>
        <time>2017-10-29T18:24:26Z</time>
      </trkpt>
      <trkpt lat="51.798722008243203" lon="9.027924025431275">
        <ele>191.44</ele>
        <time>2017-10-29T18:24:36Z</time>
      </trkpt>
      <trkpt lat="51.79884203709662" lon="9.027949003502727">
        <ele>191.91999999999999</ele>
        <time>2017-10-29T18:24:40Z</time>
      </trkpt>
      <trkpt lat="51.798856034874916" lon="9.027952020987868">
        <ele>191.91999999999999</ele>
        <time>2017-10-29T18:24:41Z</time>
      </trkpt>
      <trkpt lat="51.798882018774748" lon="9.02795797213912">
        <ele>191.91999999999999</ele>
        <time>2017-10-29T18:24:42Z</time>
      </trkpt>
      <trkpt lat="51.798935998231173" lon="9.027969036251307">
        <ele>192.40000000000001</ele>
        <time>2017-10-29T18:24:43Z</time>
      </trkpt>
      <trkpt lat="51.799023002386093" lon="9.027996025979519">
        <ele>192.40000000000001</ele>
        <time>2017-10-29T18:24:44Z</time>
      </trkpt>
      <trkpt lat="51.799134984612465" lon="9.028033996000886">
        <ele>192.88</ele>
        <time>2017-10-29T18:24:45Z</time>
      </trkpt>
      <trkpt lat="51.79994098842144" lon="9.028249997645617">
        <ele>192.88</ele>
        <time>2017-10-29T18:24:50Z</time>
      </trkpt>
      <trkpt lat="51.801120992749929" lon="9.028533976525068">
        <ele>191.91999999999999</ele>
        <time>2017-10-29T18:24:57Z</time>
      </trkpt>
      <trkpt lat="51.801440007984638" lon="9.028503969311714">
        <ele>191.44</ele>
        <time>2017-10-29T18:24:58Z</time>
      </trkpt>
      <trkpt lat="51.801602030172944" lon="9.028443032875657">
        <ele>190.96000000000001</ele>
        <time>2017-10-29T18:24:59Z</time>
      </trkpt>
      <trkpt lat="51.802872978150845" lon="9.027712969109416">
        <ele>188.56</ele>
        <time>2017-10-29T18:25:05Z</time>
      </trkpt>
      <trkpt lat="51.804750021547079" lon="9.026635978370905">
        <ele>185.66999999999999</ele>
        <time>2017-10-29T18:25:13Z</time>
      </trkpt>
      <trkpt lat="51.806080983951688" lon="9.026235993951559">
        <ele>182.78999999999999</ele>
        <time>2017-10-29T18:25:19Z</time>
      </trkpt>
      <trkpt lat="51.80840402841568" lon="9.025591006502509">
        <ele>178.46000000000001</ele>
        <time>2017-10-29T18:25:29Z</time>
      </trkpt>
      <trkpt lat="51.808890011161566" lon="9.025456979870796">
        <ele>177.5</ele>
        <time>2017-10-29T18:25:32Z</time>
      </trkpt>
      <trkpt lat="51.809033006429672" lon="9.02546301484108">
        <ele>177.02000000000001</ele>
        <time>2017-10-29T18:25:33Z</time>
      </trkpt>
      <trkpt lat="51.809165021404624" lon="9.025499979034066">
        <ele>177.02000000000001</ele>
        <time>2017-10-29T18:25:34Z</time>
      </trkpt>
      <trkpt lat="51.809301981702447" lon="9.025538032874465">
        <ele>176.53999999999999</ele>
        <time>2017-10-29T18:25:35Z</time>
      </trkpt>
      <trkpt lat="51.809440031647682" lon="9.02563501149416">
        <ele>176.53999999999999</ele>
        <time>2017-10-29T18:25:36Z</time>
      </trkpt>
      <trkpt lat="51.809579003602266" lon="9.025752022862434">
        <ele>176.06</ele>
        <time>2017-10-29T18:25:37Z</time>
      </trkpt>
      <trkpt lat="51.809719987213612" lon="9.025870962068439">
        <ele>175.58000000000001</ele>
        <time>2017-10-29T18:25:38Z</time>
      </trkpt>
      <trkpt lat="51.809847978875041" lon="9.025977998971939">
        <ele>175.58000000000001</ele>
        <time>2017-10-29T18:25:39Z</time>
      </trkpt>
      <trkpt lat="51.809945041313767" lon="9.026153013110161">
        <ele>175.58000000000001</ele>
        <time>2017-10-29T18:25:40Z</time>
      </trkpt>
      <trkpt lat="51.810033973306417" lon="9.02634303085506">
        <ele>175.58000000000001</ele>
        <time>2017-10-29T18:25:41Z</time>
      </trkpt>
      <trkpt lat="51.810129024088383" lon="9.026545034721494">
        <ele>176.06</ele>
        <time>2017-10-29T18:25:42Z</time>
      </trkpt>
      <trkpt lat="51.810220973566175" lon="9.026761036366224">
        <ele>176.06</ele>
        <time>2017-10-29T18:25:43Z</time>
      </trkpt>
      <trkpt lat="51.810261039063334" lon="9.026964968070388">
        <ele>176.06</ele>
        <time>2017-10-29T18:25:44Z</time>
      </trkpt>
      <trkpt lat="51.810290962457657" lon="9.027121961116791">
        <ele>176.53999999999999</ele>
        <time>2017-10-29T18:25:46Z</time>
      </trkpt>
      <trkpt lat="51.810384001582861" lon="9.02767600491643">
        <ele>177.02000000000001</ele>
        <time>2017-10-29T18:25:52Z</time>
      </trkpt>
      <trkpt lat="51.810440998524427" lon="9.027678016573191">
        <ele>177.02000000000001</ele>
        <time>2017-10-29T18:25:54Z</time>
      </trkpt>
      <trkpt lat="51.810477962717414" lon="9.027667036280036">
        <ele>177.02000000000001</ele>
        <time>2017-10-29T18:25:55Z</time>
      </trkpt>
      <trkpt lat="51.811122028157115" lon="9.027446005493403">
        <ele>175.09999999999999</ele>
        <time>2017-10-29T18:26:03Z</time>
      </trkpt>
      <trkpt lat="51.811271980404854" lon="9.027309967204928">
        <ele>174.62</ele>
        <time>2017-10-29T18:26:05Z</time>
      </trkpt>
      <trkpt lat="51.811338029801846" lon="9.027190022170544">
        <ele>174.62</ele>
        <time>2017-10-29T18:26:06Z</time>
      </trkpt>
      <trkpt lat="51.811369964852929" lon="9.027044009417296">
        <ele>174.62</ele>
        <time>2017-10-29T18:26:07Z</time>
      </trkpt>
      <trkpt lat="51.811492005363107" lon="9.026444032788277">
        <ele>175.09999999999999</ele>
        <time>2017-10-29T18:26:11Z</time>
      </trkpt>
      <trkpt lat="51.811508014798164" lon="9.026316041126847">
        <ele>175.09999999999999</ele>
        <time>2017-10-29T18:26:12Z</time>
      </trkpt>
      <trkpt lat="51.81158697232604" lon="9.025590000674129">
        <ele>177.02000000000001</ele>
        <time>2017-10-29T18:26:18Z</time>
      </trkpt>
      <trkpt lat="51.811604993417859" lon="9.025351032614708">
        <ele>177.5</ele>
        <time>2017-10-29T18:26:19Z</time>
      </trkpt>
      <trkpt lat="51.811584960669279" lon="9.025199990719557">
        <ele>178.46000000000001</ele>
        <time>2017-10-29T18:26:21Z</time>
      </trkpt>
      <trkpt lat="51.811448000371456" lon="9.024694981053472">
        <ele>179.90000000000001</ele>
        <time>2017-10-29T18:26:28Z</time>
      </trkpt>
      <trkpt lat="51.811365019530058" lon="9.024522984400392">
        <ele>179.90000000000001</ele>
        <time>2017-10-29T18:26:31Z</time>
      </trkpt>
      <trkpt lat="51.811234010383487" lon="9.024375965818763">
        <ele>179.41999999999999</ele>
        <time>2017-10-29T18:26:33Z</time>
      </trkpt>
      <trkpt lat="51.811089003458619" lon="9.024213021621108">
        <ele>179.41999999999999</ele>
        <time>2017-10-29T18:26:34Z</time>
      </trkpt>
      <trkpt lat="51.811009962111712" lon="9.024124005809426">
        <ele>179.41999999999999</ele>
        <time>2017-10-29T18:26:35Z</time>
      </trkpt>
      <trkpt lat="51.810902003198862" lon="9.024002971127629">
        <ele>179.90000000000001</ele>
        <time>2017-10-29T18:26:36Z</time>
      </trkpt>
      <trkpt lat="51.81085598655045" lon="9.023923007771373">
        <ele>179.90000000000001</ele>
        <time>2017-10-29T18:26:37Z</time>
      </trkpt>
      <trkpt lat="51.810793960466981" lon="9.023813959211111">
        <ele>180.87</ele>
        <time>2017-10-29T18:26:39Z</time>
      </trkpt>
      <trkpt lat="51.810707040131092" lon="9.023563005030155">
        <ele>180.87</ele>
        <time>2017-10-29T18:26:40Z</time>
      </trkpt>
      <trkpt lat="51.81068398989737" lon="9.023424033075571">
        <ele>181.34999999999999</ele>
        <time>2017-10-29T18:26:41Z</time>
      </trkpt>
      <trkpt lat="51.810450972989202" lon="9.021920990198851">
        <ele>187.59</ele>
        <time>2017-10-29T18:26:51Z</time>
      </trkpt>
      <trkpt lat="51.81006096303463" lon="9.020392969250679">
        <ele>187.11000000000001</ele>
        <time>2017-10-29T18:27:02Z</time>
      </trkpt>
      <trkpt lat="51.809941018000245" lon="9.020126005634666">
        <ele>186.15000000000001</ele>
        <time>2017-10-29T18:27:04Z</time>
      </trkpt>
      <trkpt lat="51.809879997745156" lon="9.019990973174572">
        <ele>186.15000000000001</ele>
        <time>2017-10-29T18:27:05Z</time>
      </trkpt>
      <trkpt lat="51.809629965573549" lon="9.0197270270437">
        <ele>185.19</ele>
        <time>2017-10-29T18:27:08Z</time>
      </trkpt>
      <trkpt lat="51.809528041630983" lon="9.019625019282103">
        <ele>185.19</ele>
        <time>2017-10-29T18:27:09Z</time>
      </trkpt>
      <trkpt lat="51.808840977028012" lon="9.019001992419362">
        <ele>184.71000000000001</ele>
        <time>2017-10-29T18:27:17Z</time>
      </trkpt>
      <trkpt lat="51.808781968429685" lon="9.018904007971287">
        <ele>184.71000000000001</ele>
        <time>2017-10-29T18:27:18Z</time>
      </trkpt>
      <trkpt lat="51.808751039206982" lon="9.01878297328949">
        <ele>184.71000000000001</ele>
        <time>2017-10-29T18:27:19Z</time>
      </trkpt>
      <trkpt lat="51.808692030608654" lon="9.018530007451773">
        <ele>184.71000000000001</ele>
        <time>2017-10-29T18:27:20Z</time>
      </trkpt>
      <trkpt lat="51.808683983981609" lon="9.018378965556622">
        <ele>185.19</ele>
        <time>2017-10-29T18:27:22Z</time>
      </trkpt>
      <trkpt lat="51.808642996475101" lon="9.016789002344012">
        <ele>187.59</ele>
        <time>2017-10-29T18:27:29Z</time>
      </trkpt>
      <trkpt lat="51.808518022298813" lon="9.015320995822549">
        <ele>190.47999999999999</ele>
        <time>2017-10-29T18:27:34Z</time>
      </trkpt>
      <trkpt lat="51.807871023193002" lon="9.012909019365907">
        <ele>193.84</ele>
        <time>2017-10-29T18:27:41Z</time>
      </trkpt>
      <trkpt lat="51.807393003255129" lon="9.011374041438103">
        <ele>198.65000000000001</ele>
        <time>2017-10-29T18:27:48Z</time>
      </trkpt>
      <trkpt lat="51.806968040764332" lon="9.009724985808134">
        <ele>199.61000000000001</ele>
        <time>2017-10-29T18:27:54Z</time>
      </trkpt>
      <trkpt lat="51.806250968948007" lon="9.006877988576889">
        <ele>200.56999999999999</ele>
        <time>2017-10-29T18:28:04Z</time>
      </trkpt>
      <trkpt lat="51.805491987615824" lon="9.004714032635093">
        <ele>201.05000000000001</ele>
        <time>2017-10-29T18:28:12Z</time>
      </trkpt>
      <trkpt lat="51.804572995752096" lon="9.002362992614508">
        <ele>202.49000000000001</ele>
        <time>2017-10-29T18:28:21Z</time>
      </trkpt>
      <trkpt lat="51.804126994684339" lon="9.0012720040977">
        <ele>205.38</ele>
        <time>2017-10-29T18:28:27Z</time>
      </trkpt>
      <trkpt lat="51.804031021893024" lon="9.001140994951129">
        <ele>205.86000000000001</ele>
        <time>2017-10-29T18:28:28Z</time>
      </trkpt>
      <trkpt lat="51.80393798276782" lon="9.001021971926093">
        <ele>206.81999999999999</ele>
        <time>2017-10-29T18:28:29Z</time>
      </trkpt>
      <trkpt lat="51.803685016930103" lon="9.000693988054991">
        <ele>209.22</ele>
        <time>2017-10-29T18:28:33Z</time>
      </trkpt>
      <trkpt lat="51.803594995290041" lon="9.000559961423278">
        <ele>209.69999999999999</ele>
        <time>2017-10-29T18:28:34Z</time>
      </trkpt>
      <trkpt lat="51.803569011390209" lon="9.000479998067021">
        <ele>210.19</ele>
        <time>2017-10-29T18:28:35Z</time>
      </trkpt>
      <trkpt lat="51.803548978641629" lon="9.000421995297074">
        <ele>211.63</ele>
        <time>2017-10-29T18:28:37Z</time>
      </trkpt>
      <trkpt lat="51.803545039147139" lon="9.000224014744163">
        <ele>212.11000000000001</ele>
        <time>2017-10-29T18:28:39Z</time>
      </trkpt>
      <trkpt lat="51.803587032482028" lon="9.000182021409273">
        <ele>212.59</ele>
        <time>2017-10-29T18:28:40Z</time>
      </trkpt>
      <trkpt lat="51.803646041080356" lon="9.000124018639326">
        <ele>212.59</ele>
        <time>2017-10-29T18:28:41Z</time>
      </trkpt>
      <trkpt lat="51.804272001609206" lon="8.999476013705134">
        <ele>213.06999999999999</ele>
        <time>2017-10-29T18:28:47Z</time>
      </trkpt>
      <trkpt lat="51.804403010755777" lon="8.999345004558563">
        <ele>213.55000000000001</ele>
        <time>2017-10-29T18:28:48Z</time>
      </trkpt>
      <trkpt lat="51.80453703738749" lon="8.999206032603979">
        <ele>213.55000000000001</ele>
        <time>2017-10-29T18:28:49Z</time>
      </trkpt>
      <trkpt lat="51.805638000369072" lon="8.997945981100202">
        <ele>218.36000000000001</ele>
        <time>2017-10-29T18:28:56Z</time>
      </trkpt>
      <trkpt lat="51.807628031820059" lon="8.995700972154737">
        <ele>232.30000000000001</ele>
        <time>2017-10-29T18:29:06Z</time>
      </trkpt>
      <trkpt lat="51.810111002996564" lon="8.993488987907767">
        <ele>241.91</ele>
        <time>2017-10-29T18:29:17Z</time>
      </trkpt>
      <trkpt lat="51.811976982280612" lon="8.992739981040359">
        <ele>243.34999999999999</ele>
        <time>2017-10-29T18:29:25Z</time>
      </trkpt>
      <trkpt lat="51.813673982396722" lon="8.992468994110823">
        <ele>241.43000000000001</ele>
        <time>2017-10-29T18:29:32Z</time>
      </trkpt>
      <trkpt lat="51.81497803889215" lon="8.991778995841742">
        <ele>239.02000000000001</ele>
        <time>2017-10-29T18:29:38Z</time>
      </trkpt>
      <trkpt lat="51.816112026572227" lon="8.990437975153327">
        <ele>239.02000000000001</ele>
        <time>2017-10-29T18:29:44Z</time>
      </trkpt>
      <trkpt lat="51.817001011222601" lon="8.988323975354433">
        <ele>238.06</ele>
        <time>2017-10-29T18:29:50Z</time>
      </trkpt>
      <trkpt lat="51.817001011222601" lon="8.988323975354433">
        <ele>237.58000000000001</ele>
        <time>2017-10-29T18:29:51Z</time>
      </trkpt>
      <trkpt lat="51.817554971203208" lon="8.985154023393989">
        <ele>235.18000000000001</ele>
        <time>2017-10-29T18:30:00Z</time>
      </trkpt>
      <trkpt lat="51.818189984187484" lon="8.981088967993856">
        <ele>232.30000000000001</ele>
        <time>2017-10-29T18:30:11Z</time>
      </trkpt>
      <trkpt lat="51.818769006058574" lon="8.979373024776578">
        <ele>232.78</ele>
        <time>2017-10-29T18:30:18Z</time>
      </trkpt>
      <trkpt lat="51.819461015984416" lon="8.978279018774629">
        <ele>232.30000000000001</ele>
        <time>2017-10-29T18:30:24Z</time>
      </trkpt>
      <trkpt lat="51.819593030959368" lon="8.978147003799677">
        <ele>232.78</ele>
        <time>2017-10-29T18:30:25Z</time>
      </trkpt>
      <trkpt lat="51.820632973685861" lon="8.977354997768998">
        <ele>232.30000000000001</ele>
        <time>2017-10-29T18:30:31Z</time>
      </trkpt>
      <trkpt lat="51.822137022390962" lon="8.976867003366351">
        <ele>232.30000000000001</ele>
        <time>2017-10-29T18:30:38Z</time>
      </trkpt>
      <trkpt lat="51.824888968840241" lon="8.976054964587092">
        <ele>228.44999999999999</ele>
        <time>2017-10-29T18:30:50Z</time>
      </trkpt>
      <trkpt lat="51.827168008312583" lon="8.975387010723352">
        <ele>224.12</ele>
        <time>2017-10-29T18:31:00Z</time>
      </trkpt>
      <trkpt lat="51.829646034166217" lon="8.974697012454271">
        <ele>224.61000000000001</ele>
        <time>2017-10-29T18:31:10Z</time>
      </trkpt>
      <trkpt lat="51.831239014863968" lon="8.974185967817903">
        <ele>232.30000000000001</ele>
        <time>2017-10-29T18:31:17Z</time>
      </trkpt>
      <trkpt lat="51.833236003294587" lon="8.973924033343792">
        <ele>235.18000000000001</ele>
        <time>2017-10-29T18:31:24Z</time>
      </trkpt>
      <trkpt lat="51.835338016971946" lon="8.973951023072004">
        <ele>231.33000000000001</ele>
        <time>2017-10-29T18:31:33Z</time>
      </trkpt>
      <trkpt lat="51.836561020463705" lon="8.973955968394876">
        <ele>228.93000000000001</ele>
        <time>2017-10-29T18:31:39Z</time>
      </trkpt>
      <trkpt lat="51.837916960939765" lon="8.973924033343792">
        <ele>231.81</ele>
        <time>2017-10-29T18:31:48Z</time>
      </trkpt>
      <trkpt lat="51.839112974703312" lon="8.973502004519105">
        <ele>233.25999999999999</ele>
        <time>2017-10-29T18:31:57Z</time>
      </trkpt>
      <trkpt lat="51.840507974848151" lon="8.972731959074736">
        <ele>233.74000000000001</ele>
        <time>2017-10-29T18:32:09Z</time>
      </trkpt>
      <trkpt lat="51.840971997007728" lon="8.972484022378922">
        <ele>233.74000000000001</ele>
        <time>2017-10-29T18:32:13Z</time>
      </trkpt>
      <trkpt lat="51.841091020032763" lon="8.972420990467072">
        <ele>233.25999999999999</ele>
        <time>2017-10-29T18:32:14Z</time>
      </trkpt>
      <trkpt lat="51.842402033507824" lon="8.971710037440062">
        <ele>232.30000000000001</ele>
        <time>2017-10-29T18:32:24Z</time>
      </trkpt>
      <trkpt lat="51.843999037519097" lon="8.970844019204378">
        <ele>233.25999999999999</ele>
        <time>2017-10-29T18:32:37Z</time>
      </trkpt>
      <trkpt lat="51.845552958548069" lon="8.970001973211765">
        <ele>233.74000000000001</ele>
        <time>2017-10-29T18:32:49Z</time>
      </trkpt>
      <trkpt lat="51.847135964781046" lon="8.969138972461224">
        <ele>238.06</ele>
        <time>2017-10-29T18:33:01Z</time>
      </trkpt>
      <trkpt lat="51.848384030163288" lon="8.968701018020511">
        <ele>240.47</ele>
        <time>2017-10-29T18:33:11Z</time>
      </trkpt>
      <trkpt lat="51.850220002233982" lon="8.968060975894332">
        <ele>236.13999999999999</ele>
        <time>2017-10-29T18:33:20Z</time>
      </trkpt>
      <trkpt lat="51.85122499242425" lon="8.967299982905388">
        <ele>231.33000000000001</ele>
        <time>2017-10-29T18:33:27Z</time>
      </trkpt>
      <trkpt lat="51.852602977305651" lon="8.966022999957204">
        <ele>229.88999999999999</ele>
        <time>2017-10-29T18:33:35Z</time>
      </trkpt>
      <trkpt lat="51.854368038475513" lon="8.963949987664819">
        <ele>227.49000000000001</ele>
        <time>2017-10-29T18:33:45Z</time>
      </trkpt>
      <trkpt lat="51.855838978663087" lon="8.962021982297301">
        <ele>223.16</ele>
        <time>2017-10-29T18:33:54Z</time>
      </trkpt>
      <trkpt lat="51.856899037957191" lon="8.960611978545785">
        <ele>223.63999999999999</ele>
        <time>2017-10-29T18:34:03Z</time>
      </trkpt>
      <trkpt lat="51.857343027368188" lon="8.959847968071699">
        <ele>225.56999999999999</ele>
        <time>2017-10-29T18:34:05Z</time>
      </trkpt>
      <trkpt lat="51.85745500959456" lon="8.959543034434319">
        <ele>227.00999999999999</ele>
        <time>2017-10-29T18:34:06Z</time>
      </trkpt>
      <trkpt lat="51.85868002474308" lon="8.95645204000175">
        <ele>242.38999999999999</ele>
        <time>2017-10-29T18:34:17Z</time>
      </trkpt>
      <trkpt lat="51.859743017703295" lon="8.954637022688985">
        <ele>247.19999999999999</ele>
        <time>2017-10-29T18:34:25Z</time>
      </trkpt>
      <trkpt lat="51.860835012048483" lon="8.9534049667418">
        <ele>246.22999999999999</ele>
        <time>2017-10-29T18:34:34Z</time>
      </trkpt>
      <trkpt lat="51.861316971480846" lon="8.952924013137817">
        <ele>245.27000000000001</ele>
        <time>2017-10-29T18:34:40Z</time>
      </trkpt>
      <trkpt lat="51.861358964815736" lon="8.952881013974547">
        <ele>245.75</ele>
        <time>2017-10-29T18:34:41Z</time>
      </trkpt>
      <trkpt lat="51.861349996179342" lon="8.95275997929275">
        <ele>245.75</ele>
        <time>2017-10-29T18:34:43Z</time>
      </trkpt>
      <trkpt lat="51.861317977309227" lon="8.95269300788641">
        <ele>245.75</ele>
        <time>2017-10-29T18:34:44Z</time>
      </trkpt>
      <trkpt lat="51.861185962334275" lon="8.952327976003289">
        <ele>244.78999999999999</ele>
        <time>2017-10-29T18:34:46Z</time>
      </trkpt>
      <trkpt lat="51.861154027283192" lon="8.952179029583931">
        <ele>244.31</ele>
        <time>2017-10-29T18:34:47Z</time>
      </trkpt>
      <trkpt lat="51.861121002584696" lon="8.952029999345541">
        <ele>243.83000000000001</ele>
        <time>2017-10-29T18:34:48Z</time>
      </trkpt>
      <trkpt lat="51.861122008413076" lon="8.951842999085784">
        <ele>242.87</ele>
        <time>2017-10-29T18:34:49Z</time>
      </trkpt>
      <trkpt lat="51.86113097704947" lon="8.951698997989297">
        <ele>242.38999999999999</ele>
        <time>2017-10-29T18:34:50Z</time>
      </trkpt>
      <trkpt lat="51.861187973991036" lon="8.951548039913178">
        <ele>241.43000000000001</ele>
        <time>2017-10-29T18:34:51Z</time>
      </trkpt>
      <trkpt lat="51.861245976760983" lon="8.951438991352916">
        <ele>240.47</ele>
        <time>2017-10-29T18:34:52Z</time>
      </trkpt>
      <trkpt lat="51.861335998401046" lon="8.951332038268447">
        <ele>239.50999999999999</ele>
        <time>2017-10-29T18:34:53Z</time>
      </trkpt>
      <trkpt lat="51.861413028091192" lon="8.95127696916461">
        <ele>239.02000000000001</ele>
        <time>2017-10-29T18:34:54Z</time>
      </trkpt>
      <trkpt lat="51.861486034467816" lon="8.951225001364946">
        <ele>238.53999999999999</ele>
        <time>2017-10-29T18:34:55Z</time>
      </trkpt>
      <trkpt lat="51.861545965075493" lon="8.951182002201676">
        <ele>237.58000000000001</ele>
        <time>2017-10-29T18:34:57Z</time>
      </trkpt>
      <trkpt lat="51.861642021685839" lon="8.951119976118207">
        <ele>237.09999999999999</ele>
        <time>2017-10-29T18:34:58Z</time>
      </trkpt>
      <trkpt lat="51.861841008067131" lon="8.951207986101508">
        <ele>236.13999999999999</ele>
        <time>2017-10-29T18:35:00Z</time>
      </trkpt>
      <trkpt lat="51.86186003498733" lon="8.951294990256429">
        <ele>235.66</ele>
        <time>2017-10-29T18:35:01Z</time>
      </trkpt>
      <trkpt lat="51.861920971423388" lon="8.951563965529203">
        <ele>234.69999999999999</ele>
        <time>2017-10-29T18:35:02Z</time>
      </trkpt>
      <trkpt lat="51.861920971423388" lon="8.951563965529203">
        <ele>234.22</ele>
        <time>2017-10-29T18:35:03Z</time>
      </trkpt>
      <trkpt lat="51.861961958929896" lon="8.951749037951231">
        <ele>233.74000000000001</ele>
        <time>2017-10-29T18:35:04Z</time>
      </trkpt>
      <trkpt lat="51.862007975578308" lon="8.951959004625678">
        <ele>233.74000000000001</ele>
        <time>2017-10-29T18:35:05Z</time>
      </trkpt>
      <trkpt lat="51.86252698302269" lon="8.953891033306718">
        <ele>232.78</ele>
        <time>2017-10-29T18:35:12Z</time>
      </trkpt>
      <trkpt lat="51.86355703510344" lon="8.956501996144652">
        <ele>227.97</ele>
        <time>2017-10-29T18:35:20Z</time>
      </trkpt>
      <trkpt lat="51.865166025236249" lon="8.959128968417645">
        <ele>223.16</ele>
        <time>2017-10-29T18:35:28Z</time>
      </trkpt>
      <trkpt lat="51.867813030257821" lon="8.962688008323312">
        <ele>217.40000000000001</ele>
        <time>2017-10-29T18:35:41Z</time>
      </trkpt>
      <trkpt lat="51.868953974917531" lon="8.964390037581325">
        <ele>215.94999999999999</ele>
        <time>2017-10-29T18:35:48Z</time>
      </trkpt>
      <trkpt lat="51.870510997250676" lon="8.967505004256964">
        <ele>217.88</ele>
        <time>2017-10-29T18:35:58Z</time>
      </trkpt>
      <trkpt lat="51.871616989374161" lon="8.97059197537601">
        <ele>218.84</ele>
        <time>2017-10-29T18:36:07Z</time>
      </trkpt>
      <trkpt lat="51.872530030086637" lon="8.973428998142481">
        <ele>217.40000000000001</ele>
        <time>2017-10-29T18:36:15Z</time>
      </trkpt>
      <trkpt lat="51.873599980026484" lon="8.975977012887597">
        <ele>214.03</ele>
        <time>2017-10-29T18:36:23Z</time>
      </trkpt>
      <trkpt lat="51.875026999041438" lon="8.978209029883146">
        <ele>209.22</ele>
        <time>2017-10-29T18:36:31Z</time>
      </trkpt>
      <trkpt lat="51.876100972294807" lon="8.979417029768229">
        <ele>205.86000000000001</ele>
        <time>2017-10-29T18:36:37Z</time>
      </trkpt>
      <trkpt lat="51.87763100489974" lon="8.980784034356475">
        <ele>202.49000000000001</ele>
        <time>2017-10-29T18:36:45Z</time>
      </trkpt>
      <trkpt lat="51.879896968603134" lon="8.982768030837178">
        <ele>195.77000000000001</ele>
        <time>2017-10-29T18:36:55Z</time>
      </trkpt>
      <trkpt lat="51.881873002275825" lon="8.98494497872889">
        <ele>188.08000000000001</ele>
        <time>2017-10-29T18:37:04Z</time>
      </trkpt>
      <trkpt lat="51.88343002460897" lon="8.98743499070406">
        <ele>182.31</ele>
        <time>2017-10-29T18:37:12Z</time>
      </trkpt>
      <trkpt lat="51.884686974808574" lon="8.990543000400066">
        <ele>177.02000000000001</ele>
        <time>2017-10-29T18:37:20Z</time>
      </trkpt>
      <trkpt lat="51.885552993044257" lon="8.993969019502401">
        <ele>171.25</ele>
        <time>2017-10-29T18:37:28Z</time>
      </trkpt>
      <trkpt lat="51.886197980493307" lon="8.996612001210451">
        <ele>170.28999999999999</ele>
        <time>2017-10-29T18:37:34Z</time>
      </trkpt>
      <trkpt lat="51.887317970395088" lon="9.000052018091083">
        <ele>173.66</ele>
        <time>2017-10-29T18:37:44Z</time>
      </trkpt>
      <trkpt lat="51.889042966067791" lon="9.003503015264869">
        <ele>180.38</ele>
        <time>2017-10-29T18:37:53Z</time>
      </trkpt>
      <trkpt lat="51.890580039471388" lon="9.005760010331869">
        <ele>188.08000000000001</ele>
        <time>2017-10-29T18:38:02Z</time>
      </trkpt>
      <trkpt lat="51.892633019015193" lon="9.007919020950794">
        <ele>195.28</ele>
        <time>2017-10-29T18:38:11Z</time>
      </trkpt>
      <trkpt lat="51.894804015755653" lon="9.009394990280271">
        <ele>201.53</ele>
        <time>2017-10-29T18:38:20Z</time>
      </trkpt>
      <trkpt lat="51.896308986470103" lon="9.010063027963042">
        <ele>205.38</ele>
        <time>2017-10-29T18:38:27Z</time>
      </trkpt>
      <trkpt lat="51.897921999916434" lon="9.01048899628222">
        <ele>212.11000000000001</ele>
        <time>2017-10-29T18:38:35Z</time>
      </trkpt>
      <trkpt lat="51.899794014170766" lon="9.010592009872198">
        <ele>217.88</ele>
        <time>2017-10-29T18:38:44Z</time>
      </trkpt>
      <trkpt lat="51.902051009237766" lon="9.010199988260865">
        <ele>226.53</ele>
        <time>2017-10-29T18:38:54Z</time>
      </trkpt>
      <trkpt lat="51.904096025973558" lon="9.009304968640208">
        <ele>234.22</ele>
        <time>2017-10-29T18:39:03Z</time>
      </trkpt>
      <trkpt lat="51.906729033216834" lon="9.007743000984192">
        <ele>241.91</ele>
        <time>2017-10-29T18:39:15Z</time>
      </trkpt>
      <trkpt lat="51.908597024157643" lon="9.00728995911777">
        <ele>243.83000000000001</ele>
        <time>2017-10-29T18:39:22Z</time>
      </trkpt>
      <trkpt lat="51.910026976838708" lon="9.007687009871006">
        <ele>242.38999999999999</ele>
        <time>2017-10-29T18:39:29Z</time>
      </trkpt>
      <trkpt lat="51.910870028659701" lon="9.008208028972149">
        <ele>240.94999999999999</ele>
        <time>2017-10-29T18:39:33Z</time>
      </trkpt>
      <trkpt lat="51.911965040490031" lon="9.009406976401806">
        <ele>237.58000000000001</ele>
        <time>2017-10-29T18:39:39Z</time>
      </trkpt>
      <trkpt lat="51.913070026785135" lon="9.011497003957629">
        <ele>227.97</ele>
        <time>2017-10-29T18:39:47Z</time>
      </trkpt>
      <trkpt lat="51.913676038384438" lon="9.013549983501434">
        <ele>219.80000000000001</ele>
        <time>2017-10-29T18:39:53Z</time>
      </trkpt>
      <trkpt lat="51.91456301137805" lon="9.01786096394062">
        <ele>202.49000000000001</ele>
        <time>2017-10-29T18:40:03Z</time>
      </trkpt>
      <trkpt lat="51.915611000731587" lon="9.021512037143111">
        <ele>188.08000000000001</ele>
        <time>2017-10-29T18:40:13Z</time>
      </trkpt>
      <trkpt lat="51.916333017870784" lon="9.02391797862947">
        <ele>179.90000000000001</ele>
        <time>2017-10-29T18:40:22Z</time>
      </trkpt>
      <trkpt lat="51.916786981746554" lon="9.026416037231684">
        <ele>177.02000000000001</ele>
        <time>2017-10-29T18:40:31Z</time>
      </trkpt>
      <trkpt lat="51.917445966973901" lon="9.028305988758802">
        <ele>174.62</ele>
        <time>2017-10-29T18:40:40Z</time>
      </trkpt>
      <trkpt lat="51.9184959679842" lon="9.030037019401789">
        <ele>174.62</ele>
        <time>2017-10-29T18:40:51Z</time>
      </trkpt>
      <trkpt lat="51.919589973986149" lon="9.031991008669138">
        <ele>172.21000000000001</ele>
        <time>2017-10-29T18:41:04Z</time>
      </trkpt>
      <trkpt lat="51.920092971995473" lon="9.033632017672062">
        <ele>173.16999999999999</ele>
        <time>2017-10-29T18:41:13Z</time>
      </trkpt>
      <trkpt lat="51.920624971389771" lon="9.036072995513678">
        <ele>171.72999999999999</ele>
        <time>2017-10-29T18:41:26Z</time>
      </trkpt>
      <trkpt lat="51.921106008812785" lon="9.038370978087187">
        <ele>168.37</ele>
        <time>2017-10-29T18:41:38Z</time>
      </trkpt>
      <trkpt lat="51.921529965475202" lon="9.040196975693107">
        <ele>164.03999999999999</ele>
        <time>2017-10-29T18:41:46Z</time>
      </trkpt>
      <trkpt lat="51.922280983999372" lon="9.04269696213305">
        <ele>162.59999999999999</ele>
        <time>2017-10-29T18:41:54Z</time>
      </trkpt>
      <trkpt lat="51.923343976959586" lon="9.045802960172296">
        <ele>161.63999999999999</ele>
        <time>2017-10-29T18:42:04Z</time>
      </trkpt>
      <trkpt lat="51.924352990463376" lon="9.047858035191894">
        <ele>157.78999999999999</ele>
        <time>2017-10-29T18:42:11Z</time>
      </trkpt>
      <trkpt lat="51.926346039399505" lon="9.051664005964994">
        <ele>154.91</ele>
        <time>2017-10-29T18:42:23Z</time>
      </trkpt>
      <trkpt lat="51.927553033456206" lon="9.053392019122839">
        <ele>154.91</ele>
        <time>2017-10-29T18:42:30Z</time>
      </trkpt>
      <trkpt lat="51.930095013231039" lon="9.056743020191789">
        <ele>143.84999999999999</ele>
        <time>2017-10-29T18:42:42Z</time>
      </trkpt>
      <trkpt lat="51.931843981146812" lon="9.05904795974493">
        <ele>137.13</ele>
        <time>2017-10-29T18:42:51Z</time>
      </trkpt>
      <trkpt lat="51.933128004893661" lon="9.060733979567885">
        <ele>138.56999999999999</ele>
        <time>2017-10-29T18:42:59Z</time>
      </trkpt>
      <trkpt lat="51.933576017618179" lon="9.061376033350825">
        <ele>140.97</ele>
        <time>2017-10-29T18:43:04Z</time>
      </trkpt>
      <trkpt lat="51.933738039806485" lon="9.061746010556817">
        <ele>140.97</ele>
        <time>2017-10-29T18:43:05Z</time>
      </trkpt>
      <trkpt lat="51.933799982070923" lon="9.061938039958477">
        <ele>140.97</ele>
        <time>2017-10-29T18:43:06Z</time>
      </trkpt>
      <trkpt lat="51.933861002326012" lon="9.062126968055964">
        <ele>140.49000000000001</ele>
        <time>2017-10-29T18:43:07Z</time>
      </trkpt>
      <trkpt lat="51.93392101675272" lon="9.062317991629243">
        <ele>140.49000000000001</ele>
        <time>2017-10-29T18:43:09Z</time>
      </trkpt>
      <trkpt lat="51.933956975117326" lon="9.06252795830369">
        <ele>140.97</ele>
        <time>2017-10-29T18:43:10Z</time>
      </trkpt>
      <trkpt lat="51.934203989803791" lon="9.064921997487545">
        <ele>143.37</ele>
        <time>2017-10-29T18:43:18Z</time>
      </trkpt>
      <trkpt lat="51.934494003653526" lon="9.068246008828282">
        <ele>147.69999999999999</ele>
        <time>2017-10-29T18:43:29Z</time>
      </trkpt>
      <trkpt lat="51.934818970039487" lon="9.072016021236777">
        <ele>148.18000000000001</ele>
        <time>2017-10-29T18:43:41Z</time>
      </trkpt>
      <trkpt lat="51.935236975550652" lon="9.075620993971825">
        <ele>142.88999999999999</ele>
        <time>2017-10-29T18:43:52Z</time>
      </trkpt>
      <trkpt lat="51.935376031324267" lon="9.076518025249243">
        <ele>140.00999999999999</ele>
        <time>2017-10-29T18:43:56Z</time>
      </trkpt>
      <trkpt lat="51.935454988852143" lon="9.076812984421849">
        <ele>140.00999999999999</ele>
        <time>2017-10-29T18:43:57Z</time>
      </trkpt>
      <trkpt lat="51.936213970184326" lon="9.078741995617747">
        <ele>141.93000000000001</ele>
        <time>2017-10-29T18:44:05Z</time>
      </trkpt>
      <trkpt lat="51.937526995316148" lon="9.081336027011275">
        <ele>154.43000000000001</ele>
        <time>2017-10-29T18:44:16Z</time>
      </trkpt>
      <trkpt lat="51.937798988074064" lon="9.082003980875015">
        <ele>156.34999999999999</ele>
        <time>2017-10-29T18:44:19Z</time>
      </trkpt>
      <trkpt lat="51.93787501193583" lon="9.082216965034604">
        <ele>156.83000000000001</ele>
        <time>2017-10-29T18:44:20Z</time>
      </trkpt>
      <trkpt lat="51.938107023015618" lon="9.082847032696009">
        <ele>157.78999999999999</ele>
        <time>2017-10-29T18:44:23Z</time>
      </trkpt>
      <trkpt lat="51.938808001577854" lon="9.084790963679552">
        <ele>161.16</ele>
        <time>2017-10-29T18:44:32Z</time>
      </trkpt>
      <trkpt lat="51.939237993210554" lon="9.085978008806706">
        <ele>158.75</ele>
        <time>2017-10-29T18:44:40Z</time>
      </trkpt>
      <trkpt lat="51.939275041222572" lon="9.086078004911542">
        <ele>158.27000000000001</ele>
        <time>2017-10-29T18:44:41Z</time>
      </trkpt>
      <trkpt lat="51.939451983198524" lon="9.086595000699163">
        <ele>156.34999999999999</ele>
        <time>2017-10-29T18:44:50Z</time>
      </trkpt>
      <trkpt lat="51.939524989575148" lon="9.086823994293809">
        <ele>155.87</ele>
        <time>2017-10-29T18:45:10Z</time>
      </trkpt>
      <trkpt lat="51.939524989575148" lon="9.086823994293809">
        <ele>155.38999999999999</ele>
        <time>2017-10-29T18:45:11Z</time>
      </trkpt>
      <trkpt lat="51.939626997336745" lon="9.086862970143557">
        <ele>155.38999999999999</ele>
        <time>2017-10-29T18:45:12Z</time>
      </trkpt>
      <trkpt lat="51.939626997336745" lon="9.086862970143557">
        <ele>154.91</ele>
        <time>2017-10-29T18:45:13Z</time>
      </trkpt>
      <trkpt lat="51.93965801037848" lon="9.08682600595057">
        <ele>154.91</ele>
        <time>2017-10-29T18:45:14Z</time>
      </trkpt>
      <trkpt lat="51.939704027026892" lon="9.086773032322526">
        <ele>154.43000000000001</ele>
        <time>2017-10-29T18:45:15Z</time>
      </trkpt>
      <trkpt lat="51.939762029796839" lon="9.086703965440393">
        <ele>154.43000000000001</ele>
        <time>2017-10-29T18:45:16Z</time>
      </trkpt>
      <trkpt lat="51.940197972580791" lon="9.086111029610038">
        <ele>155.38999999999999</ele>
        <time>2017-10-29T18:45:22Z</time>
      </trkpt>
      <trkpt lat="51.940266033634543" lon="9.086000975221396">
        <ele>155.38999999999999</ele>
        <time>2017-10-29T18:45:23Z</time>
      </trkpt>
      <trkpt lat="51.940328981727362" lon="9.085866026580334">
        <ele>155.87</ele>
        <time>2017-10-29T18:45:24Z</time>
      </trkpt>
      <trkpt lat="51.940394025295973" lon="9.08572998829186">
        <ele>156.34999999999999</ele>
        <time>2017-10-29T18:45:25Z</time>
      </trkpt>
      <trkpt lat="51.940446998924017" lon="9.085596967488527">
        <ele>156.34999999999999</ele>
        <time>2017-10-29T18:45:26Z</time>
      </trkpt>
      <trkpt lat="51.940485974773765" lon="9.085350036621094">
        <ele>156.83000000000001</ele>
        <time>2017-10-29T18:45:28Z</time>
      </trkpt>
      <trkpt lat="51.940501984208822" lon="9.085250962525606">
        <ele>156.83000000000001</ele>
        <time>2017-10-29T18:45:29Z</time>
      </trkpt>
      <trkpt lat="51.940600974485278" lon="9.085079971700907">
        <ele>157.31</ele>
        <time>2017-10-29T18:45:30Z</time>
      </trkpt>
      <trkpt lat="51.940742963925004" lon="9.085057005286217">
        <ele>158.27000000000001</ele>
        <time>2017-10-29T18:45:32Z</time>
      </trkpt>
      <trkpt lat="51.94170000962913" lon="9.084651991724968">
        <ele>159.72</ele>
        <time>2017-10-29T18:45:39Z</time>
      </trkpt>
      <trkpt lat="51.941952975466847" lon="9.084573034197092">
        <ele>158.75</ele>
        <time>2017-10-29T18:45:42Z</time>
      </trkpt>
      <trkpt lat="51.942348014563322" lon="9.084520982578397">
        <ele>158.27000000000001</ele>
        <time>2017-10-29T18:45:44Z</time>
      </trkpt>
      <trkpt lat="51.943426011130214" lon="9.085048036649823">
        <ele>158.75</ele>
        <time>2017-10-29T18:45:52Z</time>
      </trkpt>
      <trkpt lat="51.944840038195252" lon="9.086300963535905">
        <ele>160.19999999999999</ele>
        <time>2017-10-29T18:46:02Z</time>
      </trkpt>
      <trkpt lat="51.945684012025595" lon="9.087038990110159">
        <ele>160.68000000000001</ele>
        <time>2017-10-29T18:46:08Z</time>
      </trkpt>
      <trkpt lat="51.946494961157441" lon="9.087670985609293">
        <ele>162.12</ele>
        <time>2017-10-29T18:46:15Z</time>
      </trkpt>
      <trkpt lat="51.94709200412035" lon="9.088111035525799">
        <ele>164.03999999999999</ele>
        <time>2017-10-29T18:46:21Z</time>
      </trkpt>
      <trkpt lat="51.94719904102385" lon="9.088189993053675">
        <ele>164.03999999999999</ele>
        <time>2017-10-29T18:46:22Z</time>
      </trkpt>
      <trkpt lat="51.947498023509979" lon="9.088458968326449">
        <ele>163.56</ele>
        <time>2017-10-29T18:46:25Z</time>
      </trkpt>
      <trkpt lat="51.94769399240613" lon="9.088698020204902">
        <ele>164.03999999999999</ele>
        <time>2017-10-29T18:46:27Z</time>
      </trkpt>
      <trkpt lat="51.947906976565719" lon="9.089133962988854">
        <ele>164.52000000000001</ele>
        <time>2017-10-29T18:46:30Z</time>
      </trkpt>
      <trkpt lat="51.948260022327304" lon="9.09064999781549">
        <ele>167.88999999999999</ele>
        <time>2017-10-29T18:46:40Z</time>
      </trkpt>
      <trkpt lat="51.948307966813445" lon="9.091021986678243">
        <ele>167.88999999999999</ele>
        <time>2017-10-29T18:46:42Z</time>
      </trkpt>
      <trkpt lat="51.948349038138986" lon="9.091255003586412">
        <ele>168.37</ele>
        <time>2017-10-29T18:46:47Z</time>
      </trkpt>
      <trkpt lat="51.948394970968366" lon="9.091270007193089">
        <ele>168.37</ele>
        <time>2017-10-29T18:46:48Z</time>
      </trkpt>
      <trkpt lat="51.948456997051835" lon="9.091290039941669">
        <ele>167.88999999999999</ele>
        <time>2017-10-29T18:46:49Z</time>
      </trkpt>
      <trkpt lat="51.948535032570362" lon="9.0913160238415">
        <ele>167.88999999999999</ele>
        <time>2017-10-29T18:46:50Z</time>
      </trkpt>
      <trkpt lat="51.948616001754999" lon="9.091344019398093">
        <ele>167.41</ele>
        <time>2017-10-29T18:46:51Z</time>
      </trkpt>
      <trkpt lat="51.948800990357995" lon="9.091442003846169">
        <ele>167.88999999999999</ele>
        <time>2017-10-29T18:46:53Z</time>
      </trkpt>
      <trkpt lat="51.948893023654819" lon="9.091517021879554">
        <ele>168.37</ele>
        <time>2017-10-29T18:46:54Z</time>
      </trkpt>
      <trkpt lat="51.948986984789371" lon="9.091592961922288">
        <ele>168.37</ele>
        <time>2017-10-29T18:46:55Z</time>
      </trkpt>
      <trkpt lat="51.949082035571337" lon="9.09168298356235">
        <ele>168.84999999999999</ele>
        <time>2017-10-29T18:46:56Z</time>
      </trkpt>
      <trkpt lat="51.949159987270832" lon="9.091814998537302">
        <ele>169.33000000000001</ele>
        <time>2017-10-29T18:46:57Z</time>
      </trkpt>
      <trkpt lat="51.950049977749586" lon="9.09312198869884">
        <ele>175.58000000000001</ele>
        <time>2017-10-29T18:47:06Z</time>
      </trkpt>
      <trkpt lat="51.950156008824706" lon="9.093231959268451">
        <ele>176.06</ele>
        <time>2017-10-29T18:47:07Z</time>
      </trkpt>
      <trkpt lat="51.950262039899826" lon="9.093341007828713">
        <ele>177.02000000000001</ele>
        <time>2017-10-29T18:47:08Z</time>
      </trkpt>
      <trkpt lat="51.950397994369268" lon="9.093482997268438">
        <ele>178.46000000000001</ele>
        <time>2017-10-29T18:47:10Z</time>
      </trkpt>
      <trkpt lat="51.95048701018095" lon="9.093531025573611">
        <ele>178.94</ele>
        <time>2017-10-29T18:47:11Z</time>
      </trkpt>
      <trkpt lat="51.951503986492753" lon="9.094049027189612">
        <ele>186.15000000000001</ele>
        <time>2017-10-29T18:47:19Z</time>
      </trkpt>
      <trkpt lat="51.951614040881395" lon="9.094070987775922">
        <ele>187.11000000000001</ele>
        <time>2017-10-29T18:47:20Z</time>
      </trkpt>
      <trkpt lat="51.951725017279387" lon="9.094082973897457">
        <ele>188.08000000000001</ele>
        <time>2017-10-29T18:47:21Z</time>
      </trkpt>
      <trkpt lat="51.951834987848997" lon="9.094056989997625">
        <ele>188.08000000000001</ele>
        <time>2017-10-29T18:47:22Z</time>
      </trkpt>
      <trkpt lat="51.951943030580878" lon="9.094030000269413">
        <ele>188.56</ele>
        <time>2017-10-29T18:47:23Z</time>
      </trkpt>
      <trkpt lat="51.952047972008586" lon="9.094003010541201">
        <ele>189.52000000000001</ele>
        <time>2017-10-29T18:47:25Z</time>
      </trkpt>
      <trkpt lat="51.952218962833285" lon="9.093796983361244">
        <ele>190.47999999999999</ele>
        <time>2017-10-29T18:47:26Z</time>
      </trkpt>
      <trkpt lat="51.952298004180193" lon="9.093689024448395">
        <ele>190.96000000000001</ele>
        <time>2017-10-29T18:47:27Z</time>
      </trkpt>
      <trkpt lat="51.952347038313746" lon="9.093545023351908">
        <ele>191.44</ele>
        <time>2017-10-29T18:47:28Z</time>
      </trkpt>
      <trkpt lat="51.952391965314746" lon="9.093389958143234">
        <ele>191.91999999999999</ele>
        <time>2017-10-29T18:47:29Z</time>
      </trkpt>
      <trkpt lat="51.952438987791538" lon="9.093231959268451">
        <ele>192.40000000000001</ele>
        <time>2017-10-29T18:47:30Z</time>
      </trkpt>
      <trkpt lat="51.952480981126428" lon="9.093069015070796">
        <ele>192.88</ele>
        <time>2017-10-29T18:47:31Z</time>
      </trkpt>
      <trkpt lat="51.952491039410233" lon="9.092880003154278">
        <ele>192.88</ele>
        <time>2017-10-29T18:47:32Z</time>
      </trkpt>
      <trkpt lat="51.952501013875008" lon="9.092684034258127">
        <ele>193.36000000000001</ele>
        <time>2017-10-29T18:47:33Z</time>
      </trkpt>
      <trkpt lat="51.95255097001791" lon="9.091891022399068">
        <ele>195.28</ele>
        <time>2017-10-29T18:47:37Z</time>
      </trkpt>
      <trkpt lat="51.952596986666322" lon="9.091723971068859">
        <ele>195.77000000000001</ele>
        <time>2017-10-29T18:47:38Z</time>
      </trkpt>
      <trkpt lat="51.952640991657972" lon="9.091567983850837">
        <ele>196.72999999999999</ele>
        <time>2017-10-29T18:47:39Z</time>
      </trkpt>
      <trkpt lat="51.952694971114397" lon="9.091448960825801">
        <ele>198.16999999999999</ele>
        <time>2017-10-29T18:47:41Z</time>
      </trkpt>
      <trkpt lat="51.952929999679327" lon="9.091121982783079">
        <ele>199.61000000000001</ele>
        <time>2017-10-29T18:47:43Z</time>
      </trkpt>
      <trkpt lat="51.953037036582828" lon="9.09101502969861">
        <ele>200.56999999999999</ele>
        <time>2017-10-29T18:47:44Z</time>
      </trkpt>
      <trkpt lat="51.954059964045882" lon="9.090602975338697">
        <ele>205.38</ele>
        <time>2017-10-29T18:47:51Z</time>
      </trkpt>
      <trkpt lat="51.95497996173799" lon="9.090273985639215">
        <ele>204.41999999999999</ele>
        <time>2017-10-29T18:47:59Z</time>
      </trkpt>
      <trkpt lat="51.956345960497856" lon="9.089664034545422">
        <ele>198.65000000000001</ele>
        <time>2017-10-29T18:48:06Z</time>
      </trkpt>
      <trkpt lat="51.957148024812341" lon="9.089700998738408">
        <ele>197.21000000000001</ele>
        <time>2017-10-29T18:48:12Z</time>
      </trkpt>
      <trkpt lat="51.95774900726974" lon="9.089754978194833">
        <ele>194.31999999999999</ele>
        <time>2017-10-29T18:48:18Z</time>
      </trkpt>
      <trkpt lat="51.957820001989603" lon="9.089761013165116">
        <ele>193.84</ele>
        <time>2017-10-29T18:48:26Z</time>
      </trkpt>
      <trkpt lat="51.957820001989603" lon="9.089761013165116">
        <ele>193.84</ele>
        <time>2017-10-29T18:48:55Z</time>
      </trkpt>
      <trkpt lat="51.957820001989603" lon="9.089761013165116">
        <ele>193.36000000000001</ele>
        <time>2017-10-29T18:49:20Z</time>
      </trkpt>
      <trkpt lat="51.957820001989603" lon="9.089761013165116">
        <ele>193.84</ele>
        <time>2017-10-29T18:50:14Z</time>
      </trkpt>
      <trkpt lat="51.957860989496112" lon="9.089765036478639">
        <ele>192.88</ele>
        <time>2017-10-29T18:50:48Z</time>
      </trkpt>
      <trkpt lat="51.957989986985922" lon="9.089776016771793">
        <ele>192.88</ele>
        <time>2017-10-29T18:50:49Z</time>
      </trkpt>
      <trkpt lat="51.958622988313437" lon="9.089771993458271">
        <ele>192.40000000000001</ele>
        <time>2017-10-29T18:50:56Z</time>
      </trkpt>
      <trkpt lat="51.958913002163172" lon="9.089632015675306">
        <ele>192.40000000000001</ele>
        <time>2017-10-29T18:50:57Z</time>
      </trkpt>
      <trkpt lat="51.960086971521378" lon="9.088677987456322">
        <ele>196.72999999999999</ele>
        <time>2017-10-29T18:51:05Z</time>
      </trkpt>
      <trkpt lat="51.960195014253259" lon="9.088555024936795">
        <ele>197.21000000000001</ele>
        <time>2017-10-29T18:51:06Z</time>
      </trkpt>
      <trkpt lat="51.960303978994489" lon="9.088430972769857">
        <ele>198.16999999999999</ele>
        <time>2017-10-29T18:51:07Z</time>
      </trkpt>
      <trkpt lat="51.960395006462932" lon="9.088251013308764">
        <ele>198.65000000000001</ele>
        <time>2017-10-29T18:51:08Z</time>
      </trkpt>
      <trkpt lat="51.960484022274613" lon="9.088038029149175">
        <ele>199.13</ele>
        <time>2017-10-29T18:51:09Z</time>
      </trkpt>
      <trkpt lat="51.960579995065928" lon="9.087811969220638">
        <ele>199.61000000000001</ele>
        <time>2017-10-29T18:51:10Z</time>
      </trkpt>
      <trkpt lat="51.961221965029836" lon="9.086287971585989">
        <ele>201.05000000000001</ele>
        <time>2017-10-29T18:51:17Z</time>
      </trkpt>
      <trkpt lat="51.961663020774722" lon="9.085242999717593">
        <ele>203.94</ele>
        <time>2017-10-29T18:51:24Z</time>
      </trkpt>
      <trkpt lat="51.961735021322966" lon="9.08517099916935">
        <ele>204.41999999999999</ele>
        <time>2017-10-29T18:51:25Z</time>
      </trkpt>
      <trkpt lat="51.961824959143996" lon="9.085080977529287">
        <ele>204.41999999999999</ele>
        <time>2017-10-29T18:51:26Z</time>
      </trkpt>
      <trkpt lat="51.962015982717276" lon="9.08489003777504">
        <ele>204.41999999999999</ele>
        <time>2017-10-29T18:51:28Z</time>
      </trkpt>
      <trkpt lat="51.962369028478861" lon="9.084453005343676">
        <ele>206.34</ele>
        <time>2017-10-29T18:51:32Z</time>
      </trkpt>
      <trkpt lat="51.962416972965002" lon="9.084302969276905">
        <ele>206.81999999999999</ele>
        <time>2017-10-29T18:51:33Z</time>
      </trkpt>
      <trkpt lat="51.962461983785033" lon="9.084114041179419">
        <ele>207.30000000000001</ele>
        <time>2017-10-29T18:51:34Z</time>
      </trkpt>
      <trkpt lat="51.962846964597702" lon="9.082487029954791">
        <ele>210.19</ele>
        <time>2017-10-29T18:51:40Z</time>
      </trkpt>
      <trkpt lat="51.963727986440063" lon="9.078718023374677">
        <ele>224.61000000000001</ele>
        <time>2017-10-29T18:51:51Z</time>
      </trkpt>
      <trkpt lat="51.964549999684095" lon="9.075123025104404">
        <ele>243.34999999999999</ele>
        <time>2017-10-29T18:52:01Z</time>
      </trkpt>
      <trkpt lat="51.964632980525494" lon="9.074756987392902">
        <ele>247.19999999999999</ele>
        <time>2017-10-29T18:52:04Z</time>
      </trkpt>
      <trkpt lat="51.964691989123821" lon="9.074509972706437">
        <ele>248.16</ele>
        <time>2017-10-29T18:52:05Z</time>
      </trkpt>
      <trkpt lat="51.964744040742517" lon="9.074445012956858">
        <ele>249.12</ele>
        <time>2017-10-29T18:52:06Z</time>
      </trkpt>
      <trkpt lat="51.964816963300109" lon="9.074402013793588">
        <ele>250.08000000000001</ele>
        <time>2017-10-29T18:52:07Z</time>
      </trkpt>
      <trkpt lat="51.964893992990255" lon="9.074393967166543">
        <ele>251.03999999999999</ele>
        <time>2017-10-29T18:52:08Z</time>
      </trkpt>
      <trkpt lat="51.964984014630318" lon="9.074397990480065">
        <ele>252</ele>
        <time>2017-10-29T18:52:09Z</time>
      </trkpt>
      <trkpt lat="51.965073030441999" lon="9.074473008513451">
        <ele>252.96000000000001</ele>
        <time>2017-10-29T18:52:10Z</time>
      </trkpt>
      <trkpt lat="51.965177971869707" lon="9.074562024325132">
        <ele>253.93000000000001</ele>
        <time>2017-10-29T18:52:11Z</time>
      </trkpt>
      <trkpt lat="51.966086989268661" lon="9.075324023142457">
        <ele>261.62</ele>
        <time>2017-10-29T18:52:17Z</time>
      </trkpt>
      <trkpt lat="51.966825015842915" lon="9.075756026431918">
        <ele>267.86000000000001</ele>
        <time>2017-10-29T18:52:22Z</time>
      </trkpt>
      <trkpt lat="51.966959964483976" lon="9.075729958713055">
        <ele>269.31</ele>
        <time>2017-10-29T18:52:23Z</time>
      </trkpt>
      <trkpt lat="51.967105977237225" lon="9.075701963156462">
        <ele>269.79000000000002</ele>
        <time>2017-10-29T18:52:24Z</time>
      </trkpt>
      <trkpt lat="51.967435972765088" lon="9.075597021728754">
        <ele>271.23000000000002</ele>
        <time>2017-10-29T18:52:26Z</time>
      </trkpt>
      <trkpt lat="51.967600006610155" lon="9.075458971783519">
        <ele>271.70999999999998</ele>
        <time>2017-10-29T18:52:27Z</time>
      </trkpt>
      <trkpt lat="51.968606002628803" lon="9.074612986296415">
        <ele>271.70999999999998</ele>
        <time>2017-10-29T18:52:33Z</time>
      </trkpt>
      <trkpt lat="51.968810018151999" lon="9.07445196993649">
        <ele>270.75</ele>
        <time>2017-10-29T18:52:36Z</time>
      </trkpt>
      <trkpt lat="51.968956030905247" lon="9.074397990480065">
        <ele>270.26999999999998</ele>
        <time>2017-10-29T18:52:37Z</time>
      </trkpt>
      <trkpt lat="51.969066001474857" lon="9.07438499853015">
        <ele>269.79000000000002</ele>
        <time>2017-10-29T18:52:38Z</time>
      </trkpt>
      <trkpt lat="51.969089973717928" lon="9.074398996308446">
        <ele>269.31</ele>
        <time>2017-10-29T18:52:39Z</time>
      </trkpt>
      <trkpt lat="51.969245038926601" lon="9.074486000463367">
        <ele>268.35000000000002</ele>
        <time>2017-10-29T18:52:41Z</time>
      </trkpt>
      <trkpt lat="51.969348974525928" lon="9.074544003233314">
        <ele>268.35000000000002</ele>
        <time>2017-10-29T18:52:42Z</time>
      </trkpt>
      <trkpt lat="51.970126982778311" lon="9.074910040944815">
        <ele>267.86000000000001</ele>
        <time>2017-10-29T18:52:47Z</time>
      </trkpt>
      <trkpt lat="51.970464019104838" lon="9.075054964050651">
        <ele>267.86000000000001</ele>
        <time>2017-10-29T18:52:49Z</time>
      </trkpt>
      <trkpt lat="51.971771009266376" lon="9.075408009812236">
        <ele>266.42000000000002</ele>
        <time>2017-10-29T18:52:56Z</time>
      </trkpt>
      <trkpt lat="51.972998036071658" lon="9.075425025075674">
        <ele>264.98000000000002</ele>
        <time>2017-10-29T18:53:03Z</time>
      </trkpt>
      <trkpt lat="51.974167982116342" lon="9.075217992067337">
        <ele>263.06</ele>
        <time>2017-10-29T18:53:10Z</time>
      </trkpt>
      <trkpt lat="51.974293040111661" lon="9.075171975418925">
        <ele>262.57999999999998</ele>
        <time>2017-10-29T18:53:11Z</time>
      </trkpt>
      <trkpt lat="51.974391024559736" lon="9.075088994577527">
        <ele>262.10000000000002</ele>
        <time>2017-10-29T18:53:12Z</time>
      </trkpt>
      <trkpt lat="51.974484985694289" lon="9.075010037049651">
        <ele>261.62</ele>
        <time>2017-10-29T18:53:13Z</time>
      </trkpt>
      <trkpt lat="51.974563021212816" lon="9.074913980439305">
        <ele>261.13999999999999</ele>
        <time>2017-10-29T18:53:14Z</time>
      </trkpt>
      <trkpt lat="51.974624963477254" lon="9.074791017919779">
        <ele>260.64999999999998</ele>
        <time>2017-10-29T18:53:15Z</time>
      </trkpt>
      <trkpt lat="51.974710039794445" lon="9.07462103292346">
        <ele>260.17000000000002</ele>
        <time>2017-10-29T18:53:16Z</time>
      </trkpt>
      <trkpt lat="51.974755972623825" lon="9.074488012120128">
        <ele>260.17000000000002</ele>
        <time>2017-10-29T18:53:17Z</time>
      </trkpt>
      <trkpt lat="51.974826967343688" lon="9.074285002425313">
        <ele>259.69</ele>
        <time>2017-10-29T18:53:18Z</time>
      </trkpt>
      <trkpt lat="51.975246984511614" lon="9.07307599671185">
        <ele>258.73000000000002</ele>
        <time>2017-10-29T18:53:23Z</time>
      </trkpt>
      <trkpt lat="51.975330971181393" lon="9.072835016995668">
        <ele>258.25</ele>
        <time>2017-10-29T18:53:24Z</time>
      </trkpt>
      <trkpt lat="51.975423004478216" lon="9.072596970945597">
        <ele>257.76999999999998</ele>
        <time>2017-10-29T18:53:25Z</time>
      </trkpt>
      <trkpt lat="51.976043013855815" lon="9.071519980207086">
        <ele>255.37</ele>
        <time>2017-10-29T18:53:31Z</time>
      </trkpt>
      <trkpt lat="51.976152984425426" lon="9.071376984938979">
        <ele>254.41</ele>
        <time>2017-10-29T18:53:32Z</time>
      </trkpt>
      <trkpt lat="51.977525018155575" lon="9.070092961192131">
        <ele>243.83000000000001</ele>
        <time>2017-10-29T18:53:42Z</time>
      </trkpt>
      <trkpt lat="51.978323981165886" lon="9.069593986496329">
        <ele>234.69999999999999</ele>
        <time>2017-10-29T18:53:48Z</time>
      </trkpt>
      <trkpt lat="51.978443004190922" lon="9.069535983726382">
        <ele>233.74000000000001</ele>
        <time>2017-10-29T18:53:49Z</time>
      </trkpt>
      <trkpt lat="51.978595973923802" lon="9.069535983726382">
        <ele>231.81</ele>
        <time>2017-10-29T18:53:50Z</time>
      </trkpt>
      <trkpt lat="51.978742992505431" lon="9.069535983726382">
        <ele>230.37</ele>
        <time>2017-10-29T18:53:51Z</time>
      </trkpt>
      <trkpt lat="51.978892022743821" lon="9.069535983726382">
        <ele>229.41</ele>
        <time>2017-10-29T18:53:52Z</time>
      </trkpt>
      <trkpt lat="51.979040969163179" lon="9.069545036181808">
        <ele>227.97</ele>
        <time>2017-10-29T18:53:53Z</time>
      </trkpt>
      <trkpt lat="51.979194022715092" lon="9.069580994546413">
        <ele>226.53</ele>
        <time>2017-10-29T18:53:54Z</time>
      </trkpt>
      <trkpt lat="51.98020001873374" lon="9.069819040596485">
        <ele>217.88</ele>
        <time>2017-10-29T18:54:02Z</time>
      </trkpt>
      <trkpt lat="51.98035198263824" lon="9.069857010617852">
        <ele>214.50999999999999</ele>
        <time>2017-10-29T18:54:08Z</time>
      </trkpt>
      <trkpt lat="51.980361035093665" lon="9.069933034479618">
        <ele>213.55000000000001</ele>
        <time>2017-10-29T18:54:10Z</time>
      </trkpt>
      <trkpt lat="51.980368997901678" lon="9.0700030233711">
        <ele>213.55000000000001</ele>
        <time>2017-10-29T18:54:11Z</time>
      </trkpt>
      <trkpt lat="51.980382995679975" lon="9.070121040567756">
        <ele>213.55000000000001</ele>
        <time>2017-10-29T18:54:12Z</time>
      </trkpt>
      <trkpt lat="51.980557003989816" lon="9.071671022102237">
        <ele>215.94999999999999</ele>
        <time>2017-10-29T18:54:18Z</time>
      </trkpt>
      <trkpt lat="51.980934021994472" lon="9.074014015495777">
        <ele>217.88</ele>
        <time>2017-10-29T18:54:27Z</time>
      </trkpt>
      <trkpt lat="51.981108030304313" lon="9.077177010476589">
        <ele>216.91</ele>
        <time>2017-10-29T18:54:36Z</time>
      </trkpt>
      <trkpt lat="51.981175001710653" lon="9.07810396514833">
        <ele>214.03</ele>
        <time>2017-10-29T18:54:39Z</time>
      </trkpt>
      <trkpt lat="51.981359990313649" lon="9.079737011343241">
        <ele>207.30000000000001</ele>
        <time>2017-10-29T18:54:46Z</time>
      </trkpt>
      <trkpt lat="51.981541961431503" lon="9.081264026463032">
        <ele>203.46000000000001</ele>
        <time>2017-10-29T18:54:55Z</time>
      </trkpt>
      <trkpt lat="51.981804985553026" lon="9.083046019077301">
        <ele>197.69</ele>
        <time>2017-10-29T18:55:04Z</time>
      </trkpt>
      <trkpt lat="51.982052000239491" lon="9.084587031975389">
        <ele>194.31999999999999</ele>
        <time>2017-10-29T18:55:12Z</time>
      </trkpt>
      <trkpt lat="51.982100028544664" lon="9.084767997264862">
        <ele>193.84</ele>
        <time>2017-10-29T18:55:13Z</time>
      </trkpt>
      <trkpt lat="51.98215601965785" lon="9.084934964776039">
        <ele>193.84</ele>
        <time>2017-10-29T18:55:14Z</time>
      </trkpt>
      <trkpt lat="51.982239000499249" lon="9.085072008892894">
        <ele>193.84</ele>
        <time>2017-10-29T18:55:15Z</time>
      </trkpt>
      <trkpt lat="51.982324998825788" lon="9.085212992504239">
        <ele>194.31999999999999</ele>
        <time>2017-10-29T18:55:16Z</time>
      </trkpt>
      <trkpt lat="51.982418959960341" lon="9.085330003872514">
        <ele>194.31999999999999</ele>
        <time>2017-10-29T18:55:17Z</time>
      </trkpt>
      <trkpt lat="51.982524991035461" lon="9.085424970835447">
        <ele>194.80000000000001</ele>
        <time>2017-10-29T18:55:18Z</time>
      </trkpt>
      <trkpt lat="51.982635967433453" lon="9.085491020232439">
        <ele>195.28</ele>
        <time>2017-10-29T18:55:19Z</time>
      </trkpt>
      <trkpt lat="51.982753984630108" lon="9.085519015789032">
        <ele>195.28</ele>
        <time>2017-10-29T18:55:20Z</time>
      </trkpt>
      <trkpt lat="51.982870995998383" lon="9.085547011345625">
        <ele>195.77000000000001</ele>
        <time>2017-10-29T18:55:21Z</time>
      </trkpt>
      <trkpt lat="51.983796022832394" lon="9.085540976375341">
        <ele>199.13</ele>
        <time>2017-10-29T18:55:27Z</time>
      </trkpt>
      <trkpt lat="51.984100034460425" lon="9.085522033274174">
        <ele>200.09</ele>
        <time>2017-10-29T18:55:28Z</time>
      </trkpt>
      <trkpt lat="51.984210005030036" lon="9.085625968873501">
        <ele>200.56999999999999</ele>
        <time>2017-10-29T18:55:29Z</time>
      </trkpt>
      <trkpt lat="51.984210005030036" lon="9.085625968873501">
        <ele>201.53</ele>
        <time>2017-10-29T18:55:30Z</time>
      </trkpt>
      <trkpt lat="51.985226981341839" lon="9.086671024560928">
        <ele>205.38</ele>
        <time>2017-10-29T18:55:37Z</time>
      </trkpt>
      <trkpt lat="51.985537027940154" lon="9.087035972625017">
        <ele>204.41999999999999</ele>
        <time>2017-10-29T18:55:39Z</time>
      </trkpt>
      <trkpt lat="51.986705968156457" lon="9.089086018502712">
        <ele>199.61000000000001</ele>
        <time>2017-10-29T18:55:47Z</time>
      </trkpt>
      <trkpt lat="51.987615991383791" lon="9.090014984831214">
        <ele>196.25</ele>
        <time>2017-10-29T18:55:52Z</time>
      </trkpt>
      <trkpt lat="51.987770972773433" lon="9.090212965384126">
        <ele>196.25</ele>
        <time>2017-10-29T18:55:53Z</time>
      </trkpt>
      <trkpt lat="51.987916985526681" lon="9.090416980907321">
        <ele>195.77000000000001</ele>
        <time>2017-10-29T18:55:54Z</time>
      </trkpt>
      <trkpt lat="51.988807981833816" lon="9.092134013772011">
        <ele>190.47999999999999</ele>
        <time>2017-10-29T18:56:01Z</time>
      </trkpt>
      <trkpt lat="51.989056002348661" lon="9.092574985697866">
        <ele>189.03999999999999</ele>
        <time>2017-10-29T18:56:02Z</time>
      </trkpt>
      <trkpt lat="51.98986804112792" lon="9.093856997787952">
        <ele>181.83000000000001</ele>
        <time>2017-10-29T18:56:08Z</time>
      </trkpt>
      <trkpt lat="51.989954961463809" lon="9.094094038009644">
        <ele>180.87</ele>
        <time>2017-10-29T18:56:09Z</time>
      </trkpt>
      <trkpt lat="51.990048000589013" lon="9.094349015504122">
        <ele>179.41999999999999</ele>
        <time>2017-10-29T18:56:10Z</time>
      </trkpt>
      <trkpt lat="51.990802958607674" lon="9.096572985872626">
        <ele>171.72999999999999</ele>
        <time>2017-10-29T18:56:19Z</time>
      </trkpt>
      <trkpt lat="51.990927010774612" lon="9.097089981660247">
        <ele>171.25</ele>
        <time>2017-10-29T18:56:20Z</time>
      </trkpt>
      <trkpt lat="51.990947965532541" lon="9.097367003560066">
        <ele>170.77000000000001</ele>
        <time>2017-10-29T18:56:21Z</time>
      </trkpt>
      <trkpt lat="51.990967998281121" lon="9.097660034894943">
        <ele>170.28999999999999</ele>
        <time>2017-10-29T18:56:22Z</time>
      </trkpt>
      <trkpt lat="51.991030024364591" lon="9.099435992538929">
        <ele>173.66</ele>
        <time>2017-10-29T18:56:29Z</time>
      </trkpt>
      <trkpt lat="51.991060031577945" lon="9.101207004860044">
        <ele>176.06</ele>
        <time>2017-10-29T18:56:38Z</time>
      </trkpt>
      <trkpt lat="51.991022983565927" lon="9.101404985412955">
        <ele>176.06</ele>
        <time>2017-10-29T18:56:39Z</time>
      </trkpt>
      <trkpt lat="51.990627022460103" lon="9.103624010458589">
        <ele>177.5</ele>
        <time>2017-10-29T18:56:50Z</time>
      </trkpt>
      <trkpt lat="51.99062098748982" lon="9.103831965476275">
        <ele>177.97999999999999</ele>
        <time>2017-10-29T18:56:51Z</time>
      </trkpt>
      <trkpt lat="51.990615036338568" lon="9.104050984606147">
        <ele>178.46000000000001</ele>
        <time>2017-10-29T18:56:52Z</time>
      </trkpt>
      <trkpt lat="51.990615958347917" lon="9.1042710095644">
        <ele>178.94</ele>
        <time>2017-10-29T18:56:53Z</time>
      </trkpt>
      <trkpt lat="51.990658035501838" lon="9.104503020644188">
        <ele>178.94</ele>
        <time>2017-10-29T18:56:54Z</time>
      </trkpt>
      <trkpt lat="51.990700028836727" lon="9.104736037552357">
        <ele>179.41999999999999</ele>
        <time>2017-10-29T18:56:55Z</time>
      </trkpt>
      <trkpt lat="51.990757025778294" lon="9.104952961206436">
        <ele>179.41999999999999</ele>
        <time>2017-10-29T18:56:56Z</time>
      </trkpt>
      <trkpt lat="51.99083598330617" lon="9.10515203140676">
        <ele>179.90000000000001</ele>
        <time>2017-10-29T18:56:57Z</time>
      </trkpt>
      <trkpt lat="51.990935979411006" lon="9.105336014181376">
        <ele>180.38</ele>
        <time>2017-10-29T18:56:58Z</time>
      </trkpt>
      <trkpt lat="51.991035975515842" lon="9.10551899112761">
        <ele>180.38</ele>
        <time>2017-10-29T18:56:59Z</time>
      </trkpt>
      <trkpt lat="51.991540985181928" lon="9.106275960803032">
        <ele>184.22999999999999</ele>
        <time>2017-10-29T18:57:05Z</time>
      </trkpt>
      <trkpt lat="51.991698984056711" lon="9.106510989367962">
        <ele>186.63</ele>
        <time>2017-10-29T18:57:11Z</time>
      </trkpt>
      <trkpt lat="51.991707030683756" lon="9.106521969661117">
        <ele>186.63</ele>
        <time>2017-10-29T18:57:12Z</time>
      </trkpt>
      <trkpt lat="51.991733014583588" lon="9.106529010459781">
        <ele>187.11000000000001</ele>
        <time>2017-10-29T18:57:14Z</time>
      </trkpt>
      <trkpt lat="51.991763021796942" lon="9.106448041275144">
        <ele>187.59</ele>
        <time>2017-10-29T18:57:15Z</time>
      </trkpt>
      <trkpt lat="51.99186603538692" lon="9.10616397857666">
        <ele>188.08000000000001</ele>
        <time>2017-10-29T18:57:17Z</time>
      </trkpt>
      <trkpt lat="51.991887995973229" lon="9.106104969978333">
        <ele>188.08000000000001</ele>
        <time>2017-10-29T18:57:18Z</time>
      </trkpt>
      <trkpt lat="51.99195203371346" lon="9.106107987463474">
        <ele>188.08000000000001</ele>
        <time>2017-10-29T18:57:19Z</time>
      </trkpt>
      <trkpt lat="51.991993021219969" lon="9.106130031868815">
        <ele>188.08000000000001</ele>
        <time>2017-10-29T18:57:20Z</time>
      </trkpt>
      <trkpt lat="51.992048006504774" lon="9.10616003908217">
        <ele>188.56</ele>
        <time>2017-10-29T18:57:21Z</time>
      </trkpt>
      <trkpt lat="51.992113972082734" lon="9.106197003275156">
        <ele>188.56</ele>
        <time>2017-10-29T18:57:22Z</time>
      </trkpt>
      <trkpt lat="51.992369033396244" lon="9.10633597522974">
        <ele>189.52000000000001</ele>
        <time>2017-10-29T18:57:25Z</time>
      </trkpt>
      <trkpt lat="51.99292198754847" lon="9.106925977393985">
        <ele>194.80000000000001</ele>
        <time>2017-10-29T18:57:32Z</time>
      </trkpt>
      <trkpt lat="51.992998011410236" lon="9.107019016519189">
        <ele>195.77000000000001</ele>
        <time>2017-10-29T18:57:33Z</time>
      </trkpt>
      <trkpt lat="51.993051990866661" lon="9.107163017615676">
        <ele>196.25</ele>
        <time>2017-10-29T18:57:34Z</time>
      </trkpt>
      <trkpt lat="51.993161039426923" lon="9.107457976788282">
        <ele>196.72999999999999</ele>
        <time>2017-10-29T18:57:35Z</time>
      </trkpt>
      <trkpt lat="51.993205966427922" lon="9.10758001729846">
        <ele>197.69</ele>
        <time>2017-10-29T18:57:36Z</time>
      </trkpt>
      <trkpt lat="51.993202026933432" lon="9.107773974537849">
        <ele>198.16999999999999</ele>
        <time>2017-10-29T18:57:37Z</time>
      </trkpt>
      <trkpt lat="51.993198003619909" lon="9.107933985069394">
        <ele>199.13</ele>
        <time>2017-10-29T18:57:39Z</time>
      </trkpt>
      <trkpt lat="51.993189034983516" lon="9.108318965882063">
        <ele>200.09</ele>
        <time>2017-10-29T18:57:41Z</time>
      </trkpt>
      <trkpt lat="51.993187023326755" lon="9.108408987522125">
        <ele>200.56999999999999</ele>
        <time>2017-10-29T18:57:42Z</time>
      </trkpt>
      <trkpt lat="51.993186017498374" lon="9.108484005555511">
        <ele>201.05000000000001</ele>
        <time>2017-10-29T18:57:43Z</time>
      </trkpt>
      <trkpt lat="51.993256006389856" lon="9.10854603163898">
        <ele>202.00999999999999</ele>
        <time>2017-10-29T18:57:45Z</time>
      </trkpt>
      <trkpt lat="51.993319960311055" lon="9.108565980568528">
        <ele>202.00999999999999</ele>
        <time>2017-10-29T18:57:46Z</time>
      </trkpt>
      <trkpt lat="51.993406964465976" lon="9.108592970296741">
        <ele>202.00999999999999</ele>
        <time>2017-10-29T18:57:47Z</time>
      </trkpt>
      <trkpt lat="51.993518024682999" lon="9.108619038015604">
        <ele>202.00999999999999</ele>
        <time>2017-10-29T18:57:48Z</time>
      </trkpt>
      <trkpt lat="51.994748990982771" lon="9.108784999698401">
        <ele>197.69</ele>
        <time>2017-10-29T18:57:55Z</time>
      </trkpt>
      <trkpt lat="51.995501015335321" lon="9.108888013288379">
        <ele>190.47999999999999</ele>
        <time>2017-10-29T18:58:01Z</time>
      </trkpt>
      <trkpt lat="51.99599202722311" lon="9.10893302410841">
        <ele>186.63</ele>
        <time>2017-10-29T18:58:06Z</time>
      </trkpt>
      <trkpt lat="51.996060004457831" lon="9.108910979703069">
        <ele>186.15000000000001</ele>
        <time>2017-10-29T18:58:07Z</time>
      </trkpt>
      <trkpt lat="51.996108032763004" lon="9.108851971104741">
        <ele>185.66999999999999</ele>
        <time>2017-10-29T18:58:08Z</time>
      </trkpt>
      <trkpt lat="51.996168969199061" lon="9.108777036890388">
        <ele>184.71000000000001</ele>
        <time>2017-10-29T18:58:09Z</time>
      </trkpt>
      <trkpt lat="51.996238958090544" lon="9.108690032735467">
        <ele>183.75</ele>
        <time>2017-10-29T18:58:10Z</time>
      </trkpt>
      <trkpt lat="51.996498964726925" lon="9.108371017500758">
        <ele>181.83000000000001</ele>
        <time>2017-10-29T18:58:13Z</time>
      </trkpt>
      <trkpt lat="51.997178988531232" lon="9.107474992051721">
        <ele>177.02000000000001</ele>
        <time>2017-10-29T18:58:22Z</time>
      </trkpt>
      <trkpt lat="51.997329024598002" lon="9.107285980135202">
        <ele>177.02000000000001</ele>
        <time>2017-10-29T18:58:23Z</time>
      </trkpt>
      <trkpt lat="51.997391972690821" lon="9.107237029820681">
        <ele>176.53999999999999</ele>
        <time>2017-10-29T18:58:24Z</time>
      </trkpt>
      <trkpt lat="51.997467996552587" lon="9.107237029820681">
        <ele>176.53999999999999</ele>
        <time>2017-10-29T18:58:25Z</time>
      </trkpt>
      <trkpt lat="51.997550977393985" lon="9.107237029820681">
        <ele>176.06</ele>
        <time>2017-10-29T18:58:26Z</time>
      </trkpt>
      <trkpt lat="51.997647034004331" lon="9.107237029820681">
        <ele>175.58000000000001</ele>
        <time>2017-10-29T18:58:27Z</time>
      </trkpt>
      <trkpt lat="51.997749963775277" lon="9.107237029820681">
        <ele>175.58000000000001</ele>
        <time>2017-10-29T18:58:28Z</time>
      </trkpt>
      <trkpt lat="51.997863035649061" lon="9.107237029820681">
        <ele>175.58000000000001</ele>
        <time>2017-10-29T18:58:29Z</time>
      </trkpt>
      <trkpt lat="51.998220020905137" lon="9.107259996235371">
        <ele>174.62</ele>
        <time>2017-10-29T18:58:33Z</time>
      </trkpt>
      <trkpt lat="51.998962992802262" lon="9.107380025088787">
        <ele>175.09999999999999</ele>
        <time>2017-10-29T18:58:39Z</time>
      </trkpt>
      <trkpt lat="51.999069023877382" lon="9.107354041188955">
        <ele>175.58000000000001</ele>
        <time>2017-10-29T18:58:40Z</time>
      </trkpt>
      <trkpt lat="51.999192992225289" lon="9.107323028147221">
        <ele>175.58000000000001</ele>
        <time>2017-10-29T18:58:41Z</time>
      </trkpt>
      <trkpt lat="51.999274967238307" lon="9.107248010113835">
        <ele>176.06</ele>
        <time>2017-10-29T18:58:42Z</time>
      </trkpt>
      <trkpt lat="51.999371023848653" lon="9.107161005958915">
        <ele>176.53999999999999</ele>
        <time>2017-10-29T18:58:43Z</time>
      </trkpt>
      <trkpt lat="51.999463979154825" lon="9.107060004025698">
        <ele>177.02000000000001</ele>
        <time>2017-10-29T18:58:44Z</time>
      </trkpt>
      <trkpt lat="51.999546959996223" lon="9.106942992657423">
        <ele>177.5</ele>
        <time>2017-10-29T18:58:45Z</time>
      </trkpt>
      <trkpt lat="51.999630024656653" lon="9.106826987117529">
        <ele>177.97999999999999</ele>
        <time>2017-10-29T18:58:46Z</time>
      </trkpt>
      <trkpt lat="52.000019028782845" lon="9.106392972171307">
        <ele>180.87</ele>
        <time>2017-10-29T18:58:51Z</time>
      </trkpt>
      <trkpt lat="52.001261981204152" lon="9.105619993060827">
        <ele>186.63</ele>
        <time>2017-10-29T18:58:58Z</time>
      </trkpt>
      <trkpt lat="52.002531001344323" lon="9.10489697009325">
        <ele>192.88</ele>
        <time>2017-10-29T18:59:05Z</time>
      </trkpt>
      <trkpt lat="52.003643028438091" lon="9.104403024539352">
        <ele>190</ele>
        <time>2017-10-29T18:59:11Z</time>
      </trkpt>
      <trkpt lat="52.00501699000597" lon="9.103890974074602">
        <ele>192.40000000000001</ele>
        <time>2017-10-29T18:59:18Z</time>
      </trkpt>
      <trkpt lat="52.005181023851037" lon="9.103916035965085">
        <ele>193.36000000000001</ele>
        <time>2017-10-29T18:59:19Z</time>
      </trkpt>
      <trkpt lat="52.005344973877072" lon="9.103941014036536">
        <ele>195.77000000000001</ele>
        <time>2017-10-29T18:59:21Z</time>
      </trkpt>
      <trkpt lat="52.006711978465319" lon="9.104750035330653">
        <ele>205.38</ele>
        <time>2017-10-29T18:59:28Z</time>
      </trkpt>
      <trkpt lat="52.007842026650906" lon="9.10541296005249">
        <ele>215.94999999999999</ele>
        <time>2017-10-29T18:59:35Z</time>
      </trkpt>
      <trkpt lat="52.009308021515608" lon="9.105368033051491">
        <ele>223.63999999999999</ele>
        <time>2017-10-29T18:59:43Z</time>
      </trkpt>
      <trkpt lat="52.01180599629879" lon="9.105081958696246">
        <ele>234.22</ele>
        <time>2017-10-29T18:59:55Z</time>
      </trkpt>
      <trkpt lat="52.013083985075355" lon="9.104778030887246">
        <ele>238.53999999999999</ele>
        <time>2017-10-29T19:00:02Z</time>
      </trkpt>
      <trkpt lat="52.014502035453916" lon="9.104050984606147">
        <ele>241.43000000000001</ele>
        <time>2017-10-29T19:00:09Z</time>
      </trkpt>
      <trkpt lat="52.014644024893641" lon="9.10397102124989">
        <ele>242.38999999999999</ele>
        <time>2017-10-29T19:00:11Z</time>
      </trkpt>
      <trkpt lat="52.014828007668257" lon="9.10375501960516">
        <ele>243.34999999999999</ele>
        <time>2017-10-29T19:00:12Z</time>
      </trkpt>
      <trkpt lat="52.014901014044881" lon="9.103609006851912">
        <ele>244.31</ele>
        <time>2017-10-29T19:00:13Z</time>
      </trkpt>
      <trkpt lat="52.01535296626389" lon="9.102392038330436">
        <ele>250.56</ele>
        <time>2017-10-29T19:00:19Z</time>
      </trkpt>
      <trkpt lat="52.015923019498587" lon="9.100940963253379">
        <ele>255.37</ele>
        <time>2017-10-29T19:00:24Z</time>
      </trkpt>
      <trkpt lat="52.016028966754675" lon="9.100821018218994">
        <ele>256.32999999999998</ele>
        <time>2017-10-29T19:00:25Z</time>
      </trkpt>
      <trkpt lat="52.016127035021782" lon="9.100714987143874">
        <ele>256.81</ele>
        <time>2017-10-29T19:00:26Z</time>
      </trkpt>
      <trkpt lat="52.016228958964348" lon="9.100637035444379">
        <ele>257.76999999999998</ele>
        <time>2017-10-29T19:00:27Z</time>
      </trkpt>
      <trkpt lat="52.016343958675861" lon="9.100601999089122">
        <ele>258.25</ele>
        <time>2017-10-29T19:00:28Z</time>
      </trkpt>
      <trkpt lat="52.016469016671181" lon="9.100613985210657">
        <ele>258.73000000000002</ele>
        <time>2017-10-29T19:00:29Z</time>
      </trkpt>
      <trkpt lat="52.016587033867836" lon="9.100675005465746">
        <ele>259.69</ele>
        <time>2017-10-29T19:00:30Z</time>
      </trkpt>
      <trkpt lat="52.016703961417079" lon="9.100761003792286">
        <ele>260.17000000000002</ele>
        <time>2017-10-29T19:00:31Z</time>
      </trkpt>
      <trkpt lat="52.016828013584018" lon="9.100852031260729">
        <ele>260.64999999999998</ele>
        <time>2017-10-29T19:00:32Z</time>
      </trkpt>
      <trkpt lat="52.016944019123912" lon="9.100997038185597">
        <ele>261.13999999999999</ele>
        <time>2017-10-29T19:00:33Z</time>
      </trkpt>
      <trkpt lat="52.017053989693522" lon="9.101170962676406">
        <ele>261.62</ele>
        <time>2017-10-29T19:00:34Z</time>
      </trkpt>
      <trkpt lat="52.017163960263133" lon="9.101365003734827">
        <ele>262.10000000000002</ele>
        <time>2017-10-29T19:00:35Z</time>
      </trkpt>
      <trkpt lat="52.017263034358621" lon="9.101587040349841">
        <ele>262.57999999999998</ele>
        <time>2017-10-29T19:00:36Z</time>
      </trkpt>
      <trkpt lat="52.018112959340215" lon="9.103488977998495">
        <ele>269.79000000000002</ele>
        <time>2017-10-29T19:00:43Z</time>
      </trkpt>
      <trkpt lat="52.020129980519414" lon="9.107958963140845">
        <ele>286.13</ele>
        <time>2017-10-29T19:00:59Z</time>
      </trkpt>
      <trkpt lat="52.020586039870977" lon="9.10899898968637">
        <ele>289.97000000000003</ele>
        <time>2017-10-29T19:01:03Z</time>
      </trkpt>
      <trkpt lat="52.020703973248601" lon="9.109227983281016">
        <ele>290.45999999999998</ele>
        <time>2017-10-29T19:01:04Z</time>
      </trkpt>
      <trkpt lat="52.020833976566792" lon="9.109422024339438">
        <ele>291.42000000000002</ele>
        <time>2017-10-29T19:01:05Z</time>
      </trkpt>
      <trkpt lat="52.020961968228221" lon="9.109613969922066">
        <ele>291.89999999999998</ele>
        <time>2017-10-29T19:01:06Z</time>
      </trkpt>
      <trkpt lat="52.022280022501945" lon="9.110621977597475">
        <ele>292.86000000000001</ele>
        <time>2017-10-29T19:01:13Z</time>
      </trkpt>
      <trkpt lat="52.023312002420425" lon="9.111251961439848">
        <ele>289.49000000000001</ele>
        <time>2017-10-29T19:01:19Z</time>
      </trkpt>
      <trkpt lat="52.024711025878787" lon="9.112841002643108">
        <ele>281.80000000000001</ele>
        <time>2017-10-29T19:01:27Z</time>
      </trkpt>
      <trkpt lat="52.0260089635849" lon="9.114804966375232">
        <ele>275.06999999999999</ele>
        <time>2017-10-29T19:01:35Z</time>
      </trkpt>
      <trkpt lat="52.02675998210907" lon="9.116327036172152">
        <ele>269.79000000000002</ele>
        <time>2017-10-29T19:01:42Z</time>
      </trkpt>
      <trkpt lat="52.027557017281651" lon="9.11767995916307">
        <ele>266.89999999999998</ele>
        <time>2017-10-29T19:01:50Z</time>
      </trkpt>
      <trkpt lat="52.027652990072966" lon="9.117819014936686">
        <ele>265.94</ele>
        <time>2017-10-29T19:01:52Z</time>
      </trkpt>
      <trkpt lat="52.028338965028524" lon="9.118600962683559">
        <ele>262.10000000000002</ele>
        <time>2017-10-29T19:01:59Z</time>
      </trkpt>
      <trkpt lat="52.02980998903513" lon="9.119828995317221">
        <ele>257.76999999999998</ele>
        <time>2017-10-29T19:02:12Z</time>
      </trkpt>
      <trkpt lat="52.030712971463799" lon="9.120231997221708">
        <ele>257.29000000000002</ele>
        <time>2017-10-29T19:02:19Z</time>
      </trkpt>
      <trkpt lat="52.031265003606677" lon="9.120345991104841">
        <ele>258.25</ele>
        <time>2017-10-29T19:02:25Z</time>
      </trkpt>
      <trkpt lat="52.03161695972085" lon="9.120367029681802">
        <ele>257.76999999999998</ele>
        <time>2017-10-29T19:02:28Z</time>
      </trkpt>
      <trkpt lat="52.031739000231028" lon="9.120334004983306">
        <ele>257.29000000000002</ele>
        <time>2017-10-29T19:02:30Z</time>
      </trkpt>
      <trkpt lat="52.031781999394298" lon="9.120311960577965">
        <ele>257.29000000000002</ele>
        <time>2017-10-29T19:02:31Z</time>
      </trkpt>
      <trkpt lat="52.031804965808988" lon="9.120292011648417">
        <ele>257.29000000000002</ele>
        <time>2017-10-29T19:02:32Z</time>
      </trkpt>
      <trkpt lat="52.031818963587284" lon="9.120281031355262">
        <ele>257.29000000000002</ele>
        <time>2017-10-29T19:02:33Z</time>
      </trkpt>
      <trkpt lat="52.031844025477767" lon="9.120258986949921">
        <ele>257.29000000000002</ele>
        <time>2017-10-29T19:02:38Z</time>
      </trkpt>
      <trkpt lat="52.031884007155895" lon="9.120124038308859">
        <ele>257.29000000000002</ele>
        <time>2017-10-29T19:02:40Z</time>
      </trkpt>
      <trkpt lat="52.031855005770922" lon="9.120058994740248">
        <ele>257.29000000000002</ele>
        <time>2017-10-29T19:02:41Z</time>
      </trkpt>
      <trkpt lat="52.031458038836718" lon="9.11931099370122">
        <ele>257.76999999999998</ele>
        <time>2017-10-29T19:02:47Z</time>
      </trkpt>
      <trkpt lat="52.03125" lon="9.118787962943316">
        <ele>258.25</ele>
        <time>2017-10-29T19:02:50Z</time>
      </trkpt>
      <trkpt lat="52.031006002798676" lon="9.117664033547044">
        <ele>258.73000000000002</ele>
        <time>2017-10-29T19:02:55Z</time>
      </trkpt>
      <trkpt lat="52.030965015292168" lon="9.117470998317003">
        <ele>258.25</ele>
        <time>2017-10-29T19:02:56Z</time>
      </trkpt>
      <trkpt lat="52.030620016157627" lon="9.115769974887371">
        <ele>257.76999999999998</ele>
        <time>2017-10-29T19:03:03Z</time>
      </trkpt>
      <trkpt lat="52.030370989814401" lon="9.113523960113525">
        <ele>262.10000000000002</ele>
        <time>2017-10-29T19:03:10Z</time>
      </trkpt>
      <trkpt lat="52.030457993969321" lon="9.110730020329356">
        <ele>270.26999999999998</ele>
        <time>2017-10-29T19:03:18Z</time>
      </trkpt>
      <trkpt lat="52.030389010906219" lon="9.108771001920104">
        <ele>274.58999999999997</ele>
        <time>2017-10-29T19:03:24Z</time>
      </trkpt>
      <trkpt lat="52.030238974839449" lon="9.107496030628681">
        <ele>276.04000000000002</ele>
        <time>2017-10-29T19:03:29Z</time>
      </trkpt>
      <trkpt lat="52.030319022014737" lon="9.104803008958697">
        <ele>279.88</ele>
        <time>2017-10-29T19:03:36Z</time>
      </trkpt>
      <trkpt lat="52.030346011742949" lon="9.104190962389112">
        <ele>281.80000000000001</ele>
        <time>2017-10-29T19:03:38Z</time>
      </trkpt>
      <trkpt lat="52.030338970944285" lon="9.103908995166421">
        <ele>282.76999999999998</ele>
        <time>2017-10-29T19:03:39Z</time>
      </trkpt>
      <trkpt lat="52.030151970684528" lon="9.101279005408287">
        <ele>291.89999999999998</ele>
        <time>2017-10-29T19:03:48Z</time>
      </trkpt>
      <trkpt lat="52.029999000951648" lon="9.099193001165986">
        <ele>296.22000000000003</ele>
        <time>2017-10-29T19:03:53Z</time>
      </trkpt>
      <trkpt lat="52.029999000951648" lon="9.098918996751308">
        <ele>296.69999999999999</ele>
        <time>2017-10-29T19:03:55Z</time>
      </trkpt>
      <trkpt lat="52.030095979571342" lon="9.098403006792069">
        <ele>296.69999999999999</ele>
        <time>2017-10-29T19:03:57Z</time>
      </trkpt>
      <trkpt lat="52.030802993103862" lon="9.095820039510727">
        <ele>292.38</ele>
        <time>2017-10-29T19:04:05Z</time>
      </trkpt>
      <trkpt lat="52.031608996912837" lon="9.092916967347264">
        <ele>285.17000000000002</ele>
        <time>2017-10-29T19:04:13Z</time>
      </trkpt>
      <trkpt lat="52.031770013272762" lon="9.092312967404723">
        <ele>282.27999999999997</ele>
        <time>2017-10-29T19:04:17Z</time>
      </trkpt>
      <trkpt lat="52.031824998557568" lon="9.092106018215418">
        <ele>279.39999999999998</ele>
        <time>2017-10-29T19:04:23Z</time>
      </trkpt>
      <trkpt lat="52.031824998557568" lon="9.092106018215418">
        <ele>277.95999999999998</ele>
        <time>2017-10-29T19:04:38Z</time>
      </trkpt>
      <trkpt lat="52.03170002438128" lon="9.092579009011388">
        <ele>280.83999999999997</ele>
        <time>2017-10-29T19:04:46Z</time>
      </trkpt>
      <trkpt lat="52.0316799916327" lon="9.092655032873154">
        <ele>281.31999999999999</ele>
        <time>2017-10-29T19:04:47Z</time>
      </trkpt>
      <trkpt lat="52.031664988026023" lon="9.092713035643101">
        <ele>281.80000000000001</ele>
        <time>2017-10-29T19:04:48Z</time>
      </trkpt>
      <trkpt lat="52.031678985804319" lon="9.092839015647769">
        <ele>281.80000000000001</ele>
        <time>2017-10-29T19:04:49Z</time>
      </trkpt>
      <trkpt lat="52.031678985804319" lon="9.092839015647769">
        <ele>282.27999999999997</ele>
        <time>2017-10-29T19:04:50Z</time>
      </trkpt>
      <trkpt lat="52.031760038807988" lon="9.092880003154278">
        <ele>282.76999999999998</ele>
        <time>2017-10-29T19:04:52Z</time>
      </trkpt>
      <trkpt lat="52.032139990478754" lon="9.093072032555938">
        <ele>284.20999999999998</ele>
        <time>2017-10-29T19:04:57Z</time>
      </trkpt>
      <trkpt lat="52.032240992411971" lon="9.093122994527221">
        <ele>284.69</ele>
        <time>2017-10-29T19:04:58Z</time>
      </trkpt>
      <trkpt lat="52.033386966213584" lon="9.093703022226691">
        <ele>288.52999999999997</ele>
        <time>2017-10-29T19:05:06Z</time>
      </trkpt>
      <trkpt lat="52.033788962289691" lon="9.093858003616333">
        <ele>289.00999999999999</ele>
        <time>2017-10-29T19:05:08Z</time>
      </trkpt>
      <trkpt lat="52.033907985314727" lon="9.093867978081107">
        <ele>288.52999999999997</ele>
        <time>2017-10-29T19:05:09Z</time>
      </trkpt>
      <trkpt lat="52.034031031653285" lon="9.093789020553231">
        <ele>288.52999999999997</ele>
        <time>2017-10-29T19:05:10Z</time>
      </trkpt>
      <trkpt lat="52.034158017486334" lon="9.093704028055072">
        <ele>288.52999999999997</ele>
        <time>2017-10-29T19:05:11Z</time>
      </trkpt>
      <trkpt lat="52.034290032461286" lon="9.093616018071771">
        <ele>288.05000000000001</ele>
        <time>2017-10-29T19:05:12Z</time>
      </trkpt>
      <trkpt lat="52.034427998587489" lon="9.093524990603328">
        <ele>287.56999999999999</ele>
        <time>2017-10-29T19:05:13Z</time>
      </trkpt>
      <trkpt lat="52.035614959895611" lon="9.092673975974321">
        <ele>288.05000000000001</ele>
        <time>2017-10-29T19:05:20Z</time>
      </trkpt>
      <trkpt lat="52.036494975909591" lon="9.091991018503904">
        <ele>290.94</ele>
        <time>2017-10-29T19:05:26Z</time>
      </trkpt>
      <trkpt lat="52.037364011630416" lon="9.090696014463902">
        <ele>292.86000000000001</ele>
        <time>2017-10-29T19:05:33Z</time>
      </trkpt>
      <trkpt lat="52.038277974352241" lon="9.089152989909053">
        <ele>288.52999999999997</ele>
        <time>2017-10-29T19:05:40Z</time>
      </trkpt>
      <trkpt lat="52.03870503231883" lon="9.088446982204914">
        <ele>285.17000000000002</ele>
        <time>2017-10-29T19:05:44Z</time>
      </trkpt>
      <trkpt lat="52.038847021758556" lon="9.088074993342161">
        <ele>284.20999999999998</ele>
        <time>2017-10-29T19:05:45Z</time>
      </trkpt>
      <trkpt lat="52.038893038406968" lon="9.087867038324475">
        <ele>283.25</ele>
        <time>2017-10-29T19:05:46Z</time>
      </trkpt>
      <trkpt lat="52.039176011458039" lon="9.08665400929749">
        <ele>279.88</ele>
        <time>2017-10-29T19:05:51Z</time>
      </trkpt>
      <trkpt lat="52.039254968985915" lon="9.08645804040134">
        <ele>279.88</ele>
        <time>2017-10-29T19:05:52Z</time>
      </trkpt>
      <trkpt lat="52.039339961484075" lon="9.086251007393003">
        <ele>279.88</ele>
        <time>2017-10-29T19:05:53Z</time>
      </trkpt>
      <trkpt lat="52.040116963908076" lon="9.084899006411433">
        <ele>282.27999999999997</ele>
        <time>2017-10-29T19:06:00Z</time>
      </trkpt>
      <trkpt lat="52.04128498211503" lon="9.082848038524389">
        <ele>289.00999999999999</ele>
        <time>2017-10-29T19:06:08Z</time>
      </trkpt>
      <trkpt lat="52.041395958513021" lon="9.082646034657955">
        <ele>289.97000000000003</ele>
        <time>2017-10-29T19:06:09Z</time>
      </trkpt>
      <trkpt lat="52.041498972103" lon="9.082458028569818">
        <ele>290.45999999999998</ele>
        <time>2017-10-29T19:06:10Z</time>
      </trkpt>
      <trkpt lat="52.041591005399823" lon="9.082255018875003">
        <ele>290.94</ele>
        <time>2017-10-29T19:06:11Z</time>
      </trkpt>
      <trkpt lat="52.041999958455563" lon="9.080752981826663">
        <ele>291.42000000000002</ele>
        <time>2017-10-29T19:06:17Z</time>
      </trkpt>
      <trkpt lat="52.042069025337696" lon="9.080588025972247">
        <ele>291.42000000000002</ele>
        <time>2017-10-29T19:06:18Z</time>
      </trkpt>
      <trkpt lat="52.04214496538043" lon="9.080449976027012">
        <ele>291.89999999999998</ele>
        <time>2017-10-29T19:06:19Z</time>
      </trkpt>
      <trkpt lat="52.042218977585435" lon="9.08031502738595">
        <ele>292.38</ele>
        <time>2017-10-29T19:06:20Z</time>
      </trkpt>
      <trkpt lat="52.042308999225497" lon="9.080189969390631">
        <ele>292.86000000000001</ele>
        <time>2017-10-29T19:06:21Z</time>
      </trkpt>
      <trkpt lat="52.043233020231128" lon="9.079210963100195">
        <ele>300.06999999999999</ele>
        <time>2017-10-29T19:06:28Z</time>
      </trkpt>
      <trkpt lat="52.043309966102242" lon="9.079097975045443">
        <ele>301.99000000000001</ele>
        <time>2017-10-29T19:06:30Z</time>
      </trkpt>
      <trkpt lat="52.043852023780346" lon="9.077814035117626">
        <ele>308.72000000000003</ele>
        <time>2017-10-29T19:06:37Z</time>
      </trkpt>
      <trkpt lat="52.043931987136602" lon="9.077625023201108">
        <ele>309.68000000000001</ele>
        <time>2017-10-29T19:06:38Z</time>
      </trkpt>
      <trkpt lat="52.04418302513659" lon="9.077346995472908">
        <ele>309.68000000000001</ele>
        <time>2017-10-29T19:06:39Z</time>
      </trkpt>
      <trkpt lat="52.045153984799981" lon="9.076526993885636">
        <ele>311.60000000000002</ele>
        <time>2017-10-29T19:06:46Z</time>
      </trkpt>
      <trkpt lat="52.04532103613019" lon="9.076435966417193">
        <ele>312.08999999999997</ele>
        <time>2017-10-29T19:06:47Z</time>
      </trkpt>
      <trkpt lat="52.046788036823273" lon="9.076066995039582">
        <ele>320.25999999999999</ele>
        <time>2017-10-29T19:06:55Z</time>
      </trkpt>
      <trkpt lat="52.046943018212914" lon="9.076033970341086">
        <ele>321.22000000000003</ele>
        <time>2017-10-29T19:06:56Z</time>
      </trkpt>
      <trkpt lat="52.047218028455973" lon="9.075921988114715">
        <ele>323.13999999999999</ele>
        <time>2017-10-29T19:06:58Z</time>
      </trkpt>
      <trkpt lat="52.047344008460641" lon="9.075818974524736">
        <ele>324.10000000000002</ele>
        <time>2017-10-29T19:06:59Z</time>
      </trkpt>
      <trkpt lat="52.0475999917835" lon="9.075608002021909">
        <ele>325.54000000000002</ele>
        <time>2017-10-29T19:07:01Z</time>
      </trkpt>
      <trkpt lat="52.04772999510169" lon="9.075500965118408">
        <ele>326.01999999999998</ele>
        <time>2017-10-29T19:07:02Z</time>
      </trkpt>
      <trkpt lat="52.047824040055275" lon="9.075365010648966">
        <ele>326.5</ele>
        <time>2017-10-29T19:07:03Z</time>
      </trkpt>
      <trkpt lat="52.047923030331731" lon="9.075222015380859">
        <ele>326.99000000000001</ele>
        <time>2017-10-29T19:07:04Z</time>
      </trkpt>
      <trkpt lat="52.047996036708355" lon="9.075017999857664">
        <ele>327.47000000000003</ele>
        <time>2017-10-29T19:07:05Z</time>
      </trkpt>
      <trkpt lat="52.048063008114696" lon="9.074828987941146">
        <ele>328.43000000000001</ele>
        <time>2017-10-29T19:07:06Z</time>
      </trkpt>
      <trkpt lat="52.048125034198165" lon="9.074656991288066">
        <ele>328.91000000000003</ele>
        <time>2017-10-29T19:07:07Z</time>
      </trkpt>
      <trkpt lat="52.048189993947744" lon="9.074507039040327">
        <ele>329.38999999999999</ele>
        <time>2017-10-29T19:07:08Z</time>
      </trkpt>
      <trkpt lat="52.048251014202833" lon="9.074372006580234">
        <ele>329.87</ele>
        <time>2017-10-29T19:07:09Z</time>
      </trkpt>
      <trkpt lat="52.048303987830877" lon="9.074254995211959">
        <ele>329.87</ele>
        <time>2017-10-29T19:07:10Z</time>
      </trkpt>
      <trkpt lat="52.048440026119351" lon="9.074103031307459">
        <ele>329.87</ele>
        <time>2017-10-29T19:07:11Z</time>
      </trkpt>
      <trkpt lat="52.048440026119351" lon="9.074103031307459">
        <ele>329.87</ele>
        <time>2017-10-29T19:07:12Z</time>
      </trkpt>
      <trkpt lat="52.048762980848551" lon="9.073905972763896">
        <ele>328.43000000000001</ele>
        <time>2017-10-29T19:07:15Z</time>
      </trkpt>
      <trkpt lat="52.048832969740033" lon="9.07382701523602">
        <ele>327.94999999999999</ele>
        <time>2017-10-29T19:07:16Z</time>
      </trkpt>
      <trkpt lat="52.048901030793786" lon="9.073751997202635">
        <ele>327.94999999999999</ele>
        <time>2017-10-29T19:07:17Z</time>
      </trkpt>
      <trkpt lat="52.048942018300295" lon="9.07363498583436">
        <ele>327.47000000000003</ele>
        <time>2017-10-29T19:07:18Z</time>
      </trkpt>
      <trkpt lat="52.048980994150043" lon="9.073501965031028">
        <ele>327.47000000000003</ele>
        <time>2017-10-29T19:07:19Z</time>
      </trkpt>
      <trkpt lat="52.04901996999979" lon="9.073352012783289">
        <ele>327.47000000000003</ele>
        <time>2017-10-29T19:07:20Z</time>
      </trkpt>
      <trkpt lat="52.049033967778087" lon="9.073184039443731">
        <ele>327.47000000000003</ele>
        <time>2017-10-29T19:07:21Z</time>
      </trkpt>
      <trkpt lat="52.049047965556383" lon="9.073007013648748">
        <ele>327.47000000000003</ele>
        <time>2017-10-29T19:07:22Z</time>
      </trkpt>
      <trkpt lat="52.049058023840189" lon="9.072820013388991">
        <ele>327.94999999999999</ele>
        <time>2017-10-29T19:07:24Z</time>
      </trkpt>
      <trkpt lat="52.049007983878255" lon="9.072214001789689">
        <ele>328.43000000000001</ele>
        <time>2017-10-29T19:07:26Z</time>
      </trkpt>
      <trkpt lat="52.048798017203808" lon="9.070235034450889">
        <ele>329.87</ele>
        <time>2017-10-29T19:07:35Z</time>
      </trkpt>
      <trkpt lat="52.04880204051733" lon="9.068178031593561">
        <ele>338.51999999999998</ele>
        <time>2017-10-29T19:07:43Z</time>
      </trkpt>
      <trkpt lat="52.049089958891273" lon="9.06585599295795">
        <ele>349.10000000000002</ele>
        <time>2017-10-29T19:07:52Z</time>
      </trkpt>
      <trkpt lat="52.049805019050837" lon="9.064103001728654">
        <ele>359.19</ele>
        <time>2017-10-29T19:08:00Z</time>
      </trkpt>
      <trkpt lat="52.049919012933969" lon="9.063925975933671">
        <ele>360.14999999999998</ele>
        <time>2017-10-29T19:08:01Z</time>
      </trkpt>
      <trkpt lat="52.050055973231792" lon="9.06377300620079">
        <ele>361.11000000000001</ele>
        <time>2017-10-29T19:08:02Z</time>
      </trkpt>
      <trkpt lat="52.051487015560269" lon="9.062255965545774">
        <ele>368.31999999999999</ele>
        <time>2017-10-29T19:08:12Z</time>
      </trkpt>
      <trkpt lat="52.052215989679098" lon="9.061209987848997">
        <ele>370.24000000000001</ele>
        <time>2017-10-29T19:08:20Z</time>
      </trkpt>
      <trkpt lat="52.05236803740263" lon="9.060816038399935">
        <ele>369.75999999999999</ele>
        <time>2017-10-29T19:08:22Z</time>
      </trkpt>
      <trkpt lat="52.052432997152209" lon="9.060466010123491">
        <ele>368.80000000000001</ele>
        <time>2017-10-29T19:08:24Z</time>
      </trkpt>
      <trkpt lat="52.05262896604836" lon="9.05904402025044">
        <ele>364</ele>
        <time>2017-10-29T19:08:31Z</time>
      </trkpt>
      <trkpt lat="52.053106985986233" lon="9.057592023164034">
        <ele>359.19</ele>
        <time>2017-10-29T19:08:38Z</time>
      </trkpt>
      <trkpt lat="52.053346959874034" lon="9.056951981037855">
        <ele>356.31</ele>
        <time>2017-10-29T19:08:42Z</time>
      </trkpt>
      <trkpt lat="52.053438993170857" lon="9.056813009083271">
        <ele>355.33999999999997</ele>
        <time>2017-10-29T19:08:43Z</time>
      </trkpt>
      <trkpt lat="52.053893962875009" lon="9.056027960032225">
        <ele>351.01999999999998</ele>
        <time>2017-10-29T19:08:48Z</time>
      </trkpt>
      <trkpt lat="52.053966969251633" lon="9.055871972814202">
        <ele>350.06</ele>
        <time>2017-10-29T19:08:49Z</time>
      </trkpt>
      <trkpt lat="52.054035030305386" lon="9.055727971717715">
        <ele>349.10000000000002</ele>
        <time>2017-10-29T19:08:50Z</time>
      </trkpt>
      <trkpt lat="52.054070988669991" lon="9.055569972842932">
        <ele>348.13</ele>
        <time>2017-10-29T19:08:51Z</time>
      </trkpt>
      <trkpt lat="52.054086998105049" lon="9.055408034473658">
        <ele>347.17000000000002</ele>
        <time>2017-10-29T19:08:52Z</time>
      </trkpt>
      <trkpt lat="52.054103007540107" lon="9.055249029770494">
        <ele>346.20999999999998</ele>
        <time>2017-10-29T19:08:53Z</time>
      </trkpt>
      <trkpt lat="52.054119016975164" lon="9.055086001753807">
        <ele>345.73000000000002</ele>
        <time>2017-10-29T19:08:54Z</time>
      </trkpt>
      <trkpt lat="52.054136032238603" lon="9.054912999272347">
        <ele>345.25</ele>
        <time>2017-10-29T19:08:55Z</time>
      </trkpt>
      <trkpt lat="52.054149024188519" lon="9.054724993184209">
        <ele>344.29000000000002</ele>
        <time>2017-10-29T19:08:56Z</time>
      </trkpt>
      <trkpt lat="52.054163021966815" lon="9.054022002965212">
        <ele>340.92000000000002</ele>
        <time>2017-10-29T19:09:01Z</time>
      </trkpt>
      <trkpt lat="52.054136032238603" lon="9.053740035742521">
        <ele>340.44</ele>
        <time>2017-10-29T19:09:02Z</time>
      </trkpt>
      <trkpt lat="52.054124968126416" lon="9.053616989403963">
        <ele>339.95999999999998</ele>
        <time>2017-10-29T19:09:03Z</time>
      </trkpt>
      <trkpt lat="52.054085992276669" lon="9.053517999127507">
        <ele>339</ele>
        <time>2017-10-29T19:09:04Z</time>
      </trkpt>
      <trkpt lat="52.05398197285831" lon="9.053256986662746">
        <ele>337.56</ele>
        <time>2017-10-29T19:09:07Z</time>
      </trkpt>
      <trkpt lat="52.053956994786859" lon="9.053195966407657">
        <ele>337.07999999999998</ele>
        <time>2017-10-29T19:09:08Z</time>
      </trkpt>
      <trkpt lat="52.05393897369504" lon="9.053150033578277">
        <ele>336.12</ele>
        <time>2017-10-29T19:09:09Z</time>
      </trkpt>
      <trkpt lat="52.053913995623589" lon="9.053089013323188">
        <ele>335.16000000000003</ele>
        <time>2017-10-29T19:09:11Z</time>
      </trkpt>
      <trkpt lat="52.053952971473336" lon="9.052970996126533">
        <ele>333.70999999999998</ele>
        <time>2017-10-29T19:09:13Z</time>
      </trkpt>
      <trkpt lat="52.053952971473336" lon="9.052970996126533">
        <ele>333.23000000000002</ele>
        <time>2017-10-29T19:09:14Z</time>
      </trkpt>
      <trkpt lat="52.054065959528089" lon="9.053055988624692">
        <ele>332.75</ele>
        <time>2017-10-29T19:09:16Z</time>
      </trkpt>
      <trkpt lat="52.054166039451957" lon="9.053167970851064">
        <ele>331.79000000000002</ele>
        <time>2017-10-29T19:09:18Z</time>
      </trkpt>
      <trkpt lat="52.054266035556793" lon="9.053335022181273">
        <ele>330.82999999999998</ele>
        <time>2017-10-29T19:09:19Z</time>
      </trkpt>
      <trkpt lat="52.054460998624563" lon="9.053659988567233">
        <ele>327.94999999999999</ele>
        <time>2017-10-29T19:09:23Z</time>
      </trkpt>
      <trkpt lat="52.054526964202523" lon="9.053812036290765">
        <ele>326.99000000000001</ele>
        <time>2017-10-29T19:09:24Z</time>
      </trkpt>
      <trkpt lat="52.054569041356444" lon="9.053981015458703">
        <ele>326.5</ele>
        <time>2017-10-29T19:09:25Z</time>
      </trkpt>
      <trkpt lat="52.054787976667285" lon="9.054823983460665">
        <ele>323.13999999999999</ele>
        <time>2017-10-29T19:09:30Z</time>
      </trkpt>
      <trkpt lat="52.054845979437232" lon="9.054983993992209">
        <ele>322.18000000000001</ele>
        <time>2017-10-29T19:09:31Z</time>
      </trkpt>
      <trkpt lat="52.054908005520701" lon="9.055158002302051">
        <ele>321.69999999999999</ele>
        <time>2017-10-29T19:09:32Z</time>
      </trkpt>
      <trkpt lat="52.055241018533707" lon="9.055740041658282">
        <ele>319.77999999999997</ele>
        <time>2017-10-29T19:09:36Z</time>
      </trkpt>
      <trkpt lat="52.055306984111667" lon="9.055848000571132">
        <ele>319.77999999999997</ele>
        <time>2017-10-29T19:09:37Z</time>
      </trkpt>
      <trkpt lat="52.055387031286955" lon="9.055927963927388">
        <ele>319.30000000000001</ele>
        <time>2017-10-29T19:09:38Z</time>
      </trkpt>
      <trkpt lat="52.055552992969751" lon="9.056060984730721">
        <ele>318.81</ele>
        <time>2017-10-29T19:09:40Z</time>
      </trkpt>
      <trkpt lat="52.055647959932685" lon="9.056125022470951">
        <ele>318.32999999999998</ele>
        <time>2017-10-29T19:09:41Z</time>
      </trkpt>
      <trkpt lat="52.055699005723" lon="9.056227030232549">
        <ele>317.85000000000002</ele>
        <time>2017-10-29T19:09:42Z</time>
      </trkpt>
      <trkpt lat="52.055758014321327" lon="9.056344041600823">
        <ele>317.37</ele>
        <time>2017-10-29T19:09:43Z</time>
      </trkpt>
      <trkpt lat="52.055820962414145" lon="9.056471027433872">
        <ele>316.88999999999999</ele>
        <time>2017-10-29T19:09:44Z</time>
      </trkpt>
      <trkpt lat="52.055878965184093" lon="9.056626008823514">
        <ele>316.41000000000003</ele>
        <time>2017-10-29T19:09:45Z</time>
      </trkpt>
      <trkpt lat="52.056231005117297" lon="9.057806013152003">
        <ele>312.08999999999997</ele>
        <time>2017-10-29T19:09:53Z</time>
      </trkpt>
      <trkpt lat="52.056366037577391" lon="9.058383023366332">
        <ele>308.72000000000003</ele>
        <time>2017-10-29T19:10:01Z</time>
      </trkpt>
      <trkpt lat="52.056377017870545" lon="9.058452006429434">
        <ele>308.72000000000003</ele>
        <time>2017-10-29T19:10:02Z</time>
      </trkpt>
      <trkpt lat="52.0563879981637" lon="9.058520989492536">
        <ele>308.24000000000001</ele>
        <time>2017-10-29T19:10:03Z</time>
      </trkpt>
      <trkpt lat="52.056398978456855" lon="9.058585027232766">
        <ele>307.75999999999999</ele>
        <time>2017-10-29T19:10:04Z</time>
      </trkpt>
      <trkpt lat="52.05640803091228" lon="9.058643030002713">
        <ele>306.80000000000001</ele>
        <time>2017-10-29T19:10:06Z</time>
      </trkpt>
      <trkpt lat="52.056420017033815" lon="9.058731961995363">
        <ele>306.31999999999999</ele>
        <time>2017-10-29T19:10:07Z</time>
      </trkpt>
      <trkpt lat="52.056419011205435" lon="9.058760041370988">
        <ele>305.83999999999997</ele>
        <time>2017-10-29T19:10:08Z</time>
      </trkpt>
      <trkpt lat="52.056419011205435" lon="9.058774961158633">
        <ele>305.36000000000001</ele>
        <time>2017-10-29T19:10:09Z</time>
      </trkpt>
      <trkpt lat="52.056419011205435" lon="9.058774961158633">
        <ele>304.38999999999999</ele>
        <time>2017-10-29T19:10:19Z</time>
      </trkpt>
      <trkpt lat="52.056419011205435" lon="9.058774961158633">
        <ele>304.38999999999999</ele>
        <time>2017-10-29T19:10:35Z</time>
      </trkpt>
      <trkpt lat="52.056419011205435" lon="9.058774961158633">
        <ele>303.91000000000003</ele>
        <time>2017-10-29T19:11:10Z</time>
      </trkpt>
      <trkpt lat="52.056419011205435" lon="9.058774961158633">
        <ele>303.43000000000001</ele>
        <time>2017-10-29T19:11:53Z</time>
      </trkpt>
    </trkseg>
  </trk>

</gpx>